<
# Wetter Temperatur Luftdruck Luftfeuchtigkeit Sichtweite Windgeschwindigkeit Windrichtung Zeit
1 Rain 25 1016 61 10000 5.14 130 14:22 01.02.2023
2 Rain 27 1017 57 10000 3.6 120 13:20 01.02.2023
3 Rain 27 1017 54 10000 4.12 110 12:47 01.02.2023
4 Rain 26 1018 54 10000 4.63 120 11:56 01.02.2023
5 Clouds 23 1019 69 10000 5.66 180 08:43 01.02.2023
6 Drizzle 18 1020 100 8000 2.06 330 00:34 01.02.2023
7 Rain 19 1021 88 10000 4.63 120 21:36 31.01.2023
8 Rain 20 1019 88 10000 5.14 130 19:48 31.01.2023
9 Rain 20 1019 88 10000 4.12 140 18:29 31.01.2023
10 Rain 26 1017 57 10000 4.12 130 15:36 31.01.2023
11 Rain 27 1016 54 10000 5.14 110 15:18 31.01.2023
12 Rain 28 1017 51 10000 4.12 90 13:51 31.01.2023
13 Rain 26 1018 61 10000 3.6 120 11:43 31.01.2023
14 Rain 25 1019 65 10000 3.6 150 10:26 31.01.2023
15 Rain 24 1019 69 10000 3.09 120 09:50 31.01.2023
16 Rain 23 1020 73 10000 3.6 130 08:58 31.01.2023
17 Rain 23 1020 73 10000 3.6 130 08:31 31.01.2023
18 Clouds 18 1020 100 10000 1.03 0 04:52 31.01.2023
19 Clouds 17 1018 100 10000 3.09 70 23:36 30.01.2023
20 Thunderstorm 18 1018 100 10000 3.6 120 22:50 30.01.2023
21 Clouds 18 1019 100 10000 5.14 190 21:48 30.01.2023
22 Rain 18 1016 98 10000 2.53 101 20:44 30.01.2023
23 Rain 19 1019 100 10000 3.09 90 18:55 30.01.2023
24 Thunderstorm 19 1018 100 10000 3.09 100 17:25 30.01.2023
25 Thunderstorm 27 1015 54 10000 2.57 80 14:48 30.01.2023
26 Rain 31 1015 40 10000 1.03 0 13:55 30.01.2023
27 Rain 30 1016 48 10000 3.09 0 12:18 30.01.2023
28 Rain 30 1016 48 10000 3.09 0 12:18 30.01.2023
29 Rain 29 1017 48 10000 3.6 120 10:21 30.01.2023
30 Rain 27 1018 54 10000 4.12 80 09:53 30.01.2023
31 Rain 27 1019 57 9000 1.03 0 08:23 30.01.2023
32 Clouds 17 1018 100 10000 1.54 310 04:32 30.01.2023
33 Clouds 16 1013 34 10000 2.06 290 23:35 29.01.2023
34 Clouds 17 1017 100 10000 3.6 300 22:59 29.01.2023
35 Clouds 17 1017 100 10000 3.09 300 22:31 29.01.2023
36 Clouds 18 1018 100 10000 3.6 310 20:52 29.01.2023
37 Clouds 18 1018 100 10000 3.09 300 20:19 29.01.2023
38 Clouds 20 1018 78 10000 2.57 280 19:32 29.01.2023
39 Clouds 21 1017 78 10000 2.57 260 17:55 29.01.2023
40 Clouds 24 1016 61 10000 3.6 280 16:22 29.01.2023
41 Clouds 24 1015 61 10000 4.63 270 15:51 29.01.2023
42 Clouds 26 1015 57 10000 6.17 290 13:58 29.01.2023
43 Clouds 25 1015 61 10000 5.66 300 12:58 29.01.2023
44 Clouds 26 1015 57 10000 5.66 290 12:36 29.01.2023
45 Clouds 26 1015 57 10000 5.66 290 12:18 29.01.2023
46 Clouds 25 1015 61 10000 6.17 300 11:36 29.01.2023
47 Clouds 25 1016 65 10000 6.69 310 10:38 29.01.2023
48 Drizzle 21 1017 83 10000 4.12 280 08:30 29.01.2023
49 Clouds 16 1015 100 10000 2.06 280 03:43 29.01.2023
50 Clouds 17 1015 100 10000 1.54 280 23:50 28.01.2023
51 Clouds 18 1017 100 10000 2.06 320 20:52 28.01.2023
52 Drizzle 17 1017 100 10000 2.57 300 19:54 28.01.2023
53 Clouds 17 1016 100 10000 4.12 300 18:52 28.01.2023
54 Drizzle 19 1015 100 4500 4.12 310 17:27 28.01.2023
55 Drizzle 19 1015 100 10000 3.6 290 16:40 28.01.2023
56 Drizzle 20 1015 88 10000 6.17 310 16:18 28.01.2023
57 Rain 23 1013 73 10000 6.69 300 15:22 28.01.2023
58 Rain 25 1013 61 10000 3.6 320 13:48 28.01.2023
59 Clouds 25 1014 57 10000 5.66 300 12:21 28.01.2023
60 Clouds 21 1016 78 10000 5.14 310 10:35 28.01.2023
61 Clouds 23 1016 69 10000 5.14 320 09:30 28.01.2023
62 Clouds 17 1015 100 10000 4.63 330 02:27 28.01.2023
63 Drizzle 18 1015 100 10000 3.09 340 00:28 28.01.2023
64 Clouds 18 1016 100 10000 2.57 340 22:46 27.01.2023
65 Clouds 18 1017 100 10000 2.06 340 19:47 27.01.2023
66 Clouds 19 1016 94 10000 3.09 330 17:58 27.01.2023
67 Clouds 19 1015 94 10000 4.63 330 17:20 27.01.2023
68 Clouds 19 1015 94 10000 4.63 330 16:55 27.01.2023
69 Rain 20 1014 88 10000 4.12 340 15:27 27.01.2023
70 Thunderstorm 20 1014 94 10000 6.69 340 14:27 27.01.2023
71 Rain 21 1013 88 10000 5.14 330 13:33 27.01.2023
72 Drizzle 20 1015 100 6000 2.57 360 09:37 27.01.2023
73 Drizzle 19 1015 100 6000 5.66 10 06:51 27.01.2023
74 Drizzle 18 1013 94 10000 5.66 20 00:28 27.01.2023
75 Drizzle 18 1014 100 10000 3.6 30 21:57 26.01.2023
76 Drizzle 18 1014 100 8000 3.09 20 20:55 26.01.2023
77 Drizzle 18 1014 100 10000 2.57 30 19:59 26.01.2023
78 Drizzle 18 1013 100 4000 3.6 20 17:57 26.01.2023
79 Drizzle 18 1012 100 4000 4.63 30 16:42 26.01.2023
80 Drizzle 18 1012 100 8000 5.14 30 16:20 26.01.2023
81 Drizzle 18 1012 100 8000 5.14 30 15:42 26.01.2023
82 Drizzle 18 1011 100 7000 5.14 40 15:24 26.01.2023
83 Drizzle 18 1011 94 10000 4.12 40 13:50 26.01.2023
84 Drizzle 19 1012 94 10000 3.09 20 12:31 26.01.2023
85 Drizzle 19 1013 94 10000 3.6 20 10:36 26.01.2023
86 Drizzle 19 1011 94 7000 4.12 40 09:58 26.01.2023
87 Rain 19 1011 94 7000 4.12 40 09:34 26.01.2023
88 Drizzle 19 1011 88 10000 5.66 30 06:55 26.01.2023
89 Rain 17 1010 94 10000 3.6 20 23:42 25.01.2023
90 Drizzle 16 1011 100 10000 1.03 0 22:51 25.01.2023
91 Drizzle 16 1011 100 10000 1.54 0 21:41 25.01.2023
92 Drizzle 16 1012 100 10000 1.03 0 21:18 25.01.2023
93 Drizzle 16 1012 100 10000 1.03 0 18:30 25.01.2023
94 Drizzle 16 1011 94 10000 1.54 90 16:22 25.01.2023
95 Drizzle 17 1011 88 10000 6.17 350 15:21 25.01.2023
96 Rain 22 1010 78 10000 2.57 10 12:29 25.01.2023
97 Drizzle 19 1011 100 8000 4.12 30 09:53 25.01.2023
98 Drizzle 19 1011 100 8000 3.6 30 09:29 25.01.2023
99 Clouds 21 1011 78 10000 3.6 350 06:52 25.01.2023
100 Clouds 17 1011 100 10000 2.06 340 00:31 25.01.2023
101 Rain 17 1011 100 4000 2.57 320 21:56 24.01.2023
102 Drizzle 18 1012 100 6000 3.09 40 21:28 24.01.2023
103 Rain 18 1013 100 9000 1.03 0 19:38 24.01.2023
104 Drizzle 18 1012 100 8000 4.63 40 18:30 24.01.2023
105 Thunderstorm 18 1012 100 10000 2.57 350 17:18 24.01.2023
106 Thunderstorm 18 1011 100 10000 3.6 350 16:52 24.01.2023
107 Drizzle 19 1010 100 9000 2.06 340 14:49 24.01.2023
108 Clouds 23 1010 78 10000 5.66 30 12:28 24.01.2023
109 Drizzle 19 1012 94 3000 7.2 30 10:30 24.01.2023
110 Clouds 22 1013 73 10000 2.57 20 08:20 24.01.2023
111 Clouds 22 1013 73 10000 3.6 360 07:50 24.01.2023
112 Rain 17 1012 100 10000 2.06 10 02:57 24.01.2023
113 Clouds 17 1011 100 10000 1.54 0 00:41 24.01.2023
114 Clouds 17 1012 100 10000 3.09 30 23:35 23.01.2023
115 Rain 18 1013 100 10000 2.57 20 21:50 23.01.2023
116 Clouds 18 1012 100 10000 2.06 30 19:30 23.01.2023
117 Rain 18 1012 100 10000 2.57 30 17:41 23.01.2023
118 Drizzle 18 1010 100 10000 2.06 330 15:33 23.01.2023
119 Drizzle 20 1010 94 8000 5.66 320 13:58 23.01.2023
120 Drizzle 20 1010 94 8000 5.66 320 13:21 23.01.2023
121 Drizzle 20 1010 88 7000 6.69 350 12:44 23.01.2023
122 Drizzle 18 1011 100 4500 4.12 20 11:34 23.01.2023
123 Drizzle 19 1012 94 4000 4.12 10 08:25 23.01.2023
124 Drizzle 17 1010 100 10000 4.63 10 02:43 23.01.2023
125 Rain 16 1011 100 10000 4.63 360 22:55 22.01.2023
126 Drizzle 16 1012 100 8000 2.06 360 21:19 22.01.2023
127 Drizzle 16 1012 100 8000 4.63 10 20:24 22.01.2023
128 Drizzle 17 1012 100 8000 4.63 20 19:45 22.01.2023
129 Rain 17 1012 100 8000 3.09 20 18:53 22.01.2023
130 Drizzle 17 1011 100 8000 5.66 350 17:57 22.01.2023
131 Drizzle 17 1011 100 6000 5.66 340 17:26 22.01.2023
132 Drizzle 18 1010 100 7000 3.09 10 15:51 22.01.2023
133 Drizzle 18 1009 100 5000 5.66 10 14:54 22.01.2023
134 Drizzle 18 1009 100 4000 5.66 30 13:40 22.01.2023
135 Drizzle 18 1009 100 6000 7.2 30 12:47 22.01.2023
136 Drizzle 18 1010 100 6000 7.2 30 11:35 22.01.2023
137 Drizzle 18 1012 100 8000 4.63 30 09:35 22.01.2023
138 Rain 17 1012 100 10000 5.66 30 06:40 22.01.2023
139 Drizzle 17 1010 100 10000 2.57 50 02:27 22.01.2023
140 Drizzle 17 1011 100 8000 3.6 40 23:32 21.01.2023
141 Drizzle 17 1011 100 10000 3.6 30 22:18 21.01.2023
142 Drizzle 17 1011 100 10000 7.2 30 19:47 21.01.2023
143 Drizzle 18 1011 100 10000 6.17 40 17:40 21.01.2023
144 Drizzle 19 1009 94 8000 7.72 30 14:37 21.01.2023
145 Drizzle 19 1010 94 8000 6.69 30 12:57 21.01.2023
146 Drizzle 19 1010 100 8000 5.66 40 12:35 21.01.2023
147 Drizzle 19 1011 100 8000 5.14 60 11:22 21.01.2023
148 Drizzle 19 1012 100 4000 3.09 100 09:31 21.01.2023
149 Drizzle 17 1011 100 5000 2.57 100 04:37 21.01.2023
150 Drizzle 17 1011 100 8000 3.6 80 22:29 20.01.2023
151 Drizzle 17 1011 100 8000 3.6 80 22:29 20.01.2023
152 Drizzle 18 1012 100 8000 3.6 120 21:38 20.01.2023
153 Drizzle 17 1012 100 8000 2.57 150 20:57 20.01.2023
154 Drizzle 17 1012 100 5000 2.06 140 19:45 20.01.2023
155 Rain 17 1008 95 10000 5.58 134 16:47 20.01.2023
156 Drizzle 19 1010 94 4000 4.63 160 14:47 20.01.2023
157 Drizzle 19 1010 88 3500 5.66 160 13:51 20.01.2023
158 Rain 21 1012 73 10000 8.23 120 10:24 20.01.2023
159 Drizzle 19 1013 88 9000 6.69 130 08:54 20.01.2023
160 Drizzle 18 1013 94 8000 5.14 140 05:56 20.01.2023
161 Rain 18 1011 88 10000 6.17 140 02:30 20.01.2023
162 Drizzle 17 1013 100 10000 3.6 150 22:36 19.01.2023
163 Drizzle 17 1013 100 10000 3.6 150 22:36 19.01.2023
164 Rain 17 1014 100 10000 3.6 150 21:20 19.01.2023
165 Drizzle 17 1015 100 8000 2.57 160 19:29 19.01.2023
166 Drizzle 17 1015 100 10000 4.63 180 16:56 19.01.2023
167 Drizzle 20 1013 78 10000 5.66 170 13:30 19.01.2023
168 Drizzle 18 1016 94 9000 4.63 170 09:37 19.01.2023
169 Clouds 18 1016 77 10000 6.69 150 05:57 19.01.2023
170 Clouds 16 1018 82 10000 6.17 170 22:26 18.01.2023
171 Clouds 16 1020 82 10000 4.63 150 20:20 18.01.2023
172 Clouds 16 1019 82 10000 4.12 150 19:38 18.01.2023
173 Clouds 17 1019 72 10000 6.69 150 18:30 18.01.2023
174 Clouds 22 1018 56 10000 6.69 160 15:56 18.01.2023
175 Clouds 24 1017 50 10000 5.14 160 13:54 18.01.2023
176 Clouds 24 1018 50 10000 6.17 140 11:44 18.01.2023
177 Clouds 21 1020 60 10000 6.69 170 09:27 18.01.2023
178 Clouds 16 1019 88 10000 4.12 140 02:58 18.01.2023
179 Clouds 16 1020 94 10000 3.6 160 00:20 18.01.2023
180 Clouds 17 1022 77 10000 3.6 160 20:56 17.01.2023
181 Clouds 17 1021 82 10000 5.66 140 19:35 17.01.2023
182 Clouds 17 1021 88 10000 5.66 140 18:41 17.01.2023
183 Clouds 18 1021 82 10000 5.66 130 17:31 17.01.2023
184 Rain 21 1019 68 10000 6.17 130 15:20 17.01.2023
185 Rain 20 1019 83 10000 5.66 140 14:24 17.01.2023
186 Rain 23 1014 67 10000 5.19 108 13:27 17.01.2023
187 Rain 25 1020 57 10000 5.14 140 11:44 17.01.2023
188 Clouds 23 1021 64 10000 5.66 120 09:35 17.01.2023
189 Clouds 20 1022 73 10000 5.66 140 08:20 17.01.2023
190 Clouds 17 1022 94 10000 4.63 160 05:52 17.01.2023
191 Clouds 17 1020 88 10000 3.09 150 00:57 17.01.2023
192 Clouds 17 1021 88 10000 4.63 170 23:45 16.01.2023
193 Clouds 17 1021 94 10000 2.57 170 22:19 16.01.2023
194 Clouds 17 1022 88 10000 3.09 150 20:49 16.01.2023
195 Clouds 17 1022 88 10000 3.09 150 19:42 16.01.2023
196 Clouds 18 1022 88 10000 3.09 150 18:55 16.01.2023
197 Clouds 18 1022 88 10000 3.6 140 18:21 16.01.2023
198 Clouds 18 1022 88 10000 3.6 140 18:21 16.01.2023
199 Drizzle 19 1021 88 9000 5.66 120 17:36 16.01.2023
200 Rain 22 1020 64 10000 5.14 110 16:29 16.01.2023
201 Rain 24 1020 61 10000 4.63 140 13:39 16.01.2023
202 Clouds 22 1021 68 10000 5.66 120 11:57 16.01.2023
203 Clouds 25 1021 53 10000 5.14 130 10:21 16.01.2023
204 Clouds 15 1020 100 10000 2.06 140 00:55 16.01.2023
205 Clouds 16 1021 100 10000 2.57 140 22:27 15.01.2023
206 Clouds 17 1022 100 10000 3.09 140 20:47 15.01.2023
207 Rain 17 1021 100 10000 3.09 140 19:59 15.01.2023
208 Rain 17 1021 100 10000 3.6 120 18:19 15.01.2023
209 Rain 19 1019 88 10000 6.17 120 16:22 15.01.2023
210 Rain 23 1019 69 10000 5.14 140 12:51 15.01.2023
211 Drizzle 22 1019 73 10000 6.17 120 11:38 15.01.2023
212 Drizzle 23 1019 69 10000 5.14 110 10:41 15.01.2023
213 Drizzle 20 1020 83 10000 3.6 90 10:21 15.01.2023
214 Clouds 17 1019 94 10000 3.6 140 01:53 15.01.2023
215 Clouds 17 1019 100 10000 2.06 150 23:21 14.01.2023
216 Clouds 18 1020 82 10000 3.09 140 22:26 14.01.2023
217 Clouds 18 1021 82 10000 3.6 120 21:36 14.01.2023
218 Clouds 18 1021 82 10000 3.6 120 21:18 14.01.2023
219 Clouds 18 1021 82 10000 4.63 130 20:39 14.01.2023
220 Clouds 19 1020 83 10000 5.14 120 18:47 14.01.2023
221 Clouds 20 1019 73 10000 3.6 140 17:35 14.01.2023
222 Rain 22 1018 64 10000 5.14 160 15:29 14.01.2023
223 Rain 23 1018 60 10000 4.63 120 14:26 14.01.2023
224 Rain 22 1018 68 10000 4.63 150 13:43 14.01.2023
225 Rain 22 1019 68 10000 4.12 120 11:51 14.01.2023
226 Rain 21 1020 68 10000 5.14 110 10:47 14.01.2023
227 Rain 19 1020 100 10000 5.14 120 08:19 14.01.2023
228 Rain 16 1020 100 10000 2.06 180 23:39 13.01.2023
229 Rain 17 1020 94 10000 2.06 150 22:50 13.01.2023
230 Rain 17 1020 94 10000 2.57 130 22:31 13.01.2023
231 Rain 17 1020 94 10000 3.09 110 21:45 13.01.2023
232 Rain 18 1020 94 10000 5.66 100 19:43 13.01.2023
233 Rain 19 1019 88 10000 3.6 130 18:21 13.01.2023
234 Thunderstorm 20 1018 83 10000 3.6 50 16:35 13.01.2023
235 Rain 27 1016 51 10000 3.6 100 13:24 13.01.2023
236 Rain 27 1017 51 10000 3.09 70 12:20 13.01.2023
237 Rain 24 1018 61 10000 3.09 90 10:26 13.01.2023
238 Rain 24 1018 61 10000 2.57 110 09:46 13.01.2023
239 Rain 24 1019 61 10000 2.57 150 08:56 13.01.2023
240 Clouds 22 1019 73 10000 2.06 70 08:25 13.01.2023
241 Rain 20 1020 88 10000 2.57 40 06:53 13.01.2023
242 Drizzle 18 1020 100 4500 2.57 120 05:23 13.01.2023
243 Rain 18 1018 94 10000 3.6 110 00:21 13.01.2023
244 Rain 18 1018 94 10000 2.57 170 22:43 12.01.2023
245 Thunderstorm 18 1018 100 10000 4.12 120 20:55 12.01.2023
246 Thunderstorm 18 1019 100 10000 1.03 60 19:44 12.01.2023
247 Rain 19 1018 83 10000 4.12 70 17:48 12.01.2023
248 Rain 21 1016 78 10000 5.14 80 16:25 12.01.2023
249 Rain 24 1016 65 10000 3.09 40 14:45 12.01.2023
250 Rain 23 1015 69 10000 2.57 70 14:22 12.01.2023
251 Rain 25 1016 65 10000 4.12 110 12:50 12.01.2023
252 Rain 21 1017 88 8000 4.12 50 10:44 12.01.2023
253 Clouds 21 1019 73 10000 3.09 120 08:37 12.01.2023
254 Rain 17 1019 100 10000 2.06 120 05:26 12.01.2023
255 Rain 17 1017 100 10000 2.06 150 23:59 11.01.2023
256 Rain 17 1017 100 10000 2.06 150 23:41 11.01.2023
257 Rain 17 1017 100 10000 3.6 140 23:21 11.01.2023
258 Rain 16 1018 100 10000 2.06 160 21:46 11.01.2023
259 Thunderstorm 16 1020 100 4000 2.57 170 20:26 11.01.2023
260 Thunderstorm 18 1018 100 10000 1.54 240 18:39 11.01.2023
261 Thunderstorm 18 1018 100 10000 1.54 250 16:49 11.01.2023
262 Thunderstorm 18 1016 100 6000 1.54 80 14:57 11.01.2023
263 Rain 18 1016 100 6000 3.6 20 13:44 11.01.2023
264 Rain 27 1015 54 10000 3.09 0 11:55 11.01.2023
265 Rain 27 1017 54 10000 3.6 240 10:32 11.01.2023
266 Rain 24 1019 65 10000 2.57 240 08:19 11.01.2023
267 Rain 22 1019 78 10000 2.06 270 07:25 11.01.2023
268 Clouds 17 1018 100 10000 1.03 0 00:42 11.01.2023
269 Rain 17 1019 100 10000 0 0 22:46 10.01.2023
270 Thunderstorm 17 1021 100 6000 2.06 70 21:33 10.01.2023
271 Thunderstorm 17 1021 100 7000 1.54 140 20:42 10.01.2023
272 Thunderstorm 17 1021 100 2000 2.57 170 19:39 10.01.2023
273 Thunderstorm 19 1020 88 7000 4.63 180 18:47 10.01.2023
274 Rain 21 1019 73 10000 3.09 10 17:58 10.01.2023
275 Rain 22 1018 73 10000 2.06 340 16:39 10.01.2023
276 Thunderstorm 22 1018 73 10000 4.63 330 15:31 10.01.2023
277 Thunderstorm 24 1017 61 8000 3.6 330 14:31 10.01.2023
278 Thunderstorm 23 1019 64 8000 7.72 300 12:22 10.01.2023
279 Rain 25 1020 61 10000 3.09 40 09:25 10.01.2023
280 Clouds 24 1021 61 10000 3.6 70 08:29 10.01.2023
281 Clouds 21 1021 78 10000 2.57 30 07:27 10.01.2023
282 Clouds 18 1021 100 10000 2.06 90 04:54 10.01.2023
283 Drizzle 17 1021 100 10000 0 0 23:28 09.01.2023
284 Thunderstorm 17 1022 100 10000 1.54 0 21:51 09.01.2023
285 Thunderstorm 17 1022 100 10000 2.57 250 20:44 09.01.2023
286 Rain 18 1022 94 10000 5.66 280 19:22 09.01.2023
287 Rain 21 1020 78 10000 5.14 300 17:54 09.01.2023
288 Rain 22 1020 73 10000 3.09 330 17:24 09.01.2023
289 Rain 23 1019 64 10000 3.09 60 16:32 09.01.2023
290 Rain 25 1018 53 10000 4.12 70 15:26 09.01.2023
291 Rain 27 1018 47 10000 5.14 80 14:44 09.01.2023
292 Clouds 29 1018 42 10000 3.6 110 13:25 09.01.2023
293 Clouds 28 1019 45 10000 3.6 90 12:48 09.01.2023
294 Clouds 28 1020 45 10000 4.12 80 11:21 09.01.2023
295 Clouds 26 1022 54 10000 4.12 80 08:43 09.01.2023
296 Clouds 21 1022 78 10000 2.57 110 06:39 09.01.2023
297 Clouds 18 1020 94 10000 2.57 100 02:54 09.01.2023
298 Clouds 19 1021 88 10000 2.06 80 22:54 08.01.2023
299 Clouds 19 1021 88 10000 4.12 80 21:24 08.01.2023
300 Clouds 20 1021 83 10000 3.09 90 20:57 08.01.2023
301 Clouds 20 1021 83 10000 3.6 80 19:44 08.01.2023
302 Thunderstorm 21 1019 73 10000 2.57 60 17:41 08.01.2023
303 Thunderstorm 22 1019 68 10000 3.6 60 17:19 08.01.2023
304 Clouds 26 1017 54 10000 3.6 70 15:39 08.01.2023
305 Rain 27 1017 47 10000 4.12 110 14:35 08.01.2023
306 Rain 26 1017 54 10000 3.6 70 13:55 08.01.2023
307 Clouds 28 1018 45 10000 2.06 0 13:21 08.01.2023
308 Clouds 26 1019 50 10000 3.6 0 11:49 08.01.2023
309 Clouds 26 1020 50 10000 2.57 0 09:38 08.01.2023
310 Clouds 24 1021 57 10000 4.12 130 08:33 08.01.2023
311 Clouds 18 1021 77 10000 2.06 150 04:26 08.01.2023
312 Clouds 18 1021 82 10000 3.6 150 23:23 07.01.2023
313 Clouds 18 1021 88 10000 3.09 90 22:39 07.01.2023
314 Clouds 19 1021 83 10000 2.57 80 21:59 07.01.2023
315 Clouds 19 1022 83 10000 3.6 120 20:59 07.01.2023
316 Rain 19 1021 83 10000 3.6 90 20:25 07.01.2023
317 Rain 19 1021 83 10000 5.66 100 19:23 07.01.2023
318 Clouds 20 1021 78 10000 4.63 100 18:18 07.01.2023
319 Clouds 20 1021 78 10000 4.63 100 18:18 07.01.2023
320 Clouds 22 1020 60 10000 5.14 100 17:40 07.01.2023
321 Clouds 23 1019 57 10000 4.63 100 16:41 07.01.2023
322 Clouds 24 1019 53 10000 5.14 110 16:20 07.01.2023
323 Clouds 25 1018 50 10000 5.14 110 15:38 07.01.2023
324 Clouds 25 1018 50 10000 5.14 110 15:18 07.01.2023
325 Clouds 26 1018 47 10000 3.09 130 13:58 07.01.2023
326 Clouds 28 1019 42 10000 2.06 90 13:40 07.01.2023
327 Clouds 26 1019 47 10000 2.06 130 12:44 07.01.2023
328 Clouds 27 1020 47 10000 2.57 40 11:59 07.01.2023
329 Clouds 24 1021 57 10000 2.57 40 10:27 07.01.2023
330 Clouds 25 1022 50 10000 1.54 0 08:48 07.01.2023
331 Clouds 23 1022 60 10000 3.6 120 07:58 07.01.2023
332 Clouds 22 1022 64 10000 3.09 110 07:40 07.01.2023
333 Clouds 19 1022 73 10000 2.57 120 05:21 07.01.2023
334 Clouds 17 1022 88 10000 2.06 70 22:57 06.01.2023
335 Clouds 16 1022 88 10000 3.09 90 22:20 06.01.2023
336 Clouds 17 1022 82 10000 4.63 90 21:44 06.01.2023
337 Clouds 18 1023 82 10000 5.14 120 20:32 06.01.2023
338 Clouds 18 1023 82 10000 4.12 100 19:41 06.01.2023
339 Clouds 18 1023 82 10000 5.14 100 19:23 06.01.2023
340 Clouds 18 1023 77 10000 4.12 100 18:54 06.01.2023
341 Clouds 19 1022 77 10000 3.6 90 17:41 06.01.2023
342 Clouds 21 1021 68 10000 5.14 100 16:51 06.01.2023
343 Rain 22 1020 64 10000 5.14 120 16:20 06.01.2023
344 Rain 23 1020 60 10000 5.66 100 15:50 06.01.2023
345 Rain 25 1019 53 10000 5.14 100 15:22 06.01.2023
346 Clouds 26 1020 47 10000 3.6 120 12:55 06.01.2023
347 Clouds 24 1022 57 10000 4.63 140 10:59 06.01.2023
348 Clouds 25 1022 50 10000 3.6 100 09:56 06.01.2023
349 Clouds 22 1022 60 10000 2.57 140 08:30 06.01.2023
350 Clouds 14 1021 100 10000 1.54 160 03:40 06.01.2023
351 Clouds 17 1021 88 10000 3.6 140 22:56 05.01.2023
352 Clouds 17 1021 88 10000 4.63 110 21:55 05.01.2023
353 Rain 18 1022 82 10000 5.14 110 19:49 05.01.2023
354 Clouds 21 1020 64 10000 4.63 110 17:28 05.01.2023
355 Clouds 21 1019 64 10000 4.63 110 16:30 05.01.2023
356 Clouds 22 1018 60 10000 4.63 130 15:48 05.01.2023
357 Clouds 24 1018 44 10000 4.12 100 14:53 05.01.2023
358 Clouds 25 1018 41 10000 3.6 130 12:49 05.01.2023
359 Clouds 25 1019 38 10000 3.6 160 12:27 05.01.2023
360 Clouds 25 1020 41 10000 4.12 80 09:55 05.01.2023
361 Clouds 24 1020 47 10000 4.12 100 08:41 05.01.2023
362 Clouds 21 1021 68 10000 1.54 0 07:20 05.01.2023
363 Clouds 19 1021 77 10000 1.03 0 06:36 05.01.2023
364 Drizzle 15 1021 100 10000 3.09 150 23:26 04.01.2023
365 Rain 16 1022 100 10000 3.09 90 21:33 04.01.2023
366 Rain 17 1022 100 10000 3.6 100 20:55 04.01.2023
367 Thunderstorm 17 1021 100 7000 3.09 90 19:57 04.01.2023
368 Thunderstorm 18 1021 100 7000 3.09 80 19:33 04.01.2023
369 Thunderstorm 19 1020 88 7000 2.57 30 18:37 04.01.2023
370 Rain 21 1018 73 10000 3.09 60 16:32 04.01.2023
371 Rain 21 1018 73 10000 3.09 60 16:32 04.01.2023
372 Rain 21 1018 73 10000 3.6 50 15:48 04.01.2023
373 Thunderstorm 22 1018 73 10000 4.12 70 14:39 04.01.2023
374 Rain 27 1019 44 10000 3.09 50 11:41 04.01.2023
375 Clouds 26 1019 50 10000 2.57 80 11:20 04.01.2023
376 Clouds 26 1019 47 10000 2.06 0 10:43 04.01.2023
377 Clouds 27 1020 44 10000 2.57 0 10:22 04.01.2023
378 Clouds 24 1021 53 10000 3.09 50 08:49 04.01.2023
379 Clouds 17 1021 77 10000 4.12 80 02:53 04.01.2023
380 Clouds 17 1021 88 10000 4.63 110 00:31 04.01.2023
381 Clouds 18 1022 82 10000 4.12 100 23:34 03.01.2023
382 Clouds 18 1022 88 10000 4.12 90 22:41 03.01.2023
383 Clouds 18 1022 88 10000 4.63 100 20:52 03.01.2023
384 Clouds 19 1022 83 10000 5.66 100 19:21 03.01.2023
385 Clouds 22 1020 56 10000 5.14 90 16:55 03.01.2023
386 Clouds 23 1019 53 10000 2.06 70 15:54 03.01.2023
387 Clouds 26 1019 41 10000 2.57 40 13:53 03.01.2023
388 Clouds 25 1019 47 10000 2.06 70 13:29 03.01.2023
389 Clouds 26 1019 47 10000 3.09 30 12:57 03.01.2023
390 Clouds 27 1019 36 10000 1.03 0 12:29 03.01.2023
391 Clouds 25 1021 47 10000 2.06 0 10:32 03.01.2023
392 Clouds 19 1022 77 10000 2.06 80 06:41 03.01.2023
393 Clouds 16 1021 100 10000 3.6 90 04:18 03.01.2023
394 Clouds 16 1021 100 10000 2.57 80 03:42 03.01.2023
395 Clouds 16 1021 100 10000 0.51 120 00:36 03.01.2023
396 Rain 16 1021 100 10000 1.54 0 22:41 02.01.2023
397 Rain 16 1021 100 10000 2.57 130 22:18 02.01.2023
398 Rain 16 1022 100 10000 1.54 70 20:40 02.01.2023
399 Rain 16 1022 100 10000 1.54 0 19:44 02.01.2023
400 Thunderstorm 17 1021 100 8000 3.09 60 17:18 02.01.2023
401 Thunderstorm 17 1018 100 8000 4.63 320 14:52 02.01.2023
402 Rain 21 1018 73 10000 4.12 10 13:23 02.01.2023
403 Rain 27 1018 47 10000 2.57 120 11:40 02.01.2023
404 Rain 27 1020 51 10000 2.06 0 09:49 02.01.2023
405 Rain 22 1021 73 10000 2.57 60 07:33 02.01.2023
406 Thunderstorm 16 1020 100 10000 1.03 0 00:58 02.01.2023
407 Thunderstorm 18 1021 94 10000 2.57 30 21:58 01.01.2023
408 Rain 17 1021 100 10000 2.06 300 21:24 01.01.2023
409 Thunderstorm 17 1021 100 10000 2.06 310 20:46 01.01.2023
410 Thunderstorm 17 1021 100 10000 1.54 0 19:42 01.01.2023
411 Thunderstorm 16 1020 100 8000 2.06 0 17:55 01.01.2023
412 Thunderstorm 16 1019 94 4500 3.09 220 17:20 01.01.2023
413 Thunderstorm 20 1019 68 8000 7.2 170 16:31 01.01.2023
414 Rain 26 1017 50 10000 1.03 0 14:47 01.01.2023
415 Clouds 27 1017 44 10000 2.06 340 13:29 01.01.2023
416 Clouds 27 1018 44 10000 2.06 0 12:33 01.01.2023
417 Clouds 25 1019 50 10000 3.09 0 11:36 01.01.2023
418 Clouds 26 1020 50 10000 2.06 10 10:23 01.01.2023
419 Clouds 25 1021 53 10000 2.06 350 08:48 01.01.2023
420 Clouds 25 1021 50 10000 1.03 0 08:18 01.01.2023
421 Clouds 25 1021 50 10000 1.03 0 08:18 01.01.2023
422 Clouds 23 1021 57 10000 2.06 90 06:54 01.01.2023
423 Clouds 17 1019 94 10000 3.6 100 00:44 01.01.2023
424 Clouds 18 1019 88 10000 2.57 70 23:41 31.12.2022
425 Rain 19 1021 83 10000 4.12 100 22:31 31.12.2022
426 Clouds 19 1022 83 10000 3.6 100 21:25 31.12.2022
427 Clouds 20 1022 78 10000 3.09 90 20:41 31.12.2022
428 Thunderstorm 20 1021 78 10000 5.14 110 19:18 31.12.2022
429 Thunderstorm 21 1021 73 10000 3.6 130 18:39 31.12.2022
430 Thunderstorm 21 1020 68 10000 4.63 120 18:18 31.12.2022
431 Thunderstorm 21 1020 68 10000 4.63 120 17:42 31.12.2022
432 Rain 23 1019 64 10000 2.57 210 16:32 31.12.2022
433 Rain 24 1018 53 10000 3.6 180 15:54 31.12.2022
434 Rain 28 1017 34 10000 2.06 220 14:35 31.12.2022
435 Rain 29 1018 32 10000 2.06 240 13:28 31.12.2022
436 Rain 28 1019 32 10000 2.57 290 12:38 31.12.2022
437 Clouds 28 1019 32 10000 2.57 290 12:18 31.12.2022
438 Clouds 28 1019 34 10000 1.54 0 11:43 31.12.2022
439 Clouds 26 1020 36 10000 1.54 0 10:20 31.12.2022
440 Clouds 26 1020 44 10000 1.03 0 09:50 31.12.2022
441 Clouds 25 1021 44 10000 2.06 40 08:44 31.12.2022
442 Clouds 22 1022 64 10000 1.03 0 06:51 31.12.2022
443 Clouds 17 1021 94 10000 3.6 90 00:34 31.12.2022
444 Clouds 18 1022 82 10000 2.57 150 23:27 30.12.2022
445 Rain 18 1022 88 10000 3.09 90 22:19 30.12.2022
446 Rain 19 1022 88 10000 4.12 110 21:39 30.12.2022
447 Clouds 19 1022 88 10000 4.12 110 21:21 30.12.2022
448 Drizzle 18 1022 100 10000 2.06 310 18:35 30.12.2022
449 Rain 20 1022 78 10000 5.14 200 17:35 30.12.2022
450 Clouds 22 1021 64 10000 2.57 270 16:49 30.12.2022
451 Clouds 26 1019 44 10000 3.09 140 14:55 30.12.2022
452 Clouds 29 1019 35 10000 1.54 0 13:29 30.12.2022
453 Clouds 24 1023 53 10000 2.06 0 08:25 30.12.2022
454 Clouds 15 1022 100 10000 2.06 160 04:24 30.12.2022
455 Clouds 15 1021 100 10000 1.54 70 02:27 30.12.2022
456 Clouds 16 1021 94 10000 3.09 100 23:46 29.12.2022
457 Clouds 16 1022 94 10000 2.57 140 21:56 29.12.2022
458 Clouds 17 1022 88 10000 4.63 100 21:25 29.12.2022
459 Clouds 17 1022 88 10000 4.63 110 20:46 29.12.2022
460 Clouds 18 1022 82 10000 5.14 110 19:21 29.12.2022
461 Clouds 20 1021 73 10000 5.66 110 17:53 29.12.2022
462 Clouds 21 1020 68 10000 6.69 110 17:26 29.12.2022
463 Clouds 22 1020 56 10000 4.12 100 16:54 29.12.2022
464 Clouds 24 1019 50 10000 3.09 100 15:55 29.12.2022
465 Clouds 27 1018 39 10000 3.09 0 13:41 29.12.2022
466 Clouds 27 1019 39 10000 3.09 100 11:54 29.12.2022
467 Clouds 26 1020 39 10000 4.63 110 09:53 29.12.2022
468 Clouds 16 1020 82 10000 3.6 140 03:41 29.12.2022
469 Clouds 15 1020 100 10000 2.06 80 23:29 28.12.2022
470 Clouds 16 1021 100 10000 2.57 100 22:19 28.12.2022
471 Clouds 17 1021 88 10000 3.6 90 21:20 28.12.2022
472 Rain 18 1021 88 10000 3.09 80 19:57 28.12.2022
473 Rain 19 1020 77 10000 4.63 100 18:31 28.12.2022
474 Rain 21 1019 64 10000 3.09 90 16:21 28.12.2022
475 Rain 25 1018 53 10000 5.14 90 13:59 28.12.2022
476 Rain 24 1019 57 10000 5.66 70 12:48 28.12.2022
477 Clouds 23 1020 60 10000 3.09 130 11:33 28.12.2022
478 Clouds 22 1022 60 10000 2.57 120 09:32 28.12.2022
479 Clouds 23 1022 57 10000 2.57 60 07:32 28.12.2022
480 Clouds 21 1022 64 10000 2.57 90 06:45 28.12.2022
481 Clouds 17 1021 82 10000 3.09 70 00:56 28.12.2022
482 Clouds 18 1022 88 10000 3.6 100 21:40 27.12.2022
483 Rain 18 1022 88 10000 3.09 140 19:51 27.12.2022
484 Rain 19 1021 83 10000 4.12 110 18:27 27.12.2022
485 Rain 20 1020 73 10000 5.66 100 16:59 27.12.2022
486 Rain 20 1020 73 10000 5.66 100 16:59 27.12.2022
487 Rain 23 1019 60 10000 5.14 90 15:54 27.12.2022
488 Rain 25 1018 53 10000 5.14 100 14:23 27.12.2022
489 Rain 26 1019 50 10000 3.09 130 12:23 27.12.2022
490 Clouds 25 1021 50 10000 3.6 120 09:47 27.12.2022
491 Clouds 24 1021 47 10000 4.63 90 09:24 27.12.2022
492 Clouds 24 1021 47 10000 4.12 100 08:47 27.12.2022
493 Clouds 18 1022 94 10000 2.57 110 04:54 27.12.2022
494 Rain 16 1022 100 10000 2.06 170 23:29 26.12.2022
495 Clouds 17 1022 88 10000 3.6 180 21:41 26.12.2022
496 Clouds 17 1023 94 10000 4.12 170 20:43 26.12.2022
497 Rain 18 1023 82 10000 5.66 120 19:37 26.12.2022
498 Rain 18 1022 88 10000 4.63 110 18:41 26.12.2022
499 Rain 20 1020 83 10000 4.12 90 16:38 26.12.2022
500 Thunderstorm 20 1019 78 10000 5.66 80 14:49 26.12.2022
501 Rain 24 1018 57 10000 3.09 80 12:53 26.12.2022
502 Rain 23 1021 69 10000 1.54 0 09:27 26.12.2022
503 Rain 16 1018 100 10000 3.6 70 00:25 26.12.2022
504 Rain 16 1019 100 10000 1.54 330 23:38 25.12.2022
505 Thunderstorm 16 1021 100 10000 1.54 10 22:39 25.12.2022
506 Thunderstorm 16 1021 100 10000 0.51 200 21:49 25.12.2022
507 Thunderstorm 17 1021 100 6000 2.57 110 19:23 25.12.2022
508 Thunderstorm 19 1019 83 10000 3.09 150 17:52 25.12.2022
509 Thunderstorm 19 1018 94 10000 2.06 300 17:34 25.12.2022
510 Rain 21 1018 73 10000 1.54 360 15:50 25.12.2022
511 Thunderstorm 21 1017 83 10000 2.57 70 12:59 25.12.2022
512 Rain 26 1019 57 10000 2.06 180 09:31 25.12.2022
513 Clouds 17 1018 100 10000 2.57 110 00:28 25.12.2022
514 Rain 18 1019 100 10000 2.06 60 21:54 24.12.2022
515 Rain 18 1018 100 10000 2.57 80 19:36 24.12.2022
516 Thunderstorm 19 1017 94 10000 2.06 60 16:46 24.12.2022
517 Thunderstorm 23 1016 69 10000 3.09 80 14:54 24.12.2022
518 Rain 24 1016 61 10000 3.09 70 12:43 24.12.2022
519 Rain 26 1017 54 10000 2.06 0 11:26 24.12.2022
520 Rain 23 1018 64 10000 3.09 100 10:22 24.12.2022
521 Rain 22 1018 68 10000 2.06 70 09:36 24.12.2022
522 Clouds 19 1018 83 10000 3.6 70 06:21 24.12.2022
523 Clouds 17 1017 94 10000 3.6 80 02:50 24.12.2022
524 Clouds 18 1017 94 10000 3.09 100 23:37 23.12.2022
525 Clouds 18 1017 100 10000 2.57 110 22:27 23.12.2022
526 Rain 19 1018 94 10000 2.06 90 20:41 23.12.2022
527 Rain 20 1017 78 10000 1.03 0 19:39 23.12.2022
528 Rain 20 1017 78 10000 1.03 0 19:21 23.12.2022
529 Rain 21 1017 73 10000 1.54 0 18:46 23.12.2022
530 Rain 21 1016 73 10000 2.06 330 18:19 23.12.2022
531 Rain 23 1015 64 10000 2.57 320 16:35 23.12.2022
532 Rain 24 1014 65 10000 2.57 320 15:37 23.12.2022
533 Rain 25 1014 50 10000 2.57 340 11:57 23.12.2022
534 Rain 25 1015 50 10000 1.54 0 09:37 23.12.2022
535 Rain 23 1016 60 10000 2.57 70 07:59 23.12.2022
536 Clouds 21 1016 68 10000 1.54 0 06:52 23.12.2022
537 Clouds 19 1016 77 10000 1.54 0 06:23 23.12.2022
538 Clouds 15 1015 100 10000 1.54 0 23:23 22.12.2022
539 Clouds 15 1016 100 10000 1.03 0 22:38 22.12.2022
540 Clouds 16 1016 94 10000 3.6 320 21:20 22.12.2022
541 Clouds 16 1016 94 10000 3.09 300 19:25 22.12.2022
542 Clouds 17 1016 88 10000 4.12 300 18:40 22.12.2022
543 Clouds 18 1015 82 10000 3.6 270 17:23 22.12.2022
544 Clouds 18 1015 82 10000 4.63 270 16:38 22.12.2022
545 Thunderstorm 19 1014 83 10000 5.14 270 15:33 22.12.2022
546 Thunderstorm 20 1013 83 10000 8.23 280 14:51 22.12.2022
547 Thunderstorm 20 1013 83 4000 9.77 310 13:33 22.12.2022
548 Rain 28 1012 45 10000 5.66 280 12:46 22.12.2022
549 Rain 26 1014 50 10000 5.14 290 10:44 22.12.2022
550 Rain 26 1014 54 10000 5.66 280 10:21 22.12.2022
551 Rain 25 1015 57 10000 4.63 280 09:20 22.12.2022
552 Rain 25 1015 57 10000 5.66 310 08:22 22.12.2022
553 Clouds 19 1016 94 10000 4.12 290 05:18 22.12.2022
554 Clouds 17 1016 100 10000 2.57 280 04:18 22.12.2022
555 Clouds 17 1015 100 10000 1.54 310 22:56 21.12.2022
556 Clouds 17 1016 100 10000 2.06 20 21:53 21.12.2022
557 Clouds 17 1017 100 10000 2.06 30 21:21 21.12.2022
558 Clouds 18 1017 100 10000 3.09 50 20:45 21.12.2022
559 Thunderstorm 18 1018 94 10000 3.09 70 19:58 21.12.2022
560 Thunderstorm 18 1017 94 10000 2.57 290 19:39 21.12.2022
561 Thunderstorm 18 1017 94 10000 2.57 290 19:21 21.12.2022
562 Thunderstorm 19 1017 94 10000 2.06 10 18:43 21.12.2022
563 Thunderstorm 18 1016 100 8000 5.14 330 17:34 21.12.2022
564 Rain 25 1013 53 10000 4.63 260 14:24 21.12.2022
565 Rain 25 1015 57 10000 4.12 270 12:30 21.12.2022
566 Rain 24 1016 69 10000 4.63 280 11:21 21.12.2022
567 Rain 24 1016 69 10000 4.63 290 10:50 21.12.2022
568 Rain 22 1017 73 10000 5.14 290 08:50 21.12.2022
569 Rain 21 1017 83 10000 2.57 230 06:35 21.12.2022
570 Rain 17 1015 100 10000 2.06 300 00:28 21.12.2022
571 Rain 18 1016 100 10000 2.57 320 21:58 20.12.2022
572 Rain 18 1016 100 10000 1.54 260 20:58 20.12.2022
573 Thunderstorm 18 1016 100 10000 1.03 0 19:59 20.12.2022
574 Rain 18 1016 100 9000 1.54 0 18:48 20.12.2022
575 Thunderstorm 18 1016 94 10000 2.06 290 18:23 20.12.2022
576 Thunderstorm 18 1015 94 10000 1.54 0 17:50 20.12.2022
577 Thunderstorm 19 1015 88 10000 2.06 290 17:25 20.12.2022
578 Thunderstorm 20 1014 94 10000 2.57 300 15:59 20.12.2022
579 Rain 20 1013 88 10000 2.06 0 14:56 20.12.2022
580 Thunderstorm 19 1013 100 10000 3.09 310 14:36 20.12.2022
581 Rain 23 1008 70 10000 2.43 340 13:26 20.12.2022
582 Thunderstorm 20 1014 94 10000 5.66 290 12:34 20.12.2022
583 Thunderstorm 21 1014 83 10000 3.6 100 11:54 20.12.2022
584 Rain 27 1014 54 10000 2.06 190 10:21 20.12.2022
585 Clouds 24 1017 65 10000 1.54 0 07:25 20.12.2022
586 Clouds 18 1015 100 10000 1.03 260 00:20 20.12.2022
587 Clouds 18 1016 100 10000 1.03 0 22:22 19.12.2022
588 Clouds 19 1017 100 10000 1.54 0 21:22 19.12.2022
589 Rain 19 1017 100 10000 2.06 200 19:41 19.12.2022
590 Thunderstorm 19 1017 94 10000 1.54 220 18:44 19.12.2022
591 Thunderstorm 20 1016 94 10000 0 0 17:38 19.12.2022
592 Rain 19 1014 100 10000 1.54 0 15:52 19.12.2022
593 Rain 23 1014 83 10000 3.09 130 12:35 19.12.2022
594 Rain 20 1015 83 10000 4.63 220 11:36 19.12.2022
595 Rain 25 1017 57 10000 2.06 0 07:49 19.12.2022
596 Clouds 20 1017 83 10000 1.54 0 06:32 19.12.2022
597 Rain 16 1017 100 10000 1.03 0 00:20 19.12.2022
598 Rain 16 1018 100 10000 1.03 0 21:48 18.12.2022
599 Rain 17 1018 100 10000 1.03 0 21:26 18.12.2022
600 Rain 17 1019 100 10000 0.51 0 20:53 18.12.2022
601 Rain 17 1018 100 10000 2.06 210 19:43 18.12.2022
602 Thunderstorm 17 1018 100 10000 1.03 0 18:58 18.12.2022
603 Thunderstorm 18 1018 94 10000 2.57 100 17:52 18.12.2022
604 Thunderstorm 20 1017 83 10000 4.63 210 15:42 18.12.2022
605 Thunderstorm 20 1017 78 10000 4.12 200 15:24 18.12.2022
606 Thunderstorm 22 1016 73 10000 3.6 200 14:55 18.12.2022
607 Rain 23 1015 64 10000 4.12 360 13:28 18.12.2022
608 Thunderstorm 24 1015 61 10000 3.6 350 12:42 18.12.2022
609 Rain 25 1016 57 10000 3.09 30 11:49 18.12.2022
610 Clouds 24 1018 61 10000 2.57 350 09:24 18.12.2022
611 Clouds 24 1018 61 10000 3.09 340 08:46 18.12.2022
612 Clouds 20 1018 83 10000 4.12 50 06:24 18.12.2022
613 Clouds 16 1018 100 10000 1.03 0 04:41 18.12.2022
614 Clouds 15 1016 100 10000 1.03 0 01:49 18.12.2022
615 Clouds 16 1018 100 10000 1.03 0 22:30 17.12.2022
616 Thunderstorm 16 1019 100 10000 2.06 90 20:36 17.12.2022
617 Thunderstorm 16 1018 94 8000 4.63 270 17:20 17.12.2022
618 Rain 23 1014 64 10000 3.09 30 15:19 17.12.2022
619 Thunderstorm 24 1015 57 10000 3.6 350 13:18 17.12.2022
620 Rain 24 1011 65 8158 2.87 359 11:18 17.12.2022
621 Rain 26 1017 54 10000 1.54 0 10:39 17.12.2022
622 Rain 22 1018 64 10000 2.06 0 08:36 17.12.2022
623 Clouds 20 1019 78 10000 2.06 90 06:47 17.12.2022
624 Rain 15 1016 100 10000 1.03 0 00:32 17.12.2022
625 Rain 16 1017 94 10000 2.57 100 22:22 16.12.2022
626 Rain 16 1018 100 10000 3.09 70 20:25 16.12.2022
627 Thunderstorm 16 1017 100 5000 2.57 100 17:47 16.12.2022
628 Thunderstorm 23 1015 64 10000 2.06 320 14:52 16.12.2022
629 Rain 23 1015 64 10000 3.09 70 14:27 16.12.2022
630 Rain 23 1016 60 10000 2.06 80 12:22 16.12.2022
631 Rain 25 1017 57 10000 2.06 0 10:58 16.12.2022
632 Rain 22 1019 64 10000 2.06 0 09:39 16.12.2022
633 Clouds 22 1019 64 10000 3.6 90 08:27 16.12.2022
634 Clouds 21 1019 68 10000 3.09 80 07:54 16.12.2022
635 Clouds 16 1018 100 10000 2.57 90 00:18 16.12.2022
636 Clouds 16 1018 100 10000 3.09 130 22:33 15.12.2022
637 Clouds 16 1018 100 10000 3.09 130 22:33 15.12.2022
638 Thunderstorm 16 1019 100 8000 2.06 70 20:54 15.12.2022
639 Thunderstorm 16 1019 100 8000 1.03 0 19:40 15.12.2022
640 Thunderstorm 16 1019 100 8000 1.54 80 18:34 15.12.2022
641 Thunderstorm 16 1019 100 4500 1.54 130 17:27 15.12.2022
642 Thunderstorm 18 1017 100 6000 5.14 200 15:41 15.12.2022
643 Thunderstorm 21 1016 64 8000 10.8 310 14:37 15.12.2022
644 Rain 27 1016 47 10000 3.09 0 12:47 15.12.2022
645 Rain 26 1017 47 10000 2.57 70 10:40 15.12.2022
646 Rain 24 1019 53 10000 2.06 0 08:55 15.12.2022
647 Clouds 23 1020 57 10000 2.06 0 07:57 15.12.2022
648 Clouds 17 1020 77 10000 3.09 80 05:35 15.12.2022
649 Clouds 16 1020 100 10000 2.06 90 21:45 14.12.2022
650 Drizzle 16 1021 100 10000 2.06 60 21:18 14.12.2022
651 Drizzle 16 1022 100 10000 3.6 80 20:35 14.12.2022
652 Rain 17 1021 94 10000 4.63 110 19:28 14.12.2022
653 Rain 19 1020 77 10000 5.14 110 16:58 14.12.2022
654 Rain 21 1018 64 10000 6.69 110 15:58 14.12.2022
655 Rain 22 1018 60 10000 4.63 110 14:49 14.12.2022
656 Rain 24 1019 50 10000 4.63 110 12:49 14.12.2022
657 Rain 23 1020 57 10000 4.12 80 10:44 14.12.2022
658 Clouds 21 1021 64 10000 4.12 90 09:26 14.12.2022
659 Clouds 15 1020 94 10000 2.06 150 02:47 14.12.2022
660 Rain 16 1022 100 10000 3.09 150 21:51 13.12.2022
661 Clouds 16 1022 100 10000 3.09 150 21:27 13.12.2022
662 Clouds 16 1022 100 10000 3.6 150 20:46 13.12.2022
663 Rain 17 1021 88 10000 4.63 150 18:40 13.12.2022
664 Clouds 19 1020 77 10000 4.63 140 16:22 13.12.2022
665 Clouds 22 1019 64 10000 7.72 110 14:53 13.12.2022
666 Rain 24 1019 57 10000 6.69 110 12:43 13.12.2022
667 Rain 23 1021 60 10000 5.66 80 10:39 13.12.2022
668 Clouds 23 1021 60 10000 3.6 110 09:45 13.12.2022
669 Clouds 22 1022 64 10000 4.12 120 07:51 13.12.2022
670 Clouds 17 1022 88 10000 2.06 150 22:23 12.12.2022
671 Clouds 18 1022 82 10000 5.14 120 21:39 12.12.2022
672 Thunderstorm 18 1022 82 10000 5.66 110 19:32 12.12.2022
673 Thunderstorm 19 1020 77 10000 5.66 100 17:34 12.12.2022
674 Thunderstorm 22 1019 68 10000 5.66 110 15:23 12.12.2022
675 Rain 24 1019 53 10000 5.14 100 12:43 12.12.2022
676 Clouds 23 1021 57 10000 5.66 100 09:20 12.12.2022
677 Clouds 19 1022 77 10000 6.17 100 05:44 12.12.2022
678 Clouds 17 1021 94 10000 3.09 110 03:53 12.12.2022
679 Clouds 17 1021 88 10000 2.06 140 23:20 11.12.2022
680 Rain 17 1022 88 10000 3.6 110 21:29 11.12.2022
681 Rain 18 1022 82 10000 4.63 110 19:54 11.12.2022
682 Rain 18 1021 82 10000 3.6 130 19:36 11.12.2022
683 Rain 19 1021 83 10000 6.69 110 18:22 11.12.2022
684 Rain 21 1020 68 10000 5.66 120 17:32 11.12.2022
685 Rain 22 1019 64 10000 6.69 110 16:52 11.12.2022
686 Clouds 24 1018 53 10000 5.66 90 15:47 11.12.2022
687 Clouds 25 1018 50 10000 5.66 100 14:50 11.12.2022
688 Clouds 27 1018 44 10000 4.63 120 12:45 11.12.2022
689 Clouds 27 1019 47 10000 5.66 110 12:18 11.12.2022
690 Clouds 25 1021 47 10000 4.12 90 08:29 11.12.2022
691 Clouds 15 1019 94 10000 3.09 90 00:34 11.12.2022
692 Clouds 16 1020 88 10000 3.6 120 23:32 10.12.2022
693 Clouds 16 1021 88 10000 4.63 100 22:33 10.12.2022
694 Clouds 16 1021 88 10000 4.63 100 22:33 10.12.2022
695 Clouds 16 1021 88 10000 4.63 100 22:33 10.12.2022
696 Clouds 17 1021 88 10000 4.63 90 21:20 10.12.2022
697 Clouds 17 1021 88 10000 5.66 110 20:39 10.12.2022
698 Clouds 18 1020 82 10000 5.66 110 18:58 10.12.2022
699 Rain 20 1018 68 10000 6.69 110 16:57 10.12.2022
700 Rain 21 1018 64 10000 5.66 100 16:33 10.12.2022
701 Rain 24 1017 53 10000 5.14 110 15:38 10.12.2022
702 Rain 25 1017 47 10000 6.17 100 14:48 10.12.2022
703 Clouds 25 1018 47 10000 4.63 100 12:53 10.12.2022
704 Clouds 24 1019 57 10000 4.63 130 11:37 10.12.2022
705 Clouds 25 1019 53 10000 5.66 110 10:41 10.12.2022
706 Clouds 22 1020 64 10000 4.12 170 09:18 10.12.2022
707 Clouds 20 1021 68 10000 5.14 140 07:20 10.12.2022
708 Clouds 16 1019 88 10000 3.6 140 00:52 10.12.2022
709 Clouds 16 1019 94 10000 3.09 150 23:19 09.12.2022
710 Clouds 17 1020 82 10000 3.6 140 22:38 09.12.2022
711 Clouds 17 1021 82 10000 5.14 130 21:24 09.12.2022
712 Clouds 18 1021 77 10000 4.63 140 20:42 09.12.2022
713 Clouds 18 1021 77 10000 5.14 160 18:52 09.12.2022
714 Clouds 18 1020 82 10000 6.17 130 17:51 09.12.2022
715 Clouds 19 1019 77 10000 5.66 130 16:31 09.12.2022
716 Clouds 23 1019 60 10000 8.23 90 15:34 09.12.2022
717 Clouds 25 1018 50 10000 4.63 110 14:40 09.12.2022
718 Clouds 24 1020 53 10000 4.63 150 11:29 09.12.2022
719 Clouds 25 1021 53 10000 5.14 180 10:32 09.12.2022
720 Clouds 21 1022 68 10000 3.6 180 08:36 09.12.2022
721 Clouds 13 1020 88 10000 1.54 150 03:19 09.12.2022
722 Clouds 13 1020 94 10000 3.09 150 00:18 09.12.2022
723 Clouds 16 1022 82 10000 3.6 120 21:23 08.12.2022
724 Clouds 17 1022 77 10000 5.66 110 20:21 08.12.2022
725 Clouds 20 1020 64 10000 5.66 120 16:52 08.12.2022
726 Clouds 24 1019 50 10000 4.63 110 14:46 08.12.2022
727 Clouds 24 1019 50 10000 4.12 110 14:21 08.12.2022
728 Clouds 23 1020 57 10000 5.14 150 10:56 08.12.2022
729 Clouds 23 1021 60 10000 3.09 150 09:35 08.12.2022
730 Clouds 21 1021 64 10000 5.14 160 08:58 08.12.2022
731 Clouds 16 1021 88 10000 3.09 150 22:44 07.12.2022
732 Clouds 16 1021 88 10000 3.09 150 22:19 07.12.2022
733 Clouds 16 1021 88 10000 3.09 150 22:19 07.12.2022
734 Clouds 16 1021 88 10000 4.12 130 21:47 07.12.2022
735 Clouds 17 1022 82 10000 3.09 150 20:36 07.12.2022
736 Clouds 17 1022 82 10000 4.12 120 18:41 07.12.2022
737 Clouds 23 1019 50 10000 6.69 110 15:53 07.12.2022
738 Clouds 26 1018 41 10000 4.63 130 14:30 07.12.2022
739 Clouds 26 1020 44 10000 4.12 150 11:36 07.12.2022
740 Clouds 25 1020 44 10000 4.63 120 10:36 07.12.2022
741 Clouds 24 1021 47 10000 4.12 120 09:36 07.12.2022
742 Clouds 24 1021 44 10000 4.12 130 08:36 07.12.2022
743 Clouds 18 1021 68 10000 4.12 140 05:27 07.12.2022
744 Clouds 15 1020 88 10000 2.57 120 02:58 07.12.2022
745 Clouds 17 1021 88 10000 5.66 110 22:18 06.12.2022
746 Clouds 18 1021 82 10000 3.6 110 19:38 06.12.2022
747 Clouds 19 1020 73 10000 5.66 110 17:20 06.12.2022
748 Clouds 20 1020 68 10000 6.17 110 16:30 06.12.2022
749 Clouds 22 1019 60 10000 7.2 100 15:37 06.12.2022
750 Clouds 23 1019 57 10000 6.17 110 14:55 06.12.2022
751 Clouds 24 1018 47 10000 4.63 150 14:23 06.12.2022
752 Clouds 26 1019 44 10000 4.12 140 12:42 06.12.2022
753 Clouds 26 1019 44 10000 4.12 120 11:59 06.12.2022
754 Clouds 22 1022 53 10000 4.12 120 07:51 06.12.2022
755 Clouds 22 1022 53 10000 4.12 120 07:51 06.12.2022
756 Clouds 16 1020 82 10000 2.06 140 03:26 06.12.2022
757 Clouds 17 1019 77 10000 3.6 120 23:45 05.12.2022
758 Clouds 17 1021 82 10000 3.09 150 22:22 05.12.2022
759 Clouds 18 1022 77 10000 4.12 90 20:55 05.12.2022
760 Clouds 18 1021 82 10000 4.12 80 20:23 05.12.2022
761 Clouds 18 1021 82 10000 4.63 90 19:37 05.12.2022
762 Rain 20 1019 73 10000 6.17 110 16:55 05.12.2022
763 Rain 23 1018 57 10000 6.17 100 15:31 05.12.2022
764 Rain 25 1017 50 10000 6.69 110 14:52 05.12.2022
765 Clouds 26 1018 47 10000 5.14 80 12:58 05.12.2022
766 Clouds 27 1018 47 10000 5.66 90 12:38 05.12.2022
767 Clouds 27 1018 44 10000 5.14 80 11:43 05.12.2022
768 Clouds 25 1020 50 10000 3.09 110 09:23 05.12.2022
769 Rain 15 1019 100 10000 2.06 150 00:19 05.12.2022
770 Rain 15 1020 100 10000 2.06 150 22:44 04.12.2022
771 Rain 15 1020 100 10000 2.57 180 22:20 04.12.2022
772 Rain 17 1017 92 10000 1.64 90 21:39 04.12.2022
773 Thunderstorm 16 1021 100 8000 3.6 220 20:26 04.12.2022
774 Thunderstorm 16 1020 100 8000 1.54 210 19:24 04.12.2022
775 Thunderstorm 16 1020 100 5000 3.6 250 18:37 04.12.2022
776 Thunderstorm 16 1019 100 3000 5.66 190 17:22 04.12.2022
777 Thunderstorm 17 1018 100 3000 2.57 230 16:37 04.12.2022
778 Thunderstorm 17 1018 100 4000 2.06 200 16:19 04.12.2022
779 Thunderstorm 20 1017 78 10000 5.14 200 15:31 04.12.2022
780 Rain 25 1016 53 10000 4.12 70 14:32 04.12.2022
781 Rain 27 1016 44 10000 3.09 130 12:52 04.12.2022
782 Rain 27 1017 42 10000 3.09 100 12:33 04.12.2022
783 Rain 27 1018 47 10000 2.06 0 11:35 04.12.2022
784 Rain 23 1019 60 10000 4.12 80 09:19 04.12.2022
785 Clouds 17 1018 94 10000 2.57 120 02:52 04.12.2022
786 Clouds 17 1017 100 10000 3.09 120 23:44 03.12.2022
787 Clouds 17 1018 100 10000 1.03 0 22:47 03.12.2022
788 Clouds 17 1019 100 10000 1.54 270 21:53 03.12.2022
789 Rain 17 1020 100 10000 1.54 10 21:19 03.12.2022
790 Thunderstorm 18 1019 82 10000 2.57 110 18:57 03.12.2022
791 Thunderstorm 18 1019 77 10000 2.57 200 18:38 03.12.2022
792 Thunderstorm 19 1017 77 10000 2.57 0 15:53 03.12.2022
793 Thunderstorm 24 1015 61 10000 6.17 70 13:50 03.12.2022
794 Thunderstorm 30 1015 35 10000 3.09 90 12:53 03.12.2022
795 Thunderstorm 30 1015 35 10000 1.54 0 12:21 03.12.2022
796 Clouds 27 1017 42 10000 2.06 0 09:46 03.12.2022
797 Clouds 17 1018 100 10000 1.03 80 04:18 03.12.2022
798 Clouds 18 1017 94 10000 3.09 140 00:23 03.12.2022
799 Clouds 18 1018 94 10000 1.54 60 22:19 02.12.2022
800 Clouds 19 1019 83 10000 3.09 180 20:21 02.12.2022
801 Thunderstorm 20 1017 78 10000 6.17 100 17:39 02.12.2022
802 Clouds 28 1014 34 10000 2.57 270 15:57 02.12.2022
803 Rain 29 1014 37 10000 4.12 310 14:38 02.12.2022
804 Rain 29 1014 37 10000 4.12 310 14:19 02.12.2022
805 Clouds 29 1015 35 10000 3.6 320 12:44 02.12.2022
806 Clouds 28 1016 39 10000 2.06 0 11:30 02.12.2022
807 Rain 25 1018 57 10000 2.57 150 07:54 02.12.2022
808 Rain 24 1019 61 10000 1.54 0 07:22 02.12.2022
809 Rain 17 1017 100 10000 2.57 100 22:54 01.12.2022
810 Rain 18 1018 88 10000 2.06 120 21:44 01.12.2022
811 Rain 18 1018 94 10000 1.54 70 20:56 01.12.2022
812 Thunderstorm 18 1019 88 10000 1.54 0 19:18 01.12.2022
813 Thunderstorm 17 1017 94 8000 4.12 80 17:30 01.12.2022
814 Rain 25 1014 53 10000 4.12 60 14:46 01.12.2022
815 Clouds 28 1016 42 10000 2.57 0 11:21 01.12.2022
816 Clouds 26 1018 47 10000 2.06 0 09:55 01.12.2022
817 Clouds 24 1018 53 10000 2.06 0 09:37 01.12.2022
818 Clouds 21 1019 68 10000 3.09 60 06:59 01.12.2022
819 Clouds 16 1017 100 10000 1.03 0 23:46 30.11.2022
820 Rain 16 1018 100 10000 1.54 140 21:54 30.11.2022
821 Rain 16 1019 100 10000 1.54 190 21:19 30.11.2022
822 Rain 16 1020 100 10000 3.6 300 20:23 30.11.2022
823 Thunderstorm 16 1019 100 8000 1.54 0 19:28 30.11.2022
824 Rain 16 1016 93 10000 1.3 217 18:32 30.11.2022
825 Thunderstorm 17 1018 100 10000 1.54 0 16:53 30.11.2022
826 Rain 18 1015 82 6000 6.17 40 14:46 30.11.2022
827 Thunderstorm 21 1015 64 10000 4.63 40 14:26 30.11.2022
828 Thunderstorm 24 1015 53 10000 6.69 100 12:21 30.11.2022
829 Rain 26 1016 47 10000 1.54 0 09:44 30.11.2022
830 Rain 26 1017 54 10000 2.06 30 08:30 30.11.2022
831 Clouds 22 1017 64 10000 2.06 130 06:42 30.11.2022
832 Clouds 16 1017 100 10000 1.54 40 23:29 29.11.2022
833 Clouds 16 1017 100 10000 1.54 40 23:29 29.11.2022
834 Rain 16 1018 100 10000 1.54 280 22:19 29.11.2022
835 Drizzle 17 1019 100 10000 3.09 270 20:52 29.11.2022
836 Drizzle 17 1019 94 10000 2.57 260 19:54 29.11.2022
837 Rain 16 1018 100 10000 2.57 210 18:41 29.11.2022
838 Rain 17 1017 88 7000 4.12 130 16:47 29.11.2022
839 Thunderstorm 22 1015 56 10000 7.2 340 15:34 29.11.2022
840 Thunderstorm 22 1015 56 10000 9.77 350 14:47 29.11.2022
841 Thunderstorm 28 1014 42 7000 5.66 90 12:38 29.11.2022
842 Clouds 29 1015 37 10000 1.54 0 11:31 29.11.2022
843 Clouds 28 1015 39 10000 3.6 200 10:27 29.11.2022
844 Clouds 28 1016 42 10000 3.6 180 09:26 29.11.2022
845 Clouds 25 1017 50 10000 2.57 180 07:19 29.11.2022
846 Clouds 17 1015 82 10000 1.03 0 00:28 29.11.2022
847 Clouds 17 1016 82 10000 1.03 0 23:25 28.11.2022
848 Clouds 18 1018 77 10000 0 0 21:57 28.11.2022
849 Clouds 19 1018 73 10000 2.06 110 21:39 28.11.2022
850 Clouds 19 1018 68 10000 2.06 130 20:24 28.11.2022
851 Thunderstorm 21 1017 60 10000 3.6 200 19:25 28.11.2022
852 Thunderstorm 21 1016 56 10000 5.66 100 18:28 28.11.2022
853 Rain 22 1016 53 10000 6.17 90 17:23 28.11.2022
854 Clouds 27 1014 34 10000 1.54 210 14:57 28.11.2022
855 Clouds 30 1014 29 10000 2.06 0 13:54 28.11.2022
856 Clouds 29 1014 30 10000 1.54 0 12:59 28.11.2022
857 Clouds 28 1015 32 10000 3.09 0 11:31 28.11.2022
858 Clouds 24 1017 41 10000 1.54 0 07:55 28.11.2022
859 Clouds 14 1017 100 8000 0.51 0 04:55 28.11.2022
860 Clouds 13 1017 100 8000 1.03 80 04:36 28.11.2022
861 Clouds 12 1016 100 8000 1.54 60 03:21 28.11.2022
862 Clouds 14 1017 94 10000 1.54 70 23:44 27.11.2022
863 Clouds 15 1018 88 10000 2.57 130 21:54 27.11.2022
864 Clouds 16 1018 82 10000 4.12 100 20:42 27.11.2022
865 Clouds 19 1017 64 10000 5.66 100 18:25 27.11.2022
866 Clouds 25 1016 41 10000 4.63 120 15:40 27.11.2022
867 Clouds 27 1016 36 10000 3.09 110 13:37 27.11.2022
868 Clouds 26 1017 36 10000 3.6 0 11:31 27.11.2022
869 Clouds 24 1019 41 10000 3.6 130 08:57 27.11.2022
870 Clouds 17 1020 68 10000 2.57 110 05:20 27.11.2022
871 Clouds 15 1020 82 10000 3.6 100 22:39 26.11.2022
872 Clouds 15 1021 88 10000 3.09 90 20:56 26.11.2022
873 Clouds 17 1021 77 10000 5.14 100 19:37 26.11.2022
874 Clouds 18 1021 68 10000 4.63 100 18:26 26.11.2022
875 Clouds 21 1019 53 10000 5.14 110 16:25 26.11.2022
876 Clouds 25 1019 38 10000 3.6 120 13:51 26.11.2022
877 Clouds 26 1019 39 10000 4.12 100 12:23 26.11.2022
878 Clouds 26 1021 39 10000 5.66 130 10:51 26.11.2022
879 Clouds 25 1021 41 10000 5.66 110 09:31 26.11.2022
880 Clouds 20 1023 56 10000 4.63 150 06:41 26.11.2022
881 Clouds 16 1024 82 10000 4.63 110 21:47 25.11.2022
882 Clouds 16 1024 82 10000 4.63 110 21:46 25.11.2022
883 Clouds 16 1024 88 10000 4.63 110 21:27 25.11.2022
884 Clouds 16 1024 82 10000 4.12 130 19:57 25.11.2022
885 Clouds 20 1022 60 10000 6.69 110 16:50 25.11.2022
886 Clouds 25 1021 41 10000 5.66 80 14:37 25.11.2022
887 Clouds 24 1024 47 10000 5.66 110 09:24 25.11.2022
888 Clouds 22 1024 53 10000 4.63 130 08:41 25.11.2022
889 Clouds 18 1024 68 10000 3.6 140 06:55 25.11.2022
890 Clouds 18 1024 72 10000 3.6 130 06:24 25.11.2022
891 Clouds 13 1023 100 10000 3.09 100 23:55 24.11.2022
892 Clouds 14 1024 88 10000 3.09 90 22:51 24.11.2022
893 Clouds 15 1024 88 10000 3.6 90 21:58 24.11.2022
894 Clouds 16 1024 82 10000 4.63 110 20:30 24.11.2022
895 Clouds 17 1023 82 10000 4.12 140 18:30 24.11.2022
896 Clouds 18 1023 77 10000 6.17 130 17:40 24.11.2022
897 Clouds 19 1022 73 10000 6.17 110 17:20 24.11.2022
898 Clouds 22 1021 49 10000 6.69 120 15:18 24.11.2022
899 Clouds 22 1021 49 10000 6.69 120 15:18 24.11.2022
900 Clouds 25 1020 44 10000 6.69 100 13:49 24.11.2022
901 Clouds 25 1022 44 10000 7.2 80 11:55 24.11.2022
902 Clouds 24 1023 50 10000 5.66 90 10:36 24.11.2022
903 Clouds 21 1024 60 10000 5.14 100 07:53 24.11.2022
904 Clouds 15 1022 88 10000 2.57 160 03:22 24.11.2022
905 Clouds 16 1022 88 10000 3.09 70 23:45 23.11.2022
906 Clouds 17 1023 82 10000 2.57 160 21:56 23.11.2022
907 Clouds 17 1023 82 10000 3.09 140 21:23 23.11.2022
908 Rain 18 1023 82 10000 3.6 130 19:59 23.11.2022
909 Thunderstorm 17 1023 82 10000 0 0 18:58 23.11.2022
910 Rain 17 1022 82 10000 1.03 0 18:35 23.11.2022
911 Thunderstorm 20 1021 68 10000 3.09 190 16:33 23.11.2022
912 Rain 22 1020 56 10000 5.14 80 13:39 23.11.2022
913 Rain 22 1020 56 10000 5.14 80 13:19 23.11.2022
914 Rain 26 1020 47 10000 6.17 90 11:59 23.11.2022
915 Rain 26 1020 47 10000 6.17 90 11:40 23.11.2022
916 Rain 26 1021 50 10000 4.63 70 10:42 23.11.2022
917 Rain 27 1021 44 10000 4.63 60 09:42 23.11.2022
918 Rain 26 1022 50 10000 3.6 60 09:23 23.11.2022
919 Rain 24 1022 53 10000 3.6 130 08:36 23.11.2022
920 Clouds 18 1022 82 10000 2.06 90 05:22 23.11.2022
921 Clouds 15 1022 100 10000 2.06 140 04:22 23.11.2022
922 Clouds 15 1021 100 10000 2.06 10 22:59 22.11.2022
923 Rain 16 1021 94 10000 2.06 40 22:18 22.11.2022
924 Rain 17 1021 94 10000 4.63 50 21:33 22.11.2022
925 Rain 17 1022 94 10000 5.66 40 20:45 22.11.2022
926 Thunderstorm 17 1022 88 10000 3.09 60 19:52 22.11.2022
927 Thunderstorm 18 1021 94 10000 5.14 100 17:55 22.11.2022
928 Thunderstorm 20 1019 73 10000 3.6 180 16:48 22.11.2022
929 Rain 24 1017 53 10000 2.57 20 15:24 22.11.2022
930 Rain 24 1017 53 10000 4.12 40 13:24 22.11.2022
931 Rain 25 1018 50 10000 3.6 100 10:25 22.11.2022
932 Clouds 23 1019 60 10000 4.63 120 08:59 22.11.2022
933 Clouds 19 1019 73 10000 4.12 80 06:46 22.11.2022
934 Clouds 17 1016 82 10000 2.06 150 01:38 22.11.2022
935 Clouds 18 1017 77 10000 2.06 140 23:33 21.11.2022
936 Clouds 16 1014 93 10000 1.82 108 22:31 21.11.2022
937 Clouds 19 1017 77 10000 3.09 130 21:58 21.11.2022
938 Clouds 21 1017 68 10000 3.09 260 20:35 21.11.2022
939 Rain 21 1017 68 10000 3.6 270 19:41 21.11.2022
940 Rain 21 1017 64 10000 3.09 250 18:53 21.11.2022
941 Rain 21 1016 64 10000 3.6 300 17:46 21.11.2022
942 Rain 23 1015 53 10000 3.09 270 16:51 21.11.2022
943 Rain 24 1015 47 10000 3.6 260 16:33 21.11.2022
944 Clouds 26 1014 41 10000 6.69 290 15:24 21.11.2022
945 Clouds 27 1014 39 10000 4.12 250 13:55 21.11.2022
946 Clouds 27 1014 36 10000 6.69 260 13:34 21.11.2022
947 Clouds 28 1016 28 10000 5.66 280 10:20 21.11.2022
948 Clouds 25 1018 41 10000 5.14 280 08:21 21.11.2022
949 Clouds 21 1018 64 10000 4.12 280 05:41 21.11.2022
950 Rain 18 1017 88 10000 4.12 300 22:19 20.11.2022
951 Rain 18 1018 88 10000 3.09 310 20:55 20.11.2022
952 Thunderstorm 18 1018 82 10000 3.09 300 20:22 20.11.2022
953 Thunderstorm 21 1017 73 10000 5.66 320 17:49 20.11.2022
954 Thunderstorm 22 1016 68 10000 7.2 40 15:52 20.11.2022
955 Thunderstorm 23 1016 64 10000 5.14 30 15:24 20.11.2022
956 Thunderstorm 29 1015 39 10000 6.17 280 14:25 20.11.2022
957 Rain 28 1015 39 10000 6.69 260 13:32 20.11.2022
958 Rain 28 1016 45 10000 5.14 270 12:25 20.11.2022
959 Rain 26 1017 54 10000 4.63 290 10:58 20.11.2022
960 Rain 26 1018 50 10000 3.6 280 09:47 20.11.2022
961 Rain 25 1019 61 10000 2.57 0 08:55 20.11.2022
962 Rain 25 1019 61 10000 2.57 0 08:55 20.11.2022
963 Rain 25 1019 57 10000 2.06 0 08:32 20.11.2022
964 Rain 25 1019 57 10000 2.06 0 08:32 20.11.2022
965 Rain 22 1020 73 10000 1.54 310 07:27 20.11.2022
966 Clouds 18 1018 100 10000 2.06 290 01:30 20.11.2022
967 Clouds 18 1018 94 10000 2.06 290 00:57 20.11.2022
968 Clouds 18 1018 94 10000 1.54 240 00:38 20.11.2022
969 Clouds 18 1018 94 10000 1.54 240 00:19 20.11.2022
970 Clouds 18 1018 94 10000 1.03 0 23:34 19.11.2022
971 Clouds 19 1018 88 10000 2.06 60 22:49 19.11.2022
972 Clouds 19 1019 88 10000 2.57 360 22:18 19.11.2022
973 Clouds 19 1019 94 10000 1.54 50 21:27 19.11.2022
974 Thunderstorm 19 1020 94 10000 0 0 20:41 19.11.2022
975 Thunderstorm 19 1020 83 10000 1.03 0 19:51 19.11.2022
976 Thunderstorm 20 1020 83 10000 1.54 0 18:54 19.11.2022
977 Thunderstorm 19 1019 88 10000 3.09 280 17:39 19.11.2022
978 Thunderstorm 19 1019 88 10000 3.09 280 17:18 19.11.2022
979 Thunderstorm 22 1017 60 10000 10.29 330 14:58 19.11.2022
980 Rain 26 1017 47 10000 4.63 50 13:34 19.11.2022
981 Clouds 29 1018 37 10000 2.06 210 11:54 19.11.2022
982 Clouds 27 1020 51 10000 2.06 0 09:45 19.11.2022
983 Clouds 24 1021 61 10000 1.54 0 07:53 19.11.2022
984 Clouds 17 1019 100 10000 1.54 70 04:45 19.11.2022
985 Clouds 16 1019 100 10000 1.54 50 00:50 19.11.2022
986 Clouds 16 1019 100 10000 1.03 220 23:34 18.11.2022
987 Clouds 16 1019 100 10000 1.03 220 23:34 18.11.2022
988 Clouds 16 1019 100 10000 1.03 220 23:34 18.11.2022
989 Clouds 16 1019 100 10000 1.03 220 23:34 18.11.2022
990 Rain 17 1020 100 10000 0 0 22:24 18.11.2022
991 Rain 18 1021 94 10000 1.54 300 21:35 18.11.2022
992 Rain 18 1021 88 10000 2.06 290 20:57 18.11.2022
993 Thunderstorm 18 1021 88 10000 1.03 360 20:25 18.11.2022
994 Thunderstorm 19 1020 77 10000 1.03 0 19:36 18.11.2022
995 Thunderstorm 19 1020 77 10000 3.09 320 17:45 18.11.2022
996 Thunderstorm 20 1019 73 10000 3.6 310 16:27 18.11.2022
997 Rain 28 1017 39 10000 2.57 240 11:57 18.11.2022
998 Rain 26 1019 41 10000 2.06 0 10:25 18.11.2022
999 Clouds 23 1020 53 10000 1.54 0 07:52 18.11.2022
1000 Clouds 18 1020 82 10000 2.06 200 05:27 18.11.2022
1001 Clouds 14 1018 100 10000 2.06 80 02:49 18.11.2022
1002 Clouds 15 1018 88 10000 3.6 40 23:38 17.11.2022
1003 Rain 15 1019 94 10000 3.09 300 20:48 17.11.2022
1004 Thunderstorm 14 1019 100 10000 1.03 0 19:54 17.11.2022
1005 Thunderstorm 14 1019 100 10000 1.03 0 19:54 17.11.2022
1006 Thunderstorm 14 1019 100 10000 1.54 0 19:25 17.11.2022
1007 Thunderstorm 14 1020 100 10000 3.6 240 18:27 17.11.2022
1008 Thunderstorm 14 1020 100 10000 8.75 210 17:30 17.11.2022
1009 Thunderstorm 18 1018 88 10000 1.03 0 15:45 17.11.2022
1010 Thunderstorm 17 1017 94 8000 4.12 350 12:19 17.11.2022
1011 Rain 27 1017 44 10000 2.57 0 10:35 17.11.2022
1012 Clouds 23 1019 60 10000 1.54 0 07:35 17.11.2022
1013 Rain 16 1018 100 10000 2.06 60 00:54 17.11.2022
1014 Rain 16 1018 100 10000 1.03 0 23:21 16.11.2022
1015 Rain 16 1019 100 10000 2.06 90 21:54 16.11.2022
1016 Rain 16 1019 100 10000 2.06 80 20:31 16.11.2022
1017 Rain 16 1019 100 10000 2.57 160 18:49 16.11.2022
1018 Thunderstorm 17 1019 100 10000 2.06 160 18:27 16.11.2022
1019 Thunderstorm 17 1017 82 10000 2.06 260 15:41 16.11.2022
1020 Rain 27 1017 39 10000 2.06 0 11:23 16.11.2022
1021 Clouds 21 1020 60 10000 3.09 20 06:54 16.11.2022
1022 Clouds 16 1019 82 10000 2.57 110 01:38 16.11.2022
1023 Clouds 16 1019 82 10000 3.09 70 23:31 15.11.2022
1024 Clouds 17 1020 82 10000 4.12 100 21:28 15.11.2022
1025 Clouds 17 1021 82 10000 4.12 80 19:47 15.11.2022
1026 Clouds 17 1020 77 10000 5.14 100 18:51 15.11.2022
1027 Clouds 18 1018 77 10000 7.2 100 17:36 15.11.2022
1028 Rain 21 1017 64 10000 6.17 100 16:20 15.11.2022
1029 Rain 24 1017 53 10000 6.69 110 15:35 15.11.2022
1030 Rain 27 1017 36 10000 3.09 80 13:57 15.11.2022
1031 Clouds 27 1017 36 10000 4.12 120 12:54 15.11.2022
1032 Clouds 27 1018 34 10000 3.09 0 11:21 15.11.2022
1033 Clouds 25 1020 47 10000 4.12 110 09:38 15.11.2022
1034 Clouds 17 1020 82 10000 2.06 160 00:42 15.11.2022
1035 Clouds 17 1021 82 10000 2.06 150 00:22 15.11.2022
1036 Clouds 17 1021 77 10000 2.57 140 21:52 14.11.2022
1037 Clouds 18 1022 77 10000 5.14 140 20:44 14.11.2022
1038 Clouds 18 1022 77 8000 4.63 140 19:19 14.11.2022
1039 Clouds 19 1021 73 7000 4.63 140 18:21 14.11.2022
1040 Clouds 29 1018 32 10000 3.09 90 12:55 14.11.2022
1041 Clouds 29 1019 32 10000 3.09 130 11:46 14.11.2022
1042 Clouds 29 1019 35 10000 5.14 190 10:57 14.11.2022
1043 Clouds 26 1020 41 10000 3.09 120 08:30 14.11.2022
1044 Clouds 24 1021 50 10000 4.63 170 07:51 14.11.2022
1045 Clouds 15 1021 94 10000 2.06 110 00:19 14.11.2022
1046 Clouds 15 1021 94 10000 2.06 110 00:19 14.11.2022
1047 Clouds 17 1022 82 10000 3.09 110 22:43 13.11.2022
1048 Clouds 17 1022 82 10000 4.63 110 21:40 13.11.2022
1049 Clouds 18 1022 77 10000 4.12 90 20:45 13.11.2022
1050 Clouds 19 1021 73 10000 5.66 130 18:35 13.11.2022
1051 Clouds 19 1020 68 10000 6.17 110 17:49 13.11.2022
1052 Clouds 24 1018 44 10000 5.66 90 15:20 13.11.2022
1053 Clouds 25 1018 41 10000 5.66 90 14:30 13.11.2022
1054 Clouds 28 1019 34 10000 1.54 0 12:55 13.11.2022
1055 Clouds 28 1020 32 10000 1.54 0 11:34 13.11.2022
1056 Clouds 26 1021 34 10000 2.06 0 09:44 13.11.2022
1057 Clouds 19 1022 64 10000 3.09 120 05:52 13.11.2022
1058 Clouds 17 1021 82 8000 2.06 140 23:35 12.11.2022
1059 Clouds 17 1022 88 8000 5.14 110 21:24 12.11.2022
1060 Clear 16 1019 82 10000 3.27 121 20:25 12.11.2022
1061 Clouds 18 1021 77 10000 5.66 130 18:56 12.11.2022
1062 Clouds 23 1018 50 8000 6.17 100 16:32 12.11.2022
1063 Clouds 26 1018 39 10000 5.14 110 15:24 12.11.2022
1064 Clouds 27 1018 36 10000 3.09 0 13:28 12.11.2022
1065 Clear 26 1021 41 10000 2.57 180 09:35 12.11.2022
1066 Clouds 23 1022 53 10000 2.57 120 07:47 12.11.2022
1067 Clouds 23 1022 53 10000 2.57 120 07:47 12.11.2022
1068 Clouds 15 1020 100 7000 1.03 80 23:37 11.11.2022
1069 Clouds 18 1022 77 10000 3.09 80 20:52 11.11.2022
1070 Clouds 18 1022 77 10000 3.09 90 20:28 11.11.2022
1071 Clouds 19 1021 73 10000 4.12 120 19:26 11.11.2022
1072 Clouds 20 1020 64 8000 5.14 100 17:59 11.11.2022
1073 Clouds 22 1019 53 9000 6.69 100 16:55 11.11.2022
1074 Clouds 28 1018 34 10000 3.6 170 14:30 11.11.2022
1075 Clouds 29 1018 32 10000 3.09 50 13:31 11.11.2022
1076 Clouds 29 1019 32 10000 3.09 0 11:38 11.11.2022
1077 Clouds 24 1022 50 10000 2.57 0 08:43 11.11.2022
1078 Clouds 23 1022 53 8000 3.6 160 07:41 11.11.2022
1079 Clouds 14 1019 100 10000 2.06 60 00:30 11.11.2022
1080 Clouds 15 1021 100 9000 1.03 0 22:51 10.11.2022
1081 Clouds 16 1022 94 9000 3.6 310 21:39 10.11.2022
1082 Clouds 16 1022 94 9000 3.6 310 21:20 10.11.2022
1083 Clouds 19 1022 77 9000 2.06 300 20:24 10.11.2022
1084 Clouds 19 1022 77 9000 2.06 20 19:55 10.11.2022
1085 Clouds 19 1021 73 9000 4.12 100 18:45 10.11.2022
1086 Clouds 23 1018 50 10000 6.17 110 16:27 10.11.2022
1087 Clouds 25 1017 41 10000 4.12 100 15:24 10.11.2022
1088 Rain 28 1017 34 10000 5.14 150 13:34 10.11.2022
1089 Clouds 25 1021 47 8000 2.57 120 09:19 10.11.2022
1090 Smoke 20 1022 73 4000 1.54 0 06:59 10.11.2022
1091 Clouds 14 1019 100 7000 2.06 80 00:56 10.11.2022
1092 Clouds 15 1021 100 6000 2.57 70 22:47 09.11.2022
1093 Clouds 17 1022 82 7000 4.12 100 20:58 09.11.2022
1094 Clouds 17 1022 82 7000 3.6 90 20:39 09.11.2022
1095 Thunderstorm 17 1022 88 7000 1.03 0 19:50 09.11.2022
1096 Thunderstorm 18 1022 77 6000 1.03 0 19:24 09.11.2022
1097 Smoke 21 1020 64 4500 4.63 110 17:39 09.11.2022
1098 Smoke 21 1020 64 4500 4.63 110 17:39 09.11.2022
1099 Rain 25 1018 44 10000 3.09 60 14:56 09.11.2022
1100 Clouds 27 1018 39 10000 3.09 120 14:26 09.11.2022
1101 Clouds 28 1018 37 10000 1.54 0 13:34 09.11.2022
1102 Clouds 25 1018 44 10000 2.06 280 12:51 09.11.2022
1103 Clouds 24 1022 50 10000 2.06 0 09:28 09.11.2022
1104 Clouds 21 1022 60 10000 2.06 0 07:47 09.11.2022
1105 Clouds 13 1020 94 10000 2.06 90 02:33 09.11.2022
1106 Clouds 15 1022 94 10000 4.63 100 22:23 08.11.2022
1107 Clouds 16 1022 94 10000 3.6 90 21:36 08.11.2022
1108 Clouds 16 1022 94 10000 3.6 80 20:47 08.11.2022
1109 Clouds 16 1022 94 10000 3.6 80 20:18 08.11.2022
1110 Rain 17 1023 94 10000 3.6 90 19:21 08.11.2022
1111 Rain 18 1022 82 10000 4.12 70 17:35 08.11.2022
1112 Thunderstorm 22 1020 53 10000 4.63 150 15:22 08.11.2022
1113 Thunderstorm 22 1019 56 10000 4.12 160 14:31 08.11.2022
1114 Clouds 25 1019 41 10000 1.54 0 13:28 08.11.2022
1115 Clouds 26 1022 41 10000 3.6 110 10:28 08.11.2022
1116 Clouds 21 1023 49 10000 3.09 120 07:39 08.11.2022
1117 Clouds 16 1023 82 10000 2.06 60 04:27 08.11.2022
1118 Clouds 17 1023 82 10000 3.6 100 22:56 07.11.2022
1119 Clouds 17 1023 82 8000 5.14 100 21:40 07.11.2022
1120 Clouds 17 1023 82 8000 4.12 90 20:46 07.11.2022
1121 Clouds 18 1023 77 8000 5.14 90 19:37 07.11.2022
1122 Rain 19 1022 68 8000 5.14 90 17:41 07.11.2022
1123 Clouds 22 1020 53 10000 5.14 90 15:38 07.11.2022
1124 Clouds 23 1020 46 10000 4.63 80 14:55 07.11.2022
1125 Clouds 25 1019 41 10000 2.06 100 13:21 07.11.2022
1126 Clouds 27 1020 36 10000 4.12 160 12:22 07.11.2022
1127 Clouds 25 1023 47 10000 3.09 0 09:50 07.11.2022
1128 Clouds 23 1023 50 10000 2.06 0 08:25 07.11.2022
1129 Clouds 19 1024 73 10000 3.09 150 06:29 07.11.2022
1130 Clouds 15 1021 100 9000 2.57 60 01:43 07.11.2022
1131 Clouds 17 1023 88 10000 2.06 130 23:19 06.11.2022
1132 Clouds 17 1024 82 10000 4.12 90 21:21 06.11.2022
1133 Clouds 17 1024 82 10000 4.63 100 20:43 06.11.2022
1134 Clouds 18 1023 82 10000 5.14 110 19:56 06.11.2022
1135 Clouds 18 1023 82 10000 5.14 110 18:50 06.11.2022
1136 Clouds 19 1023 73 10000 3.6 150 18:20 06.11.2022
1137 Clouds 21 1022 60 10000 5.66 100 17:22 06.11.2022
1138 Clouds 21 1021 56 10000 2.57 100 16:53 06.11.2022
1139 Clouds 23 1020 46 10000 4.12 100 15:56 06.11.2022
1140 Clouds 24 1020 47 10000 5.66 90 14:43 06.11.2022
1141 Clouds 28 1020 34 10000 2.06 0 12:43 06.11.2022
1142 Clouds 26 1022 39 10000 3.09 220 10:49 06.11.2022
1143 Clouds 25 1023 47 10000 2.06 0 09:51 06.11.2022
1144 Mist 17 1024 82 4500 2.57 70 06:40 06.11.2022
1145 Clouds 16 1021 88 10000 2.57 140 23:22 05.11.2022
1146 Clouds 18 1023 82 10000 4.12 110 19:59 05.11.2022
1147 Rain 20 1022 77 10000 4.63 100 18:21 05.11.2022
1148 Clouds 22 1020 53 10000 4.63 90 16:21 05.11.2022
1149 Clouds 25 1019 41 10000 4.12 100 14:34 05.11.2022
1150 Clouds 25 1019 41 10000 4.12 100 14:34 05.11.2022
1151 Clouds 25 1019 41 10000 3.09 160 13:21 05.11.2022
1152 Clouds 27 1021 42 10000 3.6 80 10:42 05.11.2022
1153 Clouds 24 1022 50 10000 2.06 0 08:49 05.11.2022
1154 Clouds 22 1022 56 10000 3.6 130 07:22 05.11.2022
1155 Clouds 21 1022 64 10000 4.12 110 06:54 05.11.2022
1156 Clouds 17 1020 100 8000 1.54 80 23:36 04.11.2022
1157 -273 0 0 0 0 0 22:43 04.11.2022
1158 Rain 16 1022 100 7000 1.03 0 20:29 04.11.2022
1159 Rain 16 1022 100 7000 1.03 0 20:29 04.11.2022
1160 -273 0 0 0 0 0 20:28 04.11.2022
1161 Rain 16 1022 100 7000 1.03 0 20:26 04.11.2022
1162 Thunderstorm 16 1020 100 7000 2.06 240 17:46 04.11.2022
1163 Thunderstorm 16 1019 94 8000 2.06 250 16:46 04.11.2022
1164 Thunderstorm 25 1017 53 10000 4.12 60 13:39 04.11.2022
1165 Rain 26 1017 44 10000 1.03 0 12:25 04.11.2022
1166 Smoke 25 1019 53 7000 1.54 0 09:41 04.11.2022
1167 Rain 22 1020 64 7000 1.03 0 08:29 04.11.2022
1168 Mist 21 1021 73 4500 1.54 0 07:42 04.11.2022
1169 Clouds 16 1018 100 10000 2.06 70 02:28 04.11.2022
1170 Rain 16 1020 100 10000 1.03 50 22:44 03.11.2022
1171 Rain 17 1021 100 10000 1.03 10 20:49 03.11.2022
1172 Rain 17 1020 100 10000 1.03 0 19:44 03.11.2022
1173 Thunderstorm 17 1020 100 8000 1.03 0 18:46 03.11.2022
1174 Rain 16 1019 94 10000 3.09 170 17:42 03.11.2022
1175 Rain 17 1018 94 10000 3.6 210 16:18 03.11.2022
1176 Thunderstorm 21 1016 68 10000 7.2 310 13:54 03.11.2022
1177 Clouds 30 1016 27 10000 2.06 0 12:35 03.11.2022
1178 Clouds 27 1016 36 10000 1.54 0 11:44 03.11.2022
1179 Clouds 23 1019 53 10000 2.06 0 08:51 03.11.2022
1180 Clouds 22 1021 56 10000 2.57 60 07:24 03.11.2022
1181 Clouds 16 1021 88 10000 3.6 110 21:24 02.11.2022
1182 Clouds 17 1021 82 10000 4.63 110 20:34 02.11.2022
1183 Clouds 17 1021 82 10000 3.6 90 19:47 02.11.2022
1184 Clouds 22 1019 43 10000 5.66 90 16:34 02.11.2022
1185 Clouds 24 1018 31 10000 2.57 170 15:35 02.11.2022
1186 Clouds 24 1018 31 10000 2.57 170 15:35 02.11.2022
1187 Clouds 26 1018 29 10000 2.06 140 14:25 02.11.2022
1188 Clouds 27 1019 32 10000 3.6 140 12:35 02.11.2022
1189 Clouds 26 1020 36 10000 3.09 150 10:45 02.11.2022
1190 Clouds 24 1022 41 10000 2.57 80 08:48 02.11.2022
1191 Clouds 14 1022 94 10000 3.6 100 03:39 02.11.2022
1192 Clouds 15 1022 94 10000 2.57 60 23:27 01.11.2022
1193 Clouds 15 1023 94 10000 2.57 70 22:18 01.11.2022
1194 Clouds 15 1023 88 10000 3.09 100 21:24 01.11.2022
1195 Clouds 16 1023 82 10000 5.14 100 20:23 01.11.2022
1196 Clouds 17 1023 82 10000 3.09 120 19:41 01.11.2022
1197 Clouds 18 1022 72 10000 5.66 100 18:30 01.11.2022
1198 Clouds 20 1021 56 10000 4.12 80 16:53 01.11.2022
1199 Clouds 24 1020 41 10000 4.63 100 15:19 01.11.2022
1200 Clouds 26 1020 36 10000 2.06 0 13:24 01.11.2022
1201 Clouds 26 1020 36 10000 4.12 0 12:26 01.11.2022
1202 Clouds 26 1021 39 10000 3.6 110 11:21 01.11.2022
1203 Clouds 24 1023 44 10000 3.09 0 09:25 01.11.2022
1204 Clouds 22 1024 53 10000 2.57 0 07:54 01.11.2022
1205 Clouds 20 1024 60 10000 1.54 0 07:28 01.11.2022
1206 Clouds 18 1024 63 10000 1.03 0 06:46 01.11.2022
1207 Clouds 15 1024 88 10000 2.06 140 05:24 01.11.2022
1208 Clouds 14 1022 94 10000 2.06 150 22:52 31.10.2022
1209 Clouds 14 1023 100 10000 3.09 90 21:34 31.10.2022
1210 Clouds 16 1023 88 10000 4.63 90 19:58 31.10.2022
1211 Clouds 16 1023 82 10000 4.63 100 18:44 31.10.2022
1212 Clouds 18 1021 68 10000 4.12 80 16:45 31.10.2022
1213 Clouds 21 1021 53 10000 5.14 90 15:35 31.10.2022
1214 Clouds 24 1021 44 10000 4.12 130 12:39 31.10.2022
1215 Clouds 23 1022 46 10000 5.14 120 09:44 31.10.2022
1216 Clouds 21 1023 53 10000 5.14 90 07:41 31.10.2022
1217 Clouds 12 1021 94 10000 3.6 80 02:49 31.10.2022
1218 Clouds 13 1021 88 10000 2.57 120 01:48 31.10.2022
1219 Clouds 15 1022 100 10000 3.09 110 22:22 30.10.2022
1220 Clouds 16 1022 88 10000 4.63 100 20:43 30.10.2022
1221 Clouds 16 1022 82 10000 5.14 100 19:52 30.10.2022
1222 Clouds 17 1020 77 10000 5.14 100 16:42 30.10.2022
1223 Rain 21 1018 60 10000 5.66 80 14:54 30.10.2022
1224 Clouds 21 1018 60 10000 6.17 80 13:51 30.10.2022
1225 Rain 23 1019 53 10000 4.63 120 12:27 30.10.2022
1226 Rain 19 1021 68 10000 4.63 120 10:25 30.10.2022
1227 Rain 18 1021 72 10000 5.14 120 09:35 30.10.2022
1228 Clouds 17 1022 77 10000 4.63 120 07:57 30.10.2022
1229 Rain 15 1017 85 10000 1.34 90 00:29 30.10.2022
1230 Rain 16 1020 100 10000 1.54 160 23:47 29.10.2022
1231 Thunderstorm 16 1020 94 10000 2.06 150 22:31 29.10.2022
1232 Thunderstorm 16 1019 94 10000 1.03 0 19:41 29.10.2022
1233 Rain 15 1018 100 10000 2.57 0 17:23 29.10.2022
1234 Rain 15 1017 100 6000 3.09 50 15:39 29.10.2022
1235 Thunderstorm 15 1018 100 7000 5.66 170 14:55 29.10.2022
1236 Thunderstorm 20 1016 78 8000 6.17 10 13:50 29.10.2022
1237 Rain 29 1017 37 10000 4.63 90 12:33 29.10.2022
1238 Clouds 26 1019 47 10000 3.6 140 09:32 29.10.2022
1239 Clouds 21 1019 64 10000 3.6 180 06:51 29.10.2022
1240 Clouds 16 1019 94 8000 0 0 05:54 29.10.2022
1241 Rain 17 1019 82 10000 3.09 280 23:51 28.10.2022
1242 Rain 18 1020 82 10000 2.57 320 21:58 28.10.2022
1243 Rain 18 1020 72 10000 2.57 290 20:45 28.10.2022
1244 Thunderstorm 18 1019 68 8000 2.57 50 18:39 28.10.2022
1245 Thunderstorm 18 1019 68 8000 2.57 50 18:20 28.10.2022
1246 Rain 23 1016 46 8000 5.66 210 15:28 28.10.2022
1247 Rain 29 1016 28 10000 2.06 0 13:43 28.10.2022
1248 Clouds 27 1019 42 10000 3.6 100 11:56 28.10.2022
1249 Clouds 27 1019 42 10000 2.06 110 11:33 28.10.2022
1250 Clouds 25 1020 50 10000 2.57 0 10:45 28.10.2022
1251 Clouds 24 1021 57 10000 2.06 0 09:37 28.10.2022
1252 Clouds 18 1021 82 7000 2.06 90 07:19 28.10.2022
1253 Clouds 16 1020 100 8000 2.06 90 02:30 28.10.2022
1254 Drizzle 17 1021 100 8000 1.54 80 23:47 27.10.2022
1255 Clouds 18 1022 88 8000 1.03 0 22:37 27.10.2022
1256 Clouds 18 1022 88 8000 2.57 50 21:21 27.10.2022
1257 Clouds 21 1021 60 8000 4.63 130 18:33 27.10.2022
1258 Clouds 23 1021 53 8000 6.17 140 17:26 27.10.2022
1259 Clouds 30 1019 33 10000 3.09 180 13:32 27.10.2022
1260 Clouds 22 1024 56 8000 2.57 0 08:31 27.10.2022
1261 Clouds 16 1021 88 10000 3.09 80 02:56 27.10.2022
1262 Clouds 16 1022 94 10000 4.12 100 23:54 26.10.2022
1263 Clouds 18 1023 82 10000 4.12 120 22:44 26.10.2022
1264 Clouds 18 1023 82 10000 3.6 100 21:49 26.10.2022
1265 Clouds 22 1021 60 10000 5.66 100 18:38 26.10.2022
1266 Clouds 25 1019 31 10000 6.69 100 16:22 26.10.2022
1267 Clouds 29 1019 26 10000 2.06 0 13:34 26.10.2022
1268 Clouds 29 1020 28 10000 3.09 80 12:36 26.10.2022
1269 Clouds 24 1022 44 10000 3.09 60 09:31 26.10.2022
1270 Clouds 22 1023 49 10000 2.57 0 08:53 26.10.2022
1271 Clouds 20 1023 60 10000 1.54 0 07:57 26.10.2022
1272 Clouds 16 1021 94 10000 4.12 90 00:42 26.10.2022
1273 Clouds 17 1022 94 10000 3.09 90 23:57 25.10.2022
1274 Clouds 17 1022 94 10000 1.54 120 21:47 25.10.2022
1275 Thunderstorm 17 1022 88 10000 2.06 180 20:50 25.10.2022
1276 Thunderstorm 18 1021 82 10000 3.09 100 18:59 25.10.2022
1277 Thunderstorm 18 1020 77 10000 3.09 330 17:51 25.10.2022
1278 Rain 28 1017 34 10000 5.66 80 13:57 25.10.2022
1279 Clouds 26 1019 39 10000 4.12 90 11:38 25.10.2022
1280 Clouds 27 1020 42 10000 3.09 0 10:37 25.10.2022
1281 Clouds 24 1021 57 10000 2.57 50 08:44 25.10.2022
1282 Clouds 23 1021 60 10000 3.09 70 08:18 25.10.2022
1283 Clouds 21 1021 73 10000 3.6 50 07:54 25.10.2022
1284 Clouds 18 1021 88 10000 3.09 60 06:54 25.10.2022
1285 Clouds 14 1019 100 10000 0.51 0 03:38 25.10.2022
1286 Clouds 15 1020 100 10000 0.51 60 00:33 25.10.2022
1287 Clouds 15 1021 88 10000 1.54 0 22:29 24.10.2022
1288 Clouds 16 1022 82 10000 1.03 0 21:50 24.10.2022
1289 Clouds 17 1022 82 10000 2.57 110 21:32 24.10.2022
1290 Clouds 16 1022 82 10000 3.09 100 20:41 24.10.2022
1291 Clouds 21 1020 60 10000 3.6 350 18:52 24.10.2022
1292 Clouds 22 1019 56 10000 4.63 50 17:22 24.10.2022
1293 Clouds 25 1018 47 10000 6.17 110 16:20 24.10.2022
1294 Clouds 29 1018 28 10000 5.14 320 14:21 24.10.2022
1295 Clouds 29 1018 28 10000 4.12 230 12:59 24.10.2022
1296 Clouds 26 1022 44 10000 1.54 0 10:27 24.10.2022
1297 Clouds 21 1023 68 6000 1.03 0 07:56 24.10.2022
1298 Clouds 16 1023 94 10000 1.54 0 23:46 23.10.2022
1299 Thunderstorm 17 1024 88 10000 2.06 140 20:42 23.10.2022
1300 Thunderstorm 19 1023 68 10000 4.12 140 19:34 23.10.2022
1301 Rain 23 1021 57 10000 4.63 180 17:30 23.10.2022
1302 Rain 23 1021 57 10000 4.63 180 17:30 23.10.2022
1303 Clouds 25 1020 34 10000 3.6 250 16:41 23.10.2022
1304 Thunderstorm 26 1019 29 10000 6.17 310 15:19 23.10.2022
1305 Clouds 28 1021 30 10000 2.57 210 12:31 23.10.2022
1306 Clouds 27 1022 42 10000 2.06 0 10:58 23.10.2022
1307 Clouds 20 1024 64 8000 1.03 0 06:56 23.10.2022
1308 Clouds 15 1024 94 10000 2.06 130 23:32 22.10.2022
1309 Clouds 16 1024 82 10000 2.57 80 22:30 22.10.2022
1310 Rain 16 1025 82 10000 2.06 100 21:40 22.10.2022
1311 Rain 18 1024 72 10000 4.63 90 20:28 22.10.2022
1312 Rain 18 1024 68 10000 3.6 90 19:31 22.10.2022
1313 Clouds 20 1023 60 10000 5.14 100 18:23 22.10.2022
1314 Clouds 23 1021 43 10000 6.17 90 16:50 22.10.2022
1315 Clouds 28 1019 30 10000 5.66 80 15:21 22.10.2022
1316 Clouds 27 1019 30 10000 4.12 50 14:31 22.10.2022
1317 Clouds 27 1022 32 10000 2.57 0 11:40 22.10.2022
1318 Clouds 23 1023 41 10000 2.06 0 09:46 22.10.2022
1319 Clouds 20 1024 52 10000 3.6 120 08:37 22.10.2022
1320 Clouds 15 1024 72 10000 5.14 120 06:19 22.10.2022
1321 Clouds 13 1023 88 7000 2.57 110 01:25 22.10.2022
1322 Clouds 14 1024 82 7000 3.09 100 22:53 21.10.2022
1323 Clouds 15 1025 82 7000 3.09 90 21:34 21.10.2022
1324 Clouds 15 1024 82 7000 5.14 110 20:39 21.10.2022
1325 Clouds 17 1023 72 6000 4.12 110 18:28 21.10.2022
1326 Clouds 22 1021 49 10000 5.66 120 14:47 21.10.2022
1327 Clouds 24 1022 41 10000 6.17 90 13:40 21.10.2022
1328 Clouds 25 1023 38 10000 5.14 130 11:54 21.10.2022
1329 Clouds 23 1024 46 10000 6.17 120 10:24 21.10.2022
1330 Clouds 22 1024 49 10000 5.14 130 08:51 21.10.2022
1331 Clouds 19 1025 60 10000 4.12 120 08:21 21.10.2022
1332 Clouds 13 1023 88 10000 3.6 100 04:30 21.10.2022
1333 Clouds 15 1023 82 10000 6.17 110 23:25 20.10.2022
1334 Smoke 15 1024 82 5000 3.6 110 21:21 20.10.2022
1335 Smoke 16 1024 77 4000 5.14 140 19:44 20.10.2022
1336 Clouds 17 1023 72 6000 5.66 110 18:49 20.10.2022
1337 Rain 18 1023 68 10000 6.17 110 17:43 20.10.2022
1338 Clouds 25 1021 38 10000 4.63 150 14:38 20.10.2022
1339 Clouds 24 1022 41 10000 4.63 140 12:32 20.10.2022
1340 Clouds 24 1022 41 10000 6.17 110 11:34 20.10.2022
1341 Clouds 24 1023 38 10000 6.17 130 10:52 20.10.2022
1342 Clouds 22 1023 46 10000 4.63 130 09:30 20.10.2022
1343 Clouds 16 1024 67 10000 4.63 130 07:23 20.10.2022
1344 Clouds 14 1022 82 10000 4.12 100 02:22 20.10.2022
1345 Clouds 14 1024 82 8000 4.63 110 23:39 19.10.2022
1346 Clouds 13 1024 88 10000 2.06 90 22:23 19.10.2022
1347 Clouds 14 1025 82 8000 2.57 60 21:20 19.10.2022
1348 Clouds 15 1024 77 8000 5.14 100 19:55 19.10.2022
1349 Smoke 17 1024 63 4500 6.17 90 17:47 19.10.2022
1350 Clouds 21 1022 46 8000 6.69 90 16:24 19.10.2022
1351 Clouds 25 1021 34 10000 5.66 130 14:27 19.10.2022
1352 Clouds 25 1022 34 10000 5.66 110 12:20 19.10.2022
1353 Clouds 20 1024 46 10000 4.63 160 08:49 19.10.2022
1354 Clouds 16 1025 63 10000 4.12 160 07:23 19.10.2022
1355 Clouds 12 1023 82 10000 3.09 130 01:33 19.10.2022
1356 Clouds 12 1024 88 10000 3.6 100 23:22 18.10.2022
1357 Clouds 13 1025 82 10000 4.63 100 21:49 18.10.2022
1358 Clouds 13 1025 82 10000 4.63 100 21:24 18.10.2022
1359 Clouds 14 1025 82 10000 5.66 120 20:26 18.10.2022
1360 Clouds 14 1025 82 10000 5.66 120 20:26 18.10.2022
1361 Clouds 16 1024 67 10000 7.2 100 18:55 18.10.2022
1362 Clouds 20 1022 46 10000 6.17 100 16:56 18.10.2022
1363 Clouds 25 1021 25 10000 5.14 130 14:59 18.10.2022
1364 Clouds 26 1021 24 10000 4.63 120 13:38 18.10.2022
1365 Clouds 26 1022 24 10000 5.66 120 11:47 18.10.2022
1366 Clouds 24 1023 31 10000 3.09 120 10:27 18.10.2022
1367 Clouds 21 1024 43 10000 4.12 160 08:40 18.10.2022
1368 Clouds 13 1025 77 10000 2.57 140 05:45 18.10.2022
1369 Clouds 13 1024 82 10000 4.63 110 23:25 17.10.2022
1370 Clouds 14 1025 82 10000 2.57 120 21:28 17.10.2022
1371 Clouds 14 1025 82 10000 3.6 100 20:45 17.10.2022
1372 Clouds 15 1024 77 10000 6.17 120 20:27 17.10.2022
1373 Clouds 15 1024 77 10000 6.17 110 19:41 17.10.2022
1374 Clouds 19 1022 52 10000 5.66 120 17:40 17.10.2022
1375 Clouds 25 1020 31 10000 6.17 110 15:54 17.10.2022
1376 Clouds 26 1020 28 10000 4.63 90 14:36 17.10.2022
1377 Clouds 27 1020 30 10000 4.63 100 12:42 17.10.2022
1378 Clouds 21 1024 46 10000 3.09 130 08:52 17.10.2022
1379 Clouds 14 1021 94 10000 2.06 90 01:25 17.10.2022
1380 Clouds 14 1022 88 10000 2.06 60 22:34 16.10.2022
1381 Clouds 15 1022 82 10000 2.06 60 21:21 16.10.2022
1382 Clouds 17 1022 72 10000 3.6 140 19:51 16.10.2022
1383 Clouds 17 1022 68 10000 4.63 110 19:24 16.10.2022
1384 Clouds 20 1020 52 10000 6.69 100 17:44 16.10.2022
1385 Clouds 22 1019 40 10000 6.17 110 16:26 16.10.2022
1386 Clouds 24 1019 36 10000 5.14 130 15:53 16.10.2022
1387 Clouds 26 1020 29 10000 2.57 190 12:25 16.10.2022
1388 Clouds 25 1021 34 10000 2.57 160 11:22 16.10.2022
1389 Clouds 24 1021 36 10000 2.06 0 10:26 16.10.2022
1390 Clouds 9 1021 100 10000 1.03 40 04:51 16.10.2022
1391 Clouds 11 1021 94 10000 2.06 80 23:42 15.10.2022
1392 Clouds 12 1022 88 10000 3.09 90 21:30 15.10.2022
1393 Clouds 13 1022 82 10000 2.57 140 20:57 15.10.2022
1394 Clouds 13 1022 82 10000 2.57 140 20:57 15.10.2022
1395 Clouds 14 1021 77 10000 5.66 100 19:30 15.10.2022
1396 Clouds 14 1021 77 10000 5.66 100 19:30 15.10.2022
1397 Clear 18 1016 51 10000 5.93 86 16:57 15.10.2022
1398 Clouds 22 1019 33 10000 5.14 120 15:45 15.10.2022
1399 Clouds 23 1019 33 10000 6.17 110 13:21 15.10.2022
1400 Clouds 23 1020 35 10000 4.63 130 11:43 15.10.2022
1401 Clouds 20 1022 43 10000 4.63 80 09:28 15.10.2022
1402 Clouds 15 1023 63 10000 4.12 120 07:33 15.10.2022
1403 Clouds 10 1022 93 10000 4.12 110 00:40 15.10.2022
1404 Clouds 12 1023 88 10000 3.09 130 22:41 14.10.2022
1405 Clouds 12 1023 88 10000 3.09 140 22:22 14.10.2022
1406 Clouds 12 1024 88 10000 4.63 100 20:33 14.10.2022
1407 Clouds 15 1022 77 10000 5.66 90 18:39 14.10.2022
1408 Clouds 22 1021 40 10000 7.2 120 15:32 14.10.2022
1409 Clouds 23 1021 33 10000 6.69 130 12:47 14.10.2022
1410 Clouds 19 1023 45 10000 6.17 150 10:54 14.10.2022
1411 Clouds 16 1025 63 10000 8.23 110 08:26 14.10.2022
1412 Clouds 15 1024 67 10000 5.14 150 06:45 14.10.2022
1413 Clouds 14 1024 72 10000 4.63 140 06:18 14.10.2022
1414 Clouds 12 1023 76 10000 3.6 160 05:41 14.10.2022
1415 Clouds 12 1022 76 10000 3.6 150 02:18 14.10.2022
1416 Clouds 12 1024 76 10000 6.69 110 23:22 13.10.2022
1417 Clouds 14 1024 72 10000 4.12 150 21:32 13.10.2022
1418 Clouds 14 1024 77 10000 4.12 130 20:22 13.10.2022
1419 Clouds 15 1024 72 10000 4.63 130 19:42 13.10.2022
1420 Clouds 15 1024 72 10000 4.63 130 19:42 13.10.2022
1421 Clouds 15 1023 77 10000 5.66 90 18:45 13.10.2022
1422 Clouds 16 1023 67 10000 6.17 90 18:20 13.10.2022
1423 Clouds 22 1021 38 10000 6.69 130 15:49 13.10.2022
1424 Clouds 23 1021 35 10000 6.17 140 14:59 13.10.2022
1425 Clouds 24 1022 36 10000 8.23 110 13:49 13.10.2022
1426 Clouds 23 1023 38 10000 5.14 130 11:45 13.10.2022
1427 Clouds 22 1025 40 10000 5.14 120 09:57 13.10.2022
1428 Clouds 19 1025 49 10000 5.14 170 08:33 13.10.2022
1429 Clouds 19 1025 49 10000 5.14 170 08:33 13.10.2022
1430 Clouds 15 1025 67 10000 4.12 140 07:36 13.10.2022
1431 Clouds 9 1023 100 10000 3.09 90 03:37 13.10.2022
1432 Clear 9 1022 96 10000 1.36 129 01:38 13.10.2022
1433 Clouds 12 1024 94 10000 2.06 120 23:32 12.10.2022
1434 Clouds 12 1024 88 10000 2.06 120 22:44 12.10.2022
1435 Clouds 13 1024 88 10000 4.12 90 21:25 12.10.2022
1436 Clouds 14 1024 82 10000 5.14 100 20:55 12.10.2022
1437 Clouds 14 1024 82 10000 5.14 90 20:27 12.10.2022
1438 Clouds 14 1024 82 10000 5.14 90 20:27 12.10.2022
1439 Clouds 16 1024 63 10000 4.63 90 19:18 12.10.2022
1440 Clouds 18 1023 52 10000 5.66 110 17:54 12.10.2022
1441 Clear 22 1022 38 10000 5.66 110 16:29 12.10.2022
1442 Clouds 25 1022 25 10000 6.69 130 13:58 12.10.2022
1443 Clouds 25 1022 25 10000 6.69 120 13:36 12.10.2022
1444 Clouds 25 1024 29 10000 7.2 120 10:57 12.10.2022
1445 Clouds 23 1024 29 10000 8.23 110 09:23 12.10.2022
1446 Clouds 18 1025 55 10000 5.14 120 07:41 12.10.2022
1447 Clouds 14 1025 72 10000 5.66 120 06:43 12.10.2022
1448 Clouds 9 1024 100 10000 1.54 0 02:55 12.10.2022
1449 Clear 9 1023 87 10000 1.54 131 23:33 11.10.2022
1450 Clouds 13 1026 77 10000 2.57 90 20:58 11.10.2022
1451 Clouds 15 1025 67 10000 4.63 100 19:59 11.10.2022
1452 Clear 20 1023 35 10000 7.2 100 17:38 11.10.2022
1453 Clear 25 1022 22 10000 5.66 140 15:34 11.10.2022
1454 Clear 27 1022 18 10000 6.17 130 13:29 11.10.2022
1455 Clear 27 1024 15 10000 6.69 120 10:32 11.10.2022
1456 Clouds 26 1024 16 10000 7.72 120 09:58 11.10.2022
1457 Clouds 23 1024 19 10000 2.06 0 08:28 11.10.2022
1458 Clouds 7 1023 100 8000 0 0 02:49 11.10.2022
1459 Clouds 10 1024 100 10000 2.06 60 00:34 11.10.2022
1460 Clouds 12 1025 94 10000 1.54 80 22:45 10.10.2022
1461 Clouds 14 1025 77 10000 3.6 90 20:37 10.10.2022
1462 Clouds 16 1025 63 10000 5.14 100 19:21 10.10.2022
1463 Clouds 20 1024 37 10000 4.63 120 17:25 10.10.2022
1464 Clouds 23 1023 31 10000 5.66 120 16:28 10.10.2022
1465 Clouds 26 1023 24 10000 5.14 120 13:53 10.10.2022
1466 Clouds 27 1023 24 10000 4.12 110 12:22 10.10.2022
1467 Clouds 20 1025 46 10000 1.54 0 09:26 10.10.2022
1468 Clouds 9 1025 100 10000 2.06 180 05:53 10.10.2022
1469 Clouds 7 1025 100 9000 2.06 90 05:32 10.10.2022
1470 Clouds 9 1024 100 10000 1.54 90 01:25 10.10.2022
1471 Clouds 11 1026 94 10000 3.6 130 23:36 09.10.2022
1472 Clouds 11 1026 94 10000 4.12 110 22:25 09.10.2022
1473 Clouds 12 1026 88 10000 3.09 90 21:27 09.10.2022
1474 Clouds 13 1026 82 10000 4.12 90 20:42 09.10.2022
1475 Clouds 14 1026 77 10000 4.12 100 19:47 09.10.2022
1476 Clouds 15 1025 72 10000 5.66 100 18:48 09.10.2022
1477 Clouds 18 1024 52 10000 6.69 110 17:35 09.10.2022
1478 Clouds 19 1024 49 10000 5.66 130 16:44 09.10.2022
1479 Clouds 21 1023 43 10000 5.14 130 16:19 09.10.2022
1480 Clouds 23 1023 38 10000 5.66 140 14:49 09.10.2022
1481 Clouds 23 1023 41 10000 4.63 120 14:26 09.10.2022
1482 Clouds 24 1023 36 10000 6.17 120 12:48 09.10.2022
1483 Clouds 23 1024 41 10000 6.17 130 11:22 09.10.2022
1484 Clouds 18 1025 52 10000 6.17 120 08:32 09.10.2022
1485 Clouds 12 1023 76 10000 5.66 140 04:28 09.10.2022
1486 Clouds 12 1023 76 10000 4.63 140 03:22 09.10.2022
1487 Clouds 11 1024 87 10000 3.6 150 00:42 09.10.2022
1488 Clouds 12 1025 88 10000 5.66 110 23:32 08.10.2022
1489 Clouds 12 1025 88 10000 3.09 90 22:35 08.10.2022
1490 Clouds 14 1025 82 10000 5.14 90 20:33 08.10.2022
1491 Clouds 15 1025 72 8000 4.63 110 19:27 08.10.2022
1492 Clouds 20 1023 52 8000 3.6 130 17:39 08.10.2022
1493 Clouds 24 1022 31 10000 6.17 120 15:34 08.10.2022
1494 Clouds 25 1022 36 10000 5.66 120 13:32 08.10.2022
1495 Clouds 23 1024 38 10000 6.17 110 11:24 08.10.2022
1496 Clouds 22 1025 40 10000 5.66 120 10:32 08.10.2022
1497 Clouds 21 1025 40 10000 7.2 110 09:24 08.10.2022
1498 Clouds 11 1024 82 10000 2.57 140 05:35 08.10.2022
1499 Clouds 9 1024 93 10000 3.09 100 02:32 08.10.2022
1500 Clouds 10 1024 93 10000 3.09 60 23:48 07.10.2022
1501 Clouds 11 1025 94 10000 3.6 80 23:20 07.10.2022
1502 Clouds 12 1025 94 10000 4.63 110 21:53 07.10.2022
1503 Clouds 14 1025 82 10000 5.14 110 20:18 07.10.2022
1504 Smoke 18 1024 52 7000 5.66 120 17:55 07.10.2022
1505 Smoke 21 1023 40 7000 5.14 130 16:51 07.10.2022
1506 Clouds 24 1022 33 10000 6.17 150 15:27 07.10.2022
1507 Clouds 25 1021 31 10000 6.17 150 14:22 07.10.2022
1508 Clouds 26 1023 28 10000 7.72 120 11:38 07.10.2022
1509 Clouds 23 1024 31 10000 5.66 120 09:25 07.10.2022
1510 Clouds 20 1024 43 10000 5.14 140 08:23 07.10.2022
1511 Clouds 12 1022 88 10000 3.6 170 02:55 07.10.2022
1512 Clouds 13 1024 88 10000 4.12 140 23:21 06.10.2022
1513 Clouds 13 1024 94 10000 3.6 120 22:48 06.10.2022
1514 Clouds 14 1025 88 10000 3.6 100 21:37 06.10.2022
1515 Clouds 14 1025 88 10000 3.6 110 20:41 06.10.2022
1516 Clouds 17 1024 68 10000 6.17 90 18:57 06.10.2022
1517 Clouds 18 1024 63 10000 4.63 90 18:32 06.10.2022
1518 Clear 26 1022 29 10000 5.66 130 15:40 06.10.2022
1519 Clear 27 1022 26 10000 5.66 120 13:18 06.10.2022
1520 Clouds 24 1024 27 10000 5.66 110 09:27 06.10.2022
1521 Clouds 9 1024 100 10000 2.06 60 05:19 06.10.2022
1522 Clouds 10 1022 100 10000 0.51 0 01:47 06.10.2022
1523 Clouds 13 1025 82 10000 2.57 80 21:59 05.10.2022
1524 Clouds 15 1025 72 10000 2.57 80 19:45 05.10.2022
1525 Clouds 21 1023 43 10000 4.12 120 17:37 05.10.2022
1526 Clouds 23 1022 33 10000 4.12 140 16:45 05.10.2022
1527 Clear 27 1022 23 10000 5.14 120 14:59 05.10.2022
1528 Clear 28 1022 20 10000 5.14 120 14:38 05.10.2022
1529 Clear 29 1022 16 10000 5.66 120 13:29 05.10.2022
1530 Clear 29 1022 13 10000 5.66 120 11:45 05.10.2022
1531 Clouds 22 1025 27 10000 2.57 150 08:26 05.10.2022
1532 Clouds 18 1025 59 8000 1.54 170 07:20 05.10.2022
1533 Clouds 8 1024 100 9000 2.06 310 05:32 05.10.2022
1534 Clouds 11 1022 100 10000 1.03 100 02:33 05.10.2022
1535 Clouds 11 1023 94 10000 1.03 0 00:28 05.10.2022
1536 Clouds 11 1023 94 10000 0 0 23:58 04.10.2022
1537 Clouds 14 1024 82 10000 2.06 90 21:25 04.10.2022
1538 Clouds 16 1024 67 10000 3.09 90 19:56 04.10.2022
1539 Clouds 18 1023 55 10000 3.6 90 18:55 04.10.2022
1540 Clouds 20 1022 49 10000 3.6 90 17:57 04.10.2022
1541 Clouds 23 1021 38 10000 5.66 110 16:57 04.10.2022
1542 Clouds 28 1020 13 10000 5.66 80 14:31 04.10.2022
1543 Clouds 29 1021 12 10000 5.14 110 10:43 04.10.2022
1544 Clouds 22 1022 40 10000 2.57 170 08:28 04.10.2022
1545 Clouds 9 1021 100 10000 0 0 04:48 04.10.2022
1546 Clouds 12 1021 88 10000 1.54 50 23:59 03.10.2022
1547 Clouds 13 1021 82 10000 0.51 0 22:45 03.10.2022
1548 Clouds 15 1022 72 10000 1.54 0 21:30 03.10.2022
1549 Clouds 16 1022 67 10000 2.06 100 20:36 03.10.2022
1550 Clouds 19 1021 49 10000 4.63 110 18:52 03.10.2022
1551 Clouds 21 1019 40 10000 5.66 100 17:32 03.10.2022
1552 Clouds 26 1018 26 10000 5.66 110 15:59 03.10.2022
1553 Clear 28 1018 24 10000 3.09 110 14:26 03.10.2022
1554 Clear 27 1019 28 10000 3.09 120 12:36 03.10.2022
1555 Clouds 27 1020 36 10000 1.54 0 10:59 03.10.2022
1556 Clouds 24 1021 38 10000 2.06 0 09:52 03.10.2022
1557 Clouds 22 1022 53 10000 2.06 160 08:45 03.10.2022
1558 Clouds 9 1020 100 10000 0.51 270 04:41 03.10.2022
1559 Clouds 12 1022 94 10000 1.03 0 23:27 02.10.2022
1560 Clouds 14 1023 82 10000 1.54 0 21:58 02.10.2022
1561 Clouds 16 1022 72 10000 2.57 150 19:50 02.10.2022
1562 Clouds 19 1021 56 10000 5.66 90 17:55 02.10.2022
1563 Clouds 21 1021 46 10000 5.14 90 16:53 02.10.2022
1564 Clouds 23 1020 38 10000 4.63 90 16:32 02.10.2022
1565 Clouds 25 1020 34 10000 5.66 80 15:25 02.10.2022
1566 Clear 27 1020 28 10000 4.63 110 13:46 02.10.2022
1567 Clear 27 1021 24 10000 4.12 150 12:39 02.10.2022
1568 Clear 26 1021 29 10000 4.12 160 11:48 02.10.2022
1569 Clear 26 1022 29 10000 3.6 120 11:30 02.10.2022
1570 Clear 23 1023 35 10000 3.6 150 10:19 02.10.2022
1571 Clouds 18 1024 52 10000 5.14 120 08:28 02.10.2022
1572 Clouds 10 1023 100 10000 2.06 150 05:19 02.10.2022
1573 Clouds 11 1023 100 10000 2.06 90 00:58 02.10.2022
1574 Clouds 11 1023 100 10000 2.06 70 00:38 02.10.2022
1575 Clouds 12 1024 94 10000 3.09 110 23:28 01.10.2022
1576 Clouds 13 1024 88 10000 3.09 90 21:39 01.10.2022
1577 Clouds 16 1024 67 10000 4.12 90 18:54 01.10.2022
1578 Clouds 19 1022 52 10000 5.14 100 17:28 01.10.2022
1579 Clouds 25 1021 31 10000 4.63 140 14:50 01.10.2022
1580 Clouds 26 1021 28 10000 5.14 110 13:52 01.10.2022
1581 Clouds 26 1022 24 10000 5.14 120 12:34 01.10.2022
1582 Clouds 26 1022 26 10000 3.6 0 11:22 01.10.2022
1583 Clouds 24 1022 33 10000 2.57 0 10:47 01.10.2022
1584 Clouds 23 1023 41 10000 3.09 150 10:26 01.10.2022
1585 Clouds 21 1024 49 10000 3.09 150 09:21 01.10.2022
1586 Clouds 18 1024 55 10000 2.06 140 08:26 01.10.2022
1587 Clouds 10 1022 100 10000 2.06 50 03:42 01.10.2022
1588 Clouds 9 1022 100 10000 1.54 0 02:37 01.10.2022
1589 Clouds 11 1023 94 10000 2.06 60 23:21 30.09.2022
1590 Clouds 11 1023 94 10000 2.57 100 21:58 30.09.2022
1591 Clouds 13 1024 82 10000 4.63 90 20:45 30.09.2022
1592 Clouds 14 1023 77 10000 3.6 100 20:20 30.09.2022
1593 Clouds 16 1022 63 10000 4.63 90 18:27 30.09.2022
1594 Clouds 22 1020 38 10000 5.66 100 16:32 30.09.2022
1595 Clouds 25 1019 31 10000 5.14 110 14:23 30.09.2022
1596 Clouds 24 1020 31 10000 4.63 110 12:29 30.09.2022
1597 Clouds 24 1021 31 10000 5.66 120 11:55 30.09.2022
1598 Clouds 17 1023 52 10000 3.6 130 08:57 30.09.2022
1599 Clouds 11 1023 82 10000 3.09 140 06:38 30.09.2022
1600 Clouds 8 1022 93 10000 3.09 110 02:51 30.09.2022
1601 Clouds 9 1022 93 10000 3.09 110 01:23 30.09.2022
1602 Clouds 11 1024 87 10000 4.12 110 21:39 29.09.2022
1603 Clouds 11 1024 87 10000 4.12 110 21:19 29.09.2022
1604 Clouds 14 1023 67 10000 4.12 130 18:56 29.09.2022
1605 Clouds 14 1023 72 10000 5.66 100 17:49 29.09.2022
1606 Clouds 18 1022 52 10000 5.66 110 16:29 29.09.2022
1607 Clouds 20 1022 49 10000 6.17 100 15:37 29.09.2022
1608 Clouds 21 1021 43 10000 6.69 120 14:59 29.09.2022
1609 Clouds 22 1022 40 10000 5.66 170 11:54 29.09.2022
1610 Clouds 15 1024 55 10000 5.66 160 07:39 29.09.2022
1611 Clouds 9 1022 81 10000 2.57 140 03:24 29.09.2022
1612 Clouds 10 1023 87 10000 2.57 140 00:29 29.09.2022
1613 Clouds 10 1024 93 10000 3.09 130 23:20 28.09.2022
1614 Clouds 12 1024 82 10000 4.12 120 21:31 28.09.2022
1615 Clouds 12 1024 82 10000 3.6 130 20:45 28.09.2022
1616 Clouds 14 1023 72 10000 5.14 100 18:53 28.09.2022
1617 Clouds 20 1022 43 10000 5.66 150 16:27 28.09.2022
1618 Clear 23 1022 35 10000 5.66 120 13:28 28.09.2022
1619 Clouds 22 1023 35 10000 5.66 120 11:43 28.09.2022
1620 Clouds 20 1024 43 10000 5.14 100 09:34 28.09.2022
1621 Clouds 16 1024 55 10000 4.63 170 07:41 28.09.2022
1622 Clouds 9 1024 93 10000 4.12 110 05:31 28.09.2022
1623 Clouds 9 1023 100 10000 2.06 140 01:41 28.09.2022
1624 Clouds 11 1024 87 10000 1.54 140 23:31 27.09.2022
1625 Clouds 11 1025 87 10000 4.12 110 22:33 27.09.2022
1626 Clouds 13 1025 88 10000 6.17 110 20:56 27.09.2022
1627 Clouds 13 1025 88 10000 5.14 100 20:19 27.09.2022
1628 Clouds 14 1024 77 10000 5.14 100 19:36 27.09.2022
1629 Clouds 16 1023 55 10000 5.66 110 17:46 27.09.2022
1630 Clouds 21 1022 40 10000 5.14 110 16:25 27.09.2022
1631 Clouds 23 1022 33 10000 5.66 120 15:18 27.09.2022
1632 Clouds 24 1023 29 10000 5.66 130 13:36 27.09.2022
1633 Clouds 23 1023 31 10000 4.63 120 12:36 27.09.2022
1634 Clouds 20 1025 37 10000 4.63 120 09:54 27.09.2022
1635 Clouds 16 1026 51 10000 5.66 110 07:41 27.09.2022
1636 Clouds 10 1024 82 10000 4.12 120 03:51 27.09.2022
1637 Clouds 10 1024 87 10000 4.63 110 01:36 27.09.2022
1638 Clouds 11 1025 82 10000 4.12 110 23:45 26.09.2022
1639 Clouds 11 1025 82 10000 3.6 120 23:21 26.09.2022
1640 Clouds 13 1026 82 10000 3.09 140 20:58 26.09.2022
1641 Clouds 14 1025 77 10000 5.14 120 19:42 26.09.2022
1642 Clouds 15 1025 72 10000 5.14 120 18:39 26.09.2022
1643 Clouds 16 1024 67 10000 6.69 110 17:24 26.09.2022
1644 Clouds 21 1023 49 10000 7.72 110 14:57 26.09.2022
1645 Clouds 20 1024 52 10000 7.72 120 12:30 26.09.2022
1646 Clouds 17 1026 68 10000 7.2 110 10:42 26.09.2022
1647 Clouds 17 1026 63 10000 6.69 130 10:22 26.09.2022
1648 Clouds 17 1026 63 10000 7.72 120 09:56 26.09.2022
1649 Clouds 17 1026 63 10000 6.69 120 09:26 26.09.2022
1650 Clouds 17 1026 68 10000 6.69 110 08:58 26.09.2022
1651 Clouds 13 1024 88 10000 2.57 140 03:48 26.09.2022
1652 Clouds 13 1024 82 10000 3.6 140 01:52 26.09.2022
1653 Clouds 14 1025 77 10000 3.09 140 23:20 25.09.2022
1654 Clouds 14 1026 77 10000 5.66 110 21:44 25.09.2022
1655 Clouds 14 1026 77 10000 3.6 120 20:57 25.09.2022
1656 Clouds 13 1026 82 10000 4.63 110 20:32 25.09.2022
1657 Clouds 14 1024 77 10000 5.66 120 18:44 25.09.2022
1658 Clouds 14 1024 77 10000 6.17 110 18:21 25.09.2022
1659 Clouds 17 1023 68 10000 7.2 100 16:59 25.09.2022
1660 Clouds 20 1022 56 10000 7.72 110 15:48 25.09.2022
1661 Clouds 21 1021 53 10000 7.72 110 14:31 25.09.2022
1662 Clouds 21 1021 53 10000 7.72 110 14:31 25.09.2022
1663 Clouds 22 1021 46 10000 9.26 110 13:45 25.09.2022
1664 Clouds 21 1024 46 10000 5.14 130 10:37 25.09.2022
1665 Clouds 19 1025 56 10000 5.14 140 08:25 25.09.2022
1666 Clouds 13 1025 77 10000 3.6 130 06:24 25.09.2022
1667 Clouds 12 1023 94 10000 2.06 150 03:40 25.09.2022
1668 Clouds 14 1025 88 10000 5.14 90 23:23 24.09.2022
1669 Clouds 14 1025 82 10000 3.6 100 21:19 24.09.2022
1670 Clouds 15 1024 82 10000 6.17 100 19:23 24.09.2022
1671 Clouds 16 1024 77 10000 5.66 90 18:18 24.09.2022
1672 Clouds 21 1022 49 10000 5.66 90 16:36 24.09.2022
1673 Clouds 23 1021 43 10000 4.12 120 15:23 24.09.2022
1674 Clouds 24 1022 38 10000 3.6 100 13:50 24.09.2022
1675 Clouds 23 1023 41 10000 5.14 100 12:58 24.09.2022
1676 Clouds 22 1023 46 10000 6.17 90 11:42 24.09.2022
1677 Clouds 21 1025 49 10000 5.14 80 09:54 24.09.2022
1678 Clouds 19 1026 56 10000 4.63 100 08:47 24.09.2022
1679 Clouds 15 1026 72 10000 2.57 140 07:39 24.09.2022
1680 Clouds 12 1025 94 10000 2.57 100 04:48 24.09.2022
1681 Clouds 11 1024 94 10000 1.54 0 03:42 24.09.2022
1682 Clouds 13 1026 88 10000 3.09 90 22:36 23.09.2022
1683 Clouds 12 1026 88 10000 3.09 80 21:28 23.09.2022
1684 Clouds 13 1026 82 10000 3.6 90 20:56 23.09.2022
1685 Clouds 13 1026 82 10000 4.12 100 20:20 23.09.2022
1686 Clouds 15 1025 67 10000 5.66 110 18:51 23.09.2022
1687 Clouds 22 1022 43 10000 6.69 110 14:55 23.09.2022
1688 Clouds 22 1024 43 10000 6.17 100 10:55 23.09.2022
1689 Clouds 20 1025 46 10000 6.17 90 09:33 23.09.2022
1690 Clouds 11 1025 82 10000 3.09 130 05:58 23.09.2022
1691 Clouds 12 1025 82 10000 4.63 110 00:32 23.09.2022
1692 Clouds 13 1025 72 10000 3.6 140 23:21 22.09.2022
1693 Clouds 13 1026 77 10000 3.6 130 22:26 22.09.2022
1694 Clouds 13 1026 77 10000 3.09 130 20:51 22.09.2022
1695 Clouds 13 1026 82 10000 5.66 120 19:37 22.09.2022
1696 Clouds 15 1024 77 10000 6.69 100 16:57 22.09.2022
1697 Clouds 21 1024 53 10000 8.23 110 12:20 22.09.2022
1698 Clouds 18 1025 68 10000 7.2 120 10:32 22.09.2022
1699 Clouds 18 1025 68 10000 6.17 120 08:52 22.09.2022
1700 Clouds 15 1025 77 10000 3.6 140 06:45 22.09.2022
1701 Clouds 12 1023 94 10000 3.09 130 02:52 22.09.2022
1702 Clouds 13 1024 88 10000 3.6 150 23:25 21.09.2022
1703 Clouds 13 1025 88 10000 5.14 120 21:41 21.09.2022
1704 Clouds 14 1024 77 10000 3.6 140 19:55 21.09.2022
1705 Clouds 16 1023 67 10000 5.14 120 17:48 21.09.2022
1706 Clouds 18 1022 55 10000 5.14 120 16:30 21.09.2022
1707 Clouds 21 1022 40 10000 7.72 100 14:31 21.09.2022
1708 Clouds 20 1022 43 10000 8.75 110 12:42 21.09.2022
1709 Clouds 19 1023 49 10000 6.69 160 11:29 21.09.2022
1710 Clouds 19 1024 45 10000 6.17 130 09:55 21.09.2022
1711 Clouds 16 1025 55 10000 7.2 120 09:00 21.09.2022
1712 Clouds 15 1024 59 10000 5.14 150 07:18 21.09.2022
1713 Clouds 11 1022 82 10000 3.6 160 02:47 21.09.2022
1714 Clouds 11 1022 82 10000 3.6 160 02:25 21.09.2022
1715 Clouds 11 1024 82 10000 4.12 140 00:34 21.09.2022
1716 Clouds 13 1024 77 10000 5.14 160 22:43 20.09.2022
1717 Clouds 13 1025 82 10000 4.12 140 20:51 20.09.2022
1718 Clouds 13 1024 82 10000 5.66 130 19:32 20.09.2022
1719 Clouds 19 1022 56 10000 6.17 110 16:25 20.09.2022
1720 Clouds 22 1022 46 10000 5.14 110 14:45 20.09.2022
1721 Clouds 22 1022 46 10000 5.14 130 12:58 20.09.2022
1722 Clouds 17 1025 63 10000 4.63 120 09:19 20.09.2022
1723 Clouds 16 1025 72 10000 3.09 150 08:26 20.09.2022
1724 Clouds 12 1024 88 10000 3.09 170 04:50 20.09.2022
1725 Clouds 12 1023 82 10000 2.57 160 03:48 20.09.2022
1726 Clouds 13 1025 82 10000 3.09 150 22:55 19.09.2022
1727 Clouds 11 1025 87 10000 4.12 100 21:40 19.09.2022
1728 Clouds 12 1025 82 10000 4.12 90 20:47 19.09.2022
1729 Clouds 13 1025 82 10000 5.14 100 20:24 19.09.2022
1730 Clouds 14 1024 82 10000 5.14 110 17:44 19.09.2022
1731 Clouds 20 1022 52 10000 6.69 100 14:18 19.09.2022
1732 Clouds 21 1023 46 10000 5.14 120 13:18 19.09.2022
1733 Clouds 22 1024 46 10000 5.14 120 10:48 19.09.2022
1734 Clouds 19 1025 52 10000 4.12 120 08:51 19.09.2022
1735 Clouds 12 1025 82 10000 5.66 110 05:53 19.09.2022
1736 Clouds 13 1024 82 10000 3.6 100 01:54 19.09.2022
1737 Clouds 13 1025 82 10000 5.14 130 23:22 18.09.2022
1738 Clouds 13 1025 82 10000 4.12 90 21:43 18.09.2022
1739 Clouds 14 1025 82 10000 5.14 130 20:24 18.09.2022
1740 Clouds 16 1023 67 10000 6.17 110 17:54 18.09.2022
1741 Clouds 17 1022 59 10000 4.63 90 17:35 18.09.2022
1742 Clouds 21 1021 46 10000 5.66 100 15:36 18.09.2022
1743 Clouds 23 1021 38 10000 6.17 110 13:47 18.09.2022
1744 Clouds 23 1022 38 10000 5.66 110 12:34 18.09.2022
1745 Clouds 22 1023 40 10000 4.63 110 10:45 18.09.2022
1746 Clouds 11 1023 87 10000 2.06 140 03:42 18.09.2022
1747 Clouds 11 1023 87 10000 3.6 140 01:24 18.09.2022
1748 Clouds 11 1024 87 10000 2.57 140 00:23 18.09.2022
1749 Clouds 12 1024 88 10000 3.6 110 21:39 17.09.2022
1750 Clouds 13 1024 88 10000 4.12 120 19:42 17.09.2022
1751 Clouds 14 1024 82 10000 4.12 130 18:57 17.09.2022
1752 Clouds 20 1022 46 10000 4.63 80 15:58 17.09.2022
1753 Clouds 22 1021 40 10000 5.66 90 13:56 17.09.2022
1754 Clouds 19 1024 49 10000 6.69 100 10:57 17.09.2022
1755 Clouds 17 1024 55 10000 6.17 110 08:55 17.09.2022
1756 Clouds 13 1024 77 10000 2.57 150 06:24 17.09.2022
1757 Clouds 10 1025 87 10000 2.57 130 23:59 16.09.2022
1758 Clouds 11 1025 82 10000 3.09 130 22:52 16.09.2022
1759 Clouds 12 1026 76 10000 4.63 140 21:22 16.09.2022
1760 Clouds 12 1025 88 10000 3.09 140 19:50 16.09.2022
1761 Clouds 18 1023 48 10000 7.72 100 16:38 16.09.2022
1762 Clouds 21 1023 37 10000 6.69 110 14:58 16.09.2022
1763 Clouds 20 1023 43 10000 6.17 140 13:43 16.09.2022
1764 Clouds 20 1025 40 10000 6.17 110 10:50 16.09.2022
1765 Clouds 17 1027 48 10000 5.66 140 08:19 16.09.2022
1766 Clouds 12 1026 82 10000 3.6 180 06:48 16.09.2022
1767 Clouds 12 1026 88 10000 2.06 150 06:25 16.09.2022
1768 Clouds 9 1026 93 10000 2.06 160 02:38 16.09.2022
1769 Clouds 11 1028 87 10000 2.57 170 22:43 15.09.2022
1770 Clouds 11 1028 87 10000 3.09 140 20:48 15.09.2022
1771 Clouds 11 1028 76 10000 2.06 80 19:46 15.09.2022
1772 Clouds 13 1027 67 10000 3.6 130 18:29 15.09.2022
1773 Clouds 14 1027 63 10000 6.17 120 17:31 15.09.2022
1774 Clouds 14 1027 63 10000 6.17 120 17:31 15.09.2022
1775 Clouds 16 1026 55 10000 6.17 140 16:37 15.09.2022
1776 Clouds 18 1025 52 10000 6.17 140 14:20 15.09.2022
1777 Clouds 16 1026 63 10000 7.2 140 11:48 15.09.2022
1778 Clouds 17 1028 59 10000 8.23 110 09:52 15.09.2022
1779 Clouds 12 1028 67 10000 5.66 160 07:45 15.09.2022
1780 Clouds 8 1026 87 10000 2.06 200 03:49 15.09.2022
1781 Clouds 10 1027 82 10000 3.09 160 23:43 14.09.2022
1782 Clouds 11 1028 87 10000 2.57 140 21:26 14.09.2022
1783 Clouds 13 1027 82 10000 4.12 120 19:33 14.09.2022
1784 Clouds 13 1026 82 10000 5.66 110 18:30 14.09.2022
1785 Clouds 16 1025 72 10000 6.17 110 16:40 14.09.2022
1786 Clouds 18 1025 63 10000 7.72 110 15:29 14.09.2022
1787 Clouds 20 1024 52 10000 7.72 100 13:36 14.09.2022
1788 Clouds 20 1025 49 10000 5.14 160 10:47 14.09.2022
1789 Clouds 18 1026 55 10000 4.63 160 09:27 14.09.2022
1790 Clouds 13 1025 77 10000 2.57 150 06:51 14.09.2022
1791 Clouds 13 1025 82 10000 3.09 140 06:33 14.09.2022
1792 Clouds 12 1023 82 10000 2.06 140 03:54 14.09.2022
1793 Clouds 9 1023 100 10000 2.06 80 01:41 14.09.2022
1794 Clouds 10 1023 100 10000 2.06 110 01:20 14.09.2022
1795 Clouds 10 1023 100 10000 2.06 60 23:55 13.09.2022
1796 Clouds 11 1023 94 10000 2.06 100 23:37 13.09.2022
1797 Clouds 11 1023 94 10000 2.06 100 23:19 13.09.2022
1798 Clouds 11 1024 100 10000 2.06 150 22:43 13.09.2022
1799 Clouds 11 1024 100 10000 2.06 150 22:43 13.09.2022
1800 Clouds 12 1024 94 10000 4.12 90 21:42 13.09.2022
1801 Clouds 14 1022 72 10000 2.57 80 19:32 13.09.2022
1802 Clouds 20 1021 46 10000 5.14 100 16:45 13.09.2022
1803 Clouds 23 1020 31 10000 5.66 120 15:53 13.09.2022
1804 Clouds 25 1020 34 10000 3.6 60 13:50 13.09.2022
1805 Clouds 24 1022 31 10000 3.09 0 11:34 13.09.2022
1806 Clouds 17 1023 55 10000 2.06 0 08:20 13.09.2022
1807 Mist 6 1022 100 7000 0 0 04:24 13.09.2022
1808 Clouds 9 1023 100 10000 2.57 70 23:23 12.09.2022
1809 Clouds 9 1023 100 10000 2.57 70 23:23 12.09.2022
1810 Clouds 9 1023 100 10000 2.57 80 22:45 12.09.2022
1811 Clouds 10 1023 93 10000 1.54 110 21:35 12.09.2022
1812 Clouds 11 1023 87 10000 2.06 80 20:24 12.09.2022
1813 Clouds 13 1022 67 10000 3.09 70 18:41 12.09.2022
1814 Clouds 21 1021 35 10000 5.66 120 15:53 12.09.2022
1815 Clouds 22 1021 33 10000 4.63 140 12:57 12.09.2022
1816 Clouds 20 1023 40 10000 3.6 120 10:34 12.09.2022
1817 Clouds 17 1023 52 10000 4.12 150 08:58 12.09.2022
1818 Clouds 7 1021 100 10000 2.06 80 04:42 12.09.2022
1819 Clouds 9 1021 93 10000 3.09 90 02:57 12.09.2022
1820 Clouds 12 1023 88 10000 2.57 130 22:51 11.09.2022
1821 Clouds 12 1024 94 10000 5.14 120 21:40 11.09.2022
1822 Clouds 12 1024 94 10000 3.09 90 20:44 11.09.2022
1823 Clouds 13 1023 88 10000 4.12 90 19:45 11.09.2022
1824 Clouds 13 1023 88 10000 4.12 90 19:21 11.09.2022
1825 Clouds 16 1022 63 10000 4.12 90 17:47 11.09.2022
1826 Clouds 21 1021 43 10000 5.14 120 15:51 11.09.2022
1827 Clouds 22 1021 38 10000 4.63 120 13:52 11.09.2022
1828 Clouds 20 1023 49 10000 5.14 110 11:35 11.09.2022
1829 Clouds 14 1024 77 10000 2.57 160 08:25 11.09.2022
1830 Clouds 14 1024 77 10000 2.57 160 08:25 11.09.2022
1831 Clouds 11 1023 94 10000 2.57 100 05:55 11.09.2022
1832 Clouds 11 1024 94 10000 3.6 90 00:34 11.09.2022
1833 Clouds 13 1025 88 10000 2.57 140 22:23 10.09.2022
1834 Clouds 13 1025 88 10000 4.63 110 20:35 10.09.2022
1835 Clouds 13 1025 88 10000 4.63 110 20:35 10.09.2022
1836 Clouds 14 1024 82 10000 3.6 90 19:44 10.09.2022
1837 Clouds 14 1024 82 10000 3.6 90 19:25 10.09.2022
1838 Clouds 15 1023 72 10000 4.12 90 17:51 10.09.2022
1839 Clouds 22 1022 43 10000 5.14 120 15:37 10.09.2022
1840 Clouds 23 1022 38 10000 3.09 0 13:55 10.09.2022
1841 Clouds 23 1022 38 10000 3.6 0 12:52 10.09.2022
1842 Clouds 21 1024 46 10000 4.12 120 10:34 10.09.2022
1843 Clouds 18 1025 55 10000 2.57 160 08:42 10.09.2022
1844 Clouds 17 1025 55 10000 2.57 150 08:20 10.09.2022
1845 Clouds 9 1023 93 10000 2.06 100 04:30 10.09.2022
1846 Clouds 12 1025 82 10000 4.63 120 23:37 09.09.2022
1847 Clouds 11 1025 87 10000 2.06 120 22:36 09.09.2022
1848 Clouds 12 1025 82 10000 4.63 100 20:59 09.09.2022
1849 Clouds 12 1025 76 10000 4.12 90 20:20 09.09.2022
1850 Clouds 13 1024 67 10000 4.12 100 19:23 09.09.2022
1851 Clouds 15 1023 59 10000 4.63 100 17:50 09.09.2022
1852 Clouds 21 1022 37 10000 4.63 100 15:23 09.09.2022
1853 Clouds 21 1022 40 10000 3.6 0 13:33 09.09.2022
1854 Clouds 19 1024 49 10000 6.69 100 11:27 09.09.2022
1855 Clouds 13 1025 72 10000 4.12 130 07:57 09.09.2022
1856 Clouds 11 1023 87 10000 2.06 160 03:37 09.09.2022
1857 Clouds 10 1024 91 10000 2.23 121 22:40 08.09.2022
1858 Clouds 11 1025 94 10000 4.12 110 21:51 08.09.2022
1859 Clouds 12 1025 82 10000 5.66 110 20:49 08.09.2022
1860 Clouds 12 1025 82 10000 5.66 110 20:49 08.09.2022
1861 Clouds 12 1024 82 10000 5.14 110 20:27 08.09.2022
1862 Clouds 14 1024 63 10000 4.63 130 19:18 08.09.2022
1863 Clouds 17 1022 52 10000 4.63 130 17:25 08.09.2022
1864 Clouds 22 1022 35 10000 2.06 140 15:35 08.09.2022
1865 Clouds 22 1022 33 10000 3.6 170 13:30 08.09.2022
1866 Clouds 22 1023 35 10000 2.57 0 12:41 08.09.2022
1867 Clouds 21 1024 37 10000 3.6 110 11:23 08.09.2022
1868 Clouds 18 1025 48 10000 4.12 130 09:35 08.09.2022
1869 Clouds 14 1024 72 10000 4.12 140 07:18 08.09.2022
1870 Clouds 9 1022 100 10000 4.12 110 03:37 08.09.2022
1871 Clouds 9 1022 100 10000 4.12 100 02:36 08.09.2022
1872 Clouds 9 1022 100 10000 4.12 100 02:18 08.09.2022
1873 Clouds 11 1024 94 10000 3.6 90 22:58 07.09.2022
1874 Clouds 12 1024 94 10000 3.6 120 21:45 07.09.2022
1875 Clouds 11 1024 100 10000 3.09 120 21:21 07.09.2022
1876 Clouds 12 1024 88 10000 3.6 90 20:28 07.09.2022
1877 Clouds 14 1023 77 10000 3.6 100 18:54 07.09.2022
1878 Clouds 20 1022 46 10000 3.6 90 16:18 07.09.2022
1879 Clouds 20 1024 43 10000 3.6 0 10:52 07.09.2022
1880 Clouds 20 1024 43 10000 3.09 170 10:32 07.09.2022
1881 Clouds 15 1025 63 10000 4.12 120 08:23 07.09.2022
1882 Clouds 10 1023 93 10000 2.06 100 05:33 07.09.2022
1883 Clouds 13 1024 82 10000 2.57 140 00:31 07.09.2022
1884 Clouds 13 1025 88 10000 3.09 130 21:51 06.09.2022
1885 Clouds 13 1025 88 10000 3.09 130 21:51 06.09.2022
1886 Clouds 12 1026 94 10000 3.09 140 21:32 06.09.2022
1887 Clouds 12 1025 94 10000 3.09 100 19:38 06.09.2022
1888 Clouds 13 1025 88 10000 4.63 100 18:34 06.09.2022
1889 Clouds 15 1025 77 10000 4.63 110 17:37 06.09.2022
1890 Clouds 16 1025 72 10000 4.63 110 16:44 06.09.2022
1891 Clouds 17 1024 68 10000 4.12 130 15:55 06.09.2022
1892 Clouds 19 1024 56 10000 5.14 130 13:47 06.09.2022
1893 Clouds 19 1024 56 10000 4.63 130 13:27 06.09.2022
1894 Clouds 20 1024 49 10000 4.63 110 12:56 06.09.2022
1895 Clouds 16 1026 72 10000 6.69 90 10:54 06.09.2022
1896 Clouds 17 1026 63 10000 5.66 110 08:58 06.09.2022
1897 Clouds 15 1026 72 10000 4.63 130 07:52 06.09.2022
1898 Clouds 12 1026 94 10000 4.12 130 06:18 06.09.2022
1899 Clouds 12 1025 94 10000 2.57 140 00:45 06.09.2022
1900 Clouds 12 1027 100 10000 3.09 130 22:43 05.09.2022
1901 Clouds 13 1027 94 10000 3.6 120 21:38 05.09.2022
1902 Clouds 13 1026 88 10000 3.6 150 19:56 05.09.2022
1903 Clouds 13 1026 88 10000 3.6 110 18:51 05.09.2022
1904 Clouds 13 1026 88 10000 4.63 120 18:24 05.09.2022
1905 Drizzle 14 1025 88 10000 4.12 130 17:35 05.09.2022
1906 Clouds 16 1025 72 10000 5.66 120 15:53 05.09.2022
1907 Drizzle 16 1024 72 10000 6.69 150 13:54 05.09.2022
1908 Clouds 16 1025 72 10000 5.14 170 12:29 05.09.2022
1909 Clouds 16 1026 72 10000 3.09 170 10:34 05.09.2022
1910 Clouds 15 1026 72 10000 3.6 110 07:44 05.09.2022
1911 Clouds 12 1024 76 10000 3.09 110 02:58 05.09.2022
1912 Clouds 11 1025 82 10000 2.06 140 23:48 04.09.2022
1913 Clouds 10 1026 87 10000 3.6 90 22:28 04.09.2022
1914 Clouds 11 1026 82 10000 3.09 110 21:41 04.09.2022
1915 Clouds 13 1025 77 10000 3.09 140 19:44 04.09.2022
1916 Clouds 14 1025 72 10000 5.14 110 18:21 04.09.2022
1917 Clouds 15 1024 67 10000 6.17 110 17:24 04.09.2022
1918 Clouds 18 1023 48 10000 8.23 110 14:59 04.09.2022
1919 Clouds 19 1023 42 10000 9.26 110 14:21 04.09.2022
1920 Clouds 19 1023 45 10000 7.2 120 12:24 04.09.2022
1921 Clouds 18 1024 42 10000 5.66 140 10:51 04.09.2022
1922 Clouds 15 1025 51 10000 4.63 160 08:21 04.09.2022
1923 Clouds 10 1024 82 10000 2.57 140 06:21 04.09.2022
1924 Clouds 10 1023 100 10000 3.09 100 01:31 04.09.2022
1925 Clouds 11 1024 87 10000 3.09 110 22:26 03.09.2022
1926 Clouds 11 1024 94 10000 2.06 130 21:24 03.09.2022
1927 Clouds 12 1024 82 10000 4.12 120 20:26 03.09.2022
1928 Clouds 16 1023 63 10000 5.66 120 17:35 03.09.2022
1929 Clouds 18 1022 55 10000 6.17 110 16:33 03.09.2022
1930 Clouds 21 1022 43 10000 3.6 100 14:47 03.09.2022
1931 Clouds 20 1022 46 10000 3.09 140 14:26 03.09.2022
1932 Clouds 22 1022 40 10000 3.6 70 13:21 03.09.2022
1933 Clouds 21 1023 43 10000 4.63 120 11:18 03.09.2022
1934 Clouds 16 1025 55 10000 4.63 140 08:41 03.09.2022
1935 Clouds 12 1025 71 10000 3.6 150 06:59 03.09.2022
1936 Clouds 11 1023 82 10000 3.6 130 04:40 03.09.2022
1937 Clouds 11 1024 94 10000 3.09 140 00:41 03.09.2022
1938 Clouds 11 1024 94 10000 2.57 130 23:20 02.09.2022
1939 Clouds 11 1025 87 10000 4.12 110 21:19 02.09.2022
1940 Clouds 11 1025 87 10000 2.57 140 20:39 02.09.2022
1941 Clouds 12 1025 82 10000 4.12 130 19:30 02.09.2022
1942 Clouds 12 1025 82 10000 4.63 120 18:43 02.09.2022
1943 Clouds 12 1024 82 10000 4.12 100 18:24 02.09.2022
1944 Clouds 15 1024 63 10000 6.17 120 16:49 02.09.2022
1945 Clouds 18 1023 52 10000 6.17 110 15:35 02.09.2022
1946 Clouds 19 1023 52 10000 4.12 110 12:43 02.09.2022
1947 Clouds 18 1025 52 10000 4.63 130 10:22 02.09.2022
1948 Clouds 17 1025 55 10000 5.14 140 09:41 02.09.2022
1949 Clouds 12 1025 67 10000 4.63 170 07:36 02.09.2022
1950 Clouds 11 1025 66 10000 4.12 150 06:40 02.09.2022
1951 Clouds 11 1022 82 10000 4.63 150 02:55 02.09.2022
1952 Clouds 12 1023 82 10000 4.12 140 22:35 01.09.2022
1953 Clouds 12 1023 82 10000 4.63 130 21:44 01.09.2022
1954 Clouds 12 1023 82 10000 6.69 110 21:25 01.09.2022
1955 Clouds 12 1023 88 10000 5.66 110 20:44 01.09.2022
1956 Clouds 13 1022 88 10000 6.17 100 18:54 01.09.2022
1957 Clouds 15 1020 77 10000 5.66 80 17:22 01.09.2022
1958 Clouds 22 1019 38 10000 4.63 90 15:56 01.09.2022
1959 Clouds 23 1018 33 10000 3.09 0 14:22 01.09.2022
1960 Clouds 23 1019 33 10000 3.09 100 12:58 01.09.2022
1961 Clouds 23 1020 41 10000 5.14 90 11:52 01.09.2022
1962 Clouds 21 1020 46 10000 5.66 110 11:31 01.09.2022
1963 Clouds 19 1021 52 10000 5.14 110 10:19 01.09.2022
1964 Clouds 15 1021 72 10000 4.12 150 07:51 01.09.2022
1965 Clouds 12 1020 88 10000 1.03 0 06:21 01.09.2022
1966 Clouds 10 1020 71 10000 1.03 0 01:32 01.09.2022
1967 Clouds 13 1020 58 10000 2.06 290 23:19 31.08.2022
1968 Clouds 15 1020 51 10000 3.6 270 21:20 31.08.2022
1969 Clouds 17 1020 45 10000 3.6 260 19:46 31.08.2022
1970 Clouds 20 1019 32 10000 3.6 270 17:52 31.08.2022
1971 Clouds 25 1018 25 10000 5.66 310 15:44 31.08.2022
1972 Clouds 27 1017 24 10000 5.66 310 13:56 31.08.2022
1973 Clouds 26 1019 26 10000 2.57 330 12:19 31.08.2022
1974 Clouds 23 1020 41 10000 1.54 0 10:30 31.08.2022
1975 Clouds 19 1021 68 10000 2.06 200 08:32 31.08.2022
1976 Clouds 13 1020 100 10000 2.57 290 03:41 31.08.2022
1977 Clouds 14 1022 100 10000 1.54 130 22:44 30.08.2022
1978 Clouds 15 1022 94 10000 2.57 60 21:33 30.08.2022
1979 Clouds 16 1022 88 10000 4.12 100 20:38 30.08.2022
1980 Clouds 22 1020 38 10000 2.57 330 17:25 30.08.2022
1981 Clouds 26 1020 28 10000 2.06 280 14:19 30.08.2022
1982 Clouds 25 1021 31 10000 2.06 0 12:25 30.08.2022
1983 Clouds 24 1022 33 10000 2.57 160 11:20 30.08.2022
1984 Clouds 21 1023 53 10000 1.54 0 09:58 30.08.2022
1985 Clouds 15 1023 82 10000 2.06 120 06:49 30.08.2022
1986 Clouds 13 1022 94 10000 1.54 70 01:26 30.08.2022
1987 Clouds 14 1023 94 10000 3.6 110 22:39 29.08.2022
1988 Clouds 13 1023 100 10000 2.57 90 21:55 29.08.2022
1989 Clouds 14 1023 88 10000 4.12 120 20:47 29.08.2022
1990 Clouds 15 1022 82 10000 3.6 100 19:35 29.08.2022
1991 Clouds 19 1020 60 10000 5.14 80 17:33 29.08.2022
1992 Clouds 21 1020 53 10000 4.63 100 16:59 29.08.2022
1993 Clouds 24 1019 38 10000 2.57 210 15:20 29.08.2022
1994 Clouds 24 1020 36 10000 2.06 110 13:55 29.08.2022
1995 Clouds 24 1021 38 10000 2.06 50 12:24 29.08.2022
1996 Clouds 22 1022 40 10000 2.06 200 10:48 29.08.2022
1997 Clouds 19 1024 52 10000 2.06 120 09:19 29.08.2022
1998 Fog 10 1023 100 800 2.06 110 07:20 29.08.2022
1999 Clouds 8 1022 100 10000 0 0 02:31 29.08.2022
2000 Clouds 9 1023 100 10000 2.06 100 23:35 28.08.2022
2001 Clouds 11 1023 94 10000 3.09 140 21:48 28.08.2022
2002 Clouds 11 1023 94 10000 4.12 110 21:27 28.08.2022
2003 Clouds 11 1023 87 10000 2.57 80 20:19 28.08.2022
2004 Clouds 13 1022 72 10000 1.54 80 18:22 28.08.2022
2005 Clouds 14 1022 67 10000 3.09 80 17:51 28.08.2022
2006 Clouds 17 1021 55 10000 4.12 100 16:44 28.08.2022
2007 Clouds 19 1021 45 10000 4.12 120 15:00 28.08.2022
2008 Clouds 19 1022 52 10000 4.12 100 12:57 28.08.2022
2009 Clouds 19 1023 52 10000 4.12 70 11:25 28.08.2022
2010 Clouds 18 1023 55 10000 4.12 130 10:20 28.08.2022
2011 Clouds 17 1024 55 10000 3.09 170 08:49 28.08.2022
2012 Clouds 16 1024 59 10000 2.57 140 07:51 28.08.2022
2013 Clouds 14 1024 72 10000 2.57 170 07:23 28.08.2022
2014 Clouds 11 1024 94 10000 2.57 120 00:36 28.08.2022
2015 Clouds 10 1024 100 10000 2.06 170 22:58 27.08.2022
2016 Clouds 10 1024 93 10000 2.06 180 22:24 27.08.2022
2017 Clouds 10 1024 93 10000 3.6 80 20:35 27.08.2022
2018 Clouds 11 1024 76 10000 3.6 90 18:50 27.08.2022
2019 Clouds 16 1023 51 10000 4.63 150 16:26 27.08.2022
2020 Clouds 17 1023 55 10000 4.12 150 15:30 27.08.2022
2021 Clouds 18 1023 55 10000 4.63 150 13:18 27.08.2022
2022 Clouds 17 1023 59 10000 4.12 150 11:58 27.08.2022
2023 Clouds 16 1025 67 10000 4.12 140 10:26 27.08.2022
2024 Clouds 14 1025 72 10000 4.12 150 09:25 27.08.2022
2025 Clouds 5 1023 93 10000 0 0 05:24 27.08.2022
2026 Clouds 8 1024 100 10000 4.63 110 00:51 27.08.2022
2027 Clouds 9 1025 93 10000 1.03 0 23:35 26.08.2022
2028 Clouds 11 1025 87 10000 4.63 120 21:45 26.08.2022
2029 Clouds 11 1025 87 10000 3.09 110 19:40 26.08.2022
2030 Clouds 13 1023 77 10000 5.14 100 17:29 26.08.2022
2031 Clouds 18 1022 59 10000 5.14 130 15:37 26.08.2022
2032 Clouds 17 1022 63 10000 5.66 140 14:56 26.08.2022
2033 Clouds 20 1023 49 10000 4.63 160 12:54 26.08.2022
2034 Clouds 18 1024 52 10000 6.17 120 11:42 26.08.2022
2035 Clouds 16 1024 67 10000 5.14 140 11:21 26.08.2022
2036 Clouds 13 1024 72 10000 2.57 150 07:37 26.08.2022
2037 Clouds 11 1023 82 10000 3.09 150 02:31 26.08.2022
2038 Clouds 11 1024 82 10000 4.12 160 23:45 25.08.2022
2039 Clouds 11 1025 87 10000 2.57 130 21:46 25.08.2022
2040 Clouds 10 1025 87 10000 2.57 150 20:51 25.08.2022
2041 Clouds 10 1025 93 10000 4.12 110 19:25 25.08.2022
2042 Clouds 11 1024 82 10000 4.63 100 18:28 25.08.2022
2043 Clouds 12 1024 71 10000 5.14 110 17:31 25.08.2022
2044 Clouds 14 1023 67 10000 5.14 140 16:25 25.08.2022
2045 Clouds 18 1023 52 10000 4.12 150 15:27 25.08.2022
2046 Clouds 17 1024 63 10000 8.23 120 12:47 25.08.2022
2047 Clouds 17 1025 68 10000 4.12 110 10:49 25.08.2022
2048 Clouds 14 1026 77 10000 4.63 140 09:21 25.08.2022
2049 Clouds 11 1025 82 10000 3.09 150 06:31 25.08.2022
2050 Clouds 10 1025 93 10000 2.06 140 01:43 25.08.2022
2051 Clouds 11 1027 87 10000 3.09 140 23:27 24.08.2022
2052 Clouds 11 1027 94 10000 3.09 130 22:41 24.08.2022
2053 Clouds 11 1027 87 10000 2.57 140 21:36 24.08.2022
2054 Clouds 10 1027 93 10000 3.09 110 20:55 24.08.2022
2055 Clouds 12 1027 76 10000 3.6 150 19:19 24.08.2022
2056 Clouds 15 1025 63 10000 4.63 140 16:47 24.08.2022
2057 Clouds 17 1025 52 10000 6.17 120 15:52 24.08.2022
2058 Clouds 18 1025 55 10000 5.14 140 13:40 24.08.2022
2059 Clouds 19 1026 56 10000 8.23 110 11:50 24.08.2022
2060 Clouds 15 1028 67 10000 5.14 140 09:39 24.08.2022
2061 Clouds 13 1028 77 10000 4.12 140 07:59 24.08.2022
2062 Clouds 10 1027 87 10000 3.6 130 02:36 24.08.2022
2063 Clouds 12 1028 94 10000 5.14 110 23:32 23.08.2022
2064 Clouds 12 1028 88 10000 4.12 140 22:32 23.08.2022
2065 Clouds 12 1028 88 10000 3.09 130 21:34 23.08.2022
2066 Clouds 13 1028 82 10000 3.09 140 20:21 23.08.2022
2067 Clouds 13 1028 82 10000 4.63 110 18:46 23.08.2022
2068 Clouds 14 1027 77 10000 4.63 120 17:49 23.08.2022
2069 Clouds 16 1026 67 10000 5.14 120 16:53 23.08.2022
2070 Clouds 18 1026 55 10000 6.69 110 15:37 23.08.2022
2071 Clouds 20 1025 49 10000 5.14 150 13:29 23.08.2022
2072 Clouds 21 1026 40 10000 6.17 120 11:32 23.08.2022
2073 Clouds 20 1027 43 10000 5.14 110 10:36 23.08.2022
2074 Clouds 19 1027 42 10000 3.6 170 09:54 23.08.2022
2075 Clouds 16 1027 55 10000 3.09 130 08:51 23.08.2022
2076 Clouds 15 1027 59 10000 3.6 150 08:20 23.08.2022
2077 Clouds 15 1027 59 10000 3.6 150 08:20 23.08.2022
2078 Clouds 11 1027 82 10000 3.09 130 07:34 23.08.2022
2079 Clouds 9 1027 100 10000 0.51 0 06:28 23.08.2022
2080 Clouds 7 1026 100 10000 2.06 130 04:38 23.08.2022
2081 Clouds 9 1026 93 10000 2.57 130 00:28 23.08.2022
2082 Clouds 10 1027 93 10000 3.6 140 23:33 22.08.2022
2083 Clouds 10 1027 93 10000 4.12 130 22:44 22.08.2022
2084 Clouds 11 1027 87 10000 2.57 140 21:25 22.08.2022
2085 Clouds 11 1026 87 10000 4.12 120 19:48 22.08.2022
2086 Clouds 11 1026 87 10000 4.12 120 19:48 22.08.2022
2087 Clouds 13 1025 77 10000 3.09 140 18:45 22.08.2022
2088 Clear 14 1023 64 10000 4.25 117 17:18 22.08.2022
2089 Clouds 19 1023 45 10000 6.69 110 15:39 22.08.2022
2090 Clouds 19 1023 45 10000 6.69 110 15:39 22.08.2022
2091 Clouds 20 1024 46 10000 5.66 150 13:47 22.08.2022
2092 Clouds 17 1026 63 10000 5.14 140 10:43 22.08.2022
2093 Clouds 14 1026 72 10000 4.63 160 07:59 22.08.2022
2094 Clouds 13 1024 77 10000 4.63 140 04:22 22.08.2022
2095 Clouds 14 1024 82 10000 4.63 170 00:41 22.08.2022
2096 Clouds 14 1024 82 10000 4.63 170 00:22 22.08.2022
2097 Clouds 14 1025 82 10000 4.12 160 22:20 21.08.2022
2098 Clouds 15 1025 77 10000 4.63 150 21:23 21.08.2022
2099 Clouds 15 1025 82 10000 4.63 140 20:47 21.08.2022
2100 Clouds 16 1025 72 10000 4.12 140 19:25 21.08.2022
2101 Clouds 18 1023 59 10000 7.2 120 17:24 21.08.2022
2102 Clouds 22 1022 43 10000 5.66 130 15:53 21.08.2022
2103 Clouds 23 1022 43 10000 7.2 110 15:20 21.08.2022
2104 Clouds 25 1022 41 10000 6.69 100 13:52 21.08.2022
2105 Clouds 26 1022 36 10000 6.69 110 13:26 21.08.2022
2106 Clouds 24 1023 41 10000 4.12 0 11:29 21.08.2022
2107 Clouds 19 1025 60 10000 3.09 170 09:31 21.08.2022
2108 Clear 18 1025 63 10000 1.03 0 08:56 21.08.2022
2109 Clouds 17 1025 72 10000 1.03 0 08:38 21.08.2022
2110 Mist 13 1025 100 2000 1.03 0 07:26 21.08.2022
2111 Clouds 9 1023 100 10000 2.57 80 03:39 21.08.2022
2112 Clouds 10 1024 93 10000 2.06 70 23:49 20.08.2022
2113 Clouds 12 1024 82 10000 1.03 50 22:24 20.08.2022
2114 Clouds 12 1024 82 10000 2.57 70 21:26 20.08.2022
2115 Clouds 14 1023 72 10000 1.54 50 19:58 20.08.2022
2116 Clouds 14 1023 72 10000 2.06 80 19:40 20.08.2022
2117 Clouds 15 1022 59 10000 3.09 80 18:27 20.08.2022
2118 Clouds 18 1021 45 10000 2.57 20 17:40 20.08.2022
2119 Clouds 20 1021 40 10000 4.12 360 16:40 20.08.2022
2120 Clouds 23 1021 33 10000 3.09 50 15:23 20.08.2022
2121 Clouds 24 1021 33 10000 2.57 0 12:46 20.08.2022
2122 Clouds 23 1022 35 10000 2.06 0 11:47 20.08.2022
2123 Clouds 19 1024 45 10000 4.12 60 09:29 20.08.2022
2124 Clouds 16 1024 63 10000 2.06 60 08:25 20.08.2022
2125 Clouds 8 1024 100 10000 1.03 70 05:49 20.08.2022
2126 Clear 9 1023 100 10000 1.54 70 00:58 20.08.2022
2127 Clear 8 1022 94 10000 0.95 106 00:30 20.08.2022
2128 Clouds 10 1023 93 10000 1.03 0 22:50 19.08.2022
2129 Clouds 11 1024 87 10000 2.57 80 21:34 19.08.2022
2130 Clouds 13 1024 77 10000 3.6 100 19:41 19.08.2022
2131 Clouds 18 1022 55 10000 5.14 100 16:40 19.08.2022
2132 Clouds 23 1021 31 10000 5.66 110 14:37 19.08.2022
2133 Clouds 23 1021 29 10000 4.12 130 12:45 19.08.2022
2134 Clouds 22 1022 35 10000 4.12 120 10:41 19.08.2022
2135 Clouds 19 1023 42 10000 4.12 100 09:39 19.08.2022
2136 Clouds 11 1022 94 10000 2.06 80 04:59 19.08.2022
2137 Clouds 11 1022 100 10000 1.03 0 00:45 19.08.2022
2138 Clouds 11 1023 100 10000 2.06 70 00:20 19.08.2022
2139 Clouds 11 1023 100 10000 4.12 100 22:59 18.08.2022
2140 Clouds 11 1023 100 10000 2.57 100 22:26 18.08.2022
2141 Clouds 12 1023 94 10000 3.09 90 21:51 18.08.2022
2142 Clouds 12 1023 88 10000 2.57 70 20:56 18.08.2022
2143 Clouds 14 1023 77 10000 2.57 70 19:40 18.08.2022
2144 Clouds 14 1023 77 10000 2.57 70 19:20 18.08.2022
2145 Clouds 18 1021 52 10000 4.12 90 17:38 18.08.2022
2146 Clouds 21 1021 40 10000 5.14 110 16:18 18.08.2022
2147 Clouds 25 1020 27 10000 3.09 110 14:22 18.08.2022
2148 Clouds 25 1020 27 10000 2.57 140 13:44 18.08.2022
2149 Clouds 25 1020 27 10000 2.57 140 13:44 18.08.2022
2150 Clouds 25 1021 27 10000 3.6 170 12:30 18.08.2022
2151 Clouds 23 1022 35 10000 2.06 0 11:20 18.08.2022
2152 Clouds 20 1023 49 10000 2.06 190 09:43 18.08.2022
2153 Clouds 15 1023 72 10000 2.06 170 07:27 18.08.2022
2154 Clouds 11 1023 100 10000 1.03 0 06:37 18.08.2022
2155 Clouds 13 1022 82 10000 2.57 130 02:22 18.08.2022
2156 Clouds 12 1023 94 10000 3.09 100 22:47 17.08.2022
2157 Clouds 14 1023 88 10000 2.57 130 20:30 17.08.2022
2158 Clouds 14 1022 88 10000 3.6 120 19:58 17.08.2022
2159 Clouds 16 1021 72 10000 5.14 100 18:37 17.08.2022
2160 Clouds 18 1021 59 10000 6.17 90 17:21 17.08.2022
2161 Clouds 22 1020 43 10000 5.66 120 15:46 17.08.2022
2162 Clouds 24 1020 38 10000 3.6 130 14:40 17.08.2022
2163 Clouds 25 1021 31 10000 2.57 180 12:29 17.08.2022
2164 Clouds 24 1022 33 10000 3.09 60 11:23 17.08.2022
2165 Clouds 19 1024 56 10000 1.54 0 09:19 17.08.2022
2166 Clouds 10 1023 100 10000 2.57 60 06:29 17.08.2022
2167 Clouds 13 1022 82 10000 1.03 170 00:50 17.08.2022
2168 Clouds 14 1023 82 10000 2.06 150 23:18 16.08.2022
2169 Clouds 13 1023 94 10000 3.09 90 21:21 16.08.2022
2170 Clouds 15 1022 88 10000 2.57 130 19:56 16.08.2022
2171 Clouds 15 1022 88 10000 3.6 110 19:26 16.08.2022
2172 Clouds 19 1021 64 10000 5.66 90 17:55 16.08.2022
2173 Clouds 22 1020 46 10000 3.6 90 16:47 16.08.2022
2174 Clouds 25 1019 29 10000 2.06 70 15:45 16.08.2022
2175 Clouds 26 1019 29 10000 2.57 80 14:54 16.08.2022
2176 Clouds 26 1019 29 10000 4.12 70 14:36 16.08.2022
2177 Clouds 25 1020 36 10000 3.09 150 12:19 16.08.2022
2178 Clear 21 1022 53 10000 2.06 140 10:23 16.08.2022
2179 Clouds 18 1023 63 10000 3.09 200 08:53 16.08.2022
2180 Clouds 16 1023 72 10000 3.09 210 08:21 16.08.2022
2181 Clouds 12 1023 100 10000 2.57 210 06:31 16.08.2022
2182 Clouds 11 1022 100 10000 1.03 0 23:56 15.08.2022
2183 Clouds 11 1023 100 10000 3.09 100 22:23 15.08.2022
2184 Clouds 11 1023 100 10000 3.09 110 21:50 15.08.2022
2185 Clouds 12 1023 94 10000 1.03 60 20:32 15.08.2022
2186 Clouds 12 1023 88 10000 2.06 90 19:22 15.08.2022
2187 Clouds 14 1022 72 10000 2.57 80 17:59 15.08.2022
2188 Clouds 18 1021 59 10000 5.66 110 16:25 15.08.2022
2189 Clouds 19 1021 56 10000 3.6 130 15:27 15.08.2022
2190 Clouds 20 1020 52 10000 4.12 130 13:45 15.08.2022
2191 Clouds 16 1023 67 10000 2.57 130 10:37 15.08.2022
2192 Clouds 15 1023 72 10000 2.06 170 09:40 15.08.2022
2193 Clouds 11 1023 87 10000 2.57 180 06:51 15.08.2022
2194 Clouds 10 1021 87 10000 1.54 90 04:32 15.08.2022
2195 Clouds 11 1023 100 10000 2.57 80 23:49 14.08.2022
2196 Clouds 13 1023 82 10000 3.09 80 22:28 14.08.2022
2197 Clouds 13 1023 82 10000 4.12 90 21:25 14.08.2022
2198 Clouds 14 1023 72 10000 4.63 90 19:46 14.08.2022
2199 Clouds 14 1022 77 10000 4.12 80 18:42 14.08.2022
2200 Clouds 15 1022 67 10000 5.14 90 17:44 14.08.2022
2201 Clouds 16 1021 67 10000 6.17 90 16:31 14.08.2022
2202 Clouds 17 1021 59 10000 5.66 70 15:45 14.08.2022
2203 Clouds 19 1021 56 10000 6.17 110 13:52 14.08.2022
2204 Clouds 19 1021 56 10000 6.17 100 13:34 14.08.2022
2205 Clouds 21 1022 49 10000 5.66 90 12:55 14.08.2022
2206 Clouds 20 1023 52 10000 5.66 120 11:31 14.08.2022
2207 Clouds 19 1024 56 10000 5.66 120 10:26 14.08.2022
2208 Clouds 15 1024 67 10000 3.09 150 08:20 14.08.2022
2209 Drizzle 10 1024 93 10000 2.06 150 06:20 14.08.2022
2210 Clouds 9 1023 93 10000 2.57 150 02:35 14.08.2022
2211 Clouds 10 1025 100 10000 3.09 90 23:23 13.08.2022
2212 Clouds 9 1025 100 10000 2.57 90 22:28 13.08.2022
2213 Clouds 10 1025 93 10000 3.09 100 20:58 13.08.2022
2214 Clouds 10 1025 93 10000 2.57 90 19:50 13.08.2022
2215 Clouds 11 1025 87 10000 2.57 100 19:20 13.08.2022
2216 Clouds 14 1023 72 10000 5.66 100 17:35 13.08.2022
2217 Clouds 18 1023 52 10000 8.23 110 15:18 13.08.2022
2218 Clouds 18 1023 55 10000 7.72 110 14:24 13.08.2022
2219 Clouds 20 1023 52 10000 6.17 80 13:37 13.08.2022
2220 Clouds 19 1024 56 10000 5.66 100 11:49 13.08.2022
2221 Clouds 15 1025 72 10000 3.6 140 09:43 13.08.2022
2222 Clouds 12 1025 82 10000 2.06 130 07:50 13.08.2022
2223 Clouds 8 1024 93 10000 3.09 150 02:33 13.08.2022
2224 Clouds 10 1025 100 10000 3.09 120 23:45 12.08.2022
2225 Clouds 12 1025 94 10000 3.6 130 21:40 12.08.2022
2226 Clouds 11 1025 100 10000 3.09 110 19:51 12.08.2022
2227 Drizzle 12 1025 100 8000 3.6 140 19:24 12.08.2022
2228 Clouds 12 1025 88 10000 4.63 110 18:31 12.08.2022
2229 Clouds 15 1024 72 10000 4.63 90 16:27 12.08.2022
2230 Clouds 17 1024 59 10000 5.14 150 15:23 12.08.2022
2231 Clouds 18 1023 55 10000 6.17 100 13:56 12.08.2022
2232 Clouds 19 1024 52 10000 5.66 110 12:50 12.08.2022
2233 Clouds 15 1026 72 10000 5.66 140 09:28 12.08.2022
2234 Clouds 13 1025 82 10000 4.63 160 07:47 12.08.2022
2235 Drizzle 11 1025 94 8000 3.6 160 06:25 12.08.2022
2236 Clouds 11 1025 82 10000 3.6 150 01:22 12.08.2022
2237 Clouds 12 1026 82 10000 4.63 150 00:18 12.08.2022
2238 Clouds 11 1026 82 10000 3.6 160 23:27 11.08.2022
2239 Clouds 12 1027 76 10000 4.12 170 21:57 11.08.2022
2240 Clouds 12 1026 76 10000 4.63 170 21:34 11.08.2022
2241 Clouds 12 1026 76 10000 4.63 160 20:31 11.08.2022
2242 Clouds 12 1026 76 10000 3.6 150 19:41 11.08.2022
2243 Clouds 12 1026 76 10000 3.6 150 19:21 11.08.2022
2244 Clouds 13 1025 67 10000 4.63 120 17:23 11.08.2022
2245 Clouds 15 1025 55 10000 6.69 140 15:51 11.08.2022
2246 Clouds 15 1024 59 10000 6.17 130 14:46 11.08.2022
2247 Clouds 18 1025 52 10000 8.75 120 12:35 11.08.2022
2248 Clouds 14 1027 63 10000 6.17 160 09:24 11.08.2022
2249 Clouds 11 1026 76 10000 4.63 140 06:58 11.08.2022
2250 Clouds 9 1025 81 10000 3.6 150 03:23 11.08.2022
2251 Clouds 11 1026 76 10000 4.63 160 00:19 11.08.2022
2252 Clouds 12 1027 76 10000 4.12 140 21:56 10.08.2022
2253 Clouds 11 1027 82 10000 3.6 130 21:19 10.08.2022
2254 Clouds 11 1027 82 10000 4.12 140 20:42 10.08.2022
2255 Clouds 12 1026 76 10000 3.6 150 18:53 10.08.2022
2256 Clouds 13 1025 72 10000 5.14 130 17:28 10.08.2022
2257 Clouds 17 1024 55 10000 7.2 120 15:26 10.08.2022
2258 Clouds 17 1024 63 10000 7.72 120 13:34 10.08.2022
2259 Clouds 18 1025 63 10000 5.66 140 11:47 10.08.2022
2260 Clouds 14 1026 77 10000 4.12 150 08:44 10.08.2022
2261 Clouds 12 1025 76 10000 3.09 120 07:36 10.08.2022
2262 Clouds 8 1025 93 10000 2.06 120 05:46 10.08.2022
2263 Clouds 10 1025 87 10000 3.6 130 02:22 10.08.2022
2264 Clouds 12 1026 82 10000 4.12 150 23:33 09.08.2022
2265 Clouds 12 1026 82 10000 3.6 140 22:48 09.08.2022
2266 Clouds 12 1027 82 10000 4.63 140 21:33 09.08.2022
2267 Clouds 13 1026 77 10000 4.63 150 19:33 09.08.2022
2268 Clouds 13 1026 77 10000 3.6 150 17:59 09.08.2022
2269 Clouds 13 1025 82 10000 3.09 140 17:26 09.08.2022
2270 Clouds 14 1025 77 10000 5.66 120 16:33 09.08.2022
2271 Clouds 16 1025 63 10000 6.17 120 15:26 09.08.2022
2272 Clouds 19 1025 49 10000 6.17 120 12:20 09.08.2022
2273 Clouds 16 1027 55 10000 6.17 170 08:54 09.08.2022
2274 Clouds 12 1027 76 10000 4.12 160 07:59 09.08.2022
2275 Drizzle 9 1026 100 10000 1.54 0 06:55 09.08.2022
2276 Clouds 7 1025 100 10000 1.54 100 01:57 09.08.2022
2277 Clouds 7 1026 100 10000 2.06 80 23:26 08.08.2022
2278 Clouds 8 1026 100 10000 1.54 60 22:52 08.08.2022
2279 Clouds 9 1026 93 10000 3.09 90 21:47 08.08.2022
2280 Clouds 9 1026 93 10000 2.57 70 20:43 08.08.2022
2281 Clouds 12 1026 82 10000 4.63 120 19:41 08.08.2022
2282 Clouds 14 1025 67 10000 5.66 110 18:19 08.08.2022
2283 Clouds 16 1024 51 10000 5.14 140 15:55 08.08.2022
2284 Clouds 18 1023 48 10000 5.66 120 15:37 08.08.2022
2285 Clouds 20 1024 40 10000 5.66 130 12:35 08.08.2022
2286 Clouds 19 1024 37 10000 6.69 120 10:50 08.08.2022
2287 Clouds 13 1025 77 10000 3.6 160 08:20 08.08.2022
2288 Fog 8 1023 100 200 1.54 160 04:45 08.08.2022
2289 Clouds 7 1023 100 10000 1.03 60 01:29 08.08.2022
2290 Clouds 11 1024 87 10000 3.09 140 21:42 07.08.2022
2291 Clouds 11 1024 87 10000 3.09 130 21:24 07.08.2022
2292 Clouds 11 1024 87 10000 4.12 110 20:24 07.08.2022
2293 Clouds 11 1024 82 10000 4.12 100 19:52 07.08.2022
2294 Clouds 12 1023 71 10000 4.63 90 19:22 07.08.2022
2295 Clouds 14 1023 63 10000 4.63 110 17:45 07.08.2022
2296 Clouds 16 1022 51 10000 6.17 110 16:52 07.08.2022
2297 Clouds 20 1021 37 10000 6.17 110 15:40 07.08.2022
2298 Clouds 21 1021 35 10000 6.17 120 14:27 07.08.2022
2299 Clouds 21 1021 35 10000 3.6 150 12:41 07.08.2022
2300 Clouds 20 1023 43 10000 3.09 0 10:51 07.08.2022
2301 Clouds 19 1023 49 10000 3.09 180 10:21 07.08.2022
2302 Clouds 7 1022 100 10000 0 0 04:38 07.08.2022
2303 Clouds 9 1022 100 10000 1.03 0 02:25 07.08.2022
2304 Clouds 12 1023 88 10000 2.06 50 22:39 06.08.2022
2305 Clouds 12 1023 88 10000 2.06 50 22:18 06.08.2022
2306 Clouds 14 1022 72 10000 4.12 100 19:46 06.08.2022
2307 Clouds 14 1022 72 10000 3.09 100 18:50 06.08.2022
2308 Clouds 15 1021 67 10000 3.6 90 17:45 06.08.2022
2309 Clouds 18 1021 48 10000 4.12 100 16:24 06.08.2022
2310 Clouds 23 1020 33 10000 2.57 0 13:51 06.08.2022
2311 Clouds 23 1021 35 10000 2.06 0 12:27 06.08.2022
2312 Clouds 21 1022 43 10000 2.57 180 11:21 06.08.2022
2313 Clouds 18 1024 52 10000 1.54 0 09:41 06.08.2022
2314 Fog 8 1022 100 400 0.51 0 04:43 06.08.2022
2315 Clouds 9 1023 100 10000 0.51 70 00:49 06.08.2022
2316 Clouds 10 1024 100 10000 1.54 160 22:35 05.08.2022
2317 Clouds 11 1024 94 10000 2.06 130 20:50 05.08.2022
2318 Clouds 12 1024 88 10000 4.12 110 18:56 05.08.2022
2319 Clouds 13 1023 82 10000 4.12 80 18:38 05.08.2022
2320 Clouds 16 1023 59 10000 4.12 100 16:52 05.08.2022
2321 Clouds 20 1023 46 10000 4.12 80 15:24 05.08.2022
2322 Clouds 20 1023 43 10000 3.6 120 14:35 05.08.2022
2323 Clouds 21 1023 43 10000 3.6 100 13:36 05.08.2022
2324 Clouds 21 1023 43 10000 3.6 100 13:18 05.08.2022
2325 Clouds 19 1024 45 10000 4.12 150 11:29 05.08.2022
2326 Clouds 15 1026 63 10000 3.09 140 08:57 05.08.2022
2327 Clouds 13 1026 77 10000 2.57 150 07:53 05.08.2022
2328 Clouds 7 1024 100 10000 0 0 04:19 05.08.2022
2329 Clouds 10 1025 93 10000 2.06 170 23:18 04.08.2022
2330 Clouds 10 1026 93 10000 2.06 150 21:28 04.08.2022
2331 Clouds 11 1026 87 10000 1.54 0 20:57 04.08.2022
2332 Clouds 10 1025 93 10000 2.06 100 20:37 04.08.2022
2333 Clouds 12 1025 82 10000 4.12 100 18:59 04.08.2022
2334 Clouds 12 1025 82 10000 5.14 90 18:34 04.08.2022
2335 Clouds 17 1024 55 10000 6.17 120 15:53 04.08.2022
2336 Clouds 18 1024 55 10000 5.66 180 13:26 04.08.2022
2337 Clouds 18 1024 55 10000 5.66 180 13:26 04.08.2022
2338 Clouds 19 1025 49 10000 4.12 160 11:39 04.08.2022
2339 Clouds 18 1026 55 10000 3.6 140 10:22 04.08.2022
2340 Rain 13 1026 77 10000 3.09 150 07:47 04.08.2022
2341 Clouds 12 1024 88 10000 2.57 100 02:50 04.08.2022
2342 Clouds 12 1025 88 10000 3.6 110 00:43 04.08.2022
2343 Clouds 12 1025 94 10000 4.12 100 23:40 03.08.2022
2344 Clouds 13 1025 88 10000 4.12 100 21:31 03.08.2022
2345 Clouds 13 1025 82 10000 4.12 100 20:21 03.08.2022
2346 Clouds 13 1025 82 10000 3.6 100 19:24 03.08.2022
2347 Clouds 16 1024 63 10000 4.63 90 16:50 03.08.2022
2348 Clouds 17 1024 59 10000 4.12 70 16:22 03.08.2022
2349 Clouds 18 1024 59 10000 4.63 110 13:53 03.08.2022
2350 Clouds 17 1025 59 10000 5.14 140 10:57 03.08.2022
2351 Clouds 12 1025 82 10000 3.6 170 07:32 03.08.2022
2352 Clouds 11 1024 82 10000 2.57 170 04:22 03.08.2022
2353 Clouds 11 1024 82 10000 2.57 160 03:23 03.08.2022
2354 Clouds 12 1025 82 10000 5.14 170 00:49 03.08.2022
2355 Clouds 11 1025 94 10000 2.06 150 22:43 02.08.2022
2356 Clouds 11 1025 87 10000 2.06 120 21:52 02.08.2022
2357 Clouds 12 1026 88 10000 4.63 120 20:32 02.08.2022
2358 Clouds 12 1025 82 10000 3.6 110 18:34 02.08.2022
2359 Clouds 18 1023 48 10000 5.66 140 15:20 02.08.2022
2360 Clouds 19 1025 49 10000 5.66 140 10:51 02.08.2022
2361 Clouds 15 1026 63 10000 6.69 150 08:54 02.08.2022
2362 Clouds 13 1026 77 10000 5.14 160 07:52 02.08.2022
2363 Clouds 11 1025 87 10000 3.09 170 05:40 02.08.2022
2364 Clouds 11 1024 94 10000 2.57 140 03:40 02.08.2022
2365 Clouds 12 1025 94 10000 2.06 150 23:35 01.08.2022
2366 Clouds 12 1025 94 10000 2.06 140 22:21 01.08.2022
2367 Clouds 13 1025 88 10000 2.57 150 20:47 01.08.2022
2368 Clouds 14 1025 77 10000 3.09 140 19:22 01.08.2022
2369 Clouds 15 1024 67 10000 3.6 90 17:27 01.08.2022
2370 Clouds 16 1023 63 10000 4.12 90 16:50 01.08.2022
2371 Clouds 19 1023 49 10000 5.66 100 15:51 01.08.2022
2372 Clouds 20 1023 49 10000 5.14 110 15:28 01.08.2022
2373 Clouds 21 1023 46 10000 5.66 120 13:45 01.08.2022
2374 Clouds 20 1024 52 10000 3.6 150 11:49 01.08.2022
2375 Clouds 17 1026 63 8000 2.06 120 09:38 01.08.2022
2376 Mist 12 1026 100 6000 1.54 0 08:21 01.08.2022
2377 Fog 8 1024 100 250 1.03 0 04:45 01.08.2022
2378 Clouds 9 1024 100 10000 1.54 130 02:31 01.08.2022
2379 Clouds 10 1025 100 10000 1.54 60 23:42 31.07.2022
2380 Clouds 11 1025 94 10000 3.09 120 22:36 31.07.2022
2381 Clouds 11 1024 94 10000 3.09 110 20:49 31.07.2022
2382 Clouds 13 1024 82 10000 3.09 130 19:25 31.07.2022
2383 Clouds 14 1023 72 10000 3.6 100 17:43 31.07.2022
2384 Clouds 20 1022 49 10000 5.14 110 15:30 31.07.2022
2385 Clouds 21 1022 43 10000 4.12 110 13:31 31.07.2022
2386 Clouds 21 1023 43 10000 4.12 120 11:45 31.07.2022
2387 Clouds 18 1024 55 10000 2.57 160 09:27 31.07.2022
2388 Clouds 11 1024 94 10000 3.09 80 06:37 31.07.2022
2389 Clouds 12 1023 100 10000 2.06 70 02:56 31.07.2022
2390 Clouds 13 1024 88 10000 2.57 150 23:29 30.07.2022
2391 Clouds 12 1024 100 10000 2.06 140 22:19 30.07.2022
2392 Clouds 11 1024 100 10000 1.03 0 21:40 30.07.2022
2393 Clouds 11 1024 100 10000 1.54 80 20:51 30.07.2022
2394 Clouds 12 1024 94 10000 3.6 100 19:58 30.07.2022
2395 Clouds 13 1023 82 10000 4.12 120 18:26 30.07.2022
2396 Clouds 16 1023 67 10000 4.63 90 16:54 30.07.2022
2397 Clouds 19 1022 56 10000 6.69 110 15:35 30.07.2022
2398 Clouds 18 1022 55 10000 5.66 130 14:32 30.07.2022
2399 Clouds 19 1023 56 10000 5.14 100 12:43 30.07.2022
2400 Clouds 18 1024 59 10000 5.14 100 11:55 30.07.2022
2401 Clouds 18 1024 63 10000 4.12 0 10:20 30.07.2022
2402 Clouds 16 1025 72 10000 4.12 130 09:42 30.07.2022
2403 Clouds 14 1025 82 10000 2.57 140 07:44 30.07.2022
2404 Clouds 12 1023 94 10000 3.09 110 02:34 30.07.2022
2405 Clouds 12 1024 94 10000 2.57 70 01:21 30.07.2022
2406 Clouds 13 1025 88 10000 3.09 70 21:39 29.07.2022
2407 Clouds 13 1025 88 10000 2.57 90 20:57 29.07.2022
2408 Clouds 14 1024 82 10000 3.6 110 19:48 29.07.2022
2409 Clouds 14 1023 82 10000 4.63 120 17:40 29.07.2022
2410 Clouds 18 1022 59 10000 6.17 100 14:53 29.07.2022
2411 Rain 19 1022 56 10000 2.57 100 12:58 29.07.2022
2412 Clouds 14 1025 94 10000 3.09 140 09:35 29.07.2022
2413 Drizzle 13 1025 94 6000 3.6 140 08:46 29.07.2022
2414 Clouds 13 1024 100 10000 3.09 120 07:30 29.07.2022
2415 Clouds 13 1022 88 10000 2.57 170 01:46 29.07.2022
2416 Clouds 14 1023 82 10000 2.57 140 21:54 28.07.2022
2417 Clouds 14 1023 82 10000 5.66 110 20:54 28.07.2022
2418 Clouds 14 1023 82 10000 4.12 120 20:21 28.07.2022
2419 Clouds 14 1023 88 10000 3.09 140 19:40 28.07.2022
2420 Clouds 14 1022 82 10000 3.6 100 18:25 28.07.2022
2421 Clouds 15 1022 72 10000 4.12 100 17:42 28.07.2022
2422 Clouds 17 1021 63 10000 4.63 100 16:41 28.07.2022
2423 Clouds 21 1020 43 10000 4.12 130 14:30 28.07.2022
2424 Clouds 23 1021 38 10000 3.6 160 12:41 28.07.2022
2425 Clouds 18 1023 59 10000 1.54 0 09:34 28.07.2022
2426 Clouds 6 1021 100 10000 0 0 05:45 28.07.2022
2427 Fog 6 1021 100 10000 0 0 05:24 28.07.2022
2428 Clouds 10 1021 93 10000 0.51 200 00:29 28.07.2022
2429 Clouds 11 1022 87 10000 1.54 90 22:25 27.07.2022
2430 Clouds 11 1022 82 10000 3.09 100 20:20 27.07.2022
2431 Clouds 11 1021 76 10000 2.06 100 19:32 27.07.2022
2432 Clouds 18 1019 48 10000 4.63 100 16:34 27.07.2022
2433 Clouds 19 1019 45 10000 4.12 110 15:51 27.07.2022
2434 Clouds 20 1018 40 10000 3.6 110 14:42 27.07.2022
2435 Clouds 21 1019 37 10000 4.12 110 13:58 27.07.2022
2436 Clouds 20 1020 46 10000 3.6 150 11:49 27.07.2022
2437 Clouds 14 1022 67 10000 4.12 130 07:53 27.07.2022
2438 Clouds 11 1020 100 10000 1.54 140 05:23 27.07.2022
2439 Clouds 10 1022 100 10000 2.06 50 23:41 26.07.2022
2440 Clouds 11 1022 100 10000 1.54 140 22:20 26.07.2022
2441 Clouds 12 1023 94 10000 2.06 140 21:19 26.07.2022
2442 Clouds 12 1022 88 10000 3.09 100 19:39 26.07.2022
2443 Clouds 13 1022 82 10000 3.6 100 18:41 26.07.2022
2444 Clouds 14 1021 77 10000 4.63 100 17:55 26.07.2022
2445 Clouds 20 1020 52 10000 5.14 100 15:47 26.07.2022
2446 Clouds 22 1020 40 10000 2.06 0 14:43 26.07.2022
2447 Clouds 22 1021 43 10000 3.09 100 12:41 26.07.2022
2448 Clouds 19 1023 56 10000 2.06 180 10:35 26.07.2022
2449 Mist 15 1024 77 7000 2.06 180 08:29 26.07.2022
2450 Clouds 11 1022 94 10000 1.54 50 03:58 26.07.2022
2451 Clouds 8 1023 100 10000 0.51 0 00:22 26.07.2022
2452 Clouds 10 1024 100 10000 1.54 40 22:41 25.07.2022
2453 Clouds 10 1024 100 10000 2.06 60 22:21 25.07.2022
2454 Clouds 11 1024 94 10000 2.06 130 21:31 25.07.2022
2455 Clouds 10 1024 100 10000 2.57 110 20:39 25.07.2022
2456 Clouds 11 1024 94 10000 1.54 60 19:25 25.07.2022
2457 Clouds 13 1023 82 10000 2.57 80 18:18 25.07.2022
2458 Clouds 14 1023 72 10000 3.6 100 17:23 25.07.2022
2459 Clouds 19 1022 52 10000 4.63 110 14:19 25.07.2022
2460 Clouds 19 1024 49 10000 4.63 130 10:56 25.07.2022
2461 Clouds 14 1024 77 10000 2.57 120 08:22 25.07.2022
2462 Clouds 9 1023 100 10000 1.54 80 01:44 25.07.2022
2463 Clouds 9 1023 100 10000 1.03 40 23:46 24.07.2022
2464 Clouds 10 1024 100 10000 2.06 70 22:49 24.07.2022
2465 Clouds 10 1024 100 10000 0.51 40 21:48 24.07.2022
2466 Clouds 10 1024 100 10000 0.51 40 21:18 24.07.2022
2467 Clouds 10 1024 100 10000 2.06 60 20:45 24.07.2022
2468 Clouds 11 1024 87 10000 2.57 110 19:37 24.07.2022
2469 Clouds 12 1023 76 10000 2.06 90 18:26 24.07.2022
2470 Clouds 18 1022 52 10000 5.14 110 15:55 24.07.2022
2471 Clouds 19 1021 49 10000 5.66 120 14:57 24.07.2022
2472 Clouds 20 1022 46 10000 4.63 110 13:50 24.07.2022
2473 Clouds 19 1023 52 10000 4.63 120 12:28 24.07.2022
2474 Clouds 16 1024 67 10000 2.57 140 11:31 24.07.2022
2475 Clouds 16 1024 67 10000 3.6 150 10:26 24.07.2022
2476 Clouds 13 1025 82 10000 3.09 140 08:29 24.07.2022
2477 Clouds 13 1025 82 10000 3.09 180 07:44 24.07.2022
2478 Clouds 11 1023 100 10000 2.06 110 03:35 24.07.2022
2479 Clouds 11 1025 94 10000 3.09 110 23:36 23.07.2022
2480 Clouds 12 1026 94 10000 3.6 120 20:49 23.07.2022
2481 Clouds 11 1025 100 10000 1.54 0 19:30 23.07.2022
2482 Clouds 12 1025 94 10000 3.6 90 18:49 23.07.2022
2483 Clouds 13 1024 82 10000 3.09 100 17:28 23.07.2022
2484 Clouds 15 1024 77 10000 3.09 120 16:29 23.07.2022
2485 Clouds 16 1024 72 10000 3.6 120 15:22 23.07.2022
2486 Drizzle 17 1023 63 10000 3.6 130 14:55 23.07.2022
2487 Clouds 17 1023 63 10000 3.09 140 14:24 23.07.2022
2488 Clouds 17 1024 63 10000 2.57 140 12:22 23.07.2022
2489 Clouds 16 1025 67 10000 4.12 150 10:44 23.07.2022
2490 Clouds 15 1026 72 10000 4.12 130 09:53 23.07.2022
2491 Drizzle 12 1026 88 8000 3.6 150 08:24 23.07.2022
2492 Clouds 9 1024 100 10000 1.03 0 03:38 23.07.2022
2493 Clouds 10 1025 100 10000 2.06 100 00:39 23.07.2022
2494 Clouds 8 1026 93 10000 2.57 110 21:41 22.07.2022
2495 Clouds 10 1026 87 10000 3.6 140 20:33 22.07.2022
2496 Clouds 12 1026 82 10000 4.12 140 18:57 22.07.2022
2497 Clouds 12 1025 88 10000 2.57 160 17:52 22.07.2022
2498 Clouds 13 1025 82 10000 3.6 130 16:31 22.07.2022
2499 Drizzle 14 1024 88 8000 3.6 140 13:50 22.07.2022
2500 Clouds 14 1026 82 10000 4.12 130 10:40 22.07.2022
2501 Clouds 14 1027 77 10000 4.63 170 09:25 22.07.2022
2502 Clouds 12 1027 88 10000 4.63 160 08:26 22.07.2022
2503 Clouds 9 1025 100 10000 2.06 150 04:24 22.07.2022
2504 Clouds 10 1027 93 10000 1.54 0 23:44 21.07.2022
2505 Clouds 10 1028 93 10000 3.09 120 21:55 21.07.2022
2506 Clouds 9 1027 100 10000 2.57 90 20:36 21.07.2022
2507 Clouds 11 1027 87 10000 4.63 100 18:52 21.07.2022
2508 Clouds 12 1026 82 10000 3.6 90 17:22 21.07.2022
2509 Clouds 13 1026 77 10000 5.66 90 16:43 21.07.2022
2510 Clouds 17 1025 52 10000 5.66 100 14:49 21.07.2022
2511 Clouds 18 1025 52 10000 4.12 160 13:58 21.07.2022
2512 Clouds 18 1025 52 10000 4.12 160 13:58 21.07.2022
2513 Clouds 15 1026 67 10000 5.14 130 12:18 21.07.2022
2514 Rain 14 1027 72 10000 6.17 170 10:37 21.07.2022
2515 Clouds 13 1027 72 10000 5.66 140 08:53 21.07.2022
2516 Clouds 13 1028 77 10000 5.66 120 08:35 21.07.2022
2517 Clouds 11 1027 87 10000 4.12 150 07:22 21.07.2022
2518 Clouds 10 1025 100 10000 3.6 110 03:25 21.07.2022
2519 Drizzle 11 1027 100 10000 3.6 170 22:51 20.07.2022
2520 Drizzle 11 1027 100 10000 3.6 170 22:20 20.07.2022
2521 Clouds 11 1027 94 10000 3.6 140 20:46 20.07.2022
2522 Clouds 11 1027 94 10000 3.6 140 19:47 20.07.2022
2523 Clouds 11 1027 94 10000 3.6 140 19:47 20.07.2022
2524 Clouds 12 1027 94 10000 4.12 140 18:56 20.07.2022
2525 Clouds 12 1027 100 10000 3.09 110 18:31 20.07.2022
2526 Clouds 13 1026 88 10000 3.09 140 17:33 20.07.2022
2527 Clouds 15 1026 77 10000 4.63 140 15:38 20.07.2022
2528 Clouds 15 1026 77 10000 3.6 160 14:54 20.07.2022
2529 Clouds 17 1026 63 10000 7.2 100 13:44 20.07.2022
2530 Clouds 17 1027 59 10000 5.66 130 11:29 20.07.2022
2531 Clouds 12 1028 82 10000 4.12 140 06:49 20.07.2022
2532 Drizzle 10 1027 100 10000 3.6 160 01:57 20.07.2022
2533 Drizzle 10 1027 100 10000 4.63 170 00:42 20.07.2022
2534 Clouds 10 1028 87 10000 3.6 170 22:38 19.07.2022
2535 Clouds 10 1028 87 10000 3.6 170 22:20 19.07.2022
2536 Clouds 10 1029 82 10000 5.14 140 20:50 19.07.2022
2537 Clouds 10 1029 87 10000 4.12 150 19:37 19.07.2022
2538 Clouds 11 1029 82 10000 4.12 140 18:42 19.07.2022
2539 Clouds 11 1028 87 10000 7.2 110 17:55 19.07.2022
2540 Clouds 14 1027 67 10000 6.17 150 15:49 19.07.2022
2541 Clouds 18 1026 39 10000 8.23 130 13:46 19.07.2022
2542 Clouds 16 1028 59 10000 7.2 160 11:34 19.07.2022
2543 Rain 16 1028 63 10000 11.32 120 09:54 19.07.2022
2544 Rain 14 1028 82 10000 8.75 120 08:48 19.07.2022
2545 Clouds 13 1028 94 10000 9.77 110 08:21 19.07.2022
2546 Drizzle 13 1027 100 6000 4.12 130 07:18 19.07.2022
2547 Rain 11 1026 100 10000 2.57 160 05:20 19.07.2022
2548 Drizzle 11 1026 100 10000 2.57 140 04:40 19.07.2022
2549 Drizzle 11 1027 87 10000 3.6 140 00:18 19.07.2022
2550 Clouds 11 1028 82 10000 3.09 160 23:20 18.07.2022
2551 Clouds 11 1028 82 10000 4.12 170 22:42 18.07.2022
2552 Clouds 11 1028 82 10000 4.12 140 21:27 18.07.2022
2553 Clouds 11 1028 82 10000 4.63 160 20:49 18.07.2022
2554 Clouds 11 1028 82 10000 4.63 150 19:21 18.07.2022
2555 Clouds 13 1027 82 10000 5.66 140 16:45 18.07.2022
2556 Clouds 13 1026 88 10000 6.17 140 15:40 18.07.2022
2557 Clouds 15 1026 72 10000 7.2 160 13:41 18.07.2022
2558 Clouds 17 1026 68 10000 6.17 140 12:29 18.07.2022
2559 Rain 18 1027 59 10000 7.2 130 10:24 18.07.2022
2560 Clouds 13 1027 82 10000 4.63 170 08:20 18.07.2022
2561 Clouds 11 1027 87 10000 4.63 150 06:39 18.07.2022
2562 Clouds 10 1028 82 10000 4.12 180 23:19 17.07.2022
2563 Clouds 10 1028 82 10000 5.66 180 22:32 17.07.2022
2564 Clouds 11 1028 76 10000 5.14 180 21:43 17.07.2022
2565 Clouds 11 1028 76 10000 4.63 180 20:46 17.07.2022
2566 Clouds 12 1028 71 10000 4.63 170 20:18 17.07.2022
2567 Clouds 12 1028 76 10000 4.63 170 19:26 17.07.2022
2568 Clouds 13 1027 72 10000 4.12 150 18:22 17.07.2022
2569 Clouds 13 1027 72 10000 8.23 170 17:37 17.07.2022
2570 Clouds 15 1026 59 10000 4.63 150 16:49 17.07.2022
2571 Clouds 15 1026 59 10000 4.63 150 16:24 17.07.2022
2572 Clouds 18 1025 45 10000 7.2 150 13:58 17.07.2022
2573 Clouds 17 1025 48 10000 7.2 150 13:24 17.07.2022
2574 Clouds 15 1027 59 10000 8.75 160 10:23 17.07.2022
2575 Clouds 13 1027 72 10000 6.69 140 07:55 17.07.2022
2576 Clouds 12 1024 94 10000 3.6 160 02:36 17.07.2022
2577 Clouds 11 1025 100 10000 4.12 160 00:33 17.07.2022
2578 Clouds 12 1026 82 10000 5.14 170 23:18 16.07.2022
2579 Clouds 12 1026 88 10000 4.12 160 20:53 16.07.2022
2580 Drizzle 13 1025 88 10000 4.63 160 18:59 16.07.2022
2581 Clouds 14 1025 77 10000 4.63 170 17:48 16.07.2022
2582 Clouds 15 1024 72 10000 4.63 150 16:23 16.07.2022
2583 Clouds 17 1023 63 10000 5.66 140 13:36 16.07.2022
2584 Clouds 18 1025 55 10000 4.12 150 10:34 16.07.2022
2585 Clouds 16 1025 63 10000 3.09 130 09:28 16.07.2022
2586 Clouds 13 1025 82 10000 3.6 160 08:41 16.07.2022
2587 Clouds 12 1025 88 10000 3.6 170 07:40 16.07.2022
2588 Clouds 10 1023 100 10000 2.57 220 03:38 16.07.2022
2589 Clouds 10 1024 100 10000 1.03 0 00:48 16.07.2022
2590 Clouds 10 1024 100 10000 1.54 150 23:21 15.07.2022
2591 Clouds 10 1024 100 10000 1.54 0 22:37 15.07.2022
2592 Clouds 10 1024 93 10000 1.54 80 20:44 15.07.2022
2593 Clouds 11 1024 87 10000 3.6 110 19:49 15.07.2022
2594 Clouds 12 1023 76 10000 3.6 100 18:30 15.07.2022
2595 Clouds 14 1022 63 10000 4.63 100 17:19 15.07.2022
2596 Clouds 20 1021 43 10000 5.66 100 14:24 15.07.2022
2597 Clouds 20 1022 43 10000 4.63 130 12:38 15.07.2022
2598 Clouds 19 1023 45 10000 3.6 150 10:52 15.07.2022
2599 Clouds 13 1024 82 10000 3.09 160 07:55 15.07.2022
2600 Clouds 8 1023 100 10000 1.03 0 04:54 15.07.2022
2601 Clouds 11 1023 94 10000 3.6 100 00:43 15.07.2022
2602 Clouds 12 1024 88 10000 2.06 160 23:24 14.07.2022
2603 Clouds 11 1024 94 10000 2.57 140 22:24 14.07.2022
2604 Clouds 10 1024 100 10000 3.09 120 21:40 14.07.2022
2605 Clouds 11 1024 94 10000 2.06 130 21:21 14.07.2022
2606 Clouds 11 1024 94 10000 2.57 140 20:43 14.07.2022
2607 Clouds 11 1024 94 10000 3.09 110 20:18 14.07.2022
2608 Clouds 13 1023 77 10000 4.12 110 18:24 14.07.2022
2609 Clouds 17 1021 59 10000 4.63 140 16:19 14.07.2022
2610 Clouds 20 1021 46 10000 3.09 110 14:56 14.07.2022
2611 Clouds 20 1021 49 10000 2.06 0 13:51 14.07.2022
2612 Clouds 19 1022 52 10000 3.6 130 12:34 14.07.2022
2613 Clouds 19 1023 52 10000 3.6 110 11:26 14.07.2022
2614 Clouds 18 1023 55 10000 3.09 130 10:51 14.07.2022
2615 Clouds 14 1025 72 10000 3.09 150 08:52 14.07.2022
2616 Clouds 12 1023 82 10000 2.57 150 04:44 14.07.2022
2617 Clouds 12 1024 82 10000 3.6 120 01:19 14.07.2022
2618 Clouds 12 1025 88 10000 3.6 110 00:50 14.07.2022
2619 Clouds 13 1026 77 10000 5.14 100 22:30 13.07.2022
2620 Clouds 13 1026 82 10000 4.12 140 21:38 13.07.2022
2621 Clouds 13 1026 82 10000 4.63 130 20:38 13.07.2022
2622 Clouds 14 1026 77 10000 5.14 120 18:26 13.07.2022
2623 Clouds 13 1025 82 10000 5.66 110 17:22 13.07.2022
2624 Clouds 16 1024 72 10000 6.69 110 16:18 13.07.2022
2625 Clear 20 1024 49 10000 5.14 110 13:57 13.07.2022
2626 Clouds 19 1027 56 10000 7.2 110 11:33 13.07.2022
2627 Clouds 18 1027 59 10000 5.14 130 10:44 13.07.2022
2628 Clouds 15 1028 72 10000 5.14 160 09:30 13.07.2022
2629 Clouds 14 1028 77 10000 4.12 160 08:24 13.07.2022
2630 Clouds 12 1026 94 10000 3.09 160 04:50 13.07.2022
2631 Clouds 13 1028 82 10000 2.57 150 00:47 13.07.2022
2632 Clouds 13 1029 82 10000 3.6 140 22:48 12.07.2022
2633 Clouds 13 1029 88 10000 5.14 110 21:49 12.07.2022
2634 Clouds 14 1029 82 10000 4.63 120 20:54 12.07.2022
2635 Clouds 14 1029 82 10000 3.6 150 20:21 12.07.2022
2636 Clouds 14 1029 82 10000 2.57 90 18:51 12.07.2022
2637 Clouds 13 1028 82 10000 3.09 100 17:23 12.07.2022
2638 Clouds 19 1027 56 10000 5.66 110 15:32 12.07.2022
2639 Clouds 20 1027 52 10000 3.6 110 13:43 12.07.2022
2640 Clouds 17 1028 63 10000 4.63 150 11:55 12.07.2022
2641 Clouds 16 1029 72 10000 5.14 160 10:45 12.07.2022
2642 Clouds 14 1029 82 10000 5.14 150 08:59 12.07.2022
2643 Clouds 12 1029 100 9000 4.12 180 07:48 12.07.2022
2644 Drizzle 10 1028 100 3500 2.06 190 05:47 12.07.2022
2645 Drizzle 10 1028 100 3500 2.06 180 05:29 12.07.2022
2646 Clouds 9 1028 100 10000 2.57 140 01:32 12.07.2022
2647 Clouds 11 1028 100 7000 4.63 100 22:48 11.07.2022
2648 Rain 12 1028 94 10000 2.57 160 21:34 11.07.2022
2649 Clouds 12 1028 94 10000 3.09 150 20:32 11.07.2022
2650 Clouds 13 1028 82 10000 3.6 140 19:27 11.07.2022
2651 Clouds 13 1027 82 10000 3.09 150 18:30 11.07.2022
2652 Clouds 15 1026 59 10000 5.66 120 16:31 11.07.2022
2653 Clouds 16 1027 67 10000 7.2 100 15:28 11.07.2022
2654 Clouds 17 1026 59 10000 6.17 130 13:19 11.07.2022
2655 Clouds 16 1027 67 10000 6.17 140 11:24 11.07.2022
2656 Clouds 16 1027 67 10000 6.17 140 11:24 11.07.2022
2657 Clouds 16 1027 67 10000 6.17 140 11:24 11.07.2022
2658 Clouds 14 1027 72 10000 6.69 140 09:58 11.07.2022
2659 Clouds 14 1028 72 10000 5.14 150 09:35 11.07.2022
2660 Clouds 12 1028 82 10000 5.66 160 08:32 11.07.2022
2661 Clouds 9 1026 93 10000 3.09 140 01:54 11.07.2022
2662 Clouds 11 1027 82 10000 6.17 120 23:55 10.07.2022
2663 Clouds 11 1028 94 10000 4.63 100 22:48 10.07.2022
2664 Clouds 11 1028 94 10000 3.6 150 20:56 10.07.2022
2665 Clouds 12 1028 88 10000 4.12 150 20:36 10.07.2022
2666 Clouds 12 1027 94 10000 2.06 140 19:38 10.07.2022
2667 Clouds 11 1027 87 10000 3.09 120 18:35 10.07.2022
2668 Clouds 13 1027 77 10000 5.14 140 17:35 10.07.2022
2669 Clouds 14 1026 72 10000 5.14 150 16:24 10.07.2022
2670 Clouds 17 1026 63 10000 6.17 140 14:47 10.07.2022
2671 Clouds 17 1026 59 10000 6.17 150 13:31 10.07.2022
2672 Clouds 17 1027 68 10000 6.17 140 11:57 10.07.2022
2673 Clouds 17 1028 55 10000 8.23 130 09:46 10.07.2022
2674 Drizzle 13 1028 82 10000 6.69 140 08:44 10.07.2022
2675 Clouds 12 1027 88 10000 5.14 160 07:24 10.07.2022
2676 Drizzle 11 1027 94 10000 3.09 160 23:58 09.07.2022
2677 Clouds 11 1028 94 10000 4.12 150 22:27 09.07.2022
2678 Drizzle 11 1028 94 10000 3.09 150 21:49 09.07.2022
2679 Clouds 11 1028 82 10000 3.6 170 19:57 09.07.2022
2680 Clouds 11 1028 82 10000 3.6 140 18:32 09.07.2022
2681 Clouds 12 1028 76 10000 4.12 130 17:32 09.07.2022
2682 Clouds 14 1027 67 10000 6.69 130 16:39 09.07.2022
2683 Clouds 14 1027 72 10000 6.17 130 15:39 09.07.2022
2684 Clouds 17 1026 52 10000 6.17 140 14:24 09.07.2022
2685 Clouds 17 1027 55 10000 6.69 150 13:48 09.07.2022
2686 Clouds 16 1028 63 10000 6.69 140 12:29 09.07.2022
2687 Clouds 15 1028 67 10000 6.69 150 10:42 09.07.2022
2688 Clouds 16 1029 67 10000 7.2 130 10:21 09.07.2022
2689 Clouds 13 1028 88 10000 4.63 160 07:44 09.07.2022
2690 Clouds 12 1027 76 10000 4.63 180 04:53 09.07.2022
2691 Clouds 10 1028 87 10000 2.57 150 00:43 09.07.2022
2692 Clouds 11 1029 87 10000 4.63 150 22:42 08.07.2022
2693 Clouds 11 1029 87 10000 6.69 140 21:31 08.07.2022
2694 Clouds 12 1029 82 10000 5.66 150 20:40 08.07.2022
2695 Clouds 13 1029 88 10000 6.17 160 19:48 08.07.2022
2696 Clouds 14 1028 82 10000 4.12 150 17:57 08.07.2022
2697 Clouds 16 1027 67 10000 5.14 150 16:38 08.07.2022
2698 Clouds 18 1027 55 10000 6.69 140 14:51 08.07.2022
2699 Clouds 19 1027 49 10000 6.69 150 13:24 08.07.2022
2700 Clouds 19 1027 49 10000 6.69 150 13:24 08.07.2022
2701 Clouds 19 1028 52 10000 6.69 140 11:25 08.07.2022
2702 Clouds 17 1029 55 10000 7.2 160 10:26 08.07.2022
2703 Clouds 14 1029 67 10000 6.17 140 08:24 08.07.2022
2704 Clouds 11 1028 87 10000 5.66 150 06:47 08.07.2022
2705 Clouds 12 1027 82 10000 3.6 150 01:19 08.07.2022
2706 Clouds 11 1028 87 10000 3.09 150 22:57 07.07.2022
2707 Clouds 12 1028 88 10000 3.6 150 21:57 07.07.2022
2708 Clouds 13 1028 77 10000 4.63 140 19:47 07.07.2022
2709 Clouds 14 1027 72 10000 2.57 140 17:56 07.07.2022
2710 Clouds 16 1026 59 10000 5.66 120 16:32 07.07.2022
2711 Clouds 20 1025 49 10000 4.63 120 14:21 07.07.2022
2712 Clouds 19 1025 52 10000 5.14 170 12:46 07.07.2022
2713 Clouds 20 1026 46 10000 5.66 120 12:23 07.07.2022
2714 Clouds 19 1026 52 10000 4.63 150 11:34 07.07.2022
2715 Clouds 19 1026 49 10000 3.6 150 10:46 07.07.2022
2716 Clouds 17 1027 55 10000 4.63 140 10:27 07.07.2022
2717 Clouds 17 1027 55 10000 4.12 120 09:32 07.07.2022
2718 Clouds 8 1027 100 10000 2.57 200 06:26 07.07.2022
2719 Clouds 11 1026 85 10000 3.02 131 00:28 07.07.2022
2720 Clouds 11 1026 85 10000 3.02 131 23:36 06.07.2022
2721 Clouds 10 1027 93 10000 2.57 150 23:18 06.07.2022
2722 Clouds 10 1027 93 10000 2.57 150 22:51 06.07.2022
2723 Clouds 9 1027 100 10000 2.06 110 22:33 06.07.2022
2724 Clouds 10 1026 93 10000 1.03 0 20:23 06.07.2022
2725 Clouds 12 1026 76 10000 3.09 130 19:18 06.07.2022
2726 Clouds 13 1025 77 10000 2.57 80 17:21 06.07.2022
2727 Clear 19 1024 49 10000 5.66 100 15:50 06.07.2022
2728 Clear 22 1024 33 10000 2.06 0 12:44 06.07.2022
2729 Clear 21 1025 37 10000 4.12 0 11:52 06.07.2022
2730 Clear 18 1026 52 10000 1.54 0 10:49 06.07.2022
2731 Clear 15 1027 63 10000 2.06 150 09:21 06.07.2022
2732 Clouds 10 1027 93 10000 2.57 120 07:43 06.07.2022
2733 Fog 9 1026 100 1200 1.03 0 06:43 06.07.2022
2734 Clouds 8 1026 100 10000 1.54 80 22:52 05.07.2022
2735 Clouds 8 1026 100 10000 2.06 60 22:34 05.07.2022
2736 Clouds 9 1026 100 10000 2.57 100 20:45 05.07.2022
2737 Clouds 10 1026 93 10000 2.06 60 19:54 05.07.2022
2738 Clouds 10 1026 93 10000 1.03 0 19:36 05.07.2022
2739 Clouds 12 1025 88 10000 3.09 100 17:49 05.07.2022
2740 Clouds 13 1025 77 10000 3.09 100 17:18 05.07.2022
2741 Clouds 18 1024 55 10000 5.14 110 15:48 05.07.2022
2742 Clouds 19 1024 49 10000 6.69 100 14:44 05.07.2022
2743 Clouds 19 1024 56 10000 5.14 160 12:53 05.07.2022
2744 Clouds 19 1024 52 10000 6.69 140 12:21 05.07.2022
2745 Clouds 18 1025 68 10000 5.66 130 10:45 05.07.2022
2746 Drizzle 15 1025 94 8000 4.63 140 09:32 05.07.2022
2747 Clouds 15 1025 88 10000 3.6 140 08:20 05.07.2022
2748 Drizzle 13 1025 100 6000 3.09 150 06:47 05.07.2022
2749 Rain 13 1024 94 10000 2.57 170 04:28 05.07.2022
2750 Clouds 13 1025 94 10000 3.6 170 00:43 05.07.2022
2751 Clouds 13 1025 88 10000 1.54 170 23:36 04.07.2022
2752 Clouds 13 1025 88 10000 2.57 170 22:54 04.07.2022
2753 Clouds 13 1026 88 10000 2.57 160 21:53 04.07.2022
2754 Clouds 13 1026 94 10000 2.06 150 20:54 04.07.2022
2755 Clouds 13 1026 88 10000 3.09 170 20:35 04.07.2022
2756 Clouds 14 1026 82 10000 3.6 150 19:55 04.07.2022
2757 Clouds 14 1026 82 10000 3.6 170 19:36 04.07.2022
2758 Clouds 14 1026 82 10000 1.54 160 18:26 04.07.2022
2759 Clouds 16 1026 67 10000 4.12 110 16:34 04.07.2022
2760 Clouds 16 1025 67 10000 5.14 140 15:34 04.07.2022
2761 Clouds 18 1026 55 10000 6.69 130 13:33 04.07.2022
2762 Clouds 18 1026 55 10000 6.69 140 12:33 04.07.2022
2763 Clouds 17 1027 52 10000 5.66 130 10:34 04.07.2022
2764 Clouds 17 1028 55 10000 6.69 130 09:53 04.07.2022
2765 Clouds 13 1028 77 10000 5.14 150 08:24 04.07.2022
2766 Clouds 10 1026 82 10000 3.6 170 04:57 04.07.2022
2767 Clouds 6 1027 100 10000 0 0 00:42 04.07.2022
2768 Clouds 10 1028 87 10000 2.06 160 22:59 03.07.2022
2769 Clouds 11 1029 82 10000 3.09 150 20:58 03.07.2022
2770 Clouds 12 1029 76 10000 3.09 160 20:31 03.07.2022
2771 Clouds 12 1028 82 10000 4.12 140 19:28 03.07.2022
2772 Clouds 12 1028 82 10000 3.6 110 18:43 03.07.2022
2773 Clouds 13 1028 72 10000 4.12 160 17:44 03.07.2022
2774 Clouds 14 1027 72 10000 5.14 150 15:54 03.07.2022
2775 Clouds 15 1027 67 10000 5.66 160 14:59 03.07.2022
2776 Clouds 15 1027 67 10000 5.14 160 14:20 03.07.2022
2777 Clouds 15 1027 72 10000 5.66 160 13:48 03.07.2022
2778 Clouds 15 1027 67 10000 6.17 160 12:33 03.07.2022
2779 Clouds 16 1028 63 10000 5.66 140 11:29 03.07.2022
2780 Clouds 14 1029 72 10000 4.63 160 10:39 03.07.2022
2781 Clouds 13 1029 77 10000 5.14 150 09:42 03.07.2022
2782 Clouds 11 1028 82 10000 5.14 160 07:35 03.07.2022
2783 Clouds 11 1027 76 10000 4.63 170 03:46 03.07.2022
2784 Clouds 11 1028 82 10000 5.14 170 00:21 03.07.2022
2785 Clouds 11 1028 71 10000 3.6 160 22:33 02.07.2022
2786 Clouds 11 1028 71 10000 6.69 180 20:58 02.07.2022
2787 Clouds 11 1029 76 10000 5.14 160 19:52 02.07.2022
2788 Clouds 12 1029 71 10000 5.66 160 19:20 02.07.2022
2789 Clouds 12 1028 71 10000 5.66 160 17:41 02.07.2022
2790 Clouds 13 1027 72 10000 5.66 160 16:53 02.07.2022
2791 Clouds 16 1027 55 10000 7.2 130 14:40 02.07.2022
2792 Clouds 16 1026 63 10000 7.2 150 12:21 02.07.2022
2793 Clouds 16 1026 67 10000 7.72 160 11:26 02.07.2022
2794 Clouds 14 1027 72 10000 7.2 160 10:39 02.07.2022
2795 Clouds 14 1027 72 10000 8.23 150 09:18 02.07.2022
2796 Clouds 14 1028 63 10000 6.17 160 08:20 02.07.2022
2797 Clouds 11 1028 71 10000 3.09 150 07:27 02.07.2022
2798 Clouds 9 1027 81 10000 3.09 150 01:53 02.07.2022
2799 Clouds 9 1028 81 10000 3.09 150 23:56 01.07.2022
2800 Clouds 9 1028 81 10000 3.6 160 22:41 01.07.2022
2801 Clouds 10 1028 82 10000 5.14 150 21:47 01.07.2022
2802 Clouds 10 1028 82 10000 4.63 140 21:27 01.07.2022
2803 Clouds 11 1028 76 10000 4.63 140 20:38 01.07.2022
2804 Clouds 12 1028 71 10000 5.66 160 19:42 01.07.2022
2805 Clouds 13 1027 72 10000 4.63 150 17:53 01.07.2022
2806 Clouds 15 1026 59 10000 5.14 150 15:54 01.07.2022
2807 Clouds 16 1026 59 10000 8.23 150 13:54 01.07.2022
2808 Clouds 17 1026 42 10000 7.72 140 11:56 01.07.2022
2809 Clouds 16 1027 45 10000 7.2 150 10:20 01.07.2022
2810 Clouds 16 1027 45 10000 7.2 150 10:20 01.07.2022
2811 Clouds 15 1028 51 10000 7.2 140 09:31 01.07.2022
2812 Clouds 9 1026 87 10000 2.57 140 03:42 01.07.2022
2813 Clouds 11 1027 82 10000 4.12 170 00:26 01.07.2022
2814 Clouds 11 1027 87 10000 3.09 160 22:58 30.06.2022
2815 Clouds 12 1027 82 10000 3.6 170 22:33 30.06.2022
2816 Clouds 12 1027 82 10000 3.09 160 21:59 30.06.2022
2817 Clouds 12 1027 82 10000 3.09 160 21:41 30.06.2022
2818 Clouds 12 1027 82 10000 2.57 140 20:29 30.06.2022
2819 Clouds 12 1027 82 10000 3.6 150 19:54 30.06.2022
2820 Clouds 12 1027 82 10000 3.6 140 19:19 30.06.2022
2821 Clouds 13 1027 77 10000 3.6 160 18:42 30.06.2022
2822 Clouds 14 1026 72 10000 3.6 150 17:43 30.06.2022
2823 Clouds 14 1026 72 10000 3.6 140 16:48 30.06.2022
2824 Clouds 17 1025 55 10000 5.14 140 15:38 30.06.2022
2825 Clear 18 1022 52 10000 5.14 113 13:34 30.06.2022
2826 Clouds 16 1026 59 10000 5.66 140 12:35 30.06.2022
2827 Clouds 16 1027 59 10000 5.14 160 11:37 30.06.2022
2828 Clouds 15 1028 63 10000 5.66 130 09:54 30.06.2022
2829 Clouds 14 1028 67 10000 5.14 140 09:34 30.06.2022
2830 Clouds 13 1028 72 10000 6.17 150 07:51 30.06.2022
2831 Clouds 11 1027 87 10000 3.09 150 06:21 30.06.2022
2832 Clouds 11 1026 94 10000 2.57 170 01:29 30.06.2022
2833 Clouds 11 1026 87 10000 3.6 150 23:34 29.06.2022
2834 Clouds 11 1026 87 10000 4.12 150 22:39 29.06.2022
2835 Clouds 11 1027 87 10000 2.57 150 21:37 29.06.2022
2836 Clouds 12 1027 82 10000 2.57 150 20:33 29.06.2022
2837 Clouds 11 1027 87 10000 3.09 150 19:37 29.06.2022
2838 Clouds 12 1026 82 10000 3.6 140 17:45 29.06.2022
2839 Clouds 14 1026 67 10000 6.17 160 16:38 29.06.2022
2840 Clouds 16 1025 59 10000 6.17 150 15:19 29.06.2022
2841 Clouds 17 1026 52 10000 8.23 130 12:40 29.06.2022
2842 Clouds 16 1027 55 10000 6.69 170 11:19 29.06.2022
2843 Clouds 13 1028 67 10000 8.23 170 09:33 29.06.2022
2844 Clouds 11 1027 76 10000 5.66 170 07:44 29.06.2022
2845 Clouds 10 1025 82 10000 5.66 160 04:55 29.06.2022
2846 Clouds 9 1027 81 10000 5.14 150 00:58 29.06.2022
2847 Clouds 9 1027 76 10000 5.66 150 00:36 29.06.2022
2848 Clouds 9 1028 71 10000 6.69 160 22:54 28.06.2022
2849 Clouds 10 1028 66 10000 7.72 160 22:30 28.06.2022
2850 Clouds 10 1028 66 10000 7.2 150 21:54 28.06.2022
2851 Clouds 10 1028 66 10000 7.72 160 21:32 28.06.2022
2852 Clouds 10 1028 66 10000 8.23 140 20:35 28.06.2022
2853 Clouds 10 1028 71 10000 5.66 150 19:34 28.06.2022
2854 Clouds 10 1028 71 10000 7.72 140 18:46 28.06.2022
2855 Clouds 11 1027 66 10000 7.72 160 17:40 28.06.2022
2856 Clouds 12 1026 67 10000 7.72 150 15:57 28.06.2022
2857 Clouds 12 1026 71 10000 8.23 160 15:36 28.06.2022
2858 Clouds 14 1026 63 10000 8.75 160 14:20 28.06.2022
2859 Clouds 14 1026 58 10000 9.26 140 13:51 28.06.2022
2860 Clouds 14 1026 67 10000 8.75 160 12:57 28.06.2022
2861 Clouds 15 1028 59 10000 10.8 140 11:18 28.06.2022
2862 Clouds 12 1028 71 10000 8.23 150 09:29 28.06.2022
2863 Clouds 12 1029 71 10000 8.23 150 08:43 28.06.2022
2864 Clouds 11 1029 76 10000 6.69 160 07:42 28.06.2022
2865 Clouds 10 1028 76 10000 6.69 160 06:20 28.06.2022
2866 Clouds 12 1028 76 10000 6.69 160 00:56 28.06.2022
2867 Clouds 12 1028 82 10000 5.66 160 23:37 27.06.2022
2868 Clouds 12 1028 88 10000 5.66 160 22:52 27.06.2022
2869 Clouds 14 1028 77 10000 5.14 150 21:37 27.06.2022
2870 Clouds 14 1028 77 10000 5.14 150 20:52 27.06.2022
2871 Clouds 13 1028 88 10000 5.14 160 19:31 27.06.2022
2872 Clouds 13 1028 88 10000 3.6 150 18:25 27.06.2022
2873 Clouds 15 1027 77 10000 4.12 150 16:19 27.06.2022
2874 Clouds 17 1026 63 10000 5.66 150 14:45 27.06.2022
2875 Clouds 17 1026 59 10000 6.69 140 13:35 27.06.2022
2876 Clouds 18 1026 59 10000 5.66 130 12:52 27.06.2022
2877 Clouds 16 1028 67 10000 6.17 160 10:23 27.06.2022
2878 Clouds 12 1028 88 10000 4.63 160 08:48 27.06.2022
2879 Drizzle 12 1028 88 8000 5.66 170 08:19 27.06.2022
2880 Clouds 10 1026 87 10000 2.06 160 06:38 27.06.2022
2881 Clouds 9 1025 93 10000 3.09 130 02:28 27.06.2022
2882 Clouds 11 1026 82 10000 2.57 140 23:55 26.06.2022
2883 Clouds 11 1026 82 10000 2.06 130 21:58 26.06.2022
2884 Clouds 12 1026 82 10000 3.6 130 20:43 26.06.2022
2885 Clouds 14 1026 72 10000 4.63 140 19:27 26.06.2022
2886 Clouds 14 1025 72 10000 3.6 140 18:28 26.06.2022
2887 Clouds 16 1024 59 10000 5.66 110 16:21 26.06.2022
2888 Clouds 18 1024 55 10000 5.66 150 14:34 26.06.2022
2889 Clouds 20 1024 46 10000 5.14 120 13:30 26.06.2022
2890 Clouds 20 1024 46 10000 5.14 120 13:30 26.06.2022
2891 Clouds 18 1024 55 10000 6.17 120 12:52 26.06.2022
2892 Clouds 20 1025 46 10000 5.66 130 11:21 26.06.2022
2893 Clouds 18 1025 52 10000 4.63 130 10:23 26.06.2022
2894 Clouds 13 1026 77 10000 2.06 160 08:46 26.06.2022
2895 Clouds 10 1026 93 10000 2.06 140 07:23 26.06.2022
2896 Clouds 10 1025 100 10000 2.06 160 00:48 26.06.2022
2897 Clouds 9 1025 100 10000 2.06 120 00:20 26.06.2022
2898 Clouds 8 1025 100 10000 1.03 0 23:33 25.06.2022
2899 Clouds 9 1025 100 10000 1.03 0 22:51 25.06.2022
2900 Clouds 9 1025 100 10000 2.06 60 22:26 25.06.2022
2901 Clouds 9 1026 100 10000 2.06 60 21:23 25.06.2022
2902 Clouds 9 1026 100 10000 2.06 80 20:59 25.06.2022
2903 Clouds 9 1026 100 10000 2.06 80 20:25 25.06.2022
2904 Clouds 10 1025 93 10000 2.06 60 18:42 25.06.2022
2905 Clouds 12 1024 82 10000 0.51 60 17:28 25.06.2022
2906 Clouds 15 1024 67 10000 3.6 80 16:31 25.06.2022
2907 Clouds 16 1024 63 10000 4.63 120 14:47 25.06.2022
2908 Clouds 16 1024 63 10000 4.63 140 12:51 25.06.2022
2909 Clouds 16 1024 63 10000 5.14 120 12:32 25.06.2022
2910 Drizzle 14 1026 77 7000 3.09 160 09:40 25.06.2022
2911 Clouds 13 1026 77 10000 3.09 180 08:56 25.06.2022
2912 Clouds 12 1026 76 10000 3.09 170 08:25 25.06.2022
2913 Clouds 10 1025 93 10000 3.09 160 06:46 25.06.2022
2914 Clouds 7 1025 100 10000 0.51 0 01:53 25.06.2022
2915 Clouds 6 1026 93 10000 0.51 0 00:20 25.06.2022
2916 Clouds 9 1027 87 10000 2.06 150 22:29 24.06.2022
2917 Clouds 9 1027 87 10000 2.57 140 21:28 24.06.2022
2918 Clouds 10 1027 82 10000 3.09 140 20:24 24.06.2022
2919 Clouds 11 1027 82 10000 3.6 140 19:39 24.06.2022
2920 Clouds 11 1027 82 10000 3.6 140 19:18 24.06.2022
2921 Clouds 12 1026 76 10000 3.6 140 18:44 24.06.2022
2922 Clouds 12 1026 71 10000 3.6 150 18:24 24.06.2022
2923 Clouds 14 1026 67 10000 5.14 130 16:47 24.06.2022
2924 Clouds 16 1025 55 10000 7.2 170 14:50 24.06.2022
2925 Clouds 17 1025 48 10000 5.66 120 14:23 24.06.2022
2926 Clouds 16 1025 55 10000 5.66 160 13:41 24.06.2022
2927 Clouds 17 1026 48 10000 8.23 100 11:41 24.06.2022
2928 Clouds 15 1027 63 10000 6.17 140 10:36 24.06.2022
2929 Clouds 14 1027 67 10000 4.63 140 09:42 24.06.2022
2930 Clouds 14 1027 67 10000 4.63 140 09:42 24.06.2022
2931 Drizzle 12 1027 82 9000 5.14 140 08:54 24.06.2022
2932 Drizzle 11 1027 87 9000 4.63 160 07:57 24.06.2022
2933 Drizzle 11 1026 94 8000 3.6 140 06:44 24.06.2022
2934 Drizzle 10 1026 100 10000 4.12 140 06:22 24.06.2022
2935 Drizzle 11 1025 100 10000 3.6 160 04:46 24.06.2022
2936 Drizzle 12 1025 94 10000 3.6 150 23:24 23.06.2022
2937 Clouds 12 1025 94 10000 3.6 150 22:42 23.06.2022
2938 Rain 12 1026 100 10000 3.6 160 20:59 23.06.2022
2939 Drizzle 12 1026 100 10000 3.6 160 20:36 23.06.2022
2940 Clouds 13 1026 88 10000 4.12 160 19:48 23.06.2022
2941 Drizzle 13 1025 94 10000 3.6 160 18:26 23.06.2022
2942 Clouds 14 1024 88 10000 3.6 150 17:33 23.06.2022
2943 Rain 15 1024 77 10000 5.14 160 16:23 23.06.2022
2944 Clouds 16 1023 72 10000 5.14 150 15:25 23.06.2022
2945 Rain 16 1023 72 10000 7.2 150 14:18 23.06.2022
2946 Clouds 16 1024 67 10000 6.69 170 11:33 23.06.2022
2947 Clouds 16 1024 67 10000 7.72 160 10:40 23.06.2022
2948 Clouds 15 1025 67 10000 6.17 150 09:19 23.06.2022
2949 Clouds 6 1023 100 10000 1.54 0 03:51 23.06.2022
2950 Clouds 7 1024 93 10000 1.54 0 00:27 23.06.2022
2951 Clouds 8 1024 87 10000 1.54 140 23:43 22.06.2022
2952 Clouds 8 1024 93 10000 2.57 140 22:50 22.06.2022
2953 Clouds 9 1024 87 10000 3.09 150 21:27 22.06.2022
2954 Clouds 10 1024 82 10000 3.09 140 20:48 22.06.2022
2955 Clouds 9 1024 81 10000 2.06 110 19:58 22.06.2022
2956 Clouds 9 1024 81 10000 2.57 90 18:50 22.06.2022
2957 Clouds 12 1023 67 10000 5.14 100 17:29 22.06.2022
2958 Clouds 14 1022 58 10000 5.66 110 16:37 22.06.2022
2959 Clouds 16 1022 48 10000 4.63 140 15:27 22.06.2022
2960 Clouds 16 1021 55 10000 5.66 170 14:31 22.06.2022
2961 Clouds 17 1021 52 10000 4.63 140 13:44 22.06.2022
2962 Clouds 17 1021 45 10000 6.17 160 13:23 22.06.2022
2963 Clouds 16 1022 51 10000 6.17 150 11:50 22.06.2022
2964 Clouds 17 1023 48 10000 5.14 120 10:58 22.06.2022
2965 Clouds 17 1023 48 10000 6.17 110 10:20 22.06.2022
2966 Clouds 14 1024 58 10000 5.66 130 08:48 22.06.2022
2967 Clouds 11 1022 87 10000 3.09 170 05:59 22.06.2022
2968 Clouds 12 1021 76 10000 2.57 180 01:49 22.06.2022
2969 Clouds 12 1022 76 10000 2.57 130 00:39 22.06.2022
2970 Clouds 13 1022 67 10000 3.09 140 22:37 21.06.2022
2971 Clouds 11 1022 76 10000 2.57 150 20:39 21.06.2022
2972 Clouds 11 1022 71 10000 2.57 90 18:51 21.06.2022
2973 Clouds 13 1022 67 10000 5.66 120 17:40 21.06.2022
2974 Clouds 18 1021 48 10000 4.63 120 14:42 21.06.2022
2975 Clouds 17 1022 52 10000 5.14 150 11:52 21.06.2022
2976 Clouds 17 1024 63 10000 4.12 140 10:19 21.06.2022
2977 Clouds 12 1024 88 10000 2.06 170 08:48 21.06.2022
2978 Clouds 11 1024 94 10000 2.06 140 07:35 21.06.2022
2979 Clouds 11 1023 82 10000 2.57 130 02:27 21.06.2022
2980 Clouds 12 1025 82 10000 3.6 150 23:26 20.06.2022
2981 Clouds 12 1025 82 10000 3.09 130 21:58 20.06.2022
2982 Clouds 12 1025 88 10000 3.09 140 21:30 20.06.2022
2983 Clouds 12 1025 88 10000 2.06 140 19:49 20.06.2022
2984 Clouds 12 1025 88 10000 4.12 100 18:53 20.06.2022
2985 Clouds 13 1025 82 10000 4.63 110 18:23 20.06.2022
2986 Clouds 14 1025 77 10000 5.14 110 17:36 20.06.2022
2987 Clouds 19 1024 56 10000 5.66 120 15:58 20.06.2022
2988 Clouds 21 1024 46 10000 4.63 140 13:34 20.06.2022
2989 Clouds 21 1025 49 10000 4.12 150 11:30 20.06.2022
2990 Clouds 17 1026 63 10000 4.63 130 09:48 20.06.2022
2991 Clouds 16 1027 67 10000 5.14 140 08:45 20.06.2022
2992 Drizzle 13 1026 88 10000 4.12 170 06:49 20.06.2022
2993 Clouds 12 1024 94 10000 3.09 170 03:20 20.06.2022
2994 Clouds 13 1025 100 10000 3.6 170 00:37 20.06.2022
2995 Clouds 14 1025 88 10000 2.57 140 23:25 19.06.2022
2996 Clouds 14 1025 88 10000 4.63 110 22:18 19.06.2022
2997 Clouds 14 1025 88 10000 3.09 140 21:41 19.06.2022
2998 Clouds 14 1025 82 10000 4.12 160 20:46 19.06.2022
2999 Clouds 14 1025 82 10000 4.12 110 19:48 19.06.2022
3000 Clouds 14 1024 82 10000 4.63 120 19:23 19.06.2022
3001 Clouds 14 1024 82 10000 5.14 110 18:31 19.06.2022
3002 Clouds 15 1023 77 10000 6.17 100 17:39 19.06.2022
3003 Clouds 17 1023 68 10000 5.14 130 16:38 19.06.2022
3004 Clouds 17 1023 68 10000 6.17 120 15:44 19.06.2022
3005 Clouds 19 1022 64 10000 6.17 120 15:26 19.06.2022
3006 Clouds 19 1022 64 10000 5.66 100 14:30 19.06.2022
3007 Clouds 19 1022 64 10000 3.6 80 13:43 19.06.2022
3008 Clouds 22 1022 49 10000 3.09 120 11:53 19.06.2022
3009 Clouds 21 1023 53 10000 2.57 130 10:51 19.06.2022
3010 Clouds 17 1024 68 10000 3.09 200 08:55 19.06.2022
3011 Clouds 16 1024 72 10000 3.09 160 08:30 19.06.2022
3012 Clouds 14 1023 82 10000 1.54 0 06:41 19.06.2022
3013 Clouds 13 1021 94 10000 2.06 100 03:19 19.06.2022
3014 Clouds 13 1022 94 10000 2.06 90 00:27 19.06.2022
3015 Clouds 14 1022 88 10000 3.09 90 23:37 18.06.2022
3016 Clouds 14 1022 88 10000 3.09 90 23:19 18.06.2022
3017 Clouds 14 1022 88 10000 4.63 110 21:54 18.06.2022
3018 Clouds 14 1022 88 10000 3.6 100 20:50 18.06.2022
3019 Rain 15 1022 82 10000 3.09 140 19:50 18.06.2022
3020 Clouds 14 1021 88 10000 4.12 90 18:54 18.06.2022
3021 Clouds 14 1021 88 10000 4.12 90 18:30 18.06.2022
3022 Clouds 15 1020 82 10000 5.14 100 17:28 18.06.2022
3023 Clouds 21 1019 49 10000 1.54 180 15:39 18.06.2022
3024 Clouds 22 1019 49 10000 2.57 210 14:50 18.06.2022
3025 Clouds 23 1019 46 10000 3.09 210 13:54 18.06.2022
3026 Clouds 22 1020 53 10000 3.09 190 12:25 18.06.2022
3027 Clouds 20 1021 56 10000 2.06 0 10:59 18.06.2022
3028 Clouds 18 1022 68 10000 3.09 170 09:31 18.06.2022
3029 Clouds 18 1022 68 10000 2.57 160 08:37 18.06.2022
3030 Clouds 15 1021 82 10000 2.57 180 07:33 18.06.2022
3031 Clouds 13 1020 94 10000 2.06 140 04:43 18.06.2022
3032 Clouds 14 1020 88 10000 2.57 110 01:27 18.06.2022
3033 Clouds 14 1020 88 10000 2.57 120 00:55 18.06.2022
3034 Clouds 14 1021 88 10000 3.09 120 00:23 18.06.2022
3035 Clouds 14 1021 88 10000 2.57 120 23:33 17.06.2022
3036 Clouds 14 1021 88 10000 2.06 150 21:57 17.06.2022
3037 Clouds 13 1021 88 10000 2.57 120 20:29 17.06.2022
3038 Clouds 14 1020 88 10000 3.6 130 19:20 17.06.2022
3039 Clouds 16 1019 77 10000 4.63 90 17:47 17.06.2022
3040 Rain 17 1019 72 10000 5.14 110 16:44 17.06.2022
3041 Rain 18 1019 68 10000 4.12 110 16:21 17.06.2022
3042 Rain 19 1018 64 10000 4.63 100 15:37 17.06.2022
3043 Rain 19 1018 60 10000 5.14 80 14:23 17.06.2022
3044 Rain 20 1018 60 10000 5.14 80 13:58 17.06.2022
3045 Clouds 20 1018 56 10000 2.57 70 13:38 17.06.2022
3046 Clouds 20 1019 56 10000 3.09 90 12:24 17.06.2022
3047 Clouds 22 1019 49 10000 3.6 100 11:50 17.06.2022
3048 Clouds 21 1020 53 10000 4.12 160 11:32 17.06.2022
3049 Clouds 18 1021 68 10000 2.06 0 08:45 17.06.2022
3050 Clouds 17 1021 77 10000 2.06 200 08:24 17.06.2022
3051 Clouds 9 1020 100 6000 1.03 0 06:35 17.06.2022
3052 Clouds 10 1019 100 10000 0.51 0 03:42 17.06.2022
3053 Clouds 10 1020 100 10000 0.51 0 01:55 17.06.2022
3054 Clouds 12 1021 100 10000 3.09 310 23:35 16.06.2022
3055 Clouds 13 1021 94 10000 3.09 300 22:40 16.06.2022
3056 Clouds 14 1021 88 10000 2.57 320 21:21 16.06.2022
3057 Clouds 15 1021 88 10000 2.57 330 20:50 16.06.2022
3058 Clouds 16 1021 82 10000 2.57 280 20:27 16.06.2022
3059 Clouds 15 1020 94 10000 1.03 0 19:31 16.06.2022
3060 Drizzle 15 1019 94 10000 0 0 17:54 16.06.2022
3061 Drizzle 16 1019 94 9000 3.09 360 17:27 16.06.2022
3062 Clouds 18 1019 68 10000 1.03 340 16:20 16.06.2022
3063 Clouds 19 1019 64 10000 2.06 350 15:21 16.06.2022
3064 Clouds 20 1019 60 10000 4.12 40 14:27 16.06.2022
3065 Drizzle 20 1019 60 10000 3.09 10 12:53 16.06.2022
3066 Clouds 20 1019 56 10000 2.57 40 12:34 16.06.2022
3067 Clouds 21 1019 56 10000 1.54 0 11:48 16.06.2022
3068 Clouds 21 1020 60 10000 3.09 0 10:41 16.06.2022
3069 Clouds 22 1021 56 10000 3.09 50 09:43 16.06.2022
3070 Clouds 20 1022 68 10000 3.09 30 08:59 16.06.2022
3071 Clouds 16 1022 88 10000 2.06 30 07:42 16.06.2022
3072 Clouds 14 1021 100 10000 2.57 20 06:36 16.06.2022
3073 Clouds 13 1020 100 10000 1.03 0 04:24 16.06.2022
3074 Clouds 13 1020 100 10000 0.51 0 01:52 16.06.2022
3075 Clouds 13 1020 100 10000 1.54 0 01:29 16.06.2022
3076 Clouds 13 1021 100 10000 2.06 60 00:29 16.06.2022
3077 Clouds 13 1022 100 10000 1.54 80 22:54 15.06.2022
3078 Rain 13 1022 100 10000 2.06 80 21:48 15.06.2022
3079 Clouds 13 1022 100 10000 2.06 80 21:19 15.06.2022
3080 Clouds 15 1022 94 10000 1.54 80 20:37 15.06.2022
3081 Clouds 15 1022 94 10000 1.54 80 20:18 15.06.2022
3082 Rain 15 1021 88 10000 3.09 100 18:41 15.06.2022
3083 Rain 15 1021 82 10000 2.57 110 17:53 15.06.2022
3084 Rain 18 1020 72 10000 4.12 100 16:27 15.06.2022
3085 Clouds 20 1020 60 10000 4.12 100 15:19 15.06.2022
3086 Clouds 20 1021 64 10000 5.14 90 13:29 15.06.2022
3087 Clouds 20 1021 64 10000 3.6 130 12:47 15.06.2022
3088 Clouds 19 1023 68 10000 3.6 90 11:25 15.06.2022
3089 Clouds 19 1023 68 10000 2.57 120 10:22 15.06.2022
3090 Clouds 18 1023 72 10000 2.57 150 09:34 15.06.2022
3091 Clouds 15 1023 88 10000 3.6 110 07:43 15.06.2022
3092 Clouds 14 1023 100 10000 2.06 170 05:57 15.06.2022
3093 Drizzle 14 1022 100 10000 1.54 140 02:54 15.06.2022
3094 Drizzle 14 1022 100 10000 1.54 150 01:36 15.06.2022
3095 Clouds 14 1023 94 10000 1.54 80 00:36 15.06.2022
3096 Clouds 15 1023 88 10000 2.06 90 23:38 14.06.2022
3097 Clouds 15 1023 82 10000 2.06 100 22:47 14.06.2022
3098 Clouds 15 1023 88 10000 2.57 110 21:43 14.06.2022
3099 Clouds 15 1023 88 10000 2.06 90 21:20 14.06.2022
3100 Clouds 14 1023 88 10000 2.57 90 20:40 14.06.2022
3101 Clouds 14 1023 94 10000 3.09 100 19:47 14.06.2022
3102 Clouds 15 1022 82 10000 5.66 110 18:39 14.06.2022
3103 Clouds 16 1022 82 10000 5.14 110 16:53 14.06.2022
3104 Clouds 18 1022 72 10000 5.66 120 16:34 14.06.2022
3105 Rain 19 1021 68 10000 4.63 120 15:41 14.06.2022
3106 Rain 21 1021 56 10000 4.63 140 14:53 14.06.2022
3107 Clouds 21 1021 56 10000 3.6 130 13:59 14.06.2022
3108 Clouds 20 1021 60 10000 3.6 140 12:59 14.06.2022
3109 Clouds 21 1022 56 10000 4.63 170 11:56 14.06.2022
3110 Clouds 20 1023 64 10000 4.63 160 10:51 14.06.2022
3111 Clouds 20 1023 60 10000 4.63 140 10:28 14.06.2022
3112 Clouds 17 1024 72 10000 5.14 170 09:18 14.06.2022
3113 Clouds 16 1024 77 10000 3.6 170 08:24 14.06.2022
3114 Clouds 13 1023 88 10000 2.06 150 06:20 14.06.2022
3115 Clouds 12 1022 94 10000 2.06 160 03:45 14.06.2022
3116 Clouds 13 1023 88 10000 2.06 170 01:37 14.06.2022
3117 Clouds 13 1023 88 10000 2.57 140 00:21 14.06.2022
3118 Clouds 12 1024 94 10000 2.57 120 22:39 13.06.2022
3119 Clouds 12 1024 94 10000 2.57 120 22:19 13.06.2022
3120 Drizzle 14 1025 82 10000 2.57 160 21:24 13.06.2022
3121 Clouds 14 1024 82 10000 3.6 160 19:59 13.06.2022
3122 Clouds 15 1024 77 10000 3.09 140 18:54 13.06.2022
3123 Clouds 15 1023 77 10000 3.6 130 17:55 13.06.2022
3124 Clouds 15 1023 77 10000 3.6 150 17:23 13.06.2022
3125 Clouds 16 1022 72 10000 5.14 120 16:30 13.06.2022
3126 Clouds 18 1022 68 10000 4.63 140 14:48 13.06.2022
3127 Clouds 18 1022 68 10000 5.14 140 14:23 13.06.2022
3128 Clouds 19 1022 60 10000 5.66 130 13:28 13.06.2022
3129 Clouds 20 1022 60 10000 6.69 120 11:50 13.06.2022
3130 Clouds 19 1024 60 10000 5.66 100 10:36 13.06.2022
3131 Clouds 18 1024 63 10000 3.6 150 09:42 13.06.2022
3132 Clouds 13 1025 82 10000 2.06 160 08:34 13.06.2022
3133 Clouds 10 1024 93 10000 1.54 150 06:35 13.06.2022
3134 Clouds 9 1023 93 10000 3.6 170 04:35 13.06.2022
3135 Clouds 10 1024 82 10000 3.09 140 01:44 13.06.2022
3136 Clouds 11 1024 76 10000 3.6 150 01:18 13.06.2022
3137 Clouds 10 1025 76 10000 3.6 170 23:41 12.06.2022
3138 Clouds 10 1025 93 10000 1.54 130 22:34 12.06.2022
3139 Clouds 10 1026 87 10000 1.54 0 21:45 12.06.2022
3140 Clouds 10 1026 87 10000 1.54 170 20:49 12.06.2022
3141 Clouds 11 1025 82 10000 2.06 160 19:43 12.06.2022
3142 Clouds 13 1025 77 10000 5.14 160 18:46 12.06.2022
3143 Clouds 14 1024 72 10000 4.12 160 16:57 12.06.2022
3144 Drizzle 17 1023 68 8000 6.17 130 15:33 12.06.2022
3145 Clouds 16 1023 67 10000 7.2 120 14:41 12.06.2022
3146 Clouds 18 1022 59 10000 5.14 130 14:18 12.06.2022
3147 Clouds 18 1022 63 10000 4.63 150 13:43 12.06.2022
3148 Clouds 17 1023 68 10000 5.66 120 11:58 12.06.2022
3149 Clouds 18 1024 63 10000 5.66 130 10:46 12.06.2022
3150 Clouds 18 1025 59 10000 4.63 130 09:36 12.06.2022
3151 Clouds 17 1025 59 10000 4.63 140 08:49 12.06.2022
3152 Clouds 15 1025 67 10000 4.12 130 07:49 12.06.2022
3153 Clouds 13 1024 82 10000 2.57 170 05:51 12.06.2022
3154 Clouds 13 1024 82 10000 3.6 140 03:38 12.06.2022
3155 Clouds 13 1024 82 10000 3.6 140 03:38 12.06.2022
3156 Clouds 13 1024 88 10000 2.57 160 01:44 12.06.2022
3157 Clouds 13 1024 88 10000 3.6 170 00:59 12.06.2022
3158 Clouds 13 1025 88 10000 2.57 170 00:36 12.06.2022
3159 Clouds 13 1025 88 10000 2.57 170 00:18 12.06.2022
3160 Clouds 13 1025 82 10000 3.09 140 22:53 11.06.2022
3161 Clouds 13 1025 82 10000 3.6 140 22:29 11.06.2022
3162 Clouds 14 1025 82 10000 3.6 120 20:55 11.06.2022
3163 Clouds 14 1025 82 10000 3.6 140 20:26 11.06.2022
3164 Clouds 14 1025 82 10000 3.09 130 19:32 11.06.2022
3165 Clouds 15 1024 77 10000 4.12 100 18:36 11.06.2022
3166 Clouds 14 1024 82 10000 4.63 110 17:52 11.06.2022
3167 Clouds 16 1023 67 10000 5.66 130 17:29 11.06.2022
3168 Clouds 16 1023 67 10000 5.66 130 16:59 11.06.2022
3169 Clouds 17 1023 63 10000 4.63 120 16:38 11.06.2022
3170 Clouds 18 1023 59 10000 5.66 140 15:45 11.06.2022
3171 Clouds 19 1023 56 10000 5.66 130 13:54 11.06.2022
3172 Clouds 20 1023 52 10000 6.17 120 13:25 11.06.2022
3173 Clouds 20 1024 52 10000 5.14 130 11:18 11.06.2022
3174 Clouds 19 1025 56 10000 5.66 110 10:22 11.06.2022
3175 Clouds 17 1025 68 10000 4.63 160 09:38 11.06.2022
3176 Clouds 14 1025 82 10000 2.57 110 07:52 11.06.2022
3177 Clouds 10 1024 100 10000 1.03 0 06:31 11.06.2022
3178 Clouds 8 1024 100 10000 1.54 90 05:21 11.06.2022
3179 Clouds 10 1024 100 10000 1.03 0 01:53 11.06.2022
3180 Clouds 9 1024 100 10000 1.54 60 01:33 11.06.2022
3181 Clouds 10 1024 100 10000 2.06 120 00:22 11.06.2022
3182 Clouds 11 1025 100 10000 2.06 70 22:33 10.06.2022
3183 Clouds 11 1025 100 10000 2.57 60 21:54 10.06.2022
3184 Clouds 12 1025 94 10000 2.57 80 20:43 10.06.2022
3185 Clouds 12 1025 94 10000 3.09 120 20:23 10.06.2022
3186 Clouds 13 1024 88 10000 3.09 140 19:48 10.06.2022
3187 Clouds 13 1024 88 10000 3.09 130 19:18 10.06.2022
3188 Clouds 14 1024 77 10000 4.63 100 18:19 10.06.2022
3189 Clouds 15 1023 72 10000 4.63 90 17:36 10.06.2022
3190 Clouds 16 1022 67 10000 5.14 90 16:56 10.06.2022
3191 Clouds 19 1022 56 10000 4.63 90 15:48 10.06.2022
3192 Clouds 21 1022 46 10000 3.09 120 15:19 10.06.2022
3193 Clouds 22 1022 46 10000 3.09 130 13:44 10.06.2022
3194 Clouds 21 1022 43 10000 3.09 0 12:28 10.06.2022
3195 Clouds 20 1023 49 10000 1.54 0 11:40 10.06.2022
3196 Clouds 19 1024 49 10000 3.09 130 10:37 10.06.2022
3197 Clouds 18 1024 52 10000 3.09 0 09:40 10.06.2022
3198 Clouds 16 1025 63 10000 3.6 120 08:23 10.06.2022
3199 Clouds 13 1024 77 10000 3.09 110 06:51 10.06.2022
3200 Clouds 11 1024 87 10000 2.57 140 06:32 10.06.2022
3201 Clouds 11 1024 87 10000 2.57 140 05:35 10.06.2022
3202 Clouds 13 1023 94 10000 2.06 170 02:55 10.06.2022
3203 Clouds 13 1023 94 10000 3.6 140 01:37 10.06.2022
3204 Clouds 13 1023 100 10000 2.57 150 23:58 09.06.2022
3205 Clouds 13 1024 94 10000 2.57 150 22:56 09.06.2022
3206 Clouds 13 1024 100 10000 2.06 110 21:46 09.06.2022
3207 Clouds 13 1024 94 10000 2.57 110 21:28 09.06.2022
3208 Clouds 13 1024 94 10000 2.57 140 20:40 09.06.2022
3209 Rain 12 1024 94 10000 3.09 120 19:54 09.06.2022
3210 Rain 13 1023 88 10000 3.6 120 18:43 09.06.2022
3211 Clouds 14 1023 82 10000 4.12 110 17:56 09.06.2022
3212 Clouds 16 1022 67 10000 5.14 110 16:38 09.06.2022
3213 Clouds 17 1022 63 10000 4.63 150 15:42 09.06.2022
3214 Clouds 17 1021 63 10000 4.63 140 14:34 09.06.2022
3215 Clouds 17 1021 68 10000 6.69 100 13:46 09.06.2022
3216 Clouds 19 1021 60 10000 6.17 120 13:25 09.06.2022
3217 Clouds 19 1022 56 10000 6.17 130 11:53 09.06.2022
3218 Clouds 17 1023 63 10000 5.66 150 10:36 09.06.2022
3219 Clouds 16 1024 72 10000 5.66 120 09:40 09.06.2022
3220 Clouds 16 1024 72 10000 5.66 120 09:21 09.06.2022
3221 Clouds 13 1024 88 10000 4.63 140 07:29 09.06.2022
3222 Clouds 12 1022 100 10000 1.54 0 04:47 09.06.2022
3223 Clouds 11 1022 100 10000 2.06 100 01:42 09.06.2022
3224 Clouds 13 1023 94 10000 3.6 120 23:24 08.06.2022
3225 Clouds 13 1023 94 10000 3.6 120 22:45 08.06.2022
3226 Clouds 13 1023 94 10000 3.6 140 22:25 08.06.2022
3227 Clouds 13 1023 94 10000 3.6 140 21:45 08.06.2022
3228 Clouds 13 1023 94 10000 2.57 150 20:33 08.06.2022
3229 Clouds 13 1023 94 10000 3.09 120 19:46 08.06.2022
3230 Clouds 13 1023 88 10000 3.09 100 18:49 08.06.2022
3231 Clouds 14 1022 88 10000 4.12 100 17:48 08.06.2022
3232 Clouds 18 1022 63 10000 5.66 110 16:18 08.06.2022
3233 Clouds 20 1021 56 10000 5.14 100 14:46 08.06.2022
3234 Clouds 21 1021 53 10000 5.66 120 12:55 08.06.2022
3235 Clouds 21 1021 53 10000 5.66 120 12:55 08.06.2022
3236 Clouds 21 1021 53 10000 5.14 130 11:44 08.06.2022
3237 Clouds 20 1022 56 10000 4.63 130 11:19 08.06.2022
3238 Clouds 19 1023 60 10000 4.12 140 09:45 08.06.2022
3239 Clouds 18 1023 63 10000 4.12 130 09:18 08.06.2022
3240 Clouds 14 1023 82 10000 4.12 170 07:22 08.06.2022
3241 Clouds 12 1022 94 10000 2.57 120 04:51 08.06.2022
3242 Clouds 12 1022 88 10000 2.57 140 02:19 08.06.2022
3243 Clouds 12 1023 94 10000 2.57 130 23:41 07.06.2022
3244 Clouds 12 1023 94 10000 2.57 120 23:22 07.06.2022
3245 Clouds 14 1024 82 10000 3.6 150 22:38 07.06.2022
3246 Clouds 14 1024 82 10000 4.12 140 21:41 07.06.2022
3247 Clouds 14 1024 88 10000 4.12 130 21:23 07.06.2022
3248 Clouds 13 1024 94 10000 3.6 130 20:42 07.06.2022
3249 Clouds 14 1024 88 10000 3.6 130 19:58 07.06.2022
3250 Clouds 14 1023 88 10000 4.12 120 18:38 07.06.2022
3251 Clouds 16 1023 77 10000 4.12 150 17:36 07.06.2022
3252 Clouds 16 1022 72 10000 4.63 100 16:47 07.06.2022
3253 Clouds 17 1022 68 10000 6.17 110 16:28 07.06.2022
3254 Clouds 20 1022 56 10000 5.66 120 15:37 07.06.2022
3255 Clouds 20 1022 56 10000 5.66 120 15:18 07.06.2022
3256 Clouds 20 1022 52 10000 5.66 130 14:43 07.06.2022
3257 Clouds 21 1022 49 10000 5.66 140 13:38 07.06.2022
3258 Clouds 21 1022 49 10000 5.66 140 13:20 07.06.2022
3259 Clouds 21 1023 49 10000 6.17 170 11:56 07.06.2022
3260 Clouds 19 1023 60 10000 6.69 180 10:53 07.06.2022
3261 Clouds 17 1024 72 10000 5.66 140 09:26 07.06.2022
3262 Clouds 15 1024 77 10000 4.63 160 08:22 07.06.2022
3263 Clouds 14 1024 88 10000 3.6 160 06:42 07.06.2022
3264 Clouds 13 1023 88 10000 4.63 140 04:47 07.06.2022
3265 Clouds 13 1023 100 10000 2.57 150 01:28 07.06.2022
3266 Clouds 13 1023 94 10000 2.57 140 23:59 06.06.2022
3267 Clouds 14 1024 94 10000 3.6 150 22:56 06.06.2022
3268 Clouds 14 1024 94 10000 3.09 130 22:30 06.06.2022
3269 Drizzle 14 1024 94 8000 5.66 140 21:18 06.06.2022
3270 Clouds 15 1023 88 10000 3.09 130 19:29 06.06.2022
3271 Clouds 15 1023 82 10000 4.12 120 18:53 06.06.2022
3272 Clouds 15 1023 82 10000 3.6 130 18:26 06.06.2022
3273 Rain 16 1022 77 10000 5.66 110 17:26 06.06.2022
3274 Rain 17 1022 72 10000 5.66 120 16:18 06.06.2022
3275 Rain 19 1021 64 10000 5.14 160 15:33 06.06.2022
3276 Clouds 20 1021 60 10000 5.14 160 14:32 06.06.2022
3277 Clouds 19 1021 64 10000 5.66 160 13:25 06.06.2022
3278 Clouds 21 1021 56 10000 5.66 120 12:36 06.06.2022
3279 Clouds 20 1022 60 10000 5.14 130 11:53 06.06.2022
3280 Clouds 19 1022 64 10000 5.66 170 10:40 06.06.2022
3281 Clouds 18 1023 68 10000 4.63 130 09:39 06.06.2022
3282 Clouds 17 1023 72 10000 3.6 130 08:32 06.06.2022
3283 Clouds 14 1023 94 10000 2.06 150 07:28 06.06.2022
3284 Clouds 11 1022 100 10000 2.57 110 05:27 06.06.2022
3285 Clouds 11 1022 100 10000 1.03 0 02:55 06.06.2022
3286 Clouds 11 1022 100 10000 1.03 0 01:18 06.06.2022
3287 Clouds 12 1023 100 10000 2.57 100 00:38 06.06.2022
3288 Clouds 13 1021 90 10000 1.92 128 23:34 05.06.2022
3289 Clouds 13 1023 94 10000 2.57 80 22:45 05.06.2022
3290 Clouds 13 1023 94 10000 2.57 80 22:45 05.06.2022
3291 Clouds 13 1024 94 10000 1.03 30 20:47 05.06.2022
3292 Clouds 13 1023 94 10000 2.06 60 19:41 05.06.2022
3293 Clouds 14 1022 94 10000 3.6 90 18:29 05.06.2022
3294 Drizzle 15 1022 88 10000 4.63 120 17:51 05.06.2022
3295 Clouds 16 1022 82 10000 5.14 110 17:25 05.06.2022
3296 Clouds 16 1022 82 10000 4.63 110 16:49 05.06.2022
3297 Clouds 17 1021 77 10000 4.12 100 16:30 05.06.2022
3298 Clouds 19 1021 64 10000 4.12 140 14:24 05.06.2022
3299 Clouds 18 1022 68 10000 3.09 150 12:49 05.06.2022
3300 Clouds 17 1022 72 10000 3.6 180 11:43 05.06.2022
3301 Clouds 17 1023 72 10000 3.6 160 10:33 05.06.2022
3302 Clouds 16 1024 77 10000 2.57 160 09:59 05.06.2022
3303 Clouds 15 1024 77 10000 4.12 170 08:28 05.06.2022
3304 Clouds 15 1024 82 10000 3.09 150 07:41 05.06.2022
3305 Clouds 13 1023 94 10000 3.6 170 05:21 05.06.2022
3306 Clouds 13 1022 88 10000 4.12 170 03:43 05.06.2022
3307 Clouds 11 1023 94 10000 2.57 140 01:32 05.06.2022
3308 Clouds 12 1023 88 10000 4.12 140 00:29 05.06.2022
3309 Clouds 12 1024 88 10000 2.57 140 21:58 04.06.2022
3310 Clouds 12 1024 88 10000 3.09 130 20:21 04.06.2022
3311 Clouds 13 1024 88 10000 4.12 130 18:18 04.06.2022
3312 Clouds 14 1024 88 10000 6.17 110 16:43 04.06.2022
3313 Clouds 16 1023 72 10000 7.72 100 16:18 04.06.2022
3314 Clouds 18 1023 63 10000 5.66 150 14:47 04.06.2022
3315 Clouds 20 1023 52 10000 5.66 130 12:27 04.06.2022
3316 Clouds 19 1024 56 10000 6.69 140 10:58 04.06.2022
3317 Clouds 19 1024 56 10000 6.17 130 10:26 04.06.2022
3318 Clouds 18 1025 59 10000 6.69 170 09:42 04.06.2022
3319 Clouds 17 1026 59 10000 5.66 150 08:40 04.06.2022
3320 Clouds 14 1025 72 10000 5.66 160 07:40 04.06.2022
3321 Clouds 13 1025 82 10000 5.66 170 04:38 04.06.2022
3322 Clouds 13 1025 82 10000 3.6 170 01:25 04.06.2022
3323 Clouds 13 1026 82 10000 3.09 170 23:53 03.06.2022
3324 Clouds 13 1026 82 10000 2.57 160 22:30 03.06.2022
3325 Clouds 12 1026 94 10000 2.57 130 21:21 03.06.2022
3326 Clouds 13 1026 82 10000 2.57 140 20:33 03.06.2022
3327 Clouds 15 1025 72 10000 3.6 150 17:58 03.06.2022
3328 Clouds 16 1024 67 10000 4.12 150 16:47 03.06.2022
3329 Clouds 17 1024 68 10000 4.63 160 15:18 03.06.2022
3330 Clouds 17 1024 63 10000 4.12 140 13:20 03.06.2022
3331 Clouds 16 1025 67 10000 6.17 140 11:19 03.06.2022
3332 Clouds 17 1026 63 10000 5.66 150 09:38 03.06.2022
3333 Clouds 15 1026 77 10000 5.14 150 08:45 03.06.2022
3334 Clouds 14 1025 77 10000 5.14 150 07:26 03.06.2022
3335 Clouds 13 1024 82 10000 4.12 170 06:34 03.06.2022
3336 Clouds 13 1024 88 10000 4.63 150 05:35 03.06.2022
3337 Clouds 12 1024 88 10000 2.06 180 00:28 03.06.2022
3338 Clouds 12 1024 88 10000 3.6 170 22:41 02.06.2022
3339 Clouds 11 1024 94 10000 3.6 160 21:40 02.06.2022
3340 Clouds 12 1024 82 10000 3.09 150 20:22 02.06.2022
3341 Clouds 13 1024 77 10000 3.09 140 19:46 02.06.2022
3342 Clouds 13 1024 77 10000 3.09 130 19:28 02.06.2022
3343 Clouds 16 1022 55 10000 4.12 130 17:32 02.06.2022
3344 Clouds 18 1022 52 10000 5.14 140 16:27 02.06.2022
3345 Clouds 21 1021 37 10000 5.14 120 14:19 02.06.2022
3346 Clouds 22 1021 35 10000 4.12 150 13:29 02.06.2022
3347 Clouds 21 1022 40 10000 4.63 110 11:36 02.06.2022
3348 Clouds 19 1022 45 10000 4.12 160 10:20 02.06.2022
3349 Clouds 17 1023 52 10000 4.12 180 09:27 02.06.2022
3350 Clouds 15 1023 67 10000 2.57 170 08:26 02.06.2022
3351 Clouds 10 1023 100 8000 1.54 0 07:21 02.06.2022
3352 Clouds 6 1021 100 10000 0.51 0 04:52 02.06.2022
3353 Clouds 6 1021 100 10000 0.51 0 02:38 02.06.2022
3354 Clouds 7 1022 93 10000 0.51 0 23:47 01.06.2022
3355 Clouds 9 1022 87 10000 2.06 30 22:31 01.06.2022
3356 Clouds 9 1022 76 10000 0 0 21:35 01.06.2022
3357 Clouds 10 1022 71 10000 0 0 20:40 01.06.2022
3358 Clouds 11 1021 66 10000 2.06 300 19:59 01.06.2022
3359 Clouds 12 1021 62 10000 1.54 310 19:25 01.06.2022
3360 Clouds 15 1020 51 10000 2.57 280 17:44 01.06.2022
3361 Clouds 20 1019 35 10000 2.57 260 16:34 01.06.2022
3362 Clouds 22 1019 31 10000 4.12 300 14:54 01.06.2022
3363 Clouds 22 1019 33 10000 2.06 0 13:51 01.06.2022
3364 Clouds 21 1020 37 10000 1.54 220 12:26 01.06.2022
3365 Clouds 17 1022 63 8000 2.06 180 09:41 01.06.2022
3366 Mist 15 1022 67 6000 1.03 0 08:40 01.06.2022
3367 Clouds 11 1022 87 10000 1.54 0 07:22 01.06.2022
3368 Clouds 11 1021 87 10000 1.54 0 05:23 01.06.2022
3369 Clouds 8 1021 100 10000 0.51 0 00:22 01.06.2022
3370 Clouds 10 1022 100 10000 1.54 160 23:28 31.05.2022
3371 Clouds 11 1022 94 10000 2.57 150 22:36 31.05.2022
3372 Clouds 11 1022 94 10000 2.06 150 21:45 31.05.2022
3373 Clouds 11 1022 94 10000 2.57 130 20:45 31.05.2022
3374 Clouds 11 1022 94 10000 3.09 90 20:18 31.05.2022
3375 Clouds 12 1022 88 10000 3.09 90 18:52 31.05.2022
3376 Clouds 13 1021 77 10000 3.09 100 17:50 31.05.2022
3377 Clouds 15 1021 63 10000 3.09 90 16:56 31.05.2022
3378 Clouds 17 1020 52 10000 3.6 110 15:40 31.05.2022
3379 Clouds 18 1020 52 10000 4.12 140 13:52 31.05.2022
3380 Clouds 20 1021 49 10000 5.66 110 12:20 31.05.2022
3381 Clouds 18 1023 59 10000 4.12 160 10:53 31.05.2022
3382 Clouds 16 1024 59 10000 2.57 180 08:49 31.05.2022
3383 Clouds 12 1023 76 10000 2.06 180 07:21 31.05.2022
3384 Clear 6 1022 100 10000 1.03 50 05:19 31.05.2022
3385 Clouds 11 1023 94 10000 2.06 140 00:36 31.05.2022
3386 Clouds 11 1024 94 10000 2.06 160 23:26 30.05.2022
3387 Clouds 10 1024 100 10000 1.54 150 22:53 30.05.2022
3388 Clouds 10 1024 93 10000 1.54 50 21:52 30.05.2022
3389 Clouds 11 1024 94 10000 2.57 110 21:32 30.05.2022
3390 Clouds 12 1025 82 10000 3.09 120 19:57 30.05.2022
3391 Clouds 13 1024 77 10000 3.09 100 18:39 30.05.2022
3392 Clouds 14 1023 67 10000 4.12 100 17:24 30.05.2022
3393 Clouds 16 1023 59 10000 3.6 90 16:40 30.05.2022
3394 Clouds 20 1023 43 10000 5.14 120 14:23 30.05.2022
3395 Clouds 20 1023 46 10000 4.63 120 12:21 30.05.2022
3396 Clouds 19 1025 49 10000 4.63 130 10:40 30.05.2022
3397 Clouds 17 1026 68 10000 4.12 180 09:19 30.05.2022
3398 Clouds 12 1025 88 10000 2.57 170 06:30 30.05.2022
3399 Clouds 12 1025 88 10000 3.09 170 05:48 30.05.2022
3400 Clouds 12 1024 88 10000 2.06 130 01:33 30.05.2022
3401 Clouds 12 1025 88 10000 4.12 110 22:54 29.05.2022
3402 Clouds 12 1025 88 10000 4.12 130 22:36 29.05.2022
3403 Clouds 13 1025 88 10000 4.12 140 20:53 29.05.2022
3404 Clouds 13 1025 82 10000 4.63 110 19:31 29.05.2022
3405 Clouds 14 1024 82 10000 5.14 120 18:37 29.05.2022
3406 Clouds 14 1024 82 10000 4.63 110 17:23 29.05.2022
3407 Clouds 18 1023 59 10000 5.66 120 15:48 29.05.2022
3408 Clouds 20 1023 52 10000 5.66 110 14:57 29.05.2022
3409 Clouds 18 1023 59 10000 5.66 170 13:46 29.05.2022
3410 Clouds 19 1024 60 10000 7.2 110 11:34 29.05.2022
3411 Clouds 19 1025 60 10000 5.66 130 10:38 29.05.2022
3412 Clouds 16 1025 63 10000 6.17 160 08:47 29.05.2022
3413 Clouds 12 1024 88 10000 3.6 140 05:48 29.05.2022
3414 Clouds 13 1023 82 10000 4.12 150 04:43 29.05.2022
3415 Clouds 13 1023 82 10000 4.12 140 02:50 29.05.2022
3416 Clouds 14 1024 82 10000 3.6 140 23:49 28.05.2022
3417 Clouds 14 1024 82 10000 5.14 140 23:26 28.05.2022
3418 Drizzle 14 1024 88 10000 4.12 140 22:25 28.05.2022
3419 Clouds 14 1024 82 10000 4.63 160 21:31 28.05.2022
3420 Clouds 15 1023 82 10000 4.63 160 19:24 28.05.2022
3421 Clouds 15 1023 77 10000 4.63 150 18:46 28.05.2022
3422 Clouds 15 1022 82 10000 5.14 100 17:35 28.05.2022
3423 Clouds 18 1021 68 10000 6.17 110 16:35 28.05.2022
3424 Clouds 20 1021 60 10000 5.14 110 15:38 28.05.2022
3425 Clouds 21 1021 56 10000 3.6 130 13:57 28.05.2022
3426 Clouds 20 1021 60 10000 5.14 130 12:43 28.05.2022
3427 Clouds 21 1022 56 10000 4.63 170 11:54 28.05.2022
3428 Clouds 20 1023 56 10000 5.66 140 10:43 28.05.2022
3429 Clouds 18 1023 68 10000 4.63 140 09:56 28.05.2022
3430 Clouds 18 1023 68 10000 4.12 150 08:43 28.05.2022
3431 Clouds 16 1023 77 10000 3.6 130 07:23 28.05.2022
3432 Clouds 13 1021 94 10000 3.09 100 05:24 28.05.2022
3433 Clouds 15 1021 88 10000 2.06 110 02:33 28.05.2022
3434 Clouds 15 1021 88 10000 2.06 60 00:18 28.05.2022
3435 Clouds 15 1022 88 10000 2.57 130 22:49 27.05.2022
3436 Clouds 15 1022 88 10000 2.57 120 21:35 27.05.2022
3437 Clouds 16 1022 82 10000 2.06 140 20:46 27.05.2022
3438 Clouds 16 1022 82 10000 2.57 140 20:21 27.05.2022
3439 Clouds 16 1021 82 10000 3.09 140 19:38 27.05.2022
3440 Clouds 16 1021 82 10000 3.09 140 19:20 27.05.2022
3441 Clouds 18 1020 72 10000 5.14 110 17:26 27.05.2022
3442 Clouds 22 1019 53 10000 4.63 110 15:57 27.05.2022
3443 Clouds 24 1018 47 10000 4.12 120 14:58 27.05.2022
3444 Clouds 25 1019 47 10000 3.09 80 13:41 27.05.2022
3445 Clouds 25 1019 41 10000 1.54 0 12:20 27.05.2022
3446 Clouds 25 1020 44 10000 2.06 0 11:31 27.05.2022
3447 Clouds 24 1021 50 10000 2.06 170 10:43 27.05.2022
3448 Clouds 22 1022 56 10000 3.09 160 09:59 27.05.2022
3449 Clouds 21 1022 60 10000 3.6 160 09:30 27.05.2022
3450 Clouds 17 1022 82 8000 2.06 130 07:39 27.05.2022
3451 Clouds 15 1021 94 10000 2.06 180 04:58 27.05.2022
3452 Clouds 12 1021 100 10000 2.06 300 01:38 27.05.2022
3453 Clouds 12 1022 88 10000 2.06 320 23:23 26.05.2022
3454 Clouds 13 1022 88 10000 3.09 310 22:22 26.05.2022
3455 Clouds 15 1022 88 10000 1.03 0 21:27 26.05.2022
3456 Clouds 17 1022 72 10000 1.03 80 19:35 26.05.2022
3457 Clouds 18 1021 63 10000 1.03 0 18:51 26.05.2022
3458 Clouds 18 1020 55 10000 1.54 340 17:36 26.05.2022
3459 Clouds 23 1020 41 10000 3.09 290 16:30 26.05.2022
3460 Clouds 26 1020 26 10000 2.57 300 15:28 26.05.2022
3461 Clouds 26 1020 34 10000 2.06 0 14:19 26.05.2022
3462 Clouds 24 1021 47 10000 2.06 170 12:18 26.05.2022
3463 Clouds 24 1022 50 10000 2.06 160 11:20 26.05.2022
3464 Mist 18 1023 82 6000 1.03 0 09:39 26.05.2022
3465 Fog 15 1023 100 1200 0.51 0 08:48 26.05.2022
3466 Fog 13 1022 100 400 0.51 0 05:43 26.05.2022
3467 Fog 13 1022 100 10000 1.54 40 02:24 26.05.2022
3468 Clouds 13 1023 100 10000 2.57 110 23:53 25.05.2022
3469 Clouds 13 1023 100 10000 2.57 100 22:52 25.05.2022
3470 Clouds 13 1023 94 10000 1.03 0 21:42 25.05.2022
3471 Clouds 15 1023 88 10000 1.03 70 20:49 25.05.2022
3472 Clouds 15 1022 94 10000 2.06 60 19:42 25.05.2022
3473 Clouds 16 1022 88 10000 3.09 90 18:47 25.05.2022
3474 Clouds 20 1021 49 10000 2.06 30 16:58 25.05.2022
3475 Clouds 23 1021 41 10000 2.06 10 16:27 25.05.2022
3476 Clouds 25 1020 36 10000 2.06 50 15:36 25.05.2022
3477 Clouds 25 1020 34 10000 2.57 200 14:50 25.05.2022
3478 Clouds 26 1020 32 10000 1.54 0 14:31 25.05.2022
3479 Clouds 26 1020 32 10000 1.54 0 13:23 25.05.2022
3480 Clear 25 1016 39 10000 1.06 11 11:49 25.05.2022
3481 Clouds 23 1023 41 10000 2.57 90 10:24 25.05.2022
3482 Clouds 19 1024 64 10000 1.03 0 09:38 25.05.2022
3483 Clear 19 1020 59 10000 1.16 107 07:36 25.05.2022
3484 Clouds 12 1022 100 10000 1.54 0 05:41 25.05.2022
3485 Clear 12 1019 96 10000 0.99 132 01:51 25.05.2022
3486 Clouds 12 1022 100 10000 1.03 0 23:48 24.05.2022
3487 Clouds 12 1022 100 10000 0.51 0 22:58 24.05.2022
3488 Clouds 13 1022 94 10000 1.54 90 21:47 24.05.2022
3489 Clouds 13 1022 94 10000 2.06 90 21:23 24.05.2022
3490 Clouds 13 1022 94 10000 2.57 80 20:59 24.05.2022
3491 Clouds 14 1022 88 10000 3.09 90 19:20 24.05.2022
3492 Clouds 15 1022 77 10000 3.09 90 18:29 24.05.2022
3493 Clouds 19 1021 60 10000 4.63 90 16:36 24.05.2022
3494 Clouds 21 1020 53 10000 3.09 120 15:31 24.05.2022
3495 Clouds 23 1019 50 10000 4.12 120 14:37 24.05.2022
3496 Clouds 23 1019 50 10000 2.06 140 13:35 24.05.2022
3497 Clouds 22 1020 53 10000 3.09 140 12:19 24.05.2022
3498 Clouds 21 1022 53 10000 3.09 100 09:51 24.05.2022
3499 Clouds 18 1022 59 10000 2.06 0 08:51 24.05.2022
3500 Clouds 16 1022 67 10000 1.54 0 07:44 24.05.2022
3501 Clouds 10 1021 100 10000 0 0 06:34 24.05.2022
3502 Clouds 10 1020 100 10000 2.57 70 03:32 24.05.2022
3503 Clouds 12 1020 100 10000 2.57 100 01:46 24.05.2022
3504 Clouds 12 1021 100 10000 0.51 0 00:21 24.05.2022
3505 Clouds 13 1021 100 10000 1.03 0 22:24 23.05.2022
3506 Clouds 14 1022 94 10000 1.03 0 21:45 23.05.2022
3507 Clouds 15 1022 88 10000 2.57 100 20:46 23.05.2022
3508 Clouds 16 1021 82 10000 3.09 140 19:47 23.05.2022
3509 Clouds 16 1021 82 10000 4.12 120 19:18 23.05.2022
3510 Clouds 16 1021 77 10000 4.12 110 18:40 23.05.2022
3511 Clouds 16 1020 72 10000 3.09 100 17:56 23.05.2022
3512 Clouds 19 1020 64 10000 4.63 100 16:28 23.05.2022
3513 Clouds 20 1019 60 10000 5.14 110 14:18 23.05.2022
3514 Clouds 21 1020 56 10000 3.09 130 11:52 23.05.2022
3515 Clouds 20 1021 60 10000 3.6 150 10:47 23.05.2022
3516 Clouds 21 1022 56 10000 3.6 130 09:47 23.05.2022
3517 Clouds 18 1022 68 10000 3.6 170 08:46 23.05.2022
3518 Clouds 18 1022 68 10000 3.6 170 08:46 23.05.2022
3519 Clouds 16 1022 77 10000 2.57 90 07:24 23.05.2022
3520 Clouds 14 1021 88 10000 1.54 130 06:39 23.05.2022
3521 Clouds 14 1021 94 10000 2.06 140 03:27 23.05.2022
3522 Clouds 13 1021 100 10000 2.06 160 01:52 23.05.2022
3523 Clouds 13 1021 100 10000 3.09 120 01:26 23.05.2022
3524 Clouds 13 1022 100 10000 2.06 100 22:49 22.05.2022
3525 Clouds 13 1022 94 10000 1.54 60 22:22 22.05.2022
3526 Clouds 13 1023 100 10000 1.54 0 21:51 22.05.2022
3527 Clouds 13 1023 100 10000 2.57 80 20:43 22.05.2022
3528 Clouds 14 1023 94 10000 2.57 90 20:20 22.05.2022
3529 Clouds 15 1022 88 10000 3.6 80 19:19 22.05.2022
3530 Clouds 15 1022 88 10000 3.6 70 18:46 22.05.2022
3531 Clouds 17 1022 77 10000 4.63 90 18:21 22.05.2022
3532 Clouds 17 1022 77 10000 4.12 120 16:51 22.05.2022
3533 Clouds 20 1021 68 10000 5.66 110 15:25 22.05.2022
3534 Clouds 20 1021 64 10000 6.17 100 14:44 22.05.2022
3535 Clouds 21 1021 64 10000 4.63 110 12:54 22.05.2022
3536 Clouds 21 1022 60 10000 4.63 120 12:31 22.05.2022
3537 Clouds 23 1022 53 10000 2.57 140 10:45 22.05.2022
3538 Clouds 20 1024 56 10000 2.57 140 09:29 22.05.2022
3539 Clouds 16 1024 77 10000 2.06 100 07:44 22.05.2022
3540 Clouds 13 1024 94 10000 1.54 0 06:41 22.05.2022
3541 Clouds 10 1023 100 10000 1.03 0 04:18 22.05.2022
3542 Clouds 10 1023 100 10000 2.57 60 00:59 22.05.2022
3543 Clouds 11 1024 94 10000 2.57 70 23:57 21.05.2022
3544 Clouds 11 1024 94 10000 2.06 60 23:29 21.05.2022
3545 Clouds 12 1024 94 10000 2.06 90 21:59 21.05.2022
3546 Clouds 12 1024 94 10000 2.57 100 21:37 21.05.2022
3547 Clouds 13 1024 88 10000 2.57 90 20:41 21.05.2022
3548 Clouds 13 1024 88 10000 2.57 90 19:53 21.05.2022
3549 Clouds 13 1024 88 10000 2.57 80 19:20 21.05.2022
3550 Clouds 16 1023 67 10000 4.63 90 17:23 21.05.2022
3551 Clouds 22 1022 43 10000 5.66 130 14:51 21.05.2022
3552 Clouds 23 1022 38 10000 5.14 110 14:19 21.05.2022
3553 Clouds 24 1022 36 10000 3.6 130 13:25 21.05.2022
3554 Clouds 23 1022 41 10000 4.12 100 12:39 21.05.2022
3555 Clouds 23 1023 38 10000 4.63 130 11:38 21.05.2022
3556 Clouds 21 1024 49 10000 3.6 160 10:21 21.05.2022
3557 Clouds 17 1025 68 10000 4.63 170 08:59 21.05.2022
3558 Clouds 16 1025 72 10000 4.63 170 08:38 21.05.2022
3559 Clouds 13 1023 83 10000 3.06 114 06:20 21.05.2022
3560 Clouds 15 1024 88 10000 3.09 140 01:42 21.05.2022
3561 Clouds 15 1025 88 10000 2.57 140 23:35 20.05.2022
3562 Clouds 15 1025 88 10000 3.09 140 22:30 20.05.2022
3563 Clouds 15 1025 88 10000 3.09 110 21:58 20.05.2022
3564 Clouds 14 1025 94 10000 3.09 100 21:19 20.05.2022
3565 Clouds 14 1025 94 10000 3.09 130 20:47 20.05.2022
3566 Clouds 16 1025 82 10000 3.09 110 19:45 20.05.2022
3567 Clouds 16 1025 82 10000 3.09 100 18:53 20.05.2022
3568 Clouds 16 1024 82 10000 3.09 140 17:53 20.05.2022
3569 Clouds 18 1023 72 10000 4.12 140 16:23 20.05.2022
3570 Clouds 18 1023 72 10000 5.14 120 15:54 20.05.2022
3571 Clouds 20 1022 60 10000 5.14 120 14:32 20.05.2022
3572 Clouds 21 1022 56 10000 4.63 130 13:59 20.05.2022
3573 Clouds 22 1023 53 10000 4.63 130 11:52 20.05.2022
3574 Clouds 21 1023 56 10000 6.17 120 10:45 20.05.2022
3575 Clouds 17 1024 59 10000 2.57 150 09:23 20.05.2022
3576 Clouds 15 1024 63 10000 4.12 170 07:43 20.05.2022
3577 Clouds 11 1024 100 10000 2.06 180 06:40 20.05.2022
3578 Clouds 10 1024 93 10000 1.54 0 05:39 20.05.2022
3579 Clouds 13 1024 82 10000 1.54 150 01:29 20.05.2022
3580 Clouds 14 1025 77 10000 3.09 140 23:31 19.05.2022
3581 Clouds 14 1025 77 10000 3.6 140 22:34 19.05.2022
3582 Clouds 14 1025 82 10000 3.6 140 21:49 19.05.2022
3583 Clouds 14 1025 82 10000 3.6 140 21:49 19.05.2022
3584 Clouds 14 1025 82 10000 3.6 140 21:23 19.05.2022
3585 Clouds 15 1025 77 10000 3.6 130 20:43 19.05.2022
3586 Clouds 14 1025 82 10000 4.12 140 19:54 19.05.2022
3587 Clouds 14 1024 82 10000 3.6 140 18:58 19.05.2022
3588 Clouds 16 1023 67 10000 4.63 90 17:35 19.05.2022
3589 Clouds 16 1023 67 10000 4.63 90 17:35 19.05.2022
3590 Clouds 19 1022 52 10000 4.12 140 15:34 19.05.2022
3591 Clouds 20 1022 56 10000 4.12 140 14:35 19.05.2022
3592 Clouds 19 1023 64 10000 5.14 110 13:59 19.05.2022
3593 Clouds 20 1023 60 10000 5.14 120 11:52 19.05.2022
3594 Clouds 19 1024 60 10000 3.09 160 10:25 19.05.2022
3595 Clouds 18 1024 63 10000 3.09 160 08:31 19.05.2022
3596 Clouds 12 1024 94 10000 2.06 90 06:39 19.05.2022
3597 Clouds 13 1024 94 10000 3.09 150 02:59 19.05.2022
3598 Clouds 14 1024 82 10000 4.12 150 00:56 19.05.2022
3599 Clouds 14 1024 88 10000 3.09 140 23:00 18.05.2022
3600 Clouds 14 1024 88 10000 3.09 140 22:40 18.05.2022
3601 Clouds 15 1024 77 10000 4.12 170 21:32 18.05.2022
3602 Clouds 14 1024 82 10000 3.6 160 20:55 18.05.2022
3603 Clouds 14 1024 82 10000 3.6 160 20:55 18.05.2022
3604 Clouds 14 1024 82 10000 3.6 160 20:19 18.05.2022
3605 Clouds 16 1024 72 10000 3.6 140 18:46 18.05.2022
3606 Clouds 15 1023 77 10000 4.12 130 17:41 18.05.2022
3607 Clouds 16 1023 72 10000 4.12 140 17:23 18.05.2022
3608 Clouds 17 1022 63 10000 5.14 120 16:35 18.05.2022
3609 Clouds 18 1022 59 10000 5.14 130 15:42 18.05.2022
3610 Clouds 19 1022 56 10000 5.66 120 15:19 18.05.2022
3611 Clouds 20 1022 49 10000 5.14 140 13:48 18.05.2022
3612 Clouds 21 1022 43 10000 5.66 140 12:53 18.05.2022
3613 Clouds 21 1023 40 10000 5.66 150 11:41 18.05.2022
3614 Clouds 20 1023 40 10000 6.17 160 11:23 18.05.2022
3615 Clouds 19 1024 42 10000 6.17 170 09:57 18.05.2022
3616 Clouds 15 1025 67 10000 3.6 170 07:55 18.05.2022
3617 Clouds 13 1024 77 10000 4.12 160 06:49 18.05.2022
3618 Clouds 12 1024 94 10000 2.57 160 02:23 18.05.2022
3619 Clouds 13 1025 88 10000 4.63 150 00:26 18.05.2022
3620 Clouds 13 1025 94 10000 4.63 170 22:47 17.05.2022
3621 Clouds 14 1025 82 10000 4.63 140 21:20 17.05.2022
3622 Clouds 14 1025 88 10000 4.63 140 20:29 17.05.2022
3623 Clouds 15 1025 82 10000 4.63 150 19:28 17.05.2022
3624 Clouds 15 1024 82 10000 5.14 160 17:52 17.05.2022
3625 Clouds 16 1023 77 10000 5.66 150 17:18 17.05.2022
3626 Clouds 17 1023 68 10000 5.14 150 16:31 17.05.2022
3627 Clouds 18 1023 68 10000 5.14 150 15:32 17.05.2022
3628 Clouds 19 1022 64 10000 6.17 140 14:30 17.05.2022
3629 Clouds 19 1023 60 10000 6.69 140 13:37 17.05.2022
3630 Clouds 18 1023 68 10000 6.69 160 11:58 17.05.2022
3631 Clouds 18 1025 68 10000 6.69 140 09:38 17.05.2022
3632 Clouds 16 1025 77 10000 6.17 150 08:36 17.05.2022
3633 Clouds 15 1024 82 10000 5.66 150 06:50 17.05.2022
3634 Clouds 14 1023 82 10000 3.6 160 03:45 17.05.2022
3635 Clouds 14 1024 82 10000 2.06 160 00:45 17.05.2022
3636 Clouds 14 1025 82 10000 4.12 150 22:44 16.05.2022
3637 Clouds 14 1025 82 10000 2.57 140 21:52 16.05.2022
3638 Clouds 15 1025 82 10000 3.09 130 20:48 16.05.2022
3639 Clouds 15 1025 77 10000 5.14 170 19:49 16.05.2022
3640 Clouds 16 1025 72 10000 3.09 130 18:21 16.05.2022
3641 Clouds 20 1023 49 10000 6.17 110 15:53 16.05.2022
3642 Clouds 22 1023 40 10000 4.12 140 14:38 16.05.2022
3643 Clouds 22 1023 38 10000 3.6 110 13:23 16.05.2022
3644 Clouds 23 1024 35 10000 2.57 120 11:31 16.05.2022
3645 Clouds 21 1025 40 10000 4.12 160 09:47 16.05.2022
3646 Clouds 15 1025 72 10000 2.06 150 06:58 16.05.2022
3647 Clouds 13 1024 82 10000 3.09 130 03:58 16.05.2022
3648 Clouds 15 1026 77 10000 2.06 150 23:38 15.05.2022
3649 Clouds 15 1026 82 10000 3.09 130 22:32 15.05.2022
3650 Clouds 15 1026 82 10000 3.09 130 21:47 15.05.2022
3651 Clouds 15 1026 82 10000 4.12 110 20:57 15.05.2022
3652 Clouds 16 1026 77 10000 5.14 110 19:52 15.05.2022
3653 Clouds 17 1024 63 10000 5.14 120 17:52 15.05.2022
3654 Clouds 18 1023 59 10000 5.14 120 16:29 15.05.2022
3655 Clouds 22 1022 43 10000 3.6 120 13:59 15.05.2022
3656 Clouds 22 1023 43 10000 3.6 110 12:57 15.05.2022
3657 Clouds 22 1024 43 10000 4.12 130 11:40 15.05.2022
3658 Clouds 20 1025 52 10000 5.14 140 10:29 15.05.2022
3659 Clouds 19 1025 56 10000 4.63 110 08:46 15.05.2022
3660 Clouds 14 1025 94 10000 1.54 140 06:58 15.05.2022
3661 Clouds 12 1024 100 10000 1.03 70 05:52 15.05.2022
3662 Clouds 14 1024 94 10000 1.03 0 00:49 15.05.2022
3663 Clouds 14 1024 94 10000 1.03 0 23:39 14.05.2022
3664 Clouds 14 1024 94 10000 1.54 0 22:59 14.05.2022
3665 Clouds 14 1024 94 10000 2.06 140 21:29 14.05.2022
3666 Clouds 13 1024 94 10000 3.09 110 20:53 14.05.2022
3667 Clouds 14 1024 88 10000 2.57 120 19:39 14.05.2022
3668 Clouds 14 1024 88 10000 2.57 120 19:19 14.05.2022
3669 Clouds 15 1023 82 10000 3.6 120 18:44 14.05.2022
3670 Clouds 17 1022 68 10000 4.63 100 16:46 14.05.2022
3671 Clouds 21 1021 49 10000 4.12 100 15:30 14.05.2022
3672 Clouds 22 1021 46 10000 3.6 130 14:34 14.05.2022
3673 Clouds 23 1022 43 10000 3.09 120 12:24 14.05.2022
3674 Clouds 21 1024 49 10000 3.6 140 10:59 14.05.2022
3675 Clouds 20 1024 52 10000 2.57 150 10:21 14.05.2022
3676 Clouds 19 1024 56 10000 3.09 170 09:53 14.05.2022
3677 Clouds 18 1025 59 10000 2.06 0 08:49 14.05.2022
3678 Clouds 14 1024 77 10000 3.09 110 06:41 14.05.2022
3679 Clouds 11 1022 100 10000 1.03 70 02:39 14.05.2022
3680 Clouds 14 1023 88 10000 1.54 160 23:36 13.05.2022
3681 Clouds 13 1024 94 10000 1.54 140 22:58 13.05.2022
3682 Clouds 13 1023 94 10000 2.06 160 22:25 13.05.2022
3683 Clouds 14 1023 88 10000 2.06 140 21:39 13.05.2022
3684 Clouds 14 1024 94 10000 2.57 140 20:45 13.05.2022
3685 Clouds 14 1023 94 10000 2.06 150 20:24 13.05.2022
3686 Clouds 13 1023 94 10000 2.57 70 19:28 13.05.2022
3687 Clouds 15 1022 88 10000 5.66 110 17:50 13.05.2022
3688 Clouds 16 1022 82 10000 2.57 90 17:27 13.05.2022
3689 Clouds 21 1021 56 10000 4.63 90 16:18 13.05.2022
3690 Clouds 21 1021 56 10000 4.63 100 15:20 13.05.2022
3691 Clouds 22 1021 53 10000 3.09 130 13:29 13.05.2022
3692 Clouds 21 1022 56 10000 1.54 0 12:25 13.05.2022
3693 Clouds 21 1023 53 10000 2.57 0 10:53 13.05.2022
3694 Clouds 19 1024 60 10000 1.54 120 09:33 13.05.2022
3695 Clouds 15 1024 77 10000 2.57 140 08:23 13.05.2022
3696 Clouds 14 1024 88 10000 3.6 120 07:42 13.05.2022
3697 Clouds 11 1023 100 10000 3.09 100 05:59 13.05.2022
3698 Clouds 12 1022 100 10000 2.06 110 02:44 13.05.2022
3699 Clouds 14 1023 88 10000 2.06 140 23:46 12.05.2022
3700 Clouds 14 1023 94 10000 2.06 110 22:44 12.05.2022
3701 Clouds 15 1023 88 10000 3.09 80 21:54 12.05.2022
3702 Clouds 15 1023 88 10000 2.06 150 20:25 12.05.2022
3703 Clouds 15 1022 82 10000 3.6 90 18:41 12.05.2022
3704 Clouds 18 1021 63 10000 5.66 100 16:58 12.05.2022
3705 Clouds 21 1020 40 10000 2.57 160 15:50 12.05.2022
3706 Clouds 24 1020 36 10000 2.06 0 14:20 12.05.2022
3707 Clouds 24 1020 38 10000 2.06 0 13:24 12.05.2022
3708 Clouds 22 1022 46 10000 2.06 0 10:41 12.05.2022
3709 Clouds 20 1023 60 10000 2.57 160 09:19 12.05.2022
3710 Clouds 18 1023 68 10000 2.57 110 08:41 12.05.2022
3711 Clouds 16 1023 77 10000 2.06 140 07:37 12.05.2022
3712 Clouds 12 1021 100 10000 2.06 140 05:32 12.05.2022
3713 Clouds 13 1020 88 10000 1.03 0 02:24 12.05.2022
3714 Clouds 14 1021 94 10000 2.57 120 23:56 11.05.2022
3715 Clouds 15 1021 88 10000 3.09 120 22:31 11.05.2022
3716 Clouds 15 1021 88 10000 2.06 140 21:32 11.05.2022
3717 Clouds 14 1021 94 10000 2.57 150 20:53 11.05.2022
3718 Clouds 16 1019 77 10000 5.14 100 18:24 11.05.2022
3719 Clouds 19 1018 56 10000 4.12 90 16:50 11.05.2022
3720 Clouds 25 1016 29 10000 2.06 0 14:50 11.05.2022
3721 Clouds 25 1016 31 10000 2.57 70 14:26 11.05.2022
3722 Clouds 25 1017 29 10000 2.06 40 13:44 11.05.2022
3723 Clouds 24 1018 36 10000 2.57 0 11:51 11.05.2022
3724 Clouds 20 1019 46 10000 2.06 160 09:54 11.05.2022
3725 Clouds 16 1020 72 10000 0.51 0 07:53 11.05.2022
3726 Clouds 7 1018 100 10000 1.54 310 04:44 11.05.2022
3727 Clouds 10 1018 93 10000 1.54 0 00:41 11.05.2022
3728 Clouds 11 1018 82 10000 4.12 310 22:30 10.05.2022
3729 Clouds 12 1019 76 10000 1.54 330 21:45 10.05.2022
3730 Clouds 13 1019 72 10000 2.57 330 20:52 10.05.2022
3731 Clouds 13 1018 67 10000 3.6 310 19:25 10.05.2022
3732 Clouds 16 1017 51 10000 3.09 310 17:47 10.05.2022
3733 Clouds 20 1017 40 10000 3.6 290 16:41 10.05.2022
3734 Clouds 25 1015 24 10000 8.23 290 13:59 10.05.2022
3735 Clouds 25 1016 31 10000 7.2 320 12:36 10.05.2022
3736 Clouds 25 1017 38 10000 6.17 310 11:49 10.05.2022
3737 Clouds 24 1017 38 10000 6.69 310 11:18 10.05.2022
3738 Clouds 22 1019 53 10000 3.6 290 09:57 10.05.2022
3739 Clouds 21 1019 64 10000 4.12 280 09:18 10.05.2022
3740 Clouds 15 1019 100 10000 1.03 330 06:35 10.05.2022
3741 Clouds 13 1017 100 10000 1.54 310 02:48 10.05.2022
3742 Clouds 14 1018 100 10000 2.06 320 00:24 10.05.2022
3743 Clouds 16 1019 88 10000 1.54 330 22:43 09.05.2022
3744 Clouds 17 1019 82 10000 2.57 330 21:48 09.05.2022
3745 Clouds 18 1019 77 10000 1.54 330 20:23 09.05.2022
3746 Clouds 19 1018 73 10000 1.54 360 18:35 09.05.2022
3747 Clouds 20 1018 68 10000 2.06 10 17:39 09.05.2022
3748 Clouds 22 1017 60 10000 4.12 30 16:28 09.05.2022
3749 Clouds 23 1017 57 10000 4.63 10 15:48 09.05.2022
3750 Clouds 26 1017 39 10000 4.63 310 14:46 09.05.2022
3751 Clouds 27 1017 39 10000 4.12 280 13:59 09.05.2022
3752 Clouds 27 1017 42 10000 3.6 240 13:32 09.05.2022
3753 Clouds 26 1018 47 10000 2.57 290 11:54 09.05.2022
3754 Clouds 24 1019 53 10000 2.57 310 10:50 09.05.2022
3755 Clouds 25 1019 57 10000 2.57 310 10:29 09.05.2022
3756 Clouds 20 1020 83 10000 1.03 0 07:57 09.05.2022
3757 Clouds 17 1020 100 10000 1.03 0 06:42 09.05.2022
3758 Clouds 16 1019 100 10000 1.03 100 02:37 09.05.2022
3759 Clouds 16 1019 100 10000 1.03 100 02:37 09.05.2022
3760 Clouds 16 1019 100 10000 1.03 100 02:37 09.05.2022
3761 Clouds 16 1019 100 10000 1.03 100 02:37 09.05.2022
3762 Clouds 16 1021 100 10000 1.03 0 23:29 08.05.2022
3763 Clouds 16 1021 100 10000 1.03 0 22:42 08.05.2022
3764 Clouds 17 1021 100 10000 3.09 110 21:37 08.05.2022
3765 Clouds 17 1021 94 10000 1.03 0 20:25 08.05.2022
3766 Clouds 17 1021 94 10000 2.06 70 19:35 08.05.2022
3767 Clouds 18 1020 82 10000 2.06 90 18:40 08.05.2022
3768 Rain 20 1019 73 10000 3.09 20 17:40 08.05.2022
3769 Rain 23 1019 60 10000 3.09 60 16:23 08.05.2022
3770 Clouds 25 1019 53 10000 4.63 70 15:24 08.05.2022
3771 Clouds 24 1019 57 10000 3.09 60 13:44 08.05.2022
3772 Clouds 26 1020 50 10000 2.57 60 11:50 08.05.2022
3773 Clouds 23 1021 64 10000 1.54 0 10:26 08.05.2022
3774 Clouds 22 1021 64 10000 1.03 0 09:53 08.05.2022
3775 Clouds 19 1022 83 10000 3.09 90 07:57 08.05.2022
3776 Drizzle 17 1021 100 8000 2.06 110 06:18 08.05.2022
3777 Clouds 17 1020 100 10000 1.54 0 03:22 08.05.2022
3778 Clouds 17 1020 100 10000 1.54 0 03:22 08.05.2022
3779 Clouds 17 1020 94 10000 2.06 50 00:48 08.05.2022
3780 Clouds 17 1021 100 10000 1.03 60 23:56 07.05.2022
3781 Clouds 17 1021 100 10000 2.06 110 23:28 07.05.2022
3782 Clouds 16 1021 100 10000 1.03 140 22:35 07.05.2022
3783 Clouds 17 1021 94 10000 3.09 90 21:55 07.05.2022
3784 Clouds 17 1021 94 10000 3.6 90 21:20 07.05.2022
3785 Clouds 18 1021 88 10000 2.57 90 20:23 07.05.2022
3786 Clouds 18 1021 88 10000 2.57 80 18:41 07.05.2022
3787 Clouds 20 1020 73 10000 2.06 170 16:24 07.05.2022
3788 Clouds 21 1019 73 10000 2.57 160 14:51 07.05.2022
3789 Drizzle 20 1021 78 10000 2.06 140 11:21 07.05.2022
3790 Drizzle 19 1022 88 9000 3.09 120 09:39 07.05.2022
3791 Drizzle 18 1022 88 9000 3.6 100 08:30 07.05.2022
3792 Mist 16 1022 100 3000 2.06 170 06:44 07.05.2022
3793 Drizzle 16 1022 100 1800 1.54 180 06:24 07.05.2022
3794 Clouds 16 1020 100 10000 2.06 100 03:54 07.05.2022
3795 Drizzle 16 1022 100 6000 1.54 140 23:41 06.05.2022
3796 Drizzle 16 1022 100 10000 2.06 140 22:34 06.05.2022
3797 Clouds 17 1022 94 10000 2.06 140 21:47 06.05.2022
3798 Drizzle 17 1022 94 10000 1.54 90 20:39 06.05.2022
3799 Drizzle 17 1022 94 9000 3.09 120 19:43 06.05.2022
3800 Clouds 18 1022 82 10000 4.12 110 19:19 06.05.2022
3801 Clouds 18 1022 82 10000 3.6 110 18:25 06.05.2022
3802 Clouds 18 1021 77 10000 4.12 120 17:27 06.05.2022
3803 Clouds 20 1021 73 10000 4.63 110 15:49 06.05.2022
3804 Clouds 20 1020 73 10000 4.63 150 14:58 06.05.2022
3805 Clouds 22 1020 64 10000 4.63 100 13:38 06.05.2022
3806 Clouds 21 1020 68 10000 5.14 100 12:42 06.05.2022
3807 Clouds 22 1021 64 10000 5.14 110 11:58 06.05.2022
3808 Clouds 20 1022 73 10000 6.17 110 10:36 06.05.2022
3809 Clouds 20 1023 73 10000 5.66 110 09:46 06.05.2022
3810 Clouds 18 1023 82 10000 2.57 150 08:52 06.05.2022
3811 Clouds 16 1023 88 10000 3.6 170 07:26 06.05.2022
3812 Clouds 14 1022 94 10000 2.06 180 05:48 06.05.2022
3813 Clouds 13 1022 100 10000 1.03 0 02:51 06.05.2022
3814 Clouds 13 1023 100 10000 1.03 0 01:31 06.05.2022
3815 Clouds 13 1024 100 10000 1.03 0 22:45 05.05.2022
3816 Clouds 13 1024 100 10000 1.03 0 22:45 05.05.2022
3817 Clouds 13 1024 94 10000 2.06 70 21:31 05.05.2022
3818 Clouds 14 1024 88 10000 1.54 80 20:26 05.05.2022
3819 Clouds 15 1024 82 10000 3.6 110 18:35 05.05.2022
3820 Clouds 19 1023 60 10000 5.14 130 16:35 05.05.2022
3821 Clouds 22 1022 53 10000 6.17 110 14:53 05.05.2022
3822 Clouds 22 1022 53 10000 5.14 140 13:25 05.05.2022
3823 Clouds 21 1022 53 10000 6.17 120 12:53 05.05.2022
3824 Clouds 22 1024 46 10000 5.66 140 10:52 05.05.2022
3825 Clouds 21 1024 49 10000 6.69 100 09:40 05.05.2022
3826 Clouds 15 1025 67 10000 3.6 160 07:36 05.05.2022
3827 Clouds 12 1024 88 10000 2.57 150 05:19 05.05.2022
3828 Clouds 12 1024 88 10000 2.57 150 05:19 05.05.2022
3829 Clouds 15 1024 88 10000 3.09 150 01:56 05.05.2022
3830 Clouds 15 1024 88 10000 4.12 160 01:29 05.05.2022
3831 Drizzle 15 1025 94 10000 4.12 140 23:52 04.05.2022
3832 Clouds 16 1025 82 10000 4.63 140 22:42 04.05.2022
3833 Clouds 16 1025 82 10000 4.63 140 22:42 04.05.2022
3834 Clouds 16 1025 82 10000 3.6 140 21:50 04.05.2022
3835 Clouds 15 1026 88 10000 3.6 120 21:26 04.05.2022
3836 Clouds 16 1025 82 10000 3.6 130 20:25 04.05.2022
3837 Clouds 16 1025 82 10000 3.6 130 19:53 04.05.2022
3838 Clouds 17 1025 77 10000 3.6 130 18:56 04.05.2022
3839 Clouds 17 1025 77 10000 4.12 140 18:22 04.05.2022
3840 Clouds 17 1024 77 10000 3.6 130 17:38 04.05.2022
3841 Clouds 19 1023 68 10000 6.17 110 15:40 04.05.2022
3842 Clouds 19 1023 68 10000 6.17 110 15:22 04.05.2022
3843 Clouds 20 1023 64 10000 7.2 120 14:21 04.05.2022
3844 Clouds 21 1024 60 10000 5.14 110 13:26 04.05.2022
3845 Clouds 21 1024 60 10000 5.66 120 12:29 04.05.2022
3846 Clouds 19 1025 68 10000 5.66 120 10:40 04.05.2022
3847 Clouds 19 1025 68 10000 5.66 160 09:43 04.05.2022
3848 Clouds 18 1025 72 10000 6.17 140 08:41 04.05.2022
3849 Clouds 16 1025 82 10000 5.14 160 06:41 04.05.2022
3850 Clouds 16 1023 88 10000 2.57 150 02:58 04.05.2022
3851 Clouds 16 1024 88 10000 3.09 150 00:33 04.05.2022
3852 Clouds 16 1024 88 10000 3.09 120 22:34 03.05.2022
3853 Clouds 16 1024 82 10000 5.14 120 21:43 03.05.2022
3854 Clouds 17 1024 82 10000 3.6 150 20:54 03.05.2022
3855 Clouds 16 1024 94 10000 4.12 140 19:57 03.05.2022
3856 Clouds 16 1023 94 10000 4.12 110 18:52 03.05.2022
3857 Clouds 17 1023 82 10000 5.66 100 18:20 03.05.2022
3858 Clouds 21 1021 64 10000 5.66 90 16:38 03.05.2022
3859 Clouds 22 1021 56 10000 4.63 100 15:35 03.05.2022
3860 Clouds 24 1021 57 10000 3.6 110 12:47 03.05.2022
3861 Clouds 24 1021 53 10000 3.6 150 12:27 03.05.2022
3862 Clouds 21 1022 64 10000 3.09 130 10:57 03.05.2022
3863 Clouds 21 1022 64 10000 3.09 130 10:57 03.05.2022
3864 Clouds 19 1023 73 10000 4.12 140 09:29 03.05.2022
3865 Clouds 17 1023 82 10000 3.6 140 06:46 03.05.2022
3866 Clouds 16 1022 88 10000 2.06 140 05:58 03.05.2022
3867 Clouds 15 1022 94 10000 2.06 120 00:32 03.05.2022
3868 Clouds 16 1022 88 10000 2.57 120 22:36 02.05.2022
3869 Clouds 16 1022 88 10000 2.57 150 21:52 02.05.2022
3870 Clouds 16 1022 88 10000 4.63 120 20:51 02.05.2022
3871 Clouds 17 1021 88 10000 4.63 110 18:37 02.05.2022
3872 Clouds 18 1020 77 10000 5.66 120 17:57 02.05.2022
3873 Clouds 19 1020 77 10000 5.14 100 17:34 02.05.2022
3874 Clouds 21 1019 64 10000 5.14 90 16:21 02.05.2022
3875 Clouds 23 1019 57 10000 5.14 100 15:30 02.05.2022
3876 Clouds 23 1019 57 10000 5.14 100 15:30 02.05.2022
3877 Rain 25 1019 50 10000 4.12 120 13:50 02.05.2022
3878 Clouds 25 1020 50 10000 4.12 120 12:19 02.05.2022
3879 Clouds 23 1021 60 10000 3.6 120 10:38 02.05.2022
3880 Clouds 19 1021 73 10000 3.09 160 08:49 02.05.2022
3881 Clouds 19 1021 73 10000 3.09 160 07:40 02.05.2022
3882 Clouds 17 1020 88 10000 3.6 180 03:48 02.05.2022
3883 Clouds 17 1021 100 10000 1.54 180 00:24 02.05.2022
3884 Clouds 16 1021 94 10000 0 0 23:47 01.05.2022
3885 Clouds 17 1021 82 10000 1.54 20 22:20 01.05.2022
3886 Clouds 17 1021 82 10000 1.54 320 21:18 01.05.2022
3887 Clouds 18 1021 72 10000 2.06 280 19:50 01.05.2022
3888 Clouds 19 1020 68 10000 2.57 290 18:55 01.05.2022
3889 Clouds 20 1020 64 10000 2.57 270 18:22 01.05.2022
3890 Clouds 21 1019 56 10000 3.09 280 17:18 01.05.2022
3891 Clouds 24 1019 47 10000 3.6 260 16:23 01.05.2022
3892 Clouds 26 1019 41 10000 4.12 310 15:24 01.05.2022
3893 Clouds 27 1019 39 10000 3.09 320 13:42 01.05.2022
3894 Clouds 22 1021 60 10000 2.57 300 10:53 01.05.2022
3895 Clouds 22 1022 68 10000 2.06 310 08:53 01.05.2022
3896 Clouds 22 1022 68 10000 2.06 310 08:53 01.05.2022
3897 Clouds 21 1022 73 10000 1.03 0 07:53 01.05.2022
3898 Clouds 14 1020 94 10000 2.06 320 03:26 01.05.2022
3899 Clouds 15 1020 88 10000 2.06 330 23:49 30.04.2022
3900 Clouds 16 1021 82 10000 2.06 40 21:44 30.04.2022
3901 Clouds 16 1021 82 10000 2.57 80 20:45 30.04.2022
3902 Clouds 18 1020 72 10000 2.06 310 19:41 30.04.2022
3903 Clouds 18 1020 72 10000 2.06 310 19:41 30.04.2022
3904 Clouds 20 1019 64 10000 2.57 310 17:44 30.04.2022
3905 Clouds 24 1018 47 10000 3.6 30 16:37 30.04.2022
3906 Clouds 24 1018 47 10000 4.63 10 15:24 30.04.2022
3907 Clouds 25 1018 41 10000 2.57 340 14:34 30.04.2022
3908 Clouds 26 1018 36 10000 2.57 360 12:40 30.04.2022
3909 Clouds 25 1019 47 10000 2.57 0 11:33 30.04.2022
3910 Clouds 23 1020 60 10000 1.54 0 10:40 30.04.2022
3911 Clouds 19 1021 73 10000 1.54 0 08:59 30.04.2022
3912 Clouds 14 1020 94 10000 1.03 0 05:51 30.04.2022
3913 Clouds 14 1019 94 10000 2.06 170 01:51 30.04.2022
3914 Clouds 14 1021 94 10000 2.57 120 23:37 29.04.2022
3915 Clouds 13 1021 100 10000 3.6 110 22:31 29.04.2022
3916 Clouds 14 1021 94 10000 2.57 110 21:27 29.04.2022
3917 Clouds 15 1021 82 10000 3.6 100 20:39 29.04.2022
3918 Clouds 15 1021 82 10000 3.09 90 19:43 29.04.2022
3919 Clouds 16 1019 82 10000 5.14 100 17:54 29.04.2022
3920 Clouds 17 1019 77 10000 4.63 100 17:21 29.04.2022
3921 Clouds 21 1018 60 10000 4.63 90 14:57 29.04.2022
3922 Clouds 22 1018 56 10000 4.12 120 14:20 29.04.2022
3923 Clouds 23 1018 53 10000 3.6 100 12:48 29.04.2022
3924 Clouds 22 1020 53 10000 4.63 150 10:59 29.04.2022
3925 Clouds 18 1021 63 10000 4.63 170 08:33 29.04.2022
3926 Clouds 16 1021 72 10000 3.6 180 07:27 29.04.2022
3927 Clouds 14 1020 72 10000 3.09 180 06:37 29.04.2022
3928 Clouds 14 1019 58 10000 3.6 140 03:34 29.04.2022
3929 Clouds 14 1020 82 10000 4.63 140 00:19 29.04.2022
3930 Clouds 14 1020 88 10000 4.12 140 23:27 28.04.2022
3931 Clouds 14 1020 88 10000 4.12 150 22:41 28.04.2022
3932 Clouds 15 1020 88 10000 3.6 150 21:46 28.04.2022
3933 Clouds 15 1020 88 10000 3.6 140 20:55 28.04.2022
3934 Clouds 16 1020 82 10000 4.12 120 20:22 28.04.2022
3935 Clouds 16 1020 82 10000 5.66 120 19:40 28.04.2022
3936 Clouds 16 1019 82 10000 4.63 130 19:21 28.04.2022
3937 Clouds 15 1018 88 10000 5.66 110 18:23 28.04.2022
3938 Clouds 18 1017 77 10000 4.12 80 16:59 28.04.2022
3939 Clouds 20 1016 68 10000 4.12 90 16:22 28.04.2022
3940 Clouds 22 1016 60 10000 3.09 80 15:57 28.04.2022
3941 Clouds 22 1016 60 10000 3.09 80 15:27 28.04.2022
3942 Clouds 23 1016 57 10000 1.54 0 13:44 28.04.2022
3943 Clouds 22 1017 56 10000 1.03 0 12:38 28.04.2022
3944 Clouds 21 1017 60 10000 2.06 130 11:53 28.04.2022
3945 Clouds 20 1019 64 10000 2.57 90 10:37 28.04.2022
3946 Clouds 20 1019 64 10000 2.06 130 09:52 28.04.2022
3947 Clouds 19 1019 73 10000 4.12 150 08:20 28.04.2022
3948 Clouds 16 1018 82 10000 4.63 140 06:56 28.04.2022
3949 Clouds 17 1017 82 10000 4.63 160 05:54 28.04.2022
3950 Clouds 17 1016 82 10000 3.09 160 04:44 28.04.2022
3951 Clouds 17 1016 88 10000 3.09 170 03:40 28.04.2022
3952 Clouds 18 1017 72 10000 3.09 180 23:52 27.04.2022
3953 Clouds 18 1017 88 10000 2.06 80 22:30 27.04.2022
3954 Clouds 19 1017 77 10000 1.54 230 21:51 27.04.2022
3955 Clouds 19 1017 77 10000 1.54 230 20:56 27.04.2022
3956 Clouds 19 1017 77 10000 1.54 260 20:34 27.04.2022
3957 Clouds 19 1017 77 10000 1.54 260 20:34 27.04.2022
3958 Clouds 20 1016 78 10000 3.09 270 19:37 27.04.2022
3959 Clouds 20 1016 78 10000 3.6 280 18:52 27.04.2022
3960 Rain 20 1015 78 10000 4.12 280 18:21 27.04.2022
3961 Clouds 23 1014 60 10000 4.63 260 16:23 27.04.2022
3962 Clouds 25 1014 50 10000 5.66 280 13:51 27.04.2022
3963 Clouds 25 1016 53 10000 5.66 270 11:39 27.04.2022
3964 Clouds 25 1016 53 10000 5.66 270 11:18 27.04.2022
3965 Clouds 22 1017 68 10000 5.14 280 08:53 27.04.2022
3966 Clouds 19 1017 88 10000 3.09 310 06:45 27.04.2022
3967 Clouds 19 1017 88 10000 3.09 310 06:45 27.04.2022
3968 Clouds 16 1016 100 10000 0 0 03:30 27.04.2022
3969 Clouds 16 1016 100 10000 1.54 10 01:27 27.04.2022
3970 Clouds 16 1017 100 10000 1.54 0 00:35 27.04.2022
3971 Clouds 17 1017 94 10000 1.54 0 23:24 26.04.2022
3972 Clouds 16 1018 100 10000 2.06 30 22:52 26.04.2022
3973 Clouds 16 1018 100 10000 1.54 0 22:32 26.04.2022
3974 Clouds 16 1018 100 10000 1.54 70 21:26 26.04.2022
3975 Clouds 16 1018 100 10000 2.06 50 20:40 26.04.2022
3976 Clouds 16 1018 100 10000 2.06 50 20:40 26.04.2022
3977 Clouds 16 1018 100 10000 2.06 60 19:48 26.04.2022
3978 Clouds 17 1018 94 10000 2.06 70 19:26 26.04.2022
3979 Clouds 18 1017 82 10000 2.57 90 18:40 26.04.2022
3980 Clouds 18 1017 82 10000 1.54 60 17:42 26.04.2022
3981 Clouds 21 1016 68 10000 4.12 80 16:19 26.04.2022
3982 Clouds 25 1017 53 10000 3.6 100 13:58 26.04.2022
3983 Clouds 23 1017 64 10000 4.12 80 13:29 26.04.2022
3984 Clouds 24 1018 57 10000 3.6 90 11:29 26.04.2022
3985 Clouds 23 1019 60 10000 4.63 90 10:31 26.04.2022
3986 Clouds 20 1020 68 10000 2.57 100 08:38 26.04.2022
3987 Clouds 12 1019 100 10000 2.06 80 05:29 26.04.2022
3988 Clouds 13 1019 100 10000 1.03 80 04:23 26.04.2022
3989 Clouds 14 1019 100 10000 2.57 100 00:52 26.04.2022
3990 Clouds 15 1020 94 10000 1.03 60 23:51 25.04.2022
3991 Clouds 16 1020 88 10000 3.6 110 22:18 25.04.2022
3992 Clouds 16 1021 94 10000 4.12 110 21:33 25.04.2022
3993 Clouds 16 1020 88 10000 3.09 110 19:58 25.04.2022
3994 Clouds 16 1020 94 10000 4.12 80 18:48 25.04.2022
3995 Clouds 17 1019 88 10000 5.66 110 17:40 25.04.2022
3996 Clouds 19 1019 77 10000 5.14 100 16:44 25.04.2022
3997 Clouds 20 1018 73 10000 4.12 130 15:23 25.04.2022
3998 Clouds 20 1018 78 10000 5.66 110 14:34 25.04.2022
3999 Clouds 21 1019 68 10000 3.6 130 12:49 25.04.2022
4000 Clouds 20 1020 68 10000 4.63 120 10:44 25.04.2022
4001 Clouds 20 1021 68 10000 4.63 130 09:42 25.04.2022
4002 Clouds 17 1021 82 10000 4.12 130 07:49 25.04.2022
4003 Clouds 14 1020 82 10000 3.09 140 05:55 25.04.2022
4004 Clouds 14 1019 94 10000 2.57 140 01:30 25.04.2022
4005 Clouds 15 1020 88 10000 3.09 140 23:56 24.04.2022
4006 Clouds 15 1021 94 10000 2.06 140 23:25 24.04.2022
4007 Clouds 15 1022 94 10000 3.09 120 22:39 24.04.2022
4008 Clouds 16 1022 88 10000 3.6 90 21:56 24.04.2022
4009 Clouds 16 1022 82 10000 4.63 100 21:22 24.04.2022
4010 Clouds 16 1022 82 10000 4.63 120 20:46 24.04.2022
4011 Clouds 16 1022 88 10000 4.12 100 20:20 24.04.2022
4012 Clouds 17 1021 82 10000 5.66 100 18:38 24.04.2022
4013 Clouds 17 1020 82 10000 6.17 100 17:49 24.04.2022
4014 Drizzle 18 1020 82 10000 6.17 100 17:21 24.04.2022
4015 Drizzle 18 1020 82 10000 5.14 120 16:51 24.04.2022
4016 Clouds 19 1019 77 10000 5.66 120 16:25 24.04.2022
4017 Clouds 21 1019 68 10000 6.69 90 15:39 24.04.2022
4018 Drizzle 18 1019 100 10000 3.6 140 14:33 24.04.2022
4019 Drizzle 18 1019 100 10000 3.6 140 14:33 24.04.2022
4020 Drizzle 20 1019 83 9000 5.14 120 13:27 24.04.2022
4021 Drizzle 20 1019 78 10000 6.17 140 12:55 24.04.2022
4022 Rain 23 1019 64 10000 7.72 100 11:49 24.04.2022
4023 Rain 22 1021 73 10000 6.69 120 10:37 24.04.2022
4024 Drizzle 19 1021 88 8000 3.09 120 09:43 24.04.2022
4025 Clouds 19 1021 83 10000 2.57 150 07:42 24.04.2022
4026 Clouds 17 1020 88 10000 2.57 160 05:38 24.04.2022
4027 Clouds 17 1019 88 10000 2.57 140 01:58 24.04.2022
4028 Clouds 15 1017 95 10000 1.93 108 00:45 24.04.2022
4029 Clouds 17 1021 88 10000 3.6 120 23:46 23.04.2022
4030 Clouds 17 1021 88 10000 3.6 120 23:25 23.04.2022
4031 Clouds 17 1021 82 10000 5.14 100 21:58 23.04.2022
4032 Clouds 17 1021 88 10000 4.12 130 21:36 23.04.2022
4033 Rain 18 1022 88 10000 3.6 150 20:59 23.04.2022
4034 Clouds 17 1019 91 10000 3.49 106 19:55 23.04.2022
4035 Clouds 17 1018 92 10000 3.68 101 19:20 23.04.2022
4036 Clouds 17 1018 92 10000 3.68 101 18:53 23.04.2022
4037 Clouds 17 1018 92 10000 3.68 101 18:31 23.04.2022
4038 Clouds 18 1021 77 10000 5.14 120 17:44 23.04.2022
4039 Clouds 17 1017 92 10000 3.6 101 16:44 23.04.2022
4040 Clouds 18 1016 87 10000 3.8 101 15:35 23.04.2022
4041 Clouds 19 1016 84 10000 3.43 100 12:54 23.04.2022
4042 Rain 18 1017 94 9766 3.4 123 10:53 23.04.2022
4043 Rain 21 1021 73 10000 6.69 100 09:38 23.04.2022
4044 Clouds 18 1021 94 10000 3.09 140 07:52 23.04.2022
4045 Clouds 17 1020 94 10000 2.06 120 03:56 23.04.2022
4046 Clouds 17 1019 100 10000 3.09 90 01:55 23.04.2022
4047 Clouds 18 1021 100 10000 2.06 160 23:33 22.04.2022
4048 Clouds 18 1021 94 10000 2.57 140 22:28 22.04.2022
4049 Clouds 18 1021 94 10000 2.57 140 21:44 22.04.2022
4050 Clouds 18 1021 94 10000 4.12 120 20:55 22.04.2022
4051 Clouds 18 1021 94 10000 4.12 120 20:28 22.04.2022
4052 Clouds 19 1021 88 10000 4.63 100 19:22 22.04.2022
4053 Clouds 18 1021 94 10000 3.6 80 18:46 22.04.2022
4054 Clouds 19 1020 88 10000 4.12 110 17:50 22.04.2022
4055 Rain 20 1019 83 10000 5.66 130 16:46 22.04.2022
4056 Rain 21 1019 78 10000 4.12 120 15:45 22.04.2022
4057 Clouds 22 1018 68 10000 5.14 110 15:18 22.04.2022
4058 Clouds 23 1019 69 10000 4.63 120 13:54 22.04.2022
4059 Clouds 24 1019 65 10000 4.63 110 12:59 22.04.2022
4060 Clouds 22 1019 68 10000 6.17 130 11:52 22.04.2022
4061 Clouds 22 1020 68 10000 5.66 140 11:22 22.04.2022
4062 Clouds 24 1020 65 10000 6.69 120 10:50 22.04.2022
4063 Clouds 23 1020 69 10000 6.69 110 10:30 22.04.2022
4064 Clouds 23 1021 69 10000 5.66 120 09:50 22.04.2022
4065 Clouds 20 1021 83 10000 3.09 120 08:50 22.04.2022
4066 Clouds 18 1020 88 10000 1.54 0 07:33 22.04.2022
4067 Clouds 17 1020 100 10000 2.06 130 03:47 22.04.2022
4068 Drizzle 16 1020 100 6000 1.54 0 00:52 22.04.2022
4069 Drizzle 17 1021 100 8000 2.57 90 23:25 21.04.2022
4070 Drizzle 18 1021 100 8000 2.06 120 22:29 21.04.2022
4071 Rain 18 1021 94 10000 3.6 140 20:37 21.04.2022
4072 Clouds 18 1021 94 10000 3.6 140 20:18 21.04.2022
4073 Clouds 18 1020 94 10000 3.6 140 18:42 21.04.2022
4074 Clouds 18 1020 94 10000 3.6 140 18:18 21.04.2022
4075 Drizzle 20 1019 83 6000 5.14 140 16:44 21.04.2022
4076 Rain 22 1018 73 10000 6.69 120 15:22 21.04.2022
4077 Rain 22 1018 73 10000 5.14 140 14:49 21.04.2022
4078 Clouds 24 1018 65 10000 6.17 130 13:23 21.04.2022
4079 Clouds 24 1018 65 10000 6.17 130 12:57 21.04.2022
4080 Clouds 24 1020 65 10000 7.2 120 10:49 21.04.2022
4081 Clouds 21 1020 73 10000 4.63 150 08:56 21.04.2022
4082 Clouds 19 1020 83 10000 3.6 150 07:24 21.04.2022
4083 Clouds 18 1019 88 10000 2.06 140 05:42 21.04.2022
4084 Clouds 18 1018 82 10000 4.12 150 03:30 21.04.2022
4085 Clouds 18 1018 88 10000 2.57 150 02:47 21.04.2022
4086 Clouds 18 1019 88 10000 3.6 160 00:45 21.04.2022
4087 Clouds 18 1020 88 10000 3.6 160 23:50 20.04.2022
4088 Clouds 17 1020 94 10000 2.57 160 23:22 20.04.2022
4089 Clouds 17 1020 94 10000 2.57 130 22:49 20.04.2022
4090 Clouds 17 1020 94 10000 3.6 130 22:30 20.04.2022
4091 Clouds 18 1020 88 10000 3.6 140 21:27 20.04.2022
4092 Clouds 18 1021 88 10000 3.09 150 20:24 20.04.2022
4093 Clouds 18 1021 88 10000 4.12 130 19:52 20.04.2022
4094 Clouds 19 1020 83 10000 4.63 150 19:20 20.04.2022
4095 Clouds 20 1019 78 10000 4.63 130 17:56 20.04.2022
4096 Clouds 21 1018 68 10000 5.14 140 16:48 20.04.2022
4097 Clouds 23 1018 60 10000 4.63 160 16:30 20.04.2022
4098 Clouds 25 1018 57 10000 5.14 120 13:51 20.04.2022
4099 Clouds 24 1019 61 10000 5.66 150 11:50 20.04.2022
4100 Clouds 25 1019 57 10000 4.63 150 11:21 20.04.2022
4101 Clouds 23 1020 64 10000 4.63 160 10:19 20.04.2022
4102 Clouds 22 1021 68 10000 3.6 160 09:25 20.04.2022
4103 Clouds 19 1021 83 10000 3.09 150 08:22 20.04.2022
4104 Clouds 19 1021 83 10000 3.09 150 08:22 20.04.2022
4105 Clouds 18 1020 82 10000 3.6 110 07:36 20.04.2022
4106 Clouds 16 1019 100 10000 3.09 160 03:38 20.04.2022
4107 Clouds 16 1021 100 10000 1.54 0 00:23 20.04.2022
4108 Clouds 16 1021 100 10000 2.06 150 23:41 19.04.2022
4109 Clouds 15 1019 92 10000 1.44 127 22:26 19.04.2022
4110 Clouds 15 1019 92 10000 1.44 127 21:56 19.04.2022
4111 Clouds 15 1019 91 10000 1.56 131 21:23 19.04.2022
4112 Clouds 15 1019 91 10000 1.56 131 20:45 19.04.2022
4113 Clouds 18 1022 88 10000 4.12 100 19:56 19.04.2022
4114 Clouds 19 1021 77 10000 4.12 90 18:49 19.04.2022
4115 Clouds 19 1020 77 10000 4.12 100 17:40 19.04.2022
4116 Clouds 21 1019 68 10000 4.12 90 16:43 19.04.2022
4117 Clouds 22 1019 64 10000 4.63 90 16:23 19.04.2022
4118 Clouds 25 1019 53 10000 3.6 110 14:50 19.04.2022
4119 Clouds 26 1019 47 10000 4.63 90 13:49 19.04.2022
4120 Clouds 26 1019 44 10000 5.14 120 12:50 19.04.2022
4121 Clouds 26 1019 44 10000 5.14 110 11:55 19.04.2022
4122 Clouds 25 1020 47 10000 4.63 100 10:25 19.04.2022
4123 Clouds 22 1021 60 10000 3.09 120 09:18 19.04.2022
4124 Clouds 16 1020 88 10000 2.57 90 04:56 19.04.2022
4125 Clouds 15 1019 94 10000 2.57 90 03:25 19.04.2022
4126 Clouds 16 1020 100 10000 2.06 80 00:54 19.04.2022
4127 Clouds 16 1020 94 10000 2.06 50 23:30 18.04.2022
4128 Clouds 17 1021 94 10000 2.06 140 21:30 18.04.2022
4129 Clouds 17 1021 94 10000 2.06 140 21:30 18.04.2022
4130 Clouds 17 1020 94 10000 4.12 110 20:55 18.04.2022
4131 Clouds 17 1020 94 10000 3.09 130 20:32 18.04.2022
4132 Clouds 18 1020 88 10000 4.12 120 19:49 18.04.2022
4133 Clouds 18 1019 82 10000 3.6 110 18:56 18.04.2022
4134 Clouds 19 1019 73 10000 3.09 90 17:57 18.04.2022
4135 Clouds 20 1018 68 10000 3.6 90 17:33 18.04.2022
4136 Clouds 21 1018 64 10000 4.12 90 16:55 18.04.2022
4137 Clouds 22 1018 60 10000 4.63 80 16:31 18.04.2022
4138 Clouds 24 1017 57 10000 5.66 100 14:45 18.04.2022
4139 Clouds 26 1017 50 10000 3.09 90 13:36 18.04.2022
4140 Clouds 25 1018 53 10000 3.6 110 12:30 18.04.2022
4141 Clouds 25 1018 53 10000 2.57 160 11:34 18.04.2022
4142 Clouds 24 1019 61 10000 1.54 0 10:31 18.04.2022
4143 Clear 22 1020 64 10000 2.57 160 09:31 18.04.2022
4144 Clouds 19 1020 77 10000 3.09 150 07:42 18.04.2022
4145 Clouds 14 1019 100 10000 1.03 170 05:37 18.04.2022
4146 Clouds 16 1020 94 10000 1.54 160 00:27 18.04.2022
4147 Clouds 16 1021 94 10000 2.06 140 22:41 17.04.2022
4148 Clouds 17 1021 88 10000 2.06 160 21:42 17.04.2022
4149 Clouds 17 1021 88 10000 2.06 160 21:22 17.04.2022
4150 Clouds 17 1021 88 10000 2.57 150 20:35 17.04.2022
4151 Clouds 17 1020 88 10000 4.12 100 19:28 17.04.2022
4152 Clouds 19 1019 73 10000 5.14 110 17:45 17.04.2022
4153 Clouds 24 1018 53 10000 4.63 130 15:39 17.04.2022
4154 Clouds 25 1018 44 10000 4.63 110 14:54 17.04.2022
4155 Clouds 25 1018 47 10000 3.6 150 13:48 17.04.2022
4156 Clouds 25 1019 50 10000 3.09 0 12:58 17.04.2022
4157 Clouds 25 1019 50 10000 3.09 0 12:27 17.04.2022
4158 Clouds 24 1020 57 10000 4.12 150 10:46 17.04.2022
4159 Clouds 22 1020 60 10000 3.09 150 10:28 17.04.2022
4160 Clouds 22 1020 60 10000 3.09 150 10:28 17.04.2022
4161 Clouds 22 1020 60 10000 3.09 150 10:28 17.04.2022
4162 Clouds 21 1021 60 10000 4.63 170 09:29 17.04.2022
4163 Clouds 20 1021 64 10000 4.63 170 08:42 17.04.2022
4164 Clouds 18 1021 72 10000 5.14 160 07:30 17.04.2022
4165 Clouds 16 1019 82 10000 4.12 160 04:29 17.04.2022
4166 Clouds 17 1020 94 10000 3.09 150 00:55 17.04.2022
4167 Clouds 16 1021 100 10000 2.06 150 23:50 16.04.2022
4168 Clouds 17 1022 100 10000 3.6 140 22:29 16.04.2022
4169 Clouds 17 1022 100 10000 3.09 150 21:31 16.04.2022
4170 Clouds 16 1019 95 10000 2.26 127 20:18 16.04.2022
4171 Clouds 19 1021 83 10000 4.12 140 18:59 16.04.2022
4172 Clouds 19 1021 88 10000 5.14 120 17:46 16.04.2022
4173 Clouds 20 1020 83 10000 4.63 130 16:38 16.04.2022
4174 Rain 21 1019 78 10000 6.17 110 15:45 16.04.2022
4175 Rain 23 1019 73 10000 4.63 110 14:56 16.04.2022
4176 Clouds 23 1014 61 10000 3.13 118 13:58 16.04.2022
4177 Clouds 23 1014 61 10000 3.13 118 13:32 16.04.2022
4178 Clouds 23 1015 62 10000 3.73 113 12:22 16.04.2022
4179 Clouds 23 1021 64 10000 3.6 170 10:49 16.04.2022
4180 Clouds 21 1022 78 10000 4.63 130 09:56 16.04.2022
4181 Clouds 20 1022 78 10000 3.6 160 08:57 16.04.2022
4182 Clouds 18 1022 88 10000 3.09 180 07:35 16.04.2022
4183 Clouds 18 1021 88 10000 3.6 180 06:58 16.04.2022
4184 Clouds 18 1021 82 10000 4.12 120 02:34 16.04.2022
4185 Clouds 18 1021 82 10000 3.09 160 00:30 16.04.2022
4186 Clouds 18 1023 88 10000 3.6 140 22:58 15.04.2022
4187 Clouds 18 1023 88 10000 3.6 140 22:32 15.04.2022
4188 Clouds 17 1023 94 10000 3.6 130 21:50 15.04.2022
4189 Clouds 17 1023 94 10000 2.06 170 20:56 15.04.2022
4190 Clouds 16 1020 95 10000 2.49 133 19:59 15.04.2022
4191 Clouds 16 1020 96 10000 2.5 126 19:39 15.04.2022
4192 Clouds 16 1020 96 10000 2.43 126 18:53 15.04.2022
4193 Clouds 17 1019 93 10000 2.79 123 18:24 15.04.2022
4194 Clouds 17 1019 93 10000 2.79 123 17:32 15.04.2022
4195 Clouds 20 1021 73 10000 5.66 120 16:37 15.04.2022
4196 Clouds 20 1021 73 10000 5.66 120 16:18 15.04.2022
4197 Clouds 22 1016 68 10000 4.91 107 14:44 15.04.2022
4198 Clouds 23 1016 64 10000 5.39 105 13:34 15.04.2022
4199 Clouds 24 1016 59 10000 5.45 101 12:40 15.04.2022
4200 Clouds 24 1022 61 10000 7.72 110 11:55 15.04.2022
4201 Clouds 22 1022 68 10000 5.14 140 10:58 15.04.2022
4202 Clouds 22 1023 68 10000 4.63 140 10:40 15.04.2022
4203 Clouds 21 1023 73 10000 6.17 130 09:41 15.04.2022
4204 Clouds 20 1023 78 10000 4.63 140 09:19 15.04.2022
4205 Clouds 19 1023 83 10000 3.6 150 07:24 15.04.2022
4206 Clouds 17 1022 94 10000 4.12 160 05:58 15.04.2022
4207 Clouds 17 1021 94 10000 2.57 160 02:34 15.04.2022
4208 Clouds 16 1022 94 10000 3.09 150 23:30 14.04.2022
4209 Clouds 16 1022 94 10000 3.09 150 22:48 14.04.2022
4210 Clouds 16 1022 94 10000 3.09 150 22:29 14.04.2022
4211 Clouds 17 1023 94 10000 3.09 150 21:57 14.04.2022
4212 Clouds 17 1023 94 10000 3.09 140 20:35 14.04.2022
4213 Clouds 16 1019 95 10000 2.99 123 19:23 14.04.2022
4214 Clouds 17 1018 95 10000 2.89 116 18:19 14.04.2022
4215 Clouds 18 1017 88 10000 3.12 106 17:28 14.04.2022
4216 Clouds 19 1020 88 10000 4.12 150 16:33 14.04.2022
4217 Drizzle 20 1019 83 7000 5.14 140 14:58 14.04.2022
4218 Clouds 22 1019 68 10000 5.66 110 13:45 14.04.2022
4219 Clouds 22 1019 73 10000 5.14 120 12:51 14.04.2022
4220 Clouds 22 1019 68 10000 5.14 120 12:31 14.04.2022
4221 Clouds 23 1020 64 10000 6.69 120 11:24 14.04.2022
4222 Clouds 21 1021 78 10000 4.63 140 10:41 14.04.2022
4223 Clouds 20 1021 73 10000 7.72 120 09:57 14.04.2022
4224 Clouds 20 1021 73 10000 7.2 130 08:44 14.04.2022
4225 Drizzle 17 1020 100 9000 3.6 140 06:51 14.04.2022
4226 Drizzle 16 1018 100 10000 2.57 170 03:28 14.04.2022
4227 Clouds 17 1020 94 10000 3.09 160 23:25 13.04.2022
4228 Clouds 17 1021 88 10000 3.6 160 22:19 13.04.2022
4229 Clouds 17 1021 94 10000 2.57 150 21:34 13.04.2022
4230 Clouds 17 1021 94 10000 3.09 160 20:22 13.04.2022
4231 Clouds 16 1018 95 10000 2.98 125 19:32 13.04.2022
4232 Clouds 18 1020 88 10000 3.6 120 18:20 13.04.2022
4233 Clouds 19 1019 83 10000 4.63 120 17:24 13.04.2022
4234 Clouds 21 1019 68 10000 4.12 120 16:34 13.04.2022
4235 Rain 21 1019 73 10000 5.66 130 15:38 13.04.2022
4236 Clouds 22 1018 73 10000 5.14 120 14:50 13.04.2022
4237 Clouds 22 1018 73 10000 4.63 80 14:19 13.04.2022
4238 Drizzle 20 1018 78 10000 6.17 170 13:19 13.04.2022
4239 Drizzle 20 1019 83 10000 4.63 110 12:25 13.04.2022
4240 Clouds 22 1020 64 10000 6.17 120 10:49 13.04.2022
4241 Clouds 21 1020 68 10000 5.14 130 09:41 13.04.2022
4242 Clouds 19 1021 77 10000 4.63 140 08:41 13.04.2022
4243 Drizzle 16 1020 94 10000 3.6 150 06:51 13.04.2022
4244 Drizzle 16 1020 94 10000 3.6 170 06:25 13.04.2022
4245 Clouds 15 1019 94 10000 4.12 160 05:20 13.04.2022
4246 Clouds 15 1021 88 10000 3.6 150 00:21 13.04.2022
4247 Clouds 15 1018 90 10000 2.94 138 23:29 12.04.2022
4248 Clouds 16 1022 82 10000 4.63 140 21:58 12.04.2022
4249 Clouds 14 1019 93 10000 2.36 127 20:57 12.04.2022
4250 Clouds 14 1019 93 10000 2.36 127 20:38 12.04.2022
4251 Clouds 17 1022 72 10000 4.63 130 19:48 12.04.2022
4252 Clouds 17 1021 72 10000 5.14 140 19:29 12.04.2022
4253 Clouds 17 1021 72 10000 5.14 140 19:29 12.04.2022
4254 Clouds 18 1020 72 10000 5.14 130 17:59 12.04.2022
4255 Clouds 19 1020 68 10000 4.63 140 16:58 12.04.2022
4256 Clouds 19 1020 68 10000 5.14 150 16:19 12.04.2022
4257 Clouds 21 1019 64 10000 4.63 130 15:26 12.04.2022
4258 Clouds 21 1019 64 10000 5.66 120 14:21 12.04.2022
4259 Clouds 23 1019 57 10000 5.14 130 13:28 12.04.2022
4260 Clouds 23 1019 57 10000 6.17 120 12:45 12.04.2022
4261 Clouds 22 1020 56 10000 6.17 140 11:42 12.04.2022
4262 Clouds 21 1021 56 10000 6.69 130 10:30 12.04.2022
4263 Clouds 19 1022 68 10000 5.14 150 08:57 12.04.2022
4264 Clouds 17 1022 77 10000 5.66 140 07:51 12.04.2022
4265 Drizzle 15 1021 94 10000 5.66 170 05:49 12.04.2022
4266 Clouds 15 1020 94 10000 3.09 170 04:46 12.04.2022
4267 Clouds 13 1022 88 10000 3.09 160 23:49 11.04.2022
4268 Clouds 14 1023 82 10000 3.09 150 22:44 11.04.2022
4269 Clouds 14 1023 82 10000 2.06 140 21:36 11.04.2022
4270 Clouds 14 1024 82 10000 3.09 160 20:54 11.04.2022
4271 Clouds 14 1024 82 10000 3.6 160 20:28 11.04.2022
4272 Clouds 15 1023 77 10000 4.63 140 19:36 11.04.2022
4273 Clouds 15 1023 77 10000 4.63 140 19:18 11.04.2022
4274 Clouds 16 1023 77 10000 4.63 160 18:37 11.04.2022
4275 Clouds 16 1023 77 10000 5.14 150 17:44 11.04.2022
4276 Clouds 18 1021 68 10000 5.66 150 16:38 11.04.2022
4277 Clouds 19 1021 83 10000 6.17 130 15:24 11.04.2022
4278 Clouds 23 1020 60 10000 5.66 140 13:51 11.04.2022
4279 Clouds 23 1020 64 10000 5.66 130 12:43 11.04.2022
4280 Clouds 23 1021 60 10000 5.66 150 12:22 11.04.2022
4281 Clouds 22 1021 60 10000 6.69 140 10:56 11.04.2022
4282 Clouds 21 1022 68 10000 6.17 140 09:58 11.04.2022
4283 Clouds 19 1023 68 10000 5.66 160 08:23 11.04.2022
4284 Clouds 16 1022 82 10000 3.09 140 05:26 11.04.2022
4285 Clouds 16 1022 82 10000 2.57 130 00:49 11.04.2022
4286 Clouds 15 1020 87 10000 3.45 145 22:27 10.04.2022
4287 Clouds 16 1023 82 10000 3.09 160 21:54 10.04.2022
4288 Clouds 16 1023 82 10000 3.09 160 21:23 10.04.2022
4289 Clouds 15 1020 90 10000 3.41 134 20:21 10.04.2022
4290 Clouds 17 1023 82 10000 4.12 150 19:37 10.04.2022
4291 Clouds 18 1022 77 10000 4.12 140 18:50 10.04.2022
4292 Clouds 18 1022 77 10000 4.12 140 18:26 10.04.2022
4293 Clear 16 1019 91 10000 3.56 129 17:44 10.04.2022
4294 Clear 17 1018 87 10000 3.98 121 16:57 10.04.2022
4295 Clear 19 1017 76 10000 4.46 114 15:40 10.04.2022
4296 Clouds 23 1019 57 10000 6.17 120 14:42 10.04.2022
4297 Clouds 24 1019 53 10000 6.69 120 13:28 10.04.2022
4298 Clouds 23 1020 57 10000 6.17 120 12:32 10.04.2022
4299 Clouds 24 1020 57 10000 5.66 130 11:38 10.04.2022
4300 Clouds 21 1021 64 10000 5.14 150 10:59 10.04.2022
4301 Clouds 21 1021 64 10000 5.14 150 10:30 10.04.2022
4302 Clouds 20 1022 73 10000 4.63 150 09:41 10.04.2022
4303 Clouds 18 1022 82 10000 3.6 170 08:28 10.04.2022
4304 Clouds 17 1022 82 10000 3.6 160 07:56 10.04.2022
4305 Clouds 17 1021 82 10000 3.6 170 06:59 10.04.2022
4306 Clouds 16 1019 82 10000 4.63 170 03:36 10.04.2022
4307 Clouds 16 1019 82 10000 4.63 170 03:36 10.04.2022
4308 Clouds 16 1020 82 10000 3.6 160 01:30 10.04.2022
4309 Clouds 16 1021 82 10000 4.12 160 23:53 09.04.2022
4310 Clouds 16 1021 82 10000 4.12 140 22:52 09.04.2022
4311 Clouds 14 1019 95 10000 2.3 136 22:24 09.04.2022
4312 Clouds 14 1019 95 10000 2.4 131 21:18 09.04.2022
4313 Clear 15 1019 94 10000 2.6 123 20:27 09.04.2022
4314 Clear 15 1018 93 10000 2.74 126 19:49 09.04.2022
4315 Clear 15 1018 93 10000 2.74 126 19:30 09.04.2022
4316 Clear 16 1017 82 10000 3.42 116 18:22 09.04.2022
4317 Clear 16 1017 82 10000 3.42 116 17:42 09.04.2022
4318 Clear 17 1016 78 10000 3.77 108 16:55 09.04.2022
4319 Clear 19 1015 72 10000 4.17 99 16:28 09.04.2022
4320 Clear 19 1015 72 10000 4.17 99 15:48 09.04.2022
4321 Clouds 24 1018 57 10000 5.14 120 14:45 09.04.2022
4322 Clouds 24 1018 57 10000 5.14 120 14:24 09.04.2022
4323 Clouds 25 1019 53 10000 6.17 120 13:21 09.04.2022
4324 Clouds 25 1019 57 10000 5.66 110 12:52 09.04.2022
4325 Clouds 25 1019 53 10000 6.17 110 11:41 09.04.2022
4326 Clouds 24 1020 57 10000 5.14 120 10:21 09.04.2022
4327 Clouds 23 1020 57 10000 4.63 130 09:53 09.04.2022
4328 Clouds 21 1021 68 10000 4.12 150 08:59 09.04.2022
4329 Clouds 19 1021 77 10000 3.6 130 07:44 09.04.2022
4330 Clouds 17 1019 94 10000 2.57 170 03:21 09.04.2022
4331 Clouds 18 1020 88 10000 3.6 130 00:30 09.04.2022
4332 Clouds 19 1021 88 10000 1.54 0 22:58 08.04.2022
4333 Rain 19 1021 88 10000 2.57 80 21:34 08.04.2022
4334 Clouds 18 1021 94 10000 3.6 90 20:41 08.04.2022
4335 Clouds 19 1021 88 10000 3.6 180 19:41 08.04.2022
4336 Rain 20 1019 78 10000 2.06 160 18:34 08.04.2022
4337 Thunderstorm 21 1019 73 10000 3.09 140 17:55 08.04.2022
4338 Rain 21 1019 73 10000 3.6 140 17:27 08.04.2022
4339 Rain 23 1019 69 10000 6.69 100 16:51 08.04.2022
4340 Rain 24 1019 61 10000 5.14 100 16:20 08.04.2022
4341 Rain 26 1018 54 10000 4.63 90 15:27 08.04.2022
4342 Rain 26 1018 54 10000 5.66 110 14:40 08.04.2022
4343 Rain 27 1018 51 10000 2.57 110 13:55 08.04.2022
4344 Rain 27 1019 47 10000 2.06 0 13:30 08.04.2022
4345 Rain 26 1019 54 10000 2.57 0 12:42 08.04.2022
4346 Clouds 26 1021 61 10000 4.63 110 10:55 08.04.2022
4347 Clouds 23 1022 64 10000 3.6 150 09:41 08.04.2022
4348 Clouds 21 1022 78 10000 3.09 160 08:58 08.04.2022
4349 Clouds 20 1022 83 10000 3.09 190 07:38 08.04.2022
4350 Clouds 19 1021 88 10000 0.51 0 06:38 08.04.2022
4351 Clouds 18 1020 94 10000 1.54 0 01:45 08.04.2022
4352 Clouds 17 1020 100 10000 1.03 70 00:26 08.04.2022
4353 Clouds 16 1018 98 10000 1.46 133 23:00 07.04.2022
4354 Clouds 19 1021 88 10000 2.57 150 22:40 07.04.2022
4355 Rain 19 1021 88 10000 2.57 150 22:22 07.04.2022
4356 Rain 19 1021 88 10000 2.06 130 21:56 07.04.2022
4357 Rain 19 1021 94 10000 3.09 140 21:19 07.04.2022
4358 Rain 19 1021 88 10000 2.57 140 20:38 07.04.2022
4359 Rain 20 1020 83 10000 5.14 110 18:48 07.04.2022
4360 Rain 22 1019 64 10000 3.6 80 17:27 07.04.2022
4361 Rain 23 1019 57 10000 3.09 90 16:45 07.04.2022
4362 Rain 25 1019 50 10000 2.57 80 16:23 07.04.2022
4363 Rain 26 1019 50 10000 3.6 60 15:19 07.04.2022
4364 Rain 26 1019 50 10000 3.09 80 13:45 07.04.2022
4365 Clouds 26 1019 54 10000 3.09 110 12:58 07.04.2022
4366 Clouds 24 1019 57 10000 2.06 80 11:40 07.04.2022
4367 Clouds 25 1020 57 10000 3.09 130 10:27 07.04.2022
4368 Clouds 21 1021 68 10000 2.06 120 08:39 07.04.2022
4369 Clouds 18 1021 82 10000 3.09 140 06:57 07.04.2022
4370 Clouds 18 1019 88 10000 1.03 190 02:58 07.04.2022
4371 Clouds 18 1019 88 10000 1.54 180 02:27 07.04.2022
4372 Clouds 17 1020 94 10000 2.57 150 00:28 07.04.2022
4373 Clouds 17 1020 94 10000 0 0 22:52 06.04.2022
4374 Clouds 18 1020 88 10000 2.57 100 22:27 06.04.2022
4375 Clouds 18 1020 88 10000 3.09 110 21:45 06.04.2022
4376 Clouds 17 1017 88 10000 1.61 118 20:40 06.04.2022
4377 Clouds 19 1021 88 10000 3.6 90 19:54 06.04.2022
4378 Rain 20 1020 83 10000 4.12 100 18:52 06.04.2022
4379 Rain 20 1019 83 10000 5.66 110 18:32 06.04.2022
4380 Rain 19 1016 80 10000 2.22 77 17:35 06.04.2022
4381 Rain 19 1016 80 10000 2.22 77 17:35 06.04.2022
4382 Rain 20 1015 74 10000 1.99 63 16:38 06.04.2022
4383 Clouds 21 1014 68 10000 2.41 57 15:48 06.04.2022
4384 Clouds 24 1013 57 10000 3.44 55 15:21 06.04.2022
4385 Clouds 24 1013 57 10000 3.44 55 15:21 06.04.2022
4386 Clouds 27 1018 44 10000 2.06 70 13:28 06.04.2022
4387 Clouds 26 1018 54 10000 1.54 0 12:27 06.04.2022
4388 Clouds 26 1020 54 10000 1.03 0 10:52 06.04.2022
4389 Clouds 25 1020 53 10000 2.06 0 10:30 06.04.2022
4390 Clouds 24 1021 57 10000 1.54 0 09:41 06.04.2022
4391 Clouds 22 1021 68 10000 1.54 0 08:34 06.04.2022
4392 Clouds 20 1021 78 10000 1.54 110 07:53 06.04.2022
4393 Clouds 17 1019 94 10000 2.06 80 04:30 06.04.2022
4394 Clouds 17 1020 100 10000 0 0 23:54 05.04.2022
4395 Clouds 17 1021 100 10000 2.06 290 23:21 05.04.2022
4396 Clouds 17 1021 94 10000 3.09 150 21:29 05.04.2022
4397 Rain 17 1021 100 10000 2.57 200 20:26 05.04.2022
4398 Rain 17 1021 94 4500 7.72 210 19:52 05.04.2022
4399 Rain 20 1019 68 10000 3.6 210 18:18 05.04.2022
4400 Rain 22 1017 53 10000 4.63 50 16:55 05.04.2022
4401 Rain 24 1017 53 10000 3.6 60 16:35 05.04.2022
4402 Rain 22 1017 64 10000 5.66 80 15:35 05.04.2022
4403 Rain 28 1017 34 10000 4.12 30 14:37 05.04.2022
4404 Rain 26 1017 39 10000 2.57 360 13:37 05.04.2022
4405 Clouds 26 1018 44 10000 1.54 0 11:51 05.04.2022
4406 Clouds 26 1018 44 10000 1.54 0 11:51 05.04.2022
4407 Clouds 27 1018 44 10000 3.09 50 11:33 05.04.2022
4408 Clouds 26 1019 47 10000 2.06 0 10:52 05.04.2022
4409 Clouds 23 1020 60 10000 2.57 150 08:55 05.04.2022
4410 Clouds 20 1020 78 10000 2.57 140 07:24 05.04.2022
4411 Clouds 16 1018 94 10000 1.03 0 02:39 05.04.2022
4412 Clouds 17 1019 88 10000 1.54 0 22:48 04.04.2022
4413 Clouds 17 1020 88 10000 2.57 150 22:29 04.04.2022
4414 Rain 17 1019 88 10000 2.57 120 21:22 04.04.2022
4415 Rain 18 1019 82 10000 4.12 170 20:50 04.04.2022
4416 Rain 18 1019 82 10000 4.12 170 20:50 04.04.2022
4417 Rain 18 1019 77 10000 2.57 150 20:22 04.04.2022
4418 Rain 18 1018 77 10000 3.6 90 19:26 04.04.2022
4419 Rain 18 1018 82 10000 2.57 70 18:37 04.04.2022
4420 Rain 22 1016 64 10000 3.6 80 16:37 04.04.2022
4421 Rain 23 1016 60 10000 4.63 90 15:58 04.04.2022
4422 Rain 26 1016 41 10000 0 0 15:33 04.04.2022
4423 Rain 26 1016 41 10000 1.54 0 14:46 04.04.2022
4424 Clouds 27 1016 36 10000 2.06 0 13:40 04.04.2022
4425 Clouds 26 1017 41 10000 2.06 210 12:26 04.04.2022
4426 Clouds 26 1018 44 10000 2.06 0 11:29 04.04.2022
4427 Clouds 23 1019 57 10000 1.54 110 09:51 04.04.2022
4428 Fog 13 1017 100 10000 1.03 110 05:27 04.04.2022
4429 Clouds 15 1017 100 10000 1.03 180 02:41 04.04.2022
4430 Clouds 16 1019 100 10000 1.54 60 22:47 03.04.2022
4431 Clouds 16 1019 94 10000 2.57 120 21:48 03.04.2022
4432 Clouds 17 1019 88 10000 2.06 150 21:19 03.04.2022
4433 Rain 17 1019 94 10000 2.06 150 19:52 03.04.2022
4434 Rain 17 1018 100 10000 3.09 140 18:34 03.04.2022
4435 Rain 18 1018 94 10000 3.6 110 17:49 03.04.2022
4436 Rain 20 1016 78 10000 6.17 140 17:21 03.04.2022
4437 Clouds 22 1016 64 10000 5.66 120 16:42 03.04.2022
4438 Clouds 27 1016 34 10000 1.54 0 15:18 03.04.2022
4439 Clouds 28 1017 30 10000 1.54 0 13:57 03.04.2022
4440 Clouds 27 1017 32 10000 2.57 210 12:48 03.04.2022
4441 Clouds 25 1018 38 10000 2.57 0 11:33 03.04.2022
4442 Clear 23 1019 46 10000 2.57 170 09:40 03.04.2022
4443 Clear 22 1019 49 10000 2.57 190 08:50 03.04.2022
4444 Clouds 12 1018 100 10000 0 0 05:42 03.04.2022
4445 Clouds 12 1018 100 10000 1.03 0 02:54 03.04.2022
4446 Clouds 14 1020 94 10000 1.03 0 23:22 02.04.2022
4447 Clouds 14 1020 94 10000 1.03 0 23:22 02.04.2022
4448 Clouds 15 1020 88 10000 1.03 0 22:40 02.04.2022
4449 Clouds 16 1020 82 10000 2.06 140 21:54 02.04.2022
4450 Clouds 16 1020 82 10000 1.54 0 21:19 02.04.2022
4451 Clouds 16 1021 77 10000 2.57 110 20:35 02.04.2022
4452 Clouds 17 1019 72 10000 4.63 110 18:45 02.04.2022
4453 Clouds 19 1019 64 10000 5.66 120 18:18 02.04.2022
4454 Clouds 21 1018 53 10000 5.14 90 16:39 02.04.2022
4455 Clouds 24 1018 44 10000 5.14 110 15:23 02.04.2022
4456 Clouds 24 1018 44 10000 3.6 110 14:51 02.04.2022
4457 Clouds 25 1018 41 10000 3.6 130 13:57 02.04.2022
4458 Clouds 25 1018 44 10000 3.09 160 13:22 02.04.2022
4459 Clouds 25 1019 47 10000 4.12 160 11:54 02.04.2022
4460 Clouds 22 1021 56 10000 2.06 0 09:48 02.04.2022
4461 Clouds 16 1021 82 10000 3.09 190 06:58 02.04.2022
4462 Clouds 13 1020 94 10000 2.57 140 03:59 02.04.2022
4463 Clouds 14 1021 88 10000 3.09 130 00:27 02.04.2022
4464 Clouds 14 1021 88 10000 3.09 120 23:53 01.04.2022
4465 Clouds 14 1022 88 10000 4.12 120 22:24 01.04.2022
4466 Clouds 16 1022 82 10000 3.6 140 20:54 01.04.2022
4467 Clouds 16 1022 82 10000 3.09 120 20:31 01.04.2022
4468 Clouds 16 1022 82 10000 6.17 110 19:39 01.04.2022
4469 Clouds 17 1021 82 10000 6.69 100 18:54 01.04.2022
4470 Clouds 17 1021 82 10000 5.66 120 18:23 01.04.2022
4471 Clouds 18 1020 77 10000 5.66 130 17:35 01.04.2022
4472 Clouds 22 1019 60 10000 5.14 140 15:44 01.04.2022
4473 Clouds 23 1019 57 10000 5.14 120 14:39 01.04.2022
4474 Clouds 22 1019 60 10000 5.14 110 13:36 01.04.2022
4475 Clouds 22 1020 60 10000 5.66 140 12:33 01.04.2022
4476 Clouds 23 1020 57 10000 5.14 120 11:45 01.04.2022
4477 Clouds 22 1021 53 10000 5.66 120 10:34 01.04.2022
4478 Clouds 20 1022 60 10000 4.12 140 09:30 01.04.2022
4479 Clouds 16 1022 72 10000 3.6 150 06:55 01.04.2022
4480 Clouds 13 1021 88 10000 2.57 160 04:54 01.04.2022
4481 Clouds 14 1020 82 10000 4.12 150 04:36 01.04.2022
4482 Clouds 14 1021 88 10000 4.12 180 01:59 01.04.2022
4483 Clouds 14 1021 82 10000 4.12 180 00:46 01.04.2022
4484 Clouds 14 1023 88 10000 3.6 140 22:20 31.03.2022
4485 Clouds 15 1023 82 10000 4.12 140 21:37 31.03.2022
4486 Clouds 16 1023 77 10000 5.66 160 20:30 31.03.2022
4487 Clouds 16 1023 77 10000 5.14 160 19:50 31.03.2022
4488 Clouds 16 1022 82 10000 4.12 160 18:52 31.03.2022
4489 Clouds 17 1020 82 10000 4.63 150 17:54 31.03.2022
4490 Clouds 19 1020 73 10000 5.66 140 16:40 31.03.2022
4491 Clouds 19 1020 73 10000 6.17 150 15:48 31.03.2022
4492 Clouds 20 1020 68 10000 6.17 150 15:20 31.03.2022
4493 Clouds 20 1019 68 10000 7.2 150 14:40 31.03.2022
4494 Clouds 21 1020 64 10000 6.69 160 12:48 31.03.2022
4495 Clouds 22 1021 64 10000 6.69 140 11:28 31.03.2022
4496 Clouds 21 1022 68 10000 6.69 140 09:50 31.03.2022
4497 Clouds 19 1022 73 10000 6.69 140 08:29 31.03.2022
4498 Clouds 17 1020 88 10000 5.66 160 06:21 31.03.2022
4499 Clouds 15 1020 88 10000 4.12 130 00:46 31.03.2022
4500 Clouds 16 1022 82 10000 4.63 130 23:23 30.03.2022
4501 Clouds 15 1022 88 10000 3.09 140 21:41 30.03.2022
4502 Clouds 16 1022 94 10000 5.14 120 20:55 30.03.2022
4503 Clouds 16 1022 88 10000 4.63 150 20:20 30.03.2022
4504 Clouds 17 1021 82 10000 5.66 140 19:35 30.03.2022
4505 Clouds 18 1021 77 10000 5.66 150 18:29 30.03.2022
4506 Clouds 18 1020 77 10000 4.63 140 17:48 30.03.2022
4507 Clouds 19 1020 73 10000 5.14 140 16:57 30.03.2022
4508 Clouds 19 1020 73 10000 6.69 150 16:38 30.03.2022
4509 Clouds 20 1019 73 10000 6.17 140 15:24 30.03.2022
4510 Clouds 24 1019 53 10000 5.66 140 13:44 30.03.2022
4511 Clouds 22 1019 64 10000 5.66 150 12:57 30.03.2022
4512 Clouds 23 1020 60 10000 6.69 140 11:27 30.03.2022
4513 Clouds 23 1020 60 10000 6.69 140 11:27 30.03.2022
4514 Clouds 22 1021 60 10000 6.17 140 10:23 30.03.2022
4515 Clouds 20 1021 68 10000 6.17 140 09:23 30.03.2022
4516 Clouds 18 1020 82 10000 4.63 150 07:32 30.03.2022
4517 Clouds 17 1020 82 10000 3.6 150 05:40 30.03.2022
4518 Clouds 17 1019 82 10000 4.63 130 03:52 30.03.2022
4519 Clouds 17 1019 88 10000 4.63 160 00:41 30.03.2022
4520 Rain 17 1020 82 10000 4.63 130 22:25 29.03.2022
4521 Rain 18 1020 77 10000 4.63 140 21:44 29.03.2022
4522 Rain 18 1021 82 10000 4.12 140 20:52 29.03.2022
4523 Rain 19 1020 77 10000 4.12 130 19:53 29.03.2022
4524 Rain 18 1019 82 10000 3.6 130 18:55 29.03.2022
4525 Rain 19 1019 77 10000 4.63 130 18:19 29.03.2022
4526 Rain 20 1018 73 10000 6.17 120 17:21 29.03.2022
4527 Rain 20 1018 73 10000 6.17 120 17:21 29.03.2022
4528 Rain 21 1018 68 10000 5.66 110 16:56 29.03.2022
4529 Rain 23 1017 64 10000 6.17 110 15:57 29.03.2022
4530 Rain 23 1017 60 10000 4.12 160 14:48 29.03.2022
4531 Rain 25 1017 53 10000 3.6 140 13:53 29.03.2022
4532 Rain 25 1018 53 10000 3.6 150 12:47 29.03.2022
4533 Clouds 23 1019 57 10000 5.14 140 11:31 29.03.2022
4534 Clouds 23 1019 64 10000 4.12 140 10:27 29.03.2022
4535 Clouds 21 1020 68 10000 4.12 150 09:23 29.03.2022
4536 Clouds 17 1020 88 10000 3.09 140 06:55 29.03.2022
4537 Rain 17 1018 88 10000 3.6 140 03:47 29.03.2022
4538 Rain 18 1019 88 10000 4.12 160 23:49 28.03.2022
4539 Rain 18 1019 94 10000 1.54 180 22:59 28.03.2022
4540 Rain 18 1019 94 10000 1.54 180 22:39 28.03.2022
4541 Rain 18 1019 94 10000 1.54 180 22:19 28.03.2022
4542 Rain 17 1019 94 10000 1.54 0 20:47 28.03.2022
4543 Rain 18 1019 88 10000 3.09 120 19:59 28.03.2022
4544 Rain 18 1019 88 10000 3.09 120 19:40 28.03.2022
4545 Rain 17 1018 100 10000 0.51 0 18:51 28.03.2022
4546 Thunderstorm 17 1018 100 10000 1.54 0 18:18 28.03.2022
4547 Rain 17 1018 100 6000 1.54 150 17:28 28.03.2022
4548 Rain 26 1016 61 10000 1.54 0 15:38 28.03.2022
4549 Rain 26 1015 61 10000 2.57 30 14:24 28.03.2022
4550 Rain 28 1016 51 10000 3.09 30 13:26 28.03.2022
4551 Rain 27 1018 54 10000 2.06 0 11:53 28.03.2022
4552 Rain 25 1019 61 10000 3.09 150 10:39 28.03.2022
4553 Clouds 23 1020 69 10000 2.06 100 09:21 28.03.2022
4554 Clouds 23 1020 73 10000 2.06 90 08:45 28.03.2022
4555 Clouds 22 1020 78 10000 2.06 70 08:21 28.03.2022
4556 Clouds 22 1019 78 10000 1.54 90 07:23 28.03.2022
4557 Clouds 16 1014 96 10000 0.75 107 02:44 28.03.2022
4558 Clouds 19 1020 94 10000 3.09 320 22:38 27.03.2022
4559 Clouds 19 1019 94 10000 3.09 310 21:48 27.03.2022
4560 Clouds 20 1019 88 10000 3.6 310 21:28 27.03.2022
4561 Clouds 20 1019 88 10000 3.09 300 20:41 27.03.2022
4562 Clouds 20 1019 88 10000 1.54 0 19:43 27.03.2022
4563 Rain 20 1018 88 10000 3.6 290 18:45 27.03.2022
4564 Rain 21 1018 83 10000 3.6 300 18:23 27.03.2022
4565 Rain 23 1017 73 10000 4.63 310 17:36 27.03.2022
4566 Rain 26 1016 54 10000 1.54 0 15:51 27.03.2022
4567 Rain 28 1016 51 10000 2.06 90 13:59 27.03.2022
4568 Rain 28 1017 51 10000 1.03 0 13:25 27.03.2022
4569 Clouds 26 1018 61 10000 2.06 40 11:41 27.03.2022
4570 Clouds 25 1020 65 10000 2.57 70 09:49 27.03.2022
4571 Clouds 20 1020 94 10000 2.06 100 07:39 27.03.2022
4572 Clouds 19 1018 100 10000 1.03 0 04:24 27.03.2022
4573 Rain 18 1018 100 4500 1.03 0 00:26 27.03.2022
4574 Rain 18 1018 100 10000 2.06 80 22:52 26.03.2022
4575 Thunderstorm 18 1018 100 8000 1.54 60 21:57 26.03.2022
4576 Thunderstorm 19 1018 100 8000 1.03 0 21:30 26.03.2022
4577 Thunderstorm 20 1018 83 10000 2.06 260 19:32 26.03.2022
4578 Thunderstorm 20 1018 83 10000 2.06 260 19:32 26.03.2022
4579 Rain 22 1017 83 10000 4.63 100 18:40 26.03.2022
4580 Rain 22 1017 78 10000 2.06 60 17:36 26.03.2022
4581 Rain 24 1016 69 10000 2.06 50 16:34 26.03.2022
4582 Rain 27 1015 57 10000 2.57 30 15:39 26.03.2022
4583 Rain 28 1015 51 10000 1.54 0 13:56 26.03.2022
4584 Rain 28 1015 51 10000 1.54 0 13:20 26.03.2022
4585 Rain 27 1016 57 10000 2.57 110 11:48 26.03.2022
4586 Rain 26 1017 61 10000 2.06 0 10:48 26.03.2022
4587 Clouds 22 1019 78 10000 3.6 90 08:48 26.03.2022
4588 Clouds 19 1018 94 10000 2.57 70 06:38 26.03.2022
4589 Clouds 17 1018 100 10000 2.57 80 05:29 26.03.2022
4590 Clouds 17 1016 100 10000 0 0 01:46 26.03.2022
4591 Clouds 18 1018 100 10000 0 0 22:21 25.03.2022
4592 Clouds 18 1018 100 10000 1.03 0 20:57 25.03.2022
4593 Clouds 18 1018 100 10000 0.51 0 20:26 25.03.2022
4594 Thunderstorm 19 1018 100 10000 1.54 0 19:18 25.03.2022
4595 Thunderstorm 19 1018 94 8000 2.57 80 18:22 25.03.2022
4596 Thunderstorm 20 1017 88 8000 4.12 30 17:28 25.03.2022
4597 Thunderstorm 23 1016 69 10000 5.14 30 16:27 25.03.2022
4598 Rain 26 1015 54 10000 2.57 300 15:26 25.03.2022
4599 Rain 27 1015 47 10000 2.57 320 13:28 25.03.2022
4600 Rain 27 1017 54 10000 2.06 320 10:49 25.03.2022
4601 Clouds 26 1018 57 10000 1.54 0 09:28 25.03.2022
4602 Clouds 25 1018 65 10000 1.03 0 08:43 25.03.2022
4603 Clouds 21 1019 83 10000 2.57 80 07:32 25.03.2022
4604 Clouds 18 1019 100 10000 1.03 0 06:29 25.03.2022
4605 Clouds 17 1017 100 10000 1.03 0 01:57 25.03.2022
4606 Rain 17 1018 100 10000 1.03 170 22:56 24.03.2022
4607 Rain 17 1019 100 10000 0 0 21:56 24.03.2022
4608 Drizzle 17 1020 100 8000 3.09 80 20:45 24.03.2022
4609 Thunderstorm 17 1019 100 4500 3.6 80 19:49 24.03.2022
4610 Thunderstorm 17 1019 100 4500 3.6 80 19:48 24.03.2022
4611 Rain 19 1019 100 10000 1.03 0 18:22 24.03.2022
4612 Thunderstorm 19 1018 100 10000 1.54 0 17:29 24.03.2022
4613 Thunderstorm 22 1017 73 10000 2.06 60 15:52 24.03.2022
4614 Rain 24 1016 65 10000 4.63 80 14:51 24.03.2022
4615 Rain 24 1016 69 10000 3.6 80 14:21 24.03.2022
4616 Rain 24 1017 65 10000 6.17 50 13:26 24.03.2022
4617 Clouds 27 1017 54 10000 4.12 40 11:59 24.03.2022
4618 Clouds 27 1019 54 10000 2.57 50 10:28 24.03.2022
4619 Clouds 24 1020 61 10000 2.06 110 09:22 24.03.2022
4620 Clouds 22 1021 68 10000 2.57 110 06:55 24.03.2022
4621 Clouds 16 1020 100 10000 2.06 100 03:59 24.03.2022
4622 Clouds 17 1021 100 10000 1.54 0 23:20 23.03.2022
4623 Clouds 17 1022 100 10000 2.57 100 21:45 23.03.2022
4624 Clouds 17 1022 100 10000 2.06 80 21:20 23.03.2022
4625 Clouds 18 1022 94 10000 3.6 130 19:46 23.03.2022
4626 Clouds 19 1021 88 10000 2.57 130 18:55 23.03.2022
4627 Clouds 20 1021 78 10000 4.63 110 17:37 23.03.2022
4628 Rain 20 1020 78 10000 2.57 90 16:50 23.03.2022
4629 Rain 24 1019 61 10000 5.14 90 14:51 23.03.2022
4630 Rain 24 1019 61 10000 6.17 100 14:26 23.03.2022
4631 Rain 26 1019 57 10000 5.66 100 12:55 23.03.2022
4632 Clouds 24 1021 61 10000 3.09 130 09:45 23.03.2022
4633 Clouds 19 1022 77 10000 2.06 170 06:48 23.03.2022
4634 Clouds 17 1021 88 10000 3.09 140 05:23 23.03.2022
4635 Clouds 17 1021 94 10000 1.54 150 00:35 23.03.2022
4636 Clouds 17 1022 94 10000 0 0 23:39 22.03.2022
4637 Clouds 17 1022 94 10000 2.57 70 21:30 22.03.2022
4638 Clouds 17 1022 88 10000 4.12 110 20:45 22.03.2022
4639 Clouds 18 1022 82 10000 2.57 140 19:51 22.03.2022
4640 Clouds 18 1022 82 10000 4.12 130 19:23 22.03.2022
4641 Clouds 19 1021 83 10000 3.6 120 18:38 22.03.2022
4642 Clouds 19 1020 83 10000 4.12 100 17:37 22.03.2022
4643 Clouds 20 1019 73 10000 7.2 110 16:27 22.03.2022
4644 Clouds 23 1018 60 10000 5.66 90 15:23 22.03.2022
4645 Clouds 24 1018 57 10000 5.66 110 14:47 22.03.2022
4646 Clouds 24 1018 61 10000 5.66 110 14:27 22.03.2022
4647 Clouds 25 1018 57 10000 4.12 110 13:35 22.03.2022
4648 Clouds 25 1019 53 10000 2.57 140 11:52 22.03.2022
4649 Clouds 25 1020 53 10000 3.09 90 10:40 22.03.2022
4650 Clouds 22 1021 60 10000 3.09 130 08:29 22.03.2022
4651 Clouds 19 1022 68 10000 3.6 130 06:53 22.03.2022
4652 Clouds 14 1021 88 10000 4.12 120 03:47 22.03.2022
4653 Clouds 15 1020 94 10000 5.14 100 00:28 22.03.2022
4654 Clouds 17 1021 88 10000 4.12 100 22:42 21.03.2022
4655 Clouds 17 1021 88 10000 3.6 110 20:57 21.03.2022
4656 Clouds 17 1021 88 10000 4.63 110 20:38 21.03.2022
4657 Clouds 17 1021 94 10000 3.09 120 19:58 21.03.2022
4658 Clouds 17 1021 94 10000 2.57 130 19:33 21.03.2022
4659 Clouds 18 1020 82 10000 4.12 110 18:22 21.03.2022
4660 Clouds 18 1019 82 10000 4.63 90 17:19 21.03.2022
4661 Clouds 18 1019 82 10000 4.63 90 16:44 21.03.2022
4662 Clouds 19 1018 77 10000 4.12 80 15:52 21.03.2022
4663 Clouds 20 1018 73 10000 5.14 100 15:19 21.03.2022
4664 Clouds 22 1018 64 10000 4.63 70 13:58 21.03.2022
4665 Clouds 20 1018 73 10000 4.63 100 12:35 21.03.2022
4666 Clouds 20 1019 73 10000 4.63 90 11:52 21.03.2022
4667 Clouds 20 1019 73 10000 4.12 120 10:40 21.03.2022
4668 Clouds 18 1020 77 10000 3.6 150 08:30 21.03.2022
4669 Clouds 17 1020 82 10000 3.6 150 06:48 21.03.2022
4670 Clouds 16 1018 88 10000 4.12 120 02:51 21.03.2022
4671 Clouds 16 1019 94 10000 3.09 140 23:43 20.03.2022
4672 Clouds 16 1019 94 10000 3.09 150 22:44 20.03.2022
4673 Clouds 16 1020 94 10000 5.14 110 21:52 20.03.2022
4674 Clouds 16 1020 94 10000 5.14 110 21:52 20.03.2022
4675 Clouds 16 1020 94 10000 4.63 110 21:25 20.03.2022
4676 Drizzle 16 1020 94 10000 4.12 100 20:43 20.03.2022
4677 Drizzle 17 1020 88 10000 3.6 160 19:59 20.03.2022
4678 Clouds 18 1020 82 10000 5.66 120 19:28 20.03.2022
4679 Clouds 18 1019 82 10000 4.12 130 18:19 20.03.2022
4680 Clouds 18 1018 82 10000 6.69 110 17:33 20.03.2022
4681 Clouds 18 1018 82 10000 6.69 110 17:33 20.03.2022
4682 Clouds 18 1018 82 10000 5.66 120 16:57 20.03.2022
4683 Clouds 20 1017 73 10000 5.66 120 15:34 20.03.2022
4684 Clouds 22 1016 68 10000 7.2 110 14:34 20.03.2022
4685 Clouds 21 1017 73 10000 4.63 140 12:30 20.03.2022
4686 Clouds 21 1018 68 10000 5.66 110 11:22 20.03.2022
4687 Clouds 20 1019 73 10000 5.66 160 08:59 20.03.2022
4688 Clouds 18 1019 82 10000 5.66 140 07:26 20.03.2022
4689 Clouds 17 1018 88 10000 4.12 140 04:23 20.03.2022
4690 Clouds 17 1017 88 10000 3.09 130 01:50 20.03.2022
4691 Clouds 17 1017 88 10000 3.6 150 00:39 20.03.2022
4692 Rain 18 1017 88 10000 3.6 140 23:19 19.03.2022
4693 Rain 18 1018 88 10000 3.6 150 21:27 19.03.2022
4694 Rain 18 1018 88 10000 4.12 130 20:49 19.03.2022
4695 Rain 19 1017 94 10000 5.14 120 18:58 19.03.2022
4696 Rain 19 1017 94 10000 3.09 150 18:23 19.03.2022
4697 Thunderstorm 19 1017 94 10000 4.12 150 17:35 19.03.2022
4698 Thunderstorm 19 1017 94 10000 4.12 150 17:35 19.03.2022
4699 Thunderstorm 21 1016 83 10000 2.57 150 15:44 19.03.2022
4700 Thunderstorm 22 1015 78 10000 3.09 170 14:44 19.03.2022
4701 Rain 24 1015 69 10000 4.63 40 12:59 19.03.2022
4702 Rain 27 1015 57 10000 3.09 0 12:39 19.03.2022
4703 Rain 28 1015 51 10000 1.03 0 11:52 19.03.2022
4704 Rain 26 1016 57 10000 1.03 0 10:47 19.03.2022
4705 Clouds 19 1019 94 10000 0.51 0 06:51 19.03.2022
4706 Rain 17 1017 100 10000 1.54 360 03:24 19.03.2022
4707 Rain 17 1017 100 10000 1.03 40 02:29 19.03.2022
4708 Rain 17 1017 100 10000 1.03 0 23:44 18.03.2022
4709 Rain 17 1018 100 10000 2.57 310 22:27 18.03.2022
4710 Rain 17 1019 100 10000 3.09 300 21:37 18.03.2022
4711 Thunderstorm 18 1019 100 10000 3.09 280 19:51 18.03.2022
4712 Thunderstorm 18 1019 100 10000 3.6 280 19:21 18.03.2022
4713 Rain 19 1017 100 10000 4.12 260 17:50 18.03.2022
4714 Rain 19 1017 100 10000 2.06 240 16:48 18.03.2022
4715 Rain 19 1016 100 10000 2.06 310 15:26 18.03.2022
4716 Thunderstorm 18 1016 100 10000 2.06 300 14:22 18.03.2022
4717 Rain 27 1015 57 10000 2.57 200 12:27 18.03.2022
4718 Rain 27 1016 57 10000 1.54 0 10:52 18.03.2022
4719 Clouds 23 1018 69 10000 1.03 0 09:29 18.03.2022
4720 Clouds 23 1018 69 10000 1.03 0 08:30 18.03.2022
4721 Clouds 21 1019 78 10000 3.09 100 06:34 18.03.2022
4722 Clouds 19 1017 94 10000 2.57 70 02:51 18.03.2022
4723 Rain 19 1017 94 10000 3.6 80 00:22 18.03.2022
4724 Rain 19 1017 94 10000 3.6 80 00:22 18.03.2022
4725 Rain 20 1017 88 10000 3.6 160 23:22 17.03.2022
4726 Rain 20 1019 83 10000 2.06 130 22:24 17.03.2022
4727 Rain 20 1019 88 10000 2.57 130 21:48 17.03.2022
4728 Rain 20 1019 88 10000 1.54 90 21:21 17.03.2022
4729 Rain 20 1019 88 10000 1.54 0 20:42 17.03.2022
4730 Rain 20 1019 88 10000 3.09 90 19:47 17.03.2022
4731 Clouds 20 1019 88 10000 3.09 100 18:57 17.03.2022
4732 Thunderstorm 20 1018 88 10000 3.6 90 18:37 17.03.2022
4733 Thunderstorm 21 1017 83 10000 4.63 100 16:48 17.03.2022
4734 Thunderstorm 23 1016 73 10000 6.69 90 15:44 17.03.2022
4735 Thunderstorm 24 1015 69 10000 6.17 90 15:23 17.03.2022
4736 Rain 26 1015 57 10000 4.12 110 13:50 17.03.2022
4737 Rain 26 1015 57 10000 2.06 60 12:49 17.03.2022
4738 Clouds 28 1016 54 10000 2.06 0 12:21 17.03.2022
4739 Clouds 25 1017 61 10000 5.14 90 11:25 17.03.2022
4740 Clouds 24 1018 69 10000 4.63 120 09:57 17.03.2022
4741 Clouds 24 1018 65 10000 5.66 110 08:34 17.03.2022
4742 Clouds 24 1018 65 10000 5.66 110 08:34 17.03.2022
4743 Drizzle 22 1018 78 10000 5.14 100 07:32 17.03.2022
4744 Clouds 20 1017 88 10000 2.57 80 05:47 17.03.2022
4745 Rain 19 1015 94 10000 3.09 140 00:46 17.03.2022
4746 Clouds 20 1016 88 10000 3.09 110 23:39 16.03.2022
4747 Clouds 20 1016 88 10000 3.09 100 22:44 16.03.2022
4748 Clouds 20 1017 88 10000 2.57 110 22:21 16.03.2022
4749 Clouds 20 1017 88 10000 2.57 100 21:34 16.03.2022
4750 Rain 20 1017 88 10000 1.03 0 19:27 16.03.2022
4751 Rain 20 1016 88 10000 0 0 18:58 16.03.2022
4752 Rain 21 1016 83 10000 2.57 50 18:24 16.03.2022
4753 Rain 21 1015 83 10000 2.57 60 17:37 16.03.2022
4754 Rain 22 1014 78 10000 3.09 40 16:50 16.03.2022
4755 Rain 24 1014 65 10000 2.06 70 15:41 16.03.2022
4756 Rain 26 1013 57 10000 2.06 0 13:44 16.03.2022
4757 Rain 27 1014 54 10000 3.09 100 12:59 16.03.2022
4758 Rain 26 1014 61 10000 2.57 80 11:44 16.03.2022
4759 Rain 26 1015 61 10000 2.57 60 11:18 16.03.2022
4760 Clouds 25 1016 65 10000 3.6 70 09:59 16.03.2022
4761 Clouds 23 1017 69 10000 2.57 70 08:37 16.03.2022
4762 Clouds 18 1015 94 10000 2.06 160 03:33 16.03.2022
4763 Clouds 18 1016 100 10000 2.57 90 23:39 15.03.2022
4764 Clouds 17 1013 96 10000 1.39 136 22:37 15.03.2022
4765 Clouds 18 1017 100 10000 2.06 170 21:33 15.03.2022
4766 Thunderstorm 19 1017 94 10000 2.06 130 19:47 15.03.2022
4767 Thunderstorm 19 1017 94 10000 2.57 70 18:38 15.03.2022
4768 Rain 20 1015 94 10000 4.63 130 16:45 15.03.2022
4769 Rain 21 1015 83 10000 5.14 120 15:44 15.03.2022
4770 Rain 24 1014 65 10000 2.57 70 14:55 15.03.2022
4771 Rain 26 1013 54 10000 2.57 110 14:30 15.03.2022
4772 Clouds 27 1014 54 10000 1.54 0 13:24 15.03.2022
4773 Rain 27 1015 54 10000 2.06 70 11:48 15.03.2022
4774 Clouds 25 1016 57 10000 1.54 0 10:56 15.03.2022
4775 Clouds 24 1017 65 10000 2.06 160 09:30 15.03.2022
4776 Clouds 22 1018 68 10000 2.06 0 08:32 15.03.2022
4777 Clouds 21 1018 78 10000 3.09 110 07:39 15.03.2022
4778 Clouds 19 1018 83 10000 2.06 150 06:32 15.03.2022
4779 Clouds 16 1016 100 10000 1.03 0 01:57 15.03.2022
4780 Clouds 16 1014 91 10000 1.84 99 23:31 14.03.2022
4781 Clouds 17 1018 88 10000 1.54 0 22:52 14.03.2022
4782 Clouds 18 1019 82 10000 4.12 120 21:55 14.03.2022
4783 Clouds 19 1019 83 10000 4.63 100 20:59 14.03.2022
4784 Clouds 19 1019 88 10000 4.63 120 20:28 14.03.2022
4785 Thunderstorm 19 1019 83 10000 3.09 140 19:32 14.03.2022
4786 Thunderstorm 20 1018 83 10000 4.12 130 17:59 14.03.2022
4787 Thunderstorm 20 1018 83 10000 4.12 130 17:41 14.03.2022
4788 Rain 22 1016 73 10000 5.14 160 16:33 14.03.2022
4789 Rain 25 1015 61 10000 5.66 180 14:52 14.03.2022
4790 Rain 26 1015 54 10000 3.09 180 13:57 14.03.2022
4791 Clouds 27 1016 54 10000 2.57 140 11:26 14.03.2022
4792 Clouds 26 1018 57 10000 4.63 60 09:57 14.03.2022
4793 Clouds 25 1018 61 10000 2.57 110 09:35 14.03.2022
4794 Clouds 24 1018 61 10000 2.57 120 08:58 14.03.2022
4795 Clouds 24 1019 61 10000 3.6 130 08:28 14.03.2022
4796 Clouds 20 1018 78 10000 3.6 150 06:47 14.03.2022
4797 Clouds 16 1017 94 10000 2.57 160 03:27 14.03.2022
4798 Clouds 15 1017 94 10000 1.54 110 01:39 14.03.2022
4799 Clouds 16 1017 88 10000 3.6 150 00:29 14.03.2022
4800 Clouds 17 1018 88 10000 3.09 130 21:49 13.03.2022
4801 Clouds 17 1018 88 10000 3.6 150 21:21 13.03.2022
4802 Clouds 17 1018 88 10000 5.14 140 20:46 13.03.2022
4803 Clouds 17 1019 88 10000 4.63 130 20:22 13.03.2022
4804 Clouds 17 1019 88 10000 3.6 120 19:42 13.03.2022
4805 Clouds 17 1018 88 10000 3.09 100 19:22 13.03.2022
4806 Clouds 17 1018 88 10000 3.09 100 19:22 13.03.2022
4807 Clouds 18 1018 82 10000 3.09 100 18:45 13.03.2022
4808 Clouds 19 1018 77 10000 4.12 130 18:25 13.03.2022
4809 Clouds 19 1017 77 10000 5.66 110 17:36 13.03.2022
4810 Clouds 20 1017 68 10000 5.66 110 16:45 13.03.2022
4811 Rain 21 1016 64 10000 5.66 110 16:21 13.03.2022
4812 Rain 23 1015 57 10000 5.14 150 15:39 13.03.2022
4813 Rain 25 1015 50 10000 4.12 160 14:37 13.03.2022
4814 Rain 26 1015 47 10000 2.57 120 13:28 13.03.2022
4815 Clouds 24 1016 53 10000 5.14 140 12:22 13.03.2022
4816 Clouds 24 1016 53 10000 5.14 150 11:38 13.03.2022
4817 Clouds 24 1016 53 10000 5.14 140 10:49 13.03.2022
4818 Clouds 24 1017 53 10000 5.14 140 10:25 13.03.2022
4819 Clouds 24 1017 57 10000 6.17 110 09:42 13.03.2022
4820 Clouds 22 1018 64 10000 5.14 180 08:49 13.03.2022
4821 Clouds 21 1018 64 10000 4.63 140 08:23 13.03.2022
4822 Clouds 19 1018 73 10000 5.14 150 06:40 13.03.2022
4823 Clouds 16 1016 88 10000 3.6 150 03:56 13.03.2022
4824 Drizzle 16 1016 100 8000 3.6 150 00:48 13.03.2022
4825 Clouds 16 1017 94 10000 3.6 100 22:48 12.03.2022
4826 Clouds 17 1017 88 10000 5.14 110 21:29 12.03.2022
4827 Clouds 18 1018 82 10000 3.6 140 20:18 12.03.2022
4828 Clouds 18 1018 88 10000 5.66 110 19:43 12.03.2022
4829 Clouds 19 1017 77 10000 5.14 150 18:34 12.03.2022
4830 Clouds 19 1016 77 10000 5.66 120 17:46 12.03.2022
4831 Clouds 21 1016 68 10000 5.14 160 16:25 12.03.2022
4832 Clouds 23 1015 57 10000 6.17 130 15:25 12.03.2022
4833 Clouds 25 1014 47 10000 6.17 130 14:52 12.03.2022
4834 Clouds 23 1014 53 10000 5.66 140 13:53 12.03.2022
4835 Clouds 23 1014 53 10000 5.66 140 13:53 12.03.2022
4836 Clouds 25 1015 50 10000 4.63 150 12:25 12.03.2022
4837 Clouds 24 1016 57 10000 4.12 170 11:51 12.03.2022
4838 Clouds 24 1016 57 10000 4.12 170 11:19 12.03.2022
4839 Clouds 22 1017 64 10000 4.63 140 09:58 12.03.2022
4840 Clouds 22 1018 64 10000 5.14 170 09:39 12.03.2022
4841 Clouds 23 1018 60 10000 7.2 120 07:51 12.03.2022
4842 Clouds 18 1017 94 10000 2.57 140 05:20 12.03.2022
4843 Clouds 18 1017 94 10000 3.09 140 00:24 12.03.2022
4844 Clouds 19 1017 88 10000 3.6 120 23:28 11.03.2022
4845 Clouds 19 1018 88 10000 3.09 130 21:47 11.03.2022
4846 Clouds 19 1018 88 10000 2.57 130 20:57 11.03.2022
4847 Clouds 19 1018 88 10000 3.09 110 20:37 11.03.2022
4848 Clouds 19 1018 88 10000 5.66 110 19:53 11.03.2022
4849 Clouds 20 1018 83 10000 5.66 100 19:26 11.03.2022
4850 Clouds 21 1017 78 10000 5.14 110 17:34 11.03.2022
4851 Rain 21 1016 78 10000 6.69 100 16:42 11.03.2022
4852 Rain 25 1015 57 10000 4.12 90 15:57 11.03.2022
4853 Rain 26 1015 57 10000 3.6 80 14:22 11.03.2022
4854 Rain 27 1016 54 10000 4.12 70 12:53 11.03.2022
4855 Rain 25 1016 57 10000 4.63 110 12:21 11.03.2022
4856 Rain 26 1016 57 10000 4.63 100 11:55 11.03.2022
4857 Clouds 25 1017 65 10000 4.63 120 10:18 11.03.2022
4858 Clouds 23 1018 69 10000 3.6 140 08:57 11.03.2022
4859 Clouds 22 1018 73 10000 3.09 150 08:24 11.03.2022
4860 Clouds 21 1013 83 10000 2.57 120 07:45 11.03.2022
4861 Clouds 19 1018 94 10000 3.09 120 05:49 11.03.2022
4862 Drizzle 18 1017 100 10000 2.57 80 03:49 11.03.2022
4863 Rain 19 1018 94 10000 2.06 70 23:46 10.03.2022
4864 Clouds 19 1018 94 10000 0.51 0 22:31 10.03.2022
4865 Rain 19 1018 94 10000 3.6 80 21:47 10.03.2022
4866 Rain 19 1018 94 10000 3.6 80 21:19 10.03.2022
4867 Thunderstorm 20 1018 94 10000 2.57 90 19:45 10.03.2022
4868 Thunderstorm 20 1018 88 10000 4.12 120 18:53 10.03.2022
4869 Thunderstorm 21 1017 83 10000 3.09 80 17:28 10.03.2022
4870 Thunderstorm 25 1016 65 10000 6.17 90 15:55 10.03.2022
4871 Rain 26 1015 57 10000 3.09 130 14:44 10.03.2022
4872 Rain 28 1015 51 10000 3.09 150 13:19 10.03.2022
4873 Rain 26 1016 57 10000 4.63 130 11:57 10.03.2022
4874 Rain 26 1016 61 10000 4.63 140 10:53 10.03.2022
4875 Clouds 25 1017 65 10000 4.12 140 09:18 10.03.2022
4876 Clouds 23 1018 69 10000 4.12 130 07:33 10.03.2022
4877 Clouds 19 1016 88 10000 2.57 140 04:19 10.03.2022
4878 Clouds 19 1016 88 10000 2.06 140 01:40 10.03.2022
4879 Clouds 19 1016 88 10000 3.09 90 23:18 09.03.2022
4880 Clouds 19 1017 94 10000 3.09 90 21:49 09.03.2022
4881 Clouds 19 1017 88 10000 3.09 100 21:27 09.03.2022
4882 Clouds 20 1017 83 10000 4.12 90 19:43 09.03.2022
4883 Clouds 20 1017 88 10000 2.57 60 18:29 09.03.2022
4884 Clouds 21 1015 83 10000 3.09 80 17:26 09.03.2022
4885 Clouds 21 1015 83 10000 3.09 80 17:26 09.03.2022
4886 Clouds 21 1015 83 10000 3.09 80 17:26 09.03.2022
4887 Clouds 22 1014 73 10000 4.63 70 16:30 09.03.2022
4888 Clouds 25 1014 65 10000 6.17 110 14:56 09.03.2022
4889 Rain 27 1014 54 10000 5.14 110 13:52 09.03.2022
4890 Rain 27 1014 54 10000 6.69 90 12:39 09.03.2022
4891 Rain 26 1015 57 10000 5.66 110 11:52 09.03.2022
4892 Rain 26 1015 61 10000 6.17 140 11:32 09.03.2022
4893 Clouds 24 1015 65 10000 4.63 130 09:45 09.03.2022
4894 Clouds 24 1016 69 10000 5.14 120 08:47 09.03.2022
4895 Clouds 21 1016 78 10000 4.12 150 07:27 09.03.2022
4896 Clouds 18 1014 100 10000 2.06 170 01:54 09.03.2022
4897 Clouds 19 1014 94 10000 3.09 150 00:27 09.03.2022
4898 Clouds 19 1015 94 10000 3.6 130 22:47 08.03.2022
4899 Clouds 18 1015 100 10000 3.6 170 21:52 08.03.2022
4900 Drizzle 19 1015 94 10000 2.57 150 21:22 08.03.2022
4901 Clouds 20 1016 83 10000 4.63 170 20:24 08.03.2022
4902 Clouds 19 1015 88 10000 4.12 150 19:24 08.03.2022
4903 Clouds 20 1015 83 10000 4.12 160 18:23 08.03.2022
4904 Clouds 20 1014 83 10000 4.12 160 16:56 08.03.2022
4905 Clouds 24 1014 69 10000 5.14 140 14:58 08.03.2022
4906 Rain 23 1014 69 10000 6.69 170 13:48 08.03.2022
4907 Clouds 23 1014 64 10000 6.69 170 12:23 08.03.2022
4908 Clouds 23 1014 69 10000 6.17 170 11:42 08.03.2022
4909 Clouds 23 1015 64 10000 6.17 140 10:28 08.03.2022
4910 Clouds 23 1016 69 10000 5.66 150 08:57 08.03.2022
4911 Clouds 23 1016 69 10000 5.66 150 08:57 08.03.2022
4912 Clouds 20 1015 73 10000 6.17 160 06:30 08.03.2022
4913 Clouds 17 1014 88 10000 5.14 180 02:50 08.03.2022
4914 Clouds 18 1017 82 10000 3.09 150 22:48 07.03.2022
4915 Clouds 18 1017 82 10000 3.6 170 21:45 07.03.2022
4916 Clouds 19 1017 77 10000 4.12 160 21:23 07.03.2022
4917 Clouds 19 1017 83 10000 3.6 160 20:34 07.03.2022
4918 Clouds 19 1017 83 10000 4.12 140 19:50 07.03.2022
4919 Clouds 19 1017 77 10000 5.14 160 19:20 07.03.2022
4920 Clouds 19 1016 83 10000 4.63 150 18:29 07.03.2022
4921 Clouds 19 1016 83 10000 3.6 130 17:31 07.03.2022
4922 Clouds 20 1015 73 10000 5.66 130 16:54 07.03.2022
4923 Clouds 23 1015 64 10000 5.66 110 14:51 07.03.2022
4924 Clouds 26 1015 47 10000 5.66 160 12:34 07.03.2022
4925 Clouds 25 1016 50 10000 5.66 160 11:34 07.03.2022
4926 Clouds 25 1016 53 10000 6.69 120 10:31 07.03.2022
4927 Clouds 23 1017 60 10000 5.66 150 08:34 07.03.2022
4928 Clouds 23 1017 60 10000 5.66 150 08:34 07.03.2022
4929 Clouds 16 1016 94 10000 2.57 160 02:50 07.03.2022
4930 Clouds 17 1016 82 10000 2.57 160 00:20 07.03.2022
4931 Clouds 17 1017 88 10000 4.12 140 23:23 06.03.2022
4932 Clouds 18 1017 77 10000 5.14 150 22:27 06.03.2022
4933 Clouds 18 1017 82 10000 5.14 150 21:37 06.03.2022
4934 Clouds 18 1017 82 10000 5.14 150 20:29 06.03.2022
4935 Clouds 19 1017 77 10000 5.14 150 19:39 06.03.2022
4936 Clouds 19 1017 77 10000 3.6 140 18:50 06.03.2022
4937 Clouds 19 1017 77 10000 5.66 140 17:46 06.03.2022
4938 Rain 20 1016 73 10000 6.69 160 17:19 06.03.2022
4939 Rain 21 1016 68 10000 7.2 130 16:28 06.03.2022
4940 Rain 23 1015 64 10000 6.69 120 15:26 06.03.2022
4941 Rain 23 1015 64 10000 5.14 130 14:42 06.03.2022
4942 Rain 26 1015 54 10000 7.2 130 13:49 06.03.2022
4943 Clouds 25 1016 57 10000 6.17 130 12:40 06.03.2022
4944 Clouds 25 1016 61 10000 6.17 150 11:45 06.03.2022
4945 Clouds 26 1017 57 10000 4.12 160 10:39 06.03.2022
4946 Clouds 25 1017 61 10000 5.14 110 09:18 06.03.2022
4947 Clouds 22 1018 68 10000 5.14 160 08:27 06.03.2022
4948 Clouds 22 1017 68 10000 5.66 140 07:23 06.03.2022
4949 Clouds 17 1015 88 10000 4.12 180 02:22 06.03.2022
4950 Clouds 18 1016 88 10000 4.12 180 00:34 06.03.2022
4951 Clouds 18 1017 94 10000 3.09 150 23:59 05.03.2022
4952 Clouds 18 1017 100 10000 1.03 0 23:19 05.03.2022
4953 Drizzle 18 1017 100 8000 2.57 60 22:32 05.03.2022
4954 Clouds 19 1018 88 10000 2.06 80 21:29 05.03.2022
4955 Clouds 19 1018 88 10000 3.09 110 20:27 05.03.2022
4956 Clouds 20 1018 78 10000 3.6 140 19:18 05.03.2022
4957 Clouds 20 1017 78 10000 3.09 140 18:37 05.03.2022
4958 Clouds 22 1016 68 10000 3.6 140 17:31 05.03.2022
4959 Clouds 23 1016 60 10000 3.6 140 16:18 05.03.2022
4960 Clouds 26 1015 47 10000 4.63 140 14:53 05.03.2022
4961 Clouds 25 1015 57 10000 5.14 150 14:35 05.03.2022
4962 Clouds 25 1015 57 10000 5.14 150 14:35 05.03.2022
4963 Clouds 26 1016 50 10000 6.17 130 13:37 05.03.2022
4964 Clouds 26 1016 50 10000 6.17 140 12:33 05.03.2022
4965 Clouds 26 1016 54 10000 6.69 110 11:20 05.03.2022
4966 Clouds 26 1017 54 10000 7.2 100 10:48 05.03.2022
4967 Clouds 25 1017 53 10000 3.09 130 09:30 05.03.2022
4968 Clouds 24 1017 57 10000 4.12 140 08:24 05.03.2022
4969 Clouds 19 1018 77 10000 4.63 150 06:29 05.03.2022
4970 Clouds 17 1017 88 10000 2.06 160 04:54 05.03.2022
4971 Clouds 18 1017 94 10000 3.09 140 23:59 04.03.2022
4972 Clouds 19 1018 88 10000 2.57 160 22:45 04.03.2022
4973 Clouds 19 1018 88 10000 3.6 170 22:23 04.03.2022
4974 Clouds 19 1018 88 10000 2.06 170 21:39 04.03.2022
4975 Clouds 20 1018 83 10000 3.6 160 20:32 04.03.2022
4976 Clouds 20 1018 83 10000 2.57 130 19:36 04.03.2022
4977 Clouds 20 1017 83 10000 4.63 110 18:47 04.03.2022
4978 Clouds 21 1016 78 10000 3.6 130 18:22 04.03.2022
4979 Clouds 21 1016 73 10000 4.63 110 17:29 04.03.2022
4980 Rain 23 1015 64 10000 3.6 110 15:48 04.03.2022
4981 Rain 25 1014 57 10000 5.14 120 14:40 04.03.2022
4982 Rain 24 1015 61 10000 4.63 110 13:27 04.03.2022
4983 Rain 26 1015 54 10000 4.63 110 11:57 04.03.2022
4984 Clouds 26 1016 54 10000 3.6 80 10:58 04.03.2022
4985 Clouds 25 1016 57 10000 3.6 120 10:21 04.03.2022
4986 Clouds 24 1017 61 10000 3.09 140 08:48 04.03.2022
4987 Clouds 23 1017 64 10000 3.09 110 07:47 04.03.2022
4988 Clouds 18 1016 88 10000 3.09 150 05:26 04.03.2022
4989 Clouds 18 1016 100 10000 1.03 0 00:41 04.03.2022
4990 Rain 18 1017 94 10000 2.06 180 22:54 03.03.2022
4991 Rain 18 1017 94 10000 3.6 80 21:58 03.03.2022
4992 Rain 18 1016 100 10000 1.54 0 21:34 03.03.2022
4993 Thunderstorm 19 1016 100 10000 1.54 350 20:27 03.03.2022
4994 Rain 18 1016 100 8000 0.51 0 18:58 03.03.2022
4995 Thunderstorm 18 1016 94 8000 1.03 0 18:25 03.03.2022
4996 Thunderstorm 20 1015 94 10000 2.57 60 17:31 03.03.2022
4997 Rain 19 1014 94 10000 2.06 40 16:28 03.03.2022
4998 Thunderstorm 19 1014 94 10000 1.54 0 15:41 03.03.2022
4999 Thunderstorm 19 1014 88 7000 4.12 90 14:44 03.03.2022
5000 Thunderstorm 22 1013 83 6000 4.12 40 14:25 03.03.2022
5001 Clouds 29 1013 48 10000 1.54 0 12:28 03.03.2022
5002 Clouds 26 1015 61 10000 3.09 80 10:56 03.03.2022
5003 Clouds 26 1015 61 10000 2.06 0 09:58 03.03.2022
5004 Clouds 25 1016 69 10000 2.06 90 08:42 03.03.2022
5005 Clouds 21 1015 83 10000 0.51 0 06:54 03.03.2022
5006 Clouds 18 1014 100 10000 1.54 30 05:20 03.03.2022
5007 Rain 18 1015 100 10000 2.57 110 23:45 02.03.2022
5008 Rain 18 1015 100 10000 3.09 80 22:54 02.03.2022
5009 Rain 18 1015 100 10000 2.57 60 22:31 02.03.2022
5010 Rain 18 1016 100 10000 3.6 80 20:59 02.03.2022
5011 Rain 18 1016 100 10000 3.09 50 20:25 02.03.2022
5012 Thunderstorm 19 1015 100 10000 3.09 60 19:37 02.03.2022
5013 Thunderstorm 20 1014 94 10000 3.6 140 18:58 02.03.2022
5014 Thunderstorm 20 1014 94 10000 3.6 140 18:31 02.03.2022
5015 Thunderstorm 20 1014 94 10000 3.6 180 17:41 02.03.2022
5016 Thunderstorm 22 1013 78 10000 1.03 0 16:52 02.03.2022
5017 Thunderstorm 23 1012 78 10000 2.57 350 15:46 02.03.2022
5018 Rain 26 1012 61 10000 3.6 40 13:52 02.03.2022
5019 Rain 27 1012 57 10000 2.57 340 12:46 02.03.2022
5020 Rain 28 1012 48 10000 3.6 300 12:24 02.03.2022
5021 Rain 26 1013 57 10000 2.57 310 11:26 02.03.2022
5022 Rain 26 1014 57 10000 3.09 330 10:31 02.03.2022
5023 Clouds 25 1015 65 10000 2.06 350 09:35 02.03.2022
5024 Clouds 24 1015 69 10000 1.03 0 08:28 02.03.2022
5025 Clouds 22 1015 68 10000 1.54 0 07:23 02.03.2022
5026 Clouds 16 1014 100 10000 0.51 0 04:46 02.03.2022
5027 Clouds 17 1014 100 10000 1.54 100 00:40 02.03.2022
5028 Clouds 17 1014 100 10000 1.54 100 00:40 02.03.2022
5029 Clouds 17 1015 100 10000 1.03 0 23:24 01.03.2022
5030 Rain 18 1016 100 10000 1.03 40 22:37 01.03.2022
5031 Rain 18 1016 100 10000 2.06 50 21:37 01.03.2022
5032 Thunderstorm 17 1016 100 8000 0 0 20:38 01.03.2022
5033 Thunderstorm 17 1016 100 8000 0 0 20:19 01.03.2022
5034 Thunderstorm 17 1016 100 8000 1.03 0 18:52 01.03.2022
5035 Thunderstorm 17 1016 100 8000 3.09 90 18:22 01.03.2022
5036 Thunderstorm 17 1015 100 5000 3.6 50 17:39 01.03.2022
5037 Thunderstorm 18 1014 94 4000 1.54 0 16:36 01.03.2022
5038 Thunderstorm 18 1013 94 4500 7.72 170 15:47 01.03.2022
5039 Thunderstorm 22 1012 73 10000 4.12 310 14:53 01.03.2022
5040 Thunderstorm 22 1012 73 10000 6.17 320 14:31 01.03.2022
5041 Rain 27 1012 51 10000 3.6 20 13:26 01.03.2022
5042 Rain 28 1012 51 10000 3.09 20 12:36 01.03.2022
5043 Rain 27 1013 51 10000 2.57 0 11:35 01.03.2022
5044 Rain 26 1015 61 10000 2.06 0 09:43 01.03.2022
5045 Clouds 23 1016 73 10000 2.57 340 08:25 01.03.2022
5046 Clouds 21 1016 78 10000 1.03 0 06:47 01.03.2022
5047 Clouds 17 1015 100 10000 2.06 300 03:26 01.03.2022
5048 Clouds 17 1015 100 10000 1.54 0 00:48 01.03.2022
5049 Rain 17 1015 100 10000 1.03 0 23:39 28.02.2022
5050 Rain 17 1016 100 10000 1.03 0 22:38 28.02.2022
5051 Thunderstorm 17 1017 100 10000 1.54 0 21:47 28.02.2022
5052 Thunderstorm 18 1017 100 9000 2.06 290 20:46 28.02.2022
5053 Thunderstorm 18 1017 100 8000 2.06 60 19:51 28.02.2022
5054 Thunderstorm 19 1016 94 10000 2.57 360 18:50 28.02.2022
5055 Thunderstorm 18 1015 100 10000 4.12 90 17:43 28.02.2022
5056 Thunderstorm 18 1014 100 9000 4.12 40 17:21 28.02.2022
5057 Thunderstorm 18 1014 100 9000 3.6 300 16:21 28.02.2022
5058 Rain 25 1012 57 10000 1.03 0 14:33 28.02.2022
5059 Rain 26 1012 57 10000 1.54 0 13:53 28.02.2022
5060 Rain 28 1013 51 10000 1.54 0 13:24 28.02.2022
5061 Rain 27 1014 54 10000 2.06 150 12:25 28.02.2022
5062 Rain 26 1015 54 10000 1.54 0 11:19 28.02.2022
5063 Rain 25 1016 57 10000 2.06 0 10:23 28.02.2022
5064 Rain 23 1017 69 10000 1.54 0 09:44 28.02.2022
5065 Rain 23 1017 69 10000 1.54 0 09:23 28.02.2022
5066 Rain 22 1017 68 10000 2.06 140 08:21 28.02.2022
5067 Rain 20 1017 78 10000 2.06 120 06:31 28.02.2022
5068 Clouds 18 1016 94 10000 3.09 70 04:31 28.02.2022
5069 Rain 17 1016 100 10000 4.12 90 00:53 28.02.2022
5070 Rain 18 1016 100 10000 1.54 90 22:55 27.02.2022
5071 Rain 18 1016 100 10000 1.54 90 22:32 27.02.2022
5072 Rain 18 1017 100 10000 2.06 90 21:42 27.02.2022
5073 Rain 18 1017 100 7000 3.6 90 20:50 27.02.2022
5074 Drizzle 18 1017 100 6000 4.12 80 20:18 27.02.2022
5075 Drizzle 18 1017 94 10000 4.63 100 19:49 27.02.2022
5076 Drizzle 19 1017 83 10000 4.12 110 19:22 27.02.2022
5077 Rain 20 1016 78 10000 4.12 120 18:37 27.02.2022
5078 Rain 20 1016 83 10000 4.12 130 17:52 27.02.2022
5079 Rain 22 1014 73 10000 5.66 110 16:30 27.02.2022
5080 Rain 24 1013 61 10000 3.6 50 15:24 27.02.2022
5081 Rain 26 1014 61 10000 3.09 20 12:37 27.02.2022
5082 Rain 26 1014 61 10000 2.06 60 11:54 27.02.2022
5083 Rain 24 1015 69 10000 1.54 0 10:37 27.02.2022
5084 Rain 25 1016 65 10000 1.54 180 09:58 27.02.2022
5085 Clouds 23 1016 73 10000 2.06 130 09:24 27.02.2022
5086 Clouds 23 1016 73 10000 3.09 180 08:48 27.02.2022
5087 Drizzle 19 1017 94 10000 3.09 90 06:30 27.02.2022
5088 Rain 18 1016 100 10000 2.06 50 03:44 27.02.2022
5089 Rain 19 1016 100 10000 2.57 90 23:57 26.02.2022
5090 Rain 18 1016 100 10000 1.54 40 22:48 26.02.2022
5091 Rain 18 1017 100 10000 3.6 350 21:29 26.02.2022
5092 Rain 18 1017 94 10000 2.06 240 20:43 26.02.2022
5093 Rain 19 1017 100 10000 1.54 300 19:57 26.02.2022
5094 Rain 19 1017 94 10000 1.03 0 19:33 26.02.2022
5095 Rain 20 1016 88 10000 3.6 320 18:34 26.02.2022
5096 Thunderstorm 21 1016 83 10000 4.63 320 17:37 26.02.2022
5097 Rain 23 1015 73 10000 3.6 120 16:39 26.02.2022
5098 Rain 24 1014 69 10000 2.06 60 15:38 26.02.2022
5099 Rain 24 1014 69 10000 2.06 60 15:19 26.02.2022
5100 Rain 25 1014 65 10000 2.06 50 14:42 26.02.2022
5101 Rain 25 1014 69 10000 2.57 60 14:19 26.02.2022
5102 Rain 25 1014 65 10000 2.57 80 12:53 26.02.2022
5103 Rain 25 1015 65 10000 2.57 70 11:53 26.02.2022
5104 Rain 25 1015 65 10000 2.06 110 11:26 26.02.2022
5105 Rain 24 1016 69 10000 2.06 150 10:19 26.02.2022
5106 Rain 22 1017 78 10000 3.09 170 08:35 26.02.2022
5107 Rain 19 1017 100 10000 1.54 0 06:31 26.02.2022
5108 Thunderstorm 18 1016 100 10000 2.57 290 00:25 26.02.2022
5109 Thunderstorm 19 1017 100 8000 3.6 300 22:43 25.02.2022
5110 Rain 19 1017 100 10000 4.12 310 21:33 25.02.2022
5111 Rain 19 1017 100 10000 4.12 300 20:56 25.02.2022
5112 Rain 19 1017 100 10000 3.09 300 20:27 25.02.2022
5113 Thunderstorm 20 1017 94 10000 2.57 320 17:57 25.02.2022
5114 Rain 23 1015 78 8000 2.57 270 16:59 25.02.2022
5115 Rain 24 1015 69 10000 3.09 290 15:56 25.02.2022
5116 Rain 26 1015 61 10000 3.6 300 15:24 25.02.2022
5117 Rain 26 1015 61 10000 3.6 300 15:24 25.02.2022
5118 Rain 27 1015 54 10000 3.09 320 14:56 25.02.2022
5119 Rain 27 1015 54 10000 3.09 320 14:27 25.02.2022
5120 Rain 22 1011 76 10000 3.51 290 13:30 25.02.2022
5121 Rain 25 1011 61 10000 4.17 298 12:21 25.02.2022
5122 Rain 25 1011 58 10000 4.28 296 11:22 25.02.2022
5123 Rain 23 1017 78 10000 4.63 300 10:23 25.02.2022
5124 Rain 23 1017 78 10000 4.63 300 10:23 25.02.2022
5125 Rain 22 1018 78 10000 2.06 270 09:51 25.02.2022
5126 Clouds 22 1018 78 10000 3.09 310 08:41 25.02.2022
5127 Clouds 20 1019 83 10000 4.12 310 07:35 25.02.2022
5128 Clouds 19 1018 94 10000 1.54 300 05:43 25.02.2022
5129 Clouds 17 1016 100 10000 2.06 300 02:48 25.02.2022
5130 Clouds 17 1015 98 10000 1.83 306 22:48 24.02.2022
5131 Clouds 17 1015 97 10000 1.72 314 21:51 24.02.2022
5132 Clouds 17 1015 97 10000 1.72 314 21:31 24.02.2022
5133 Clouds 17 1015 96 10000 1.68 313 20:47 24.02.2022
5134 Clouds 17 1015 96 10000 1.44 296 19:38 24.02.2022
5135 Clouds 17 1015 96 10000 0.6 302 18:36 24.02.2022
5136 Clouds 17 1015 96 10000 0.64 282 18:18 24.02.2022
5137 Clouds 17 1015 96 10000 0.64 282 17:33 24.02.2022
5138 Clouds 19 1013 91 10000 1.28 303 16:28 24.02.2022
5139 Clouds 19 1013 91 10000 1.28 303 15:44 24.02.2022
5140 Rain 19 1013 87 10000 1.93 313 14:51 24.02.2022
5141 Rain 19 1013 87 10000 1.9 324 14:20 24.02.2022
5142 Rain 19 1013 87 10000 1.9 324 13:39 24.02.2022
5143 Rain 21 1012 80 10000 3.77 326 12:27 24.02.2022
5144 Rain 21 1012 77 10000 3.56 327 10:39 24.02.2022
5145 Drizzle 18 1019 100 7000 5.14 320 08:56 24.02.2022
5146 Drizzle 19 1019 100 5000 4.63 320 08:38 24.02.2022
5147 Clouds 19 1017 94 9000 2.57 360 05:52 24.02.2022
5148 Clouds 18 1015 94 10000 1.54 330 00:32 24.02.2022
5149 Clouds 18 1016 94 10000 2.57 330 22:38 23.02.2022
5150 Clouds 18 1017 94 10000 3.6 330 21:34 23.02.2022
5151 Clouds 18 1017 100 10000 3.09 330 20:30 23.02.2022
5152 Clouds 18 1017 94 10000 4.12 340 19:44 23.02.2022
5153 Clouds 19 1016 94 10000 3.09 340 18:32 23.02.2022
5154 Drizzle 18 1015 100 10000 2.57 320 17:21 23.02.2022
5155 Rain 22 1012 83 10000 5.14 330 14:34 23.02.2022
5156 Rain 23 1011 73 10000 8.23 330 12:37 23.02.2022
5157 Rain 25 1011 65 10000 7.72 330 11:23 23.02.2022
5158 Rain 25 1011 65 10000 5.66 320 10:31 23.02.2022
5159 Clouds 23 1012 69 10000 6.17 320 08:58 23.02.2022
5160 Clouds 21 1011 78 10000 6.17 310 07:57 23.02.2022
5161 Clouds 17 1008 100 10000 4.12 320 03:48 23.02.2022
5162 Clouds 18 1007 94 10000 4.12 310 00:26 23.02.2022
5163 Drizzle 18 1008 94 10000 6.69 310 23:35 22.02.2022
5164 Clouds 18 1008 100 10000 5.66 310 22:31 22.02.2022
5165 Clouds 18 1008 100 10000 7.2 310 21:49 22.02.2022
5166 Drizzle 18 1008 100 10000 5.14 310 21:28 22.02.2022
5167 Drizzle 18 1008 100 10000 4.12 290 20:51 22.02.2022
5168 Drizzle 18 1008 100 10000 5.14 300 20:29 22.02.2022
5169 Clouds 19 1008 88 10000 5.66 320 19:36 22.02.2022
5170 Clouds 19 1008 88 10000 5.66 320 19:18 22.02.2022
5171 Clouds 19 1006 94 10000 4.63 290 17:40 22.02.2022
5172 Clouds 19 1006 94 10000 4.63 290 17:19 22.02.2022
5173 Clouds 20 1005 88 10000 5.66 300 16:36 22.02.2022
5174 Clouds 20 1004 88 10000 7.72 300 15:38 22.02.2022
5175 Clouds 20 1004 88 10000 8.23 300 14:43 22.02.2022
5176 Drizzle 20 1005 88 6000 5.66 290 11:54 22.02.2022
5177 Rain 20 1005 83 10000 6.17 280 10:28 22.02.2022
5178 Rain 20 1006 73 10000 7.72 280 07:48 22.02.2022
5179 Rain 20 1006 73 10000 7.72 280 07:25 22.02.2022
5180 Rain 17 1006 82 10000 4.63 280 02:52 22.02.2022
5181 Rain 19 1008 68 10000 6.17 210 00:48 22.02.2022
5182 Clouds 19 1010 73 10000 5.14 200 22:38 21.02.2022
5183 Clouds 19 1011 73 10000 6.17 190 21:30 21.02.2022
5184 Clouds 19 1011 77 10000 6.17 200 20:29 21.02.2022
5185 Clouds 19 1010 83 10000 5.14 190 18:41 21.02.2022
5186 Drizzle 19 1010 88 10000 7.2 170 16:48 21.02.2022
5187 Rain 24 1009 61 10000 6.69 200 14:24 21.02.2022
5188 Rain 25 1009 57 10000 7.2 180 13:59 21.02.2022
5189 Thunderstorm 25 1010 61 10000 7.2 200 12:58 21.02.2022
5190 Thunderstorm 25 1010 61 10000 6.69 170 12:22 21.02.2022
5191 Clouds 25 1011 61 10000 5.66 180 10:45 21.02.2022
5192 Rain 23 1013 64 10000 7.2 200 08:44 21.02.2022
5193 Clouds 16 1014 82 10000 1.54 130 02:31 21.02.2022
5194 Clouds 16 1015 82 10000 2.57 180 22:45 20.02.2022
5195 Clouds 17 1015 77 10000 4.12 180 22:18 20.02.2022
5196 Clouds 17 1016 82 10000 3.6 170 21:41 20.02.2022
5197 Clouds 18 1016 77 10000 3.6 170 20:51 20.02.2022
5198 Clouds 18 1016 82 10000 2.57 150 20:21 20.02.2022
5199 Clouds 19 1016 77 10000 3.6 140 19:21 20.02.2022
5200 Clouds 19 1016 77 10000 3.6 150 18:42 20.02.2022
5201 Clouds 19 1015 77 10000 4.12 120 18:23 20.02.2022
5202 Clouds 21 1014 68 10000 6.69 120 17:30 20.02.2022
5203 Clouds 27 1012 36 10000 2.57 150 15:30 20.02.2022
5204 Clouds 28 1013 30 10000 2.57 190 14:33 20.02.2022
5205 Clouds 28 1013 26 10000 3.6 200 13:22 20.02.2022
5206 Clouds 28 1013 26 10000 3.6 200 13:22 20.02.2022
5207 Clouds 28 1014 26 10000 4.63 160 11:56 20.02.2022
5208 Clouds 26 1015 36 10000 4.12 190 10:21 20.02.2022
5209 Clouds 25 1016 38 10000 4.63 190 09:52 20.02.2022
5210 Clouds 19 1017 64 10000 5.14 180 06:44 20.02.2022
5211 Clouds 16 1015 88 10000 2.06 140 00:33 20.02.2022
5212 Clouds 16 1016 94 10000 3.09 120 23:39 19.02.2022
5213 Clouds 16 1017 88 10000 2.57 130 22:25 19.02.2022
5214 Clouds 16 1017 88 10000 2.57 140 21:52 19.02.2022
5215 Clouds 17 1018 88 10000 2.57 140 20:45 19.02.2022
5216 Clouds 18 1017 82 10000 2.06 150 19:36 19.02.2022
5217 Clouds 18 1016 82 10000 2.57 150 18:41 19.02.2022
5218 Clouds 19 1016 77 10000 4.12 120 17:59 19.02.2022
5219 Clouds 19 1016 77 10000 4.12 100 17:32 19.02.2022
5220 Clouds 23 1014 57 10000 5.14 130 15:59 19.02.2022
5221 Clouds 25 1014 47 10000 5.14 120 14:55 19.02.2022
5222 Clouds 26 1014 44 10000 5.66 130 13:58 19.02.2022
5223 Clouds 26 1015 47 10000 4.63 140 11:58 19.02.2022
5224 Clouds 25 1015 50 10000 5.14 170 11:29 19.02.2022
5225 Clouds 22 1017 64 10000 3.6 140 09:21 19.02.2022
5226 Clouds 19 1017 73 10000 5.14 160 06:49 19.02.2022
5227 Clouds 14 1016 94 10000 2.06 110 00:50 19.02.2022
5228 Clouds 16 1017 88 10000 3.6 140 22:41 18.02.2022
5229 Clouds 17 1018 82 10000 3.6 130 21:27 18.02.2022
5230 Clouds 18 1018 82 10000 3.09 140 20:25 18.02.2022
5231 Clouds 18 1017 82 10000 3.6 150 19:51 18.02.2022
5232 Clouds 18 1015 77 10000 4.12 150 18:38 18.02.2022
5233 Clouds 18 1015 77 10000 4.12 150 18:18 18.02.2022
5234 Clouds 19 1015 73 10000 5.14 140 17:18 18.02.2022
5235 Clouds 25 1013 53 10000 6.17 110 14:31 18.02.2022
5236 Clouds 25 1014 53 10000 6.17 120 13:47 18.02.2022
5237 Clouds 26 1014 54 10000 8.23 120 12:50 18.02.2022
5238 Clouds 25 1014 50 10000 6.69 150 11:57 18.02.2022
5239 Clouds 25 1015 53 10000 7.2 110 10:45 18.02.2022
5240 Clouds 24 1016 53 10000 7.2 110 08:47 18.02.2022
5241 Clouds 21 1016 68 10000 4.63 140 06:48 18.02.2022
5242 Clouds 17 1016 88 10000 2.06 170 05:34 18.02.2022
5243 Clouds 18 1017 82 10000 2.06 130 22:39 17.02.2022
5244 Clouds 18 1018 82 10000 3.09 130 21:41 17.02.2022
5245 Clouds 18 1018 88 10000 5.66 110 20:44 17.02.2022
5246 Clouds 19 1017 88 10000 4.63 110 19:56 17.02.2022
5247 Clouds 19 1016 88 10000 4.12 90 19:26 17.02.2022
5248 Clouds 20 1016 78 10000 5.66 100 18:29 17.02.2022
5249 Clouds 20 1016 78 10000 5.66 110 17:42 17.02.2022
5250 Rain 24 1014 53 10000 4.63 130 15:58 17.02.2022
5251 Rain 25 1014 50 10000 4.12 140 14:30 17.02.2022
5252 Clouds 24 1015 53 10000 4.12 140 13:47 17.02.2022
5253 Clouds 25 1016 57 10000 6.69 120 11:52 17.02.2022
5254 Clouds 24 1017 65 10000 5.66 120 10:20 17.02.2022
5255 Clouds 21 1017 68 10000 6.69 140 07:45 17.02.2022
5256 Clouds 17 1017 88 10000 4.63 140 23:50 16.02.2022
5257 Clouds 17 1018 94 10000 4.12 140 22:36 16.02.2022
5258 Drizzle 17 1019 100 10000 6.17 120 20:22 16.02.2022
5259 Clouds 19 1017 94 10000 5.14 160 18:56 16.02.2022
5260 Clouds 19 1017 94 10000 4.12 150 18:27 16.02.2022
5261 Drizzle 19 1016 94 10000 5.14 150 17:22 16.02.2022
5262 Clouds 22 1015 73 10000 5.14 160 15:22 16.02.2022
5263 Clouds 22 1016 73 10000 5.66 150 13:40 16.02.2022
5264 Clouds 23 1015 69 10000 10.29 110 12:24 16.02.2022
5265 Clouds 24 1016 69 10000 7.72 120 11:45 16.02.2022
5266 Drizzle 20 1018 88 8000 7.2 130 10:34 16.02.2022
5267 Clouds 22 1018 78 10000 8.23 110 09:38 16.02.2022
5268 Clouds 21 1017 78 10000 7.72 120 06:43 16.02.2022
5269 Rain 17 1017 100 8000 3.09 170 00:37 16.02.2022
5270 Rain 18 1017 100 10000 3.09 140 22:34 15.02.2022
5271 Rain 18 1018 100 10000 4.12 150 21:50 15.02.2022
5272 Drizzle 19 1018 88 10000 4.63 160 21:29 15.02.2022
5273 Drizzle 19 1017 88 10000 5.66 150 20:57 15.02.2022
5274 Drizzle 19 1018 88 10000 4.12 160 20:22 15.02.2022
5275 Drizzle 19 1017 88 10000 4.63 150 19:43 15.02.2022
5276 Rain 19 1017 88 10000 3.09 150 18:25 15.02.2022
5277 Rain 19 1017 88 10000 3.09 170 17:53 15.02.2022
5278 Rain 19 1016 88 10000 3.09 170 17:28 15.02.2022
5279 Drizzle 19 1016 94 10000 3.6 150 15:36 15.02.2022
5280 Rain 22 1016 68 8000 9.26 180 13:49 15.02.2022
5281 Rain 23 1016 64 10000 4.63 120 13:25 15.02.2022
5282 Rain 24 1016 61 10000 6.17 150 11:41 15.02.2022
5283 Clouds 26 1017 50 10000 6.69 130 10:19 15.02.2022
5284 Clouds 22 1018 60 10000 5.66 160 07:41 15.02.2022
5285 Clouds 19 1018 77 10000 5.14 130 06:36 15.02.2022
5286 Clouds 18 1017 88 10000 2.06 180 23:35 14.02.2022
5287 Clouds 19 1018 83 10000 3.09 140 21:56 14.02.2022
5288 Clouds 19 1019 83 10000 4.63 150 20:52 14.02.2022
5289 Clouds 20 1017 73 10000 3.09 130 19:46 14.02.2022
5290 Clouds 19 1017 83 10000 2.57 100 19:28 14.02.2022
5291 Rain 20 1016 78 10000 3.09 140 18:23 14.02.2022
5292 Rain 18 1013 93 10000 3.3 102 17:27 14.02.2022
5293 Rain 22 1015 68 10000 4.63 140 16:27 14.02.2022
5294 Rain 23 1014 69 10000 5.14 150 14:43 14.02.2022
5295 Rain 27 1015 51 10000 4.63 120 13:34 14.02.2022
5296 Rain 27 1015 54 10000 5.14 130 12:58 14.02.2022
5297 Rain 26 1015 54 10000 5.66 110 11:56 14.02.2022
5298 Rain 27 1016 51 10000 6.17 110 11:37 14.02.2022
5299 Clouds 24 1017 61 10000 3.6 120 09:25 14.02.2022
5300 Clouds 21 1017 68 10000 4.63 170 07:34 14.02.2022
5301 Clouds 20 1014 72 10000 3.29 114 06:54 14.02.2022
5302 Clouds 18 1016 88 10000 2.57 120 22:44 13.02.2022
5303 Rain 18 1017 94 10000 2.57 140 22:26 13.02.2022
5304 Rain 18 1016 100 10000 1.03 0 21:48 13.02.2022
5305 Rain 18 1017 100 10000 2.06 130 20:42 13.02.2022
5306 Rain 18 1017 100 10000 0.51 0 19:51 13.02.2022
5307 Rain 18 1016 100 10000 2.06 160 18:57 13.02.2022
5308 Rain 18 1016 100 10000 2.06 160 18:38 13.02.2022
5309 Rain 19 1015 94 10000 1.54 60 16:40 13.02.2022
5310 Thunderstorm 19 1014 94 8000 1.03 0 15:50 13.02.2022
5311 Thunderstorm 19 1014 94 7000 3.09 240 14:38 13.02.2022
5312 Rain 27 1013 44 10000 2.06 0 12:52 13.02.2022
5313 Rain 28 1013 42 10000 3.6 100 12:33 13.02.2022
5314 Clouds 27 1009 44 10000 4.12 70 10:38 13.02.2022
5315 Clouds 26 1015 47 10000 3.6 150 09:49 13.02.2022
5316 Clouds 24 1016 53 10000 2.57 200 07:54 13.02.2022
5317 Clouds 14 1016 100 10000 1.03 0 01:24 13.02.2022
5318 Clouds 15 1016 94 10000 1.03 0 00:21 13.02.2022
5319 Clouds 16 1017 94 10000 1.54 50 22:34 12.02.2022
5320 Clouds 17 1017 88 10000 3.6 140 21:40 12.02.2022
5321 Clouds 18 1017 82 10000 3.09 150 20:55 12.02.2022
5322 Clouds 18 1017 82 10000 3.6 140 19:56 12.02.2022
5323 Clouds 19 1017 83 10000 4.12 140 18:54 12.02.2022
5324 Clouds 19 1017 83 10000 4.12 140 18:54 12.02.2022
5325 Clouds 20 1017 78 10000 5.14 100 18:35 12.02.2022
5326 Clouds 21 1016 68 10000 5.14 100 17:38 12.02.2022
5327 Clouds 21 1015 68 10000 5.14 110 16:44 12.02.2022
5328 Clouds 24 1014 47 10000 5.14 140 15:52 12.02.2022
5329 Clouds 25 1014 44 10000 3.6 140 15:20 12.02.2022
5330 Clouds 25 1014 50 10000 6.69 120 14:25 12.02.2022
5331 Clouds 26 1015 50 10000 5.66 120 11:26 12.02.2022
5332 Clouds 26 1016 50 10000 4.63 110 10:29 12.02.2022
5333 Clouds 25 1017 50 10000 3.6 0 09:36 12.02.2022
5334 Clouds 24 1012 43 10000 2.81 147 08:46 12.02.2022
5335 Clouds 21 1018 64 10000 4.12 170 06:52 12.02.2022
5336 Clouds 17 1017 88 10000 2.48 147 04:44 12.02.2022
5337 Clouds 16 1016 94 10000 2.57 140 02:19 12.02.2022
5338 Clouds 18 1017 82 10000 2.57 150 23:20 11.02.2022
5339 Clouds 18 1017 82 10000 2.57 150 22:20 11.02.2022
5340 Clouds 19 1018 83 10000 4.12 130 21:18 11.02.2022
5341 Clouds 19 1018 83 10000 4.12 100 20:26 11.02.2022
5342 Clouds 20 1018 83 10000 4.63 100 19:28 11.02.2022
5343 Rain 21 1016 78 10000 6.17 110 18:29 11.02.2022
5344 Rain 22 1015 64 10000 5.66 110 17:26 11.02.2022
5345 Rain 24 1014 53 10000 5.14 120 16:37 11.02.2022
5346 Clouds 25 1014 50 10000 4.12 140 15:18 11.02.2022
5347 Clouds 27 1014 44 10000 3.6 160 14:37 11.02.2022
5348 Clouds 27 1014 44 10000 3.6 160 14:19 11.02.2022
5349 Clouds 27 1014 44 10000 3.6 110 13:40 11.02.2022
5350 Clouds 27 1015 44 10000 2.57 0 12:45 11.02.2022
5351 Clouds 26 1015 54 10000 3.09 160 10:49 11.02.2022
5352 Clouds 25 1016 53 10000 4.12 140 09:31 11.02.2022
5353 Clouds 24 1016 57 10000 3.6 140 08:31 11.02.2022
5354 Clouds 22 1017 64 10000 4.12 160 07:40 11.02.2022
5355 Clouds 18 1016 88 10000 4.12 110 02:40 11.02.2022
5356 Clouds 19 1015 77 10000 4.63 110 02:20 11.02.2022
5357 Clouds 19 1015 88 10000 2.57 100 23:41 10.02.2022
5358 Clouds 20 1017 83 10000 3.09 100 21:55 10.02.2022
5359 Clouds 20 1016 83 10000 3.09 110 21:35 10.02.2022
5360 Clouds 20 1016 83 10000 4.12 120 20:48 10.02.2022
5361 Clouds 20 1016 83 10000 4.63 120 19:49 10.02.2022
5362 Rain 20 1016 88 10000 5.14 100 19:20 10.02.2022
5363 Rain 22 1015 78 10000 5.66 110 17:43 10.02.2022
5364 Rain 23 1015 69 10000 5.66 100 17:20 10.02.2022
5365 Rain 25 1013 53 10000 4.12 90 16:23 10.02.2022
5366 Rain 27 1013 47 10000 4.12 120 15:34 10.02.2022
5367 Rain 27 1013 47 10000 3.6 160 14:49 10.02.2022
5368 Rain 28 1013 48 10000 3.09 180 14:30 10.02.2022
5369 Clouds 28 1013 48 10000 1.54 0 13:33 10.02.2022
5370 Clouds 27 1014 47 10000 1.54 0 12:51 10.02.2022
5371 Clouds 28 1014 48 10000 1.54 0 11:44 10.02.2022
5372 Clouds 27 1014 47 10000 2.57 50 11:25 10.02.2022
5373 Clouds 26 1015 54 10000 2.57 90 10:19 10.02.2022
5374 Clouds 25 1016 61 10000 3.09 110 09:25 10.02.2022
5375 Clouds 22 1016 73 10000 4.12 120 07:40 10.02.2022
5376 Clouds 19 1016 94 10000 3.6 110 05:52 10.02.2022
5377 Clouds 17 1016 100 10000 1.03 0 01:57 10.02.2022
5378 Clouds 18 1016 94 10000 0 0 00:50 10.02.2022
5379 Clouds 18 1016 94 10000 0 0 00:50 10.02.2022
5380 Clouds 18 1016 94 10000 2.57 50 00:29 10.02.2022
5381 Clouds 18 1017 94 10000 2.06 100 23:26 09.02.2022
5382 Clouds 19 1016 88 10000 3.09 80 22:37 09.02.2022
5383 Rain 19 1017 94 10000 3.09 60 21:52 09.02.2022
5384 Thunderstorm 19 1017 94 10000 3.09 90 21:30 09.02.2022
5385 Thunderstorm 20 1017 88 10000 4.63 90 20:51 09.02.2022
5386 Thunderstorm 20 1017 88 10000 4.63 90 20:31 09.02.2022
5387 Thunderstorm 20 1017 94 10000 4.63 90 19:56 09.02.2022
5388 Thunderstorm 20 1016 94 10000 4.12 100 19:32 09.02.2022
5389 Thunderstorm 19 1015 94 7000 5.66 100 17:38 09.02.2022
5390 Thunderstorm 19 1015 94 7000 2.06 170 16:53 09.02.2022
5391 Thunderstorm 24 1014 69 8000 5.14 70 15:52 09.02.2022
5392 Rain 26 1012 61 10000 2.06 70 14:42 09.02.2022
5393 Thunderstorm 23 1014 69 6000 10.29 100 12:28 09.02.2022
5394 Rain 27 1015 54 10000 2.06 190 10:55 09.02.2022
5395 Rain 27 1015 54 10000 2.06 190 10:55 09.02.2022
5396 Rain 28 1015 51 10000 2.57 190 10:30 09.02.2022
5397 Rain 26 1016 57 10000 2.06 240 09:40 09.02.2022
5398 Rain 26 1016 57 10000 2.06 240 09:19 09.02.2022
5399 Clouds 23 1016 73 10000 0.51 0 07:55 09.02.2022
5400 Clouds 20 1016 88 10000 1.03 0 05:30 09.02.2022
5401 Clouds 19 1015 94 10000 3.09 320 03:50 09.02.2022
5402 Clouds 19 1015 94 10000 2.57 290 00:44 09.02.2022
5403 Clouds 19 1015 94 10000 2.06 350 23:32 08.02.2022
5404 Clouds 19 1015 94 10000 2.06 350 23:32 08.02.2022
5405 Clouds 19 1015 94 10000 2.06 350 23:32 08.02.2022
5406 Clouds 19 1015 94 10000 2.06 350 23:32 08.02.2022
5407 Clouds 19 1016 100 10000 2.06 310 22:46 08.02.2022
5408 Rain 19 1016 94 10000 2.06 300 22:21 08.02.2022
5409 Rain 20 1016 88 10000 2.06 290 21:42 08.02.2022
5410 Rain 20 1017 88 10000 1.54 360 21:21 08.02.2022
5411 Rain 20 1017 88 10000 2.06 340 20:43 08.02.2022
5412 Rain 21 1017 83 10000 2.57 340 19:46 08.02.2022
5413 Clouds 22 1016 73 10000 2.06 330 18:38 08.02.2022
5414 Clouds 23 1015 69 10000 2.06 340 17:40 08.02.2022
5415 Clouds 23 1014 64 10000 3.09 290 16:30 08.02.2022
5416 Rain 25 1014 57 10000 3.6 290 15:30 08.02.2022
5417 Rain 25 1014 57 10000 3.6 290 15:30 08.02.2022
5418 Rain 28 1014 51 10000 3.09 270 14:31 08.02.2022
5419 Clouds 27 1014 51 10000 3.09 280 13:20 08.02.2022
5420 Clouds 26 1015 57 10000 3.09 310 11:33 08.02.2022
5421 Clouds 25 1016 57 10000 3.6 290 10:23 08.02.2022
5422 Clouds 25 1016 57 10000 3.6 290 10:23 08.02.2022
5423 Clouds 26 1016 57 10000 3.6 310 09:44 08.02.2022
5424 Clouds 23 1017 60 10000 2.57 0 07:46 08.02.2022
5425 Clouds 18 1017 88 10000 1.54 320 05:40 08.02.2022
5426 Clouds 17 1016 100 10000 1.54 320 04:39 08.02.2022
5427 Clouds 17 1016 100 10000 1.54 320 04:21 08.02.2022
5428 Clouds 17 1016 100 10000 1.03 340 03:36 08.02.2022
5429 Clouds 17 1016 100 10000 1.03 340 03:18 08.02.2022
5430 Clouds 16 1016 100 10000 1.03 300 02:58 08.02.2022
5431 Clouds 17 1016 94 10000 1.03 340 02:36 08.02.2022
5432 Clouds 17 1016 94 10000 1.03 340 02:18 08.02.2022
5433 Clouds 17 1016 94 10000 1.03 350 01:43 08.02.2022
5434 Clouds 17 1016 100 10000 1.03 0 01:24 08.02.2022
5435 Clouds 17 1016 94 10000 1.03 0 00:49 08.02.2022
5436 Clouds 17 1016 94 10000 1.03 0 23:54 07.02.2022
5437 Clouds 17 1017 94 10000 1.03 330 23:36 07.02.2022
5438 Clouds 17 1017 94 10000 1.03 330 23:18 07.02.2022
5439 Clouds 18 1018 88 10000 2.57 340 22:19 07.02.2022
5440 Clouds 18 1018 88 10000 1.54 340 21:52 07.02.2022
5441 Clouds 18 1018 88 10000 2.06 340 21:29 07.02.2022
5442 Clouds 18 1018 88 10000 2.06 340 21:29 07.02.2022
5443 Clouds 18 1018 88 10000 2.06 330 20:56 07.02.2022
5444 Clouds 18 1018 88 10000 2.06 340 20:38 07.02.2022
5445 Clouds 18 1018 88 10000 2.06 280 19:47 07.02.2022
5446 Clouds 19 1018 83 10000 2.57 310 19:20 07.02.2022
5447 Clouds 21 1016 73 10000 2.57 330 17:39 07.02.2022
5448 Clouds 22 1015 68 10000 3.09 310 16:52 07.02.2022
5449 Clouds 25 1015 53 10000 4.63 340 15:49 07.02.2022
5450 Clouds 26 1014 50 10000 4.63 320 14:41 07.02.2022
5451 Clouds 26 1015 50 10000 5.66 310 13:27 07.02.2022
5452 Clouds 25 1015 53 10000 5.14 300 12:37 07.02.2022
5453 Clouds 25 1015 57 10000 4.63 300 11:52 07.02.2022
5454 Clouds 26 1016 47 10000 5.66 330 11:25 07.02.2022
5455 Clouds 26 1016 47 10000 6.69 310 10:43 07.02.2022
5456 Clouds 25 1016 47 10000 5.66 320 10:24 07.02.2022
5457 Clouds 25 1016 53 10000 5.14 310 09:52 07.02.2022
5458 Clouds 24 1017 57 10000 5.14 320 09:18 07.02.2022
5459 Clouds 21 1017 73 10000 3.09 330 07:58 07.02.2022
5460 Clouds 20 1016 78 10000 4.63 20 06:35 07.02.2022
5461 Drizzle 19 1015 83 10000 2.57 20 05:18 07.02.2022
5462 Clouds 18 1014 88 10000 3.6 330 02:38 07.02.2022
5463 Clouds 18 1014 94 10000 3.6 360 00:24 07.02.2022
5464 Clouds 18 1014 94 10000 3.6 10 23:33 06.02.2022
5465 Clouds 18 1014 94 10000 2.57 20 22:45 06.02.2022
5466 Clouds 19 1014 94 10000 2.57 10 21:47 06.02.2022
5467 Clouds 19 1015 94 10000 2.06 30 21:21 06.02.2022
5468 Clouds 18 1015 100 10000 2.06 20 20:48 06.02.2022
5469 Clouds 19 1015 88 10000 3.6 10 20:24 06.02.2022
5470 Clouds 19 1014 94 10000 2.57 20 19:22 06.02.2022
5471 Clouds 19 1014 88 10000 3.09 30 18:33 06.02.2022
5472 Drizzle 19 1013 88 9000 4.63 340 17:38 06.02.2022
5473 Rain 19 1012 94 9000 2.06 310 16:52 06.02.2022
5474 Drizzle 19 1011 94 9000 1.03 280 16:20 06.02.2022
5475 Drizzle 19 1011 100 9000 1.54 240 15:47 06.02.2022
5476 Thunderstorm 19 1011 94 8000 2.57 270 15:24 06.02.2022
5477 Rain 19 1011 88 4000 8.75 280 14:19 06.02.2022
5478 Rain 25 1010 57 10000 7.72 330 13:21 06.02.2022
5479 Rain 25 1010 57 10000 6.69 340 12:27 06.02.2022
5480 Clouds 25 1010 57 10000 8.75 330 10:33 06.02.2022
5481 Clouds 23 1011 64 10000 8.75 340 09:43 06.02.2022
5482 Clouds 22 1011 68 10000 7.2 340 08:41 06.02.2022
5483 Rain 19 1009 83 10000 7.2 340 06:34 06.02.2022
5484 Clouds 18 1009 88 10000 6.17 340 05:28 06.02.2022
5485 Drizzle 18 1006 88 10000 6.69 340 02:25 06.02.2022
5486 Rain 17 1005 100 8000 8.75 320 00:33 06.02.2022
5487 Drizzle 17 1004 100 10000 9.26 320 23:39 05.02.2022
5488 Clouds 18 1004 88 10000 9.26 310 21:47 05.02.2022
5489 Clouds 18 1005 88 10000 7.72 310 20:41 05.02.2022
5490 Drizzle 18 1004 94 10000 8.23 310 20:20 05.02.2022
5491 Clouds 19 1004 83 10000 9.26 320 19:42 05.02.2022
5492 Clouds 19 1004 83 10000 10.29 310 18:30 05.02.2022
5493 Clouds 19 1004 83 10000 9.26 300 17:35 05.02.2022
5494 Clouds 21 1003 68 10000 5.66 270 15:51 05.02.2022
5495 Drizzle 22 1003 60 10000 7.2 270 15:29 05.02.2022
5496 Rain 22 1004 68 10000 6.69 230 13:25 05.02.2022
5497 Rain 22 1004 68 10000 6.69 230 13:25 05.02.2022
5498 Rain 21 1005 78 10000 6.17 240 12:42 05.02.2022
5499 Rain 21 1006 83 10000 5.66 260 11:29 05.02.2022
5500 Drizzle 21 1006 83 10000 5.66 260 10:43 05.02.2022
5501 Drizzle 21 1007 78 10000 7.72 280 09:49 05.02.2022
5502 Rain 21 1008 78 10000 6.69 270 08:34 05.02.2022
5503 Clouds 20 1008 83 10000 6.17 270 06:58 05.02.2022
5504 Clouds 20 1009 83 10000 6.17 270 06:27 05.02.2022
5505 Drizzle 18 1009 94 10000 4.63 290 02:31 05.02.2022
5506 Drizzle 18 1010 100 10000 4.12 290 01:18 05.02.2022
5507 Clouds 18 1010 100 10000 4.12 300 00:36 05.02.2022
5508 Clouds 19 1011 94 10000 3.6 290 23:33 04.02.2022
5509 Clouds 19 1011 83 10000 2.06 260 22:37 04.02.2022
5510 Rain 20 1012 73 10000 3.09 200 21:36 04.02.2022
5511 Rain 20 1012 73 10000 3.09 200 21:18 04.02.2022
5512 Clouds 20 1012 73 10000 3.09 210 20:29 04.02.2022
5513 Clouds 21 1012 73 10000 4.63 210 18:30 04.02.2022
5514 Rain 24 1011 57 10000 6.69 210 16:20 04.02.2022
5515 Rain 24 1010 57 10000 6.69 180 15:18 04.02.2022
5516 Rain 25 1010 53 10000 4.12 210 14:26 04.02.2022
5517 Rain 26 1011 54 10000 7.72 190 12:43 04.02.2022
5518 Rain 27 1011 51 10000 7.72 180 11:44 04.02.2022
5519 Clouds 27 1012 51 10000 6.17 200 10:51 04.02.2022
5520 Clouds 25 1013 53 10000 4.63 220 09:31 04.02.2022
5521 Clouds 25 1014 57 10000 6.17 200 07:35 04.02.2022
5522 Clouds 18 1013 77 10000 3.6 180 02:54 04.02.2022
5523 Rain 18 1013 77 10000 3.6 200 02:20 04.02.2022
5524 Rain 20 1015 56 10000 2.57 170 23:32 03.02.2022
5525 Rain 20 1015 56 10000 1.03 0 22:48 03.02.2022
5526 Rain 20 1015 56 10000 1.54 160 21:50 03.02.2022
5527 Rain 20 1015 56 10000 1.54 170 20:43 03.02.2022
5528 Rain 20 1015 56 10000 1.03 0 20:20 03.02.2022
5529 Rain 21 1015 53 10000 1.03 0 19:34 03.02.2022
5530 Rain 21 1015 49 10000 1.54 160 18:44 03.02.2022
5531 Rain 22 1015 46 10000 3.09 130 17:42 03.02.2022
5532 Rain 24 1014 33 10000 3.6 150 16:35 03.02.2022
5533 Rain 17 1011 75 10000 3.18 164 14:52 03.02.2022
5534 Clouds 29 1014 28 10000 2.06 0 13:18 03.02.2022
5535 Clouds 28 1015 34 10000 3.09 200 11:42 03.02.2022
5536 Clouds 23 1017 60 10000 2.57 180 08:38 03.02.2022
5537 Clouds 18 1017 72 10000 2.06 170 05:26 03.02.2022
5538 Clouds 17 1016 82 10000 3.09 160 00:32 03.02.2022
5539 Clouds 17 1017 82 10000 3.09 130 23:44 02.02.2022
5540 Clouds 17 1018 82 10000 2.57 140 22:32 02.02.2022
5541 Clouds 18 1018 82 10000 3.09 130 21:34 02.02.2022
5542 Clouds 18 1018 82 10000 3.6 130 20:53 02.02.2022
5543 Clouds 18 1018 82 10000 5.14 120 19:59 02.02.2022
5544 Clouds 19 1018 77 10000 3.6 130 19:32 02.02.2022
5545 Clouds 20 1017 73 10000 5.14 120 18:50 02.02.2022
5546 Clouds 20 1017 73 10000 5.66 130 18:22 02.02.2022
5547 Clouds 22 1016 60 10000 4.12 140 17:19 02.02.2022
5548 Clouds 22 1016 60 10000 5.14 100 16:42 02.02.2022
5549 Clouds 26 1014 44 10000 4.12 110 13:35 02.02.2022
5550 Clouds 26 1015 44 10000 3.6 130 12:25 02.02.2022
5551 Clouds 26 1016 44 10000 4.63 150 11:34 02.02.2022
5552 Clouds 25 1016 47 10000 4.12 140 10:31 02.02.2022
5553 Clouds 21 1018 60 10000 5.14 180 07:37 02.02.2022
5554 Clouds 16 1017 88 10000 3.6 140 22:52 01.02.2022
5555 Clouds 17 1017 82 10000 3.6 140 21:52 01.02.2022
5556 Clouds 18 1018 82 10000 4.12 130 20:36 01.02.2022
5557 Clouds 19 1017 68 10000 4.63 100 17:50 01.02.2022
5558 Clouds 23 1015 50 10000 4.63 140 16:40 01.02.2022
5559 Clouds 24 1015 38 10000 4.12 150 14:47 01.02.2022
5560 Clouds 24 1016 50 10000 4.63 120 12:45 01.02.2022
5561 Clouds 22 1017 64 10000 7.2 110 11:34 01.02.2022
5562 Clouds 18 1017 82 10000 3.6 140 04:53 01.02.2022
5563 Clouds 18 1016 88 10000 3.6 140 23:42 31.01.2022
5564 Clouds 18 1016 88 10000 3.6 140 23:42 31.01.2022
5565 Clouds 19 1017 83 10000 3.6 120 23:21 31.01.2022
5566 Clouds 18 1018 88 10000 2.57 140 21:42 31.01.2022
5567 Clouds 18 1018 82 10000 2.57 130 21:19 31.01.2022
5568 Clouds 18 1019 82 10000 3.6 140 20:32 31.01.2022
5569 Clouds 18 1018 82 10000 4.12 130 19:45 31.01.2022
5570 Clouds 19 1018 77 10000 5.66 110 18:26 31.01.2022
5571 Clouds 20 1018 73 10000 6.17 120 17:41 31.01.2022
5572 Clouds 23 1016 57 10000 5.14 130 16:43 31.01.2022
5573 Clouds 25 1015 44 10000 5.66 120 15:43 31.01.2022
5574 Clouds 27 1015 34 10000 4.63 100 14:22 31.01.2022
5575 Clouds 27 1016 34 10000 3.6 110 12:39 31.01.2022
5576 Clouds 27 1016 32 10000 3.6 0 11:56 31.01.2022
5577 Clouds 25 1017 41 10000 3.09 180 10:50 31.01.2022
5578 Clouds 25 1017 44 10000 2.57 0 10:30 31.01.2022
5579 Clouds 23 1018 50 10000 2.57 0 09:26 31.01.2022
5580 Clouds 22 1018 53 10000 3.6 130 08:50 31.01.2022
5581 Clouds 22 1019 49 10000 3.6 160 08:20 31.01.2022
5582 Clouds 19 1019 64 10000 4.12 180 06:18 31.01.2022
5583 Clouds 16 1017 82 10000 3.6 150 00:55 31.01.2022
5584 Clouds 17 1018 88 10000 4.63 100 22:55 30.01.2022
5585 Clouds 17 1018 77 10000 4.12 100 22:25 30.01.2022
5586 Clouds 18 1019 82 10000 4.12 120 21:40 30.01.2022
5587 Clouds 19 1019 77 10000 4.63 140 21:19 30.01.2022
5588 Clouds 19 1019 83 10000 3.6 160 20:46 30.01.2022
5589 Clouds 19 1019 83 10000 3.09 150 20:27 30.01.2022
5590 Clouds 20 1018 78 10000 5.14 120 19:45 30.01.2022
5591 Clouds 20 1018 78 10000 4.63 100 18:43 30.01.2022
5592 Clouds 21 1017 68 10000 5.66 100 18:18 30.01.2022
5593 Clouds 22 1017 56 10000 5.14 120 17:22 30.01.2022
5594 Clouds 25 1016 47 10000 5.66 100 16:40 30.01.2022
5595 Clouds 25 1016 47 10000 5.66 100 16:21 30.01.2022
5596 Clouds 26 1015 41 10000 1.03 0 15:50 30.01.2022
5597 Clouds 27 1015 39 10000 1.03 0 15:31 30.01.2022
5598 Clouds 29 1015 35 10000 1.03 0 14:46 30.01.2022
5599 Clouds 28 1016 37 10000 2.57 0 12:47 30.01.2022
5600 Clouds 27 1016 39 10000 2.06 0 11:57 30.01.2022
5601 Clouds 26 1017 47 10000 3.09 170 10:32 30.01.2022
5602 Clouds 25 1018 47 10000 2.57 0 09:50 30.01.2022
5603 Clouds 23 1018 57 10000 1.54 0 08:54 30.01.2022
5604 Clouds 21 1019 68 10000 1.54 0 07:28 30.01.2022
5605 Clouds 17 1018 88 10000 4.12 90 01:56 30.01.2022
5606 Clouds 17 1018 88 10000 4.12 90 01:56 30.01.2022
5607 Clouds 17 1018 88 10000 4.12 90 01:56 30.01.2022
5608 Clouds 18 1018 82 10000 3.09 100 00:23 30.01.2022
5609 Clouds 18 1018 88 10000 4.12 80 23:18 29.01.2022
5610 Clouds 19 1019 88 10000 4.12 90 21:49 29.01.2022
5611 Clouds 20 1019 83 10000 4.63 80 21:24 29.01.2022
5612 Clouds 20 1019 83 10000 3.6 90 20:28 29.01.2022
5613 Clouds 20 1018 83 10000 3.6 100 19:34 29.01.2022
5614 Clouds 21 1018 73 10000 4.12 130 18:52 29.01.2022
5615 Clouds 21 1017 73 10000 4.63 110 18:18 29.01.2022
5616 Clouds 23 1016 57 10000 5.66 100 17:29 29.01.2022
5617 Clouds 28 1015 42 10000 1.54 0 15:57 29.01.2022
5618 Clouds 29 1015 39 10000 2.06 0 14:23 29.01.2022
5619 Clouds 28 1016 42 10000 1.54 0 13:42 29.01.2022
5620 Clouds 28 1016 42 10000 1.03 0 13:23 29.01.2022
5621 Clouds 27 1017 47 10000 3.09 220 11:47 29.01.2022
5622 Clouds 26 1018 50 10000 2.06 0 10:54 29.01.2022
5623 Clouds 23 1019 60 10000 1.03 0 08:42 29.01.2022
5624 Clouds 20 1019 73 10000 2.06 0 06:37 29.01.2022
5625 Clouds 15 1017 94 10000 2.57 100 00:34 29.01.2022
5626 Clouds 16 1017 88 10000 4.12 90 23:44 28.01.2022
5627 Clouds 17 1018 88 10000 3.6 100 22:48 28.01.2022
5628 Clouds 16 1018 100 10000 3.09 80 22:20 28.01.2022
5629 Clouds 17 1018 88 10000 5.66 120 20:42 28.01.2022
5630 Clouds 18 1019 82 10000 5.14 100 20:23 28.01.2022
5631 Clouds 18 1018 82 10000 5.66 100 19:28 28.01.2022
5632 Clouds 19 1018 73 10000 5.66 100 18:38 28.01.2022
5633 Clouds 22 1016 56 10000 5.14 110 16:45 28.01.2022
5634 Clouds 27 1014 39 10000 2.57 130 14:59 28.01.2022
5635 Clouds 27 1014 39 10000 1.54 0 13:34 28.01.2022
5636 Clouds 26 1015 39 10000 2.06 0 12:26 28.01.2022
5637 Clouds 25 1016 47 10000 2.06 0 10:41 28.01.2022
5638 Clouds 23 1017 53 10000 2.57 0 09:48 28.01.2022
5639 Clouds 22 1018 56 10000 3.09 120 07:43 28.01.2022
5640 Clouds 19 1018 68 10000 3.09 130 06:32 28.01.2022
5641 Clouds 14 1017 88 10000 3.09 100 03:52 28.01.2022
5642 Clouds 16 1017 88 10000 3.09 130 02:29 28.01.2022
5643 Clouds 16 1017 88 10000 3.6 130 01:57 28.01.2022
5644 Clouds 16 1017 88 10000 3.6 130 01:57 28.01.2022
5645 Clouds 16 1016 88 10000 3.6 110 01:29 28.01.2022
5646 Clouds 17 1017 88 10000 4.63 110 22:39 27.01.2022
5647 Clouds 17 1018 88 10000 4.63 110 21:41 27.01.2022
5648 Clouds 17 1018 88 10000 4.63 120 20:59 27.01.2022
5649 Clouds 17 1018 88 10000 4.63 110 19:47 27.01.2022
5650 Clouds 19 1017 73 10000 5.66 110 18:22 27.01.2022
5651 Rain 21 1016 60 10000 3.6 80 16:59 27.01.2022
5652 Clouds 25 1016 44 10000 3.09 100 14:23 27.01.2022
5653 Clouds 25 1016 44 10000 3.6 100 12:49 27.01.2022
5654 Clouds 24 1016 50 10000 3.09 0 12:18 27.01.2022
5655 Clouds 22 1018 53 10000 3.6 160 09:49 27.01.2022
5656 Clouds 21 1019 60 10000 3.09 140 08:40 27.01.2022
5657 Clouds 20 1019 60 10000 3.09 150 07:53 27.01.2022
5658 Clouds 13 1018 94 10000 2.57 130 03:34 27.01.2022
5659 Clouds 15 1018 82 10000 2.57 140 00:24 27.01.2022
5660 Clouds 16 1019 82 10000 4.63 140 22:28 26.01.2022
5661 Clouds 16 1019 88 10000 4.63 140 21:44 26.01.2022
5662 Clouds 16 1019 88 10000 2.57 160 20:52 26.01.2022
5663 Clouds 16 1019 88 10000 3.09 140 20:32 26.01.2022
5664 Clouds 17 1019 82 10000 3.09 140 19:49 26.01.2022
5665 Clouds 17 1019 82 10000 3.6 130 18:48 26.01.2022
5666 Clouds 17 1019 82 10000 4.12 120 18:24 26.01.2022
5667 Clouds 18 1019 82 10000 5.66 110 17:33 26.01.2022
5668 Clouds 19 1018 77 10000 5.66 110 16:49 26.01.2022
5669 Rain 20 1018 73 10000 4.63 120 16:22 26.01.2022
5670 Clouds 22 1017 68 10000 7.2 100 14:40 26.01.2022
5671 Clouds 24 1018 53 10000 2.57 120 12:20 26.01.2022
5672 Clouds 22 1019 60 10000 3.6 130 10:52 26.01.2022
5673 Clouds 22 1020 64 10000 3.6 140 09:52 26.01.2022
5674 Clouds 19 1020 73 10000 4.63 180 08:49 26.01.2022
5675 Clouds 17 1021 82 10000 3.09 170 06:36 26.01.2022
5676 Clouds 16 1019 88 10000 2.06 130 00:24 26.01.2022
5677 Clouds 16 1019 88 10000 3.09 160 23:41 25.01.2022
5678 Clouds 16 1020 94 10000 3.09 160 22:48 25.01.2022
5679 Clouds 16 1020 94 10000 3.09 160 22:18 25.01.2022
5680 Clouds 16 1020 94 10000 2.57 150 21:27 25.01.2022
5681 Clouds 16 1021 94 10000 2.57 130 20:45 25.01.2022
5682 Clouds 16 1021 94 10000 3.6 130 19:54 25.01.2022
5683 Clouds 16 1020 94 10000 2.57 130 19:23 25.01.2022
5684 Clouds 17 1020 88 10000 3.6 130 17:56 25.01.2022
5685 Clouds 17 1020 94 10000 2.06 150 17:18 25.01.2022
5686 Clouds 18 1019 88 10000 2.57 160 16:34 25.01.2022
5687 Rain 19 1018 77 10000 3.6 140 15:39 25.01.2022
5688 Rain 19 1018 77 10000 3.6 140 15:18 25.01.2022
5689 Rain 19 1018 83 10000 3.09 180 14:43 25.01.2022
5690 Rain 18 1019 94 10000 3.09 200 11:52 25.01.2022
5691 Drizzle 19 1021 94 10000 0.51 0 09:24 25.01.2022
5692 Drizzle 17 1021 100 3000 5.14 90 07:52 25.01.2022
5693 Rain 20 1021 78 10000 2.06 170 06:54 25.01.2022
5694 Clouds 18 1019 88 10000 2.57 130 05:23 25.01.2022
5695 Clouds 18 1018 94 10000 4.12 100 00:28 25.01.2022
5696 Clouds 18 1019 94 10000 2.06 160 23:36 24.01.2022
5697 Clouds 18 1019 94 10000 2.06 160 23:18 24.01.2022
5698 Clouds 18 1019 94 10000 2.06 160 23:18 24.01.2022
5699 Clouds 17 1019 100 10000 2.06 170 22:42 24.01.2022
5700 Clouds 18 1019 94 10000 2.06 150 21:57 24.01.2022
5701 Clouds 18 1019 94 10000 2.06 110 21:32 24.01.2022
5702 Clouds 18 1019 94 10000 1.03 0 20:34 24.01.2022
5703 Clouds 18 1020 94 10000 1.54 110 19:59 24.01.2022
5704 Clouds 18 1019 88 10000 3.6 90 19:37 24.01.2022
5705 Clouds 18 1019 88 10000 4.63 110 18:37 24.01.2022
5706 Clouds 18 1018 82 10000 6.69 110 17:24 24.01.2022
5707 Clouds 18 1018 88 10000 4.63 130 16:56 24.01.2022
5708 Clouds 18 1018 94 10000 2.57 130 16:29 24.01.2022
5709 Rain 18 1016 88 10000 6.17 120 14:49 24.01.2022
5710 Rain 19 1017 88 5000 6.69 100 13:38 24.01.2022
5711 Drizzle 18 1017 100 8000 6.69 130 12:32 24.01.2022
5712 Rain 21 1017 78 10000 7.2 120 11:20 24.01.2022
5713 Clouds 21 1017 83 10000 9.77 110 09:49 24.01.2022
5714 Clouds 22 1017 73 10000 8.23 110 09:20 24.01.2022
5715 Clouds 21 1018 83 10000 8.75 100 07:20 24.01.2022
5716 Clouds 21 1018 83 10000 8.75 100 07:20 24.01.2022
5717 Clouds 21 1018 83 10000 8.75 100 07:20 24.01.2022
5718 Rain 17 1012 94 10000 5.98 102 01:32 24.01.2022
5719 Drizzle 18 1015 88 6000 5.66 120 00:45 24.01.2022
5720 Drizzle 18 1015 100 6000 4.63 120 00:26 24.01.2022
5721 Rain 18 1016 100 10000 5.14 120 22:43 23.01.2022
5722 Rain 18 1016 94 10000 6.17 110 21:50 23.01.2022
5723 Drizzle 18 1016 100 8000 4.63 120 21:26 23.01.2022
5724 Rain 19 1016 94 10000 3.6 120 20:48 23.01.2022
5725 Rain 19 1016 94 10000 6.17 110 19:55 23.01.2022
5726 Clouds 19 1016 88 10000 7.72 100 18:52 23.01.2022
5727 Clouds 19 1015 83 10000 9.26 110 17:52 23.01.2022
5728 Rain 20 1015 78 10000 11.32 110 16:48 23.01.2022
5729 Rain 21 1013 78 10000 8.23 100 15:18 23.01.2022
5730 Rain 21 1013 78 10000 9.77 100 14:32 23.01.2022
5731 Drizzle 21 1013 88 10000 9.26 110 13:27 23.01.2022
5732 Drizzle 22 1014 78 10000 9.77 100 12:36 23.01.2022
5733 Drizzle 22 1014 78 10000 9.77 100 12:18 23.01.2022
5734 Drizzle 20 1014 94 8000 7.72 100 11:24 23.01.2022
5735 Drizzle 21 1014 88 6000 9.26 110 10:43 23.01.2022
5736 Drizzle 20 1014 100 9000 6.69 110 10:19 23.01.2022
5737 Drizzle 23 1014 73 8000 8.75 120 09:19 23.01.2022
5738 Rain 20 1013 88 10000 8.23 120 05:58 23.01.2022
5739 Drizzle 17 1012 100 8000 1.03 0 01:54 23.01.2022
5740 Drizzle 18 1013 100 7000 1.54 0 01:34 23.01.2022
5741 Rain 18 1013 100 9000 3.09 100 00:31 23.01.2022
5742 Drizzle 18 1013 100 6000 3.6 130 23:57 22.01.2022
5743 Drizzle 18 1014 100 10000 2.06 140 22:47 22.01.2022
5744 Rain 18 1014 100 10000 2.06 150 21:38 22.01.2022
5745 Rain 18 1014 100 6000 4.63 150 20:24 22.01.2022
5746 Rain 18 1014 100 8000 2.57 140 19:27 22.01.2022
5747 Drizzle 18 1014 100 10000 3.6 170 18:29 22.01.2022
5748 Drizzle 18 1014 100 10000 4.12 170 17:41 22.01.2022
5749 Drizzle 18 1013 100 10000 3.6 180 16:57 22.01.2022
5750 Drizzle 18 1012 100 10000 5.66 180 15:55 22.01.2022
5751 Drizzle 18 1012 100 8000 4.63 180 15:37 22.01.2022
5752 Rain 19 1012 100 9000 5.14 210 13:59 22.01.2022
5753 Drizzle 19 1012 94 10000 5.66 210 12:55 22.01.2022
5754 Drizzle 19 1013 94 10000 4.12 210 12:30 22.01.2022
5755 Drizzle 19 1013 94 10000 4.12 200 11:49 22.01.2022
5756 Drizzle 19 1014 94 10000 3.6 200 10:31 22.01.2022
5757 Drizzle 19 1014 94 10000 3.6 200 09:59 22.01.2022
5758 Rain 19 1015 94 10000 4.12 170 08:53 22.01.2022
5759 Rain 20 1015 83 10000 3.6 160 07:56 22.01.2022
5760 Clouds 17 1015 94 10000 3.09 180 04:53 22.01.2022
5761 Clouds 17 1015 94 10000 2.57 180 01:58 22.01.2022
5762 Clouds 18 1015 88 10000 2.57 170 23:46 21.01.2022
5763 Clouds 18 1016 88 10000 2.06 160 22:41 21.01.2022
5764 Rain 18 1017 88 10000 3.6 150 20:45 21.01.2022
5765 Rain 18 1016 88 10000 2.06 150 18:41 21.01.2022
5766 Rain 18 1016 88 10000 3.6 170 17:45 21.01.2022
5767 Clouds 20 1015 83 10000 4.63 150 15:47 21.01.2022
5768 Rain 20 1014 88 6000 3.09 80 13:55 21.01.2022
5769 Clouds 23 1014 64 10000 2.57 160 12:40 21.01.2022
5770 Clouds 22 1015 68 10000 3.6 120 11:29 21.01.2022
5771 Clouds 22 1015 64 10000 3.09 130 10:22 21.01.2022
5772 Clouds 23 1015 60 10000 3.6 170 08:25 21.01.2022
5773 Clouds 23 1015 60 10000 3.6 170 08:25 21.01.2022
5774 Clouds 19 1015 68 10000 4.63 160 07:19 21.01.2022
5775 Rain 16 1014 82 10000 4.12 170 23:54 20.01.2022
5776 Rain 17 1014 82 10000 5.14 160 22:45 20.01.2022
5777 Rain 17 1015 88 10000 3.09 160 21:48 20.01.2022
5778 Rain 17 1015 88 10000 4.12 150 20:56 20.01.2022
5779 Rain 17 1014 88 10000 3.6 130 19:21 20.01.2022
5780 Rain 17 1014 88 10000 4.12 160 18:51 20.01.2022
5781 Clouds 18 1013 88 10000 4.12 140 17:31 20.01.2022
5782 Drizzle 19 1012 88 10000 5.14 150 15:45 20.01.2022
5783 Rain 19 1011 83 10000 5.14 150 15:24 20.01.2022
5784 Rain 20 1011 83 10000 5.14 150 13:42 20.01.2022
5785 Rain 20 1012 88 10000 4.12 170 12:38 20.01.2022
5786 Rain 20 1012 88 10000 4.63 160 11:57 20.01.2022
5787 Rain 19 1013 94 10000 3.09 100 10:47 20.01.2022
5788 Rain 19 1014 88 8000 3.09 140 09:42 20.01.2022
5789 Drizzle 19 1015 94 8000 3.6 140 08:34 20.01.2022
5790 Drizzle 17 1014 100 8000 2.57 170 05:34 20.01.2022
5791 Drizzle 17 1014 100 10000 1.54 0 23:42 19.01.2022
5792 Drizzle 18 1015 100 10000 1.03 70 22:37 19.01.2022
5793 Drizzle 18 1015 100 10000 1.54 70 21:24 19.01.2022
5794 Rain 18 1016 100 10000 2.06 80 20:51 19.01.2022
5795 Rain 18 1016 100 10000 1.54 30 19:58 19.01.2022
5796 Rain 18 1015 100 10000 1.03 40 18:43 19.01.2022
5797 Clouds 19 1015 94 10000 2.06 60 17:49 19.01.2022
5798 Rain 19 1014 88 10000 2.06 330 16:57 19.01.2022
5799 Drizzle 20 1013 83 10000 4.63 330 14:42 19.01.2022
5800 Drizzle 20 1014 83 10000 3.09 270 12:43 19.01.2022
5801 Drizzle 20 1015 88 10000 2.06 310 11:42 19.01.2022
5802 Drizzle 19 1016 94 10000 3.6 310 10:37 19.01.2022
5803 Rain 21 1016 83 10000 5.66 320 09:34 19.01.2022
5804 Clouds 19 1016 94 10000 2.57 20 07:18 19.01.2022
5805 Drizzle 17 1017 100 10000 2.57 20 05:18 19.01.2022
5806 Clouds 17 1016 100 10000 1.03 0 23:20 18.01.2022
5807 Clouds 17 1016 100 10000 0.51 0 22:44 18.01.2022
5808 Rain 17 1017 100 10000 1.54 0 21:20 18.01.2022
5809 Rain 17 1017 100 10000 2.06 20 19:55 18.01.2022
5810 Thunderstorm 17 1017 100 10000 0.51 0 19:37 18.01.2022
5811 Thunderstorm 17 1017 100 6000 2.06 310 18:54 18.01.2022
5812 Thunderstorm 17 1016 100 8000 4.63 340 17:58 18.01.2022
5813 Rain 17 1013 98 7306 2.44 317 16:58 18.01.2022
5814 Thunderstorm 17 1014 100 8000 2.57 330 15:48 18.01.2022
5815 Thunderstorm 17 1014 100 8000 2.57 330 15:47 18.01.2022
5816 Thunderstorm 17 1014 100 8000 2.57 330 15:47 18.01.2022
5817 Thunderstorm 17 1014 100 8000 2.57 330 15:22 18.01.2022
5818 Thunderstorm 24 1014 65 10000 5.66 280 12:49 18.01.2022
5819 Rain 22 1015 73 10000 5.14 330 10:47 18.01.2022
5820 Rain 22 1016 73 10000 6.17 310 09:21 18.01.2022
5821 Rain 20 1016 78 10000 4.12 320 07:55 18.01.2022
5822 Rain 16 1016 100 8000 2.06 60 02:35 18.01.2022
5823 Rain 16 1016 100 8000 3.09 70 23:47 17.01.2022
5824 Rain 16 1017 100 6000 2.57 110 22:27 17.01.2022
5825 Thunderstorm 17 1017 94 8000 5.14 80 21:35 17.01.2022
5826 Thunderstorm 17 1017 100 10000 2.06 0 20:24 17.01.2022
5827 Thunderstorm 21 1015 78 10000 4.12 340 18:30 17.01.2022
5828 Thunderstorm 22 1015 73 10000 5.14 340 17:44 17.01.2022
5829 Rain 23 1014 69 10000 3.6 320 16:44 17.01.2022
5830 Rain 24 1013 69 10000 5.14 310 15:22 17.01.2022
5831 Rain 24 1012 69 10000 4.12 300 14:55 17.01.2022
5832 Rain 27 1012 54 10000 5.14 330 13:26 17.01.2022
5833 Rain 28 1013 51 10000 5.14 320 12:55 17.01.2022
5834 Rain 28 1013 54 10000 3.09 330 11:49 17.01.2022
5835 Rain 26 1015 61 10000 4.12 330 10:21 17.01.2022
5836 Rain 26 1015 61 10000 4.12 330 10:21 17.01.2022
5837 Rain 25 1015 65 10000 2.06 320 09:34 17.01.2022
5838 Rain 21 1016 78 10000 3.09 290 07:24 17.01.2022
5839 Rain 18 1014 100 10000 1.54 50 02:59 17.01.2022
5840 Rain 18 1015 94 10000 1.54 30 00:55 17.01.2022
5841 Rain 19 1015 94 10000 2.06 10 22:22 16.01.2022
5842 Rain 19 1016 88 10000 3.6 330 20:35 16.01.2022
5843 Rain 19 1015 94 10000 2.06 30 18:51 16.01.2022
5844 Rain 20 1014 88 10000 2.06 20 17:59 16.01.2022
5845 Rain 21 1013 78 10000 2.57 300 16:59 16.01.2022
5846 Rain 22 1013 73 10000 3.6 340 16:29 16.01.2022
5847 Thunderstorm 22 1012 78 10000 2.57 90 14:31 16.01.2022
5848 Rain 22 1012 78 10000 2.57 90 14:30 16.01.2022
5849 Rain 24 1012 65 10000 3.09 60 13:33 16.01.2022
5850 Thunderstorm 22 1013 78 10000 3.09 100 12:26 16.01.2022
5851 Thunderstorm 21 1014 83 10000 2.06 0 11:38 16.01.2022
5852 Thunderstorm 21 1015 83 4000 5.14 310 10:43 16.01.2022
5853 Rain 24 1015 69 10000 2.06 0 09:58 16.01.2022
5854 Rain 22 1015 78 10000 1.54 0 09:38 16.01.2022
5855 Rain 22 1015 78 10000 1.54 0 09:19 16.01.2022
5856 Clouds 18 1016 94 10000 1.54 0 07:19 16.01.2022
5857 Clouds 16 1014 100 10000 1.03 0 00:35 16.01.2022
5858 Drizzle 16 1014 100 9000 1.54 100 22:53 15.01.2022
5859 Drizzle 17 1016 100 8000 2.57 220 21:22 15.01.2022
5860 Clouds 18 1016 100 10000 1.54 270 20:45 15.01.2022
5861 Clouds 18 1016 100 10000 1.54 230 20:22 15.01.2022
5862 Thunderstorm 18 1014 100 10000 1.03 0 19:27 15.01.2022
5863 Thunderstorm 18 1014 100 10000 2.57 320 18:18 15.01.2022
5864 Rain 18 1014 100 10000 3.09 290 16:49 15.01.2022
5865 Rain 26 1012 57 10000 4.63 290 14:38 15.01.2022
5866 Rain 25 1013 61 10000 3.6 290 12:40 15.01.2022
5867 Rain 25 1014 61 10000 1.54 0 11:21 15.01.2022
5868 Drizzle 21 1015 83 10000 3.6 220 09:46 15.01.2022
5869 Clouds 18 1014 100 10000 0.51 0 01:27 15.01.2022
5870 Clouds 18 1015 94 10000 2.06 350 23:20 14.01.2022
5871 Rain 19 1017 88 10000 2.06 30 20:57 14.01.2022
5872 Rain 19 1017 83 10000 2.57 40 20:24 14.01.2022
5873 Rain 19 1017 88 10000 1.54 30 19:49 14.01.2022
5874 Rain 19 1016 83 10000 0.51 0 18:33 14.01.2022
5875 Rain 19 1016 77 10000 0 0 17:21 14.01.2022
5876 Rain 20 1015 73 10000 2.06 250 16:40 14.01.2022
5877 Rain 21 1015 64 10000 5.14 280 14:50 14.01.2022
5878 Rain 21 1015 64 10000 5.14 280 14:20 14.01.2022
5879 Rain 23 1016 53 10000 6.69 310 12:37 14.01.2022
5880 Rain 26 1016 50 10000 5.66 310 11:34 14.01.2022
5881 Clouds 24 1017 57 10000 6.69 300 10:22 14.01.2022
5882 Clouds 23 1012 68 10000 4.09 303 08:52 14.01.2022
5883 Clouds 23 1017 64 10000 4.12 280 07:27 14.01.2022
5884 Clouds 16 1013 98 10000 1.19 295 01:43 14.01.2022
5885 Clouds 16 1013 98 10000 1.26 286 23:39 13.01.2022
5886 Clouds 17 1015 97 10000 1.37 291 21:45 13.01.2022
5887 Clouds 17 1015 97 10000 0.74 295 21:27 13.01.2022
5888 Clouds 17 1015 97 10000 1.53 285 19:44 13.01.2022
5889 Clouds 17 1015 96 10000 2.27 289 19:22 13.01.2022
5890 Rain 18 1014 94 10000 2.57 285 17:56 13.01.2022
5891 Rain 18 1014 92 10000 3.5 272 16:43 13.01.2022
5892 Rain 19 1012 90 10000 4.79 275 15:38 13.01.2022
5893 Rain 20 1011 88 10000 5.06 280 14:50 13.01.2022
5894 Rain 20 1011 88 10000 5.06 280 14:50 13.01.2022
5895 Rain 22 1011 82 10000 5.89 282 12:54 13.01.2022
5896 Rain 25 1011 60 10000 3.36 295 10:25 13.01.2022
5897 Clouds 25 1012 63 10000 3.34 292 09:22 13.01.2022
5898 Clouds 23 1013 68 10000 3.19 288 08:28 13.01.2022
5899 Clouds 22 1014 76 10000 3.37 293 07:25 13.01.2022
5900 Clouds 21 1013 76 10000 3.85 297 06:41 13.01.2022
5901 Clouds 19 1015 89 10000 1.66 298 05:20 13.01.2022
5902 Rain 17 1014 95 10000 0.76 259 03:24 13.01.2022
5903 Clouds 17 1016 100 10000 3.09 300 00:56 13.01.2022
5904 Clouds 17 1017 100 10000 2.06 310 23:50 12.01.2022
5905 Rain 18 1018 100 10000 1.54 270 23:29 12.01.2022
5906 Drizzle 18 1019 100 10000 1.54 260 21:58 12.01.2022
5907 Drizzle 18 1020 100 10000 1.03 0 21:23 12.01.2022
5908 Drizzle 18 1020 100 10000 1.03 360 20:57 12.01.2022
5909 Rain 17 1020 100 8000 1.54 30 19:57 12.01.2022
5910 Rain 18 1020 100 8000 3.09 290 18:43 12.01.2022
5911 Thunderstorm 18 1019 100 10000 0 0 17:50 12.01.2022
5912 Rain 18 1018 100 8000 1.03 0 16:38 12.01.2022
5913 Thunderstorm 19 1016 100 8000 3.09 210 14:49 12.01.2022
5914 Rain 24 1016 69 10000 3.6 30 13:32 12.01.2022
5915 Thunderstorm 25 1016 57 10000 4.12 300 12:34 12.01.2022
5916 Rain 24 1018 69 10000 3.09 300 08:45 12.01.2022
5917 Clouds 23 1018 69 10000 2.57 330 07:52 12.01.2022
5918 Clouds 22 1018 68 10000 3.09 310 07:32 12.01.2022
5919 Rain 17 1017 100 10000 1.54 270 23:53 11.01.2022
5920 Rain 17 1017 100 10000 2.57 40 23:25 11.01.2022
5921 Rain 17 1018 100 10000 2.06 40 22:24 11.01.2022
5922 Rain 17 1019 100 10000 1.54 0 21:25 11.01.2022
5923 Thunderstorm 17 1019 100 10000 1.54 0 20:33 11.01.2022
5924 Thunderstorm 18 1018 88 10000 4.63 100 18:48 11.01.2022
5925 Thunderstorm 19 1018 83 10000 1.03 0 17:42 11.01.2022
5926 Thunderstorm 23 1015 69 10000 4.12 350 16:38 11.01.2022
5927 Rain 23 1015 69 10000 3.6 40 15:56 11.01.2022
5928 Rain 25 1014 44 10000 2.06 250 14:43 11.01.2022
5929 Rain 25 1014 44 10000 2.06 250 14:43 11.01.2022
5930 Rain 29 1014 35 10000 1.54 0 13:56 11.01.2022
5931 Rain 29 1014 37 10000 1.54 0 13:36 11.01.2022
5932 Rain 28 1015 42 10000 3.09 210 12:51 11.01.2022
5933 Rain 28 1015 42 10000 2.06 0 12:20 11.01.2022
5934 Clouds 26 1017 44 10000 1.54 0 10:24 11.01.2022
5935 Clouds 22 1018 64 10000 1.54 0 07:35 11.01.2022
5936 Clouds 17 1017 100 10000 2.06 100 00:43 11.01.2022
5937 Clouds 17 1017 94 10000 2.06 130 00:21 11.01.2022
5938 Clouds 17 1017 100 10000 0.51 150 23:28 10.01.2022
5939 Clouds 17 1018 100 10000 1.03 0 22:19 10.01.2022
5940 Clouds 17 1018 100 10000 1.03 0 21:54 10.01.2022
5941 Clouds 17 1018 100 10000 1.03 0 21:21 10.01.2022
5942 Clouds 17 1018 100 10000 2.06 180 20:57 10.01.2022
5943 Clouds 17 1018 100 10000 2.06 180 20:28 10.01.2022
5944 Drizzle 17 1018 100 8000 2.06 180 19:44 10.01.2022
5945 Drizzle 17 1018 100 10000 2.06 140 19:21 10.01.2022
5946 Drizzle 17 1018 100 10000 2.06 140 18:49 10.01.2022
5947 Drizzle 17 1018 100 10000 1.54 0 17:42 10.01.2022
5948 Rain 18 1017 94 8000 3.09 310 16:42 10.01.2022
5949 Thunderstorm 18 1017 94 8000 1.54 340 15:49 10.01.2022
5950 Thunderstorm 18 1016 94 5000 4.12 40 14:34 10.01.2022
5951 Rain 27 1015 51 10000 2.06 210 12:18 10.01.2022
5952 Clouds 26 1016 54 10000 3.6 170 11:25 10.01.2022
5953 Clouds 25 1016 57 10000 3.6 160 09:52 10.01.2022
5954 Clouds 21 1018 73 10000 4.12 170 07:31 10.01.2022
5955 Clouds 18 1018 88 10000 4.12 130 05:49 10.01.2022
5956 Clouds 17 1017 94 10000 2.06 140 01:31 10.01.2022
5957 Clouds 16 1017 100 10000 3.09 110 00:25 10.01.2022
5958 Rain 16 1017 94 10000 2.57 140 23:40 09.01.2022
5959 Clouds 17 1018 94 10000 3.09 120 22:40 09.01.2022
5960 Clouds 17 1018 94 10000 3.6 130 21:46 09.01.2022
5961 Clouds 18 1019 82 10000 5.14 140 21:24 09.01.2022
5962 Clouds 18 1019 82 10000 3.6 150 20:52 09.01.2022
5963 Clouds 19 1019 77 10000 4.63 140 20:34 09.01.2022
5964 Clouds 19 1018 77 10000 4.12 130 19:45 09.01.2022
5965 Rain 19 1018 83 10000 4.63 130 19:23 09.01.2022
5966 Rain 19 1018 83 10000 3.6 150 18:56 09.01.2022
5967 Rain 19 1018 83 10000 4.12 140 18:34 09.01.2022
5968 Rain 20 1017 78 10000 4.12 160 17:40 09.01.2022
5969 Rain 20 1017 78 10000 4.12 160 17:20 09.01.2022
5970 Rain 22 1016 64 10000 4.12 150 15:58 09.01.2022
5971 Rain 23 1016 60 10000 5.66 130 15:35 09.01.2022
5972 Thunderstorm 23 1016 64 10000 5.66 90 14:40 09.01.2022
5973 Rain 24 1016 61 10000 4.12 110 13:51 09.01.2022
5974 Clouds 24 1016 57 10000 2.57 120 13:22 09.01.2022
5975 Clouds 24 1017 61 10000 3.09 140 11:54 09.01.2022
5976 Clouds 23 1017 64 10000 3.6 190 10:53 09.01.2022
5977 Clouds 23 1018 64 10000 2.57 180 09:47 09.01.2022
5978 Clouds 22 1019 68 10000 3.09 160 08:51 09.01.2022
5979 Clouds 18 1019 88 10000 2.57 150 05:38 09.01.2022
5980 Clouds 18 1017 88 10000 4.12 110 01:24 09.01.2022
5981 Drizzle 18 1017 88 10000 4.12 110 23:47 08.01.2022
5982 Drizzle 18 1018 88 10000 4.12 130 23:26 08.01.2022
5983 Drizzle 18 1018 88 10000 5.66 120 22:28 08.01.2022
5984 Clouds 19 1019 83 10000 2.57 140 21:25 08.01.2022
5985 Clouds 19 1018 83 10000 5.14 140 20:42 08.01.2022
5986 Clouds 19 1018 83 10000 6.69 120 20:20 08.01.2022
5987 Drizzle 19 1019 88 10000 5.14 120 18:40 08.01.2022
5988 Rain 20 1018 78 10000 4.12 120 17:22 08.01.2022
5989 Rain 22 1017 68 10000 5.66 110 15:56 08.01.2022
5990 Rain 24 1015 61 10000 5.66 100 14:46 08.01.2022
5991 Rain 26 1016 50 10000 4.63 130 13:28 08.01.2022
5992 Clouds 26 1017 54 10000 4.12 100 11:28 08.01.2022
5993 Clouds 26 1018 54 10000 3.6 110 10:28 08.01.2022
5994 Clouds 26 1018 54 10000 3.6 130 09:48 08.01.2022
5995 Clouds 24 1019 61 10000 3.6 110 08:22 08.01.2022
5996 Clouds 17 1018 100 10000 1.54 110 03:31 08.01.2022
5997 Clouds 18 1018 94 10000 2.06 130 00:42 08.01.2022
5998 Clouds 19 1019 88 10000 3.09 90 22:49 07.01.2022
5999 Rain 19 1019 88 10000 5.66 100 21:18 07.01.2022
6000 Rain 19 1020 88 10000 3.6 90 20:19 07.01.2022
6001 Rain 19 1019 83 10000 5.14 110 19:23 07.01.2022
6002 Thunderstorm 19 1019 88 10000 4.63 120 18:44 07.01.2022
6003 Thunderstorm 20 1018 83 10000 5.14 120 17:28 07.01.2022
6004 Thunderstorm 21 1017 83 10000 6.17 90 16:39 07.01.2022
6005 Rain 27 1015 44 10000 2.57 240 13:56 07.01.2022
6006 Rain 27 1016 44 10000 3.09 200 13:38 07.01.2022
6007 Rain 29 1015 42 10000 2.57 0 12:49 07.01.2022
6008 Rain 24 1018 61 10000 1.54 70 09:37 07.01.2022
6009 Clouds 17 1017 94 10000 0.51 0 02:56 07.01.2022
6010 Clouds 17 1017 94 10000 2.06 200 01:54 07.01.2022
6011 Clouds 17 1017 94 10000 0.51 0 01:28 07.01.2022
6012 Clouds 17 1017 94 10000 0.51 0 00:58 07.01.2022
6013 Rain 17 1017 94 10000 2.06 140 23:53 06.01.2022
6014 Rain 17 1018 88 10000 4.12 100 21:28 06.01.2022
6015 Rain 18 1019 77 10000 3.6 150 20:22 06.01.2022
6016 Rain 19 1019 83 10000 4.12 140 19:45 06.01.2022
6017 Thunderstorm 18 1018 94 10000 1.03 0 18:29 06.01.2022
6018 Thunderstorm 18 1018 94 8000 3.6 210 17:40 06.01.2022
6019 Thunderstorm 20 1017 78 10000 3.09 130 16:44 06.01.2022
6020 Rain 21 1016 73 10000 3.09 190 15:47 06.01.2022
6021 Rain 23 1016 69 10000 3.6 290 15:26 06.01.2022
6022 Rain 24 1015 61 10000 4.63 300 14:45 06.01.2022
6023 Rain 25 1015 57 10000 3.09 260 14:18 06.01.2022
6024 Rain 25 1016 57 10000 4.12 290 12:50 06.01.2022
6025 Rain 26 1017 57 10000 4.12 290 11:43 06.01.2022
6026 Rain 24 1017 65 10000 4.63 300 11:22 06.01.2022
6027 Rain 21 1019 78 10000 2.57 250 08:51 06.01.2022
6028 Rain 17 1018 100 10000 0.51 0 00:53 06.01.2022
6029 Drizzle 17 1019 100 10000 1.03 0 23:37 05.01.2022
6030 Drizzle 17 1020 100 10000 1.03 0 22:56 05.01.2022
6031 Drizzle 17 1020 100 10000 1.54 0 22:31 05.01.2022
6032 Drizzle 17 1021 100 10000 1.54 70 21:47 05.01.2022
6033 Rain 17 1021 100 10000 1.03 50 20:50 05.01.2022
6034 Rain 17 1021 100 4000 2.06 60 20:18 05.01.2022
6035 Thunderstorm 18 1020 100 8000 2.06 90 18:42 05.01.2022
6036 Thunderstorm 19 1019 94 8000 0 0 17:23 05.01.2022
6037 Thunderstorm 19 1018 94 8000 1.54 0 16:38 05.01.2022
6038 Thunderstorm 19 1018 94 8000 2.06 140 15:20 05.01.2022
6039 Thunderstorm 20 1017 88 7000 3.09 140 13:51 05.01.2022
6040 Rain 23 1017 78 10000 0.51 0 12:51 05.01.2022
6041 Rain 26 1019 57 10000 2.06 20 09:30 05.01.2022
6042 Rain 23 1021 69 10000 2.06 10 07:42 05.01.2022
6043 Clouds 19 1021 88 10000 1.03 90 04:58 05.01.2022
6044 Clouds 18 1019 94 10000 2.06 100 00:44 05.01.2022
6045 Clouds 18 1019 94 10000 2.06 150 23:27 04.01.2022
6046 Clouds 18 1019 94 10000 2.57 100 22:40 04.01.2022
6047 Clouds 19 1020 94 10000 3.09 90 21:18 04.01.2022
6048 Clouds 19 1019 100 10000 1.54 70 19:20 04.01.2022
6049 Clouds 19 1018 100 10000 1.54 0 17:44 04.01.2022
6050 Rain 19 1018 94 10000 1.54 0 16:42 04.01.2022
6051 Rain 19 1018 94 10000 0 0 16:23 04.01.2022
6052 Thunderstorm 19 1017 100 10000 4.12 320 14:53 04.01.2022
6053 Thunderstorm 18 1017 100 10000 4.12 320 14:34 04.01.2022
6054 Thunderstorm 18 1017 94 10000 5.14 270 13:27 04.01.2022
6055 Rain 26 1018 54 10000 2.06 0 10:41 04.01.2022
6056 Rain 27 1019 57 10000 1.54 0 09:20 04.01.2022
6057 Rain 25 1020 61 10000 1.03 0 08:28 04.01.2022
6058 Clouds 18 1018 88 10000 2.57 110 02:28 04.01.2022
6059 Clouds 18 1018 94 10000 3.6 80 00:40 04.01.2022
6060 Rain 19 1018 88 10000 4.63 110 23:18 03.01.2022
6061 Thunderstorm 19 1019 88 10000 4.12 120 21:50 03.01.2022
6062 Thunderstorm 19 1019 94 10000 4.63 110 21:32 03.01.2022
6063 Rain 19 1019 88 10000 2.57 200 19:47 03.01.2022
6064 Thunderstorm 20 1019 83 10000 5.66 200 18:47 03.01.2022
6065 Thunderstorm 21 1018 83 10000 1.54 0 18:24 03.01.2022
6066 Rain 21 1016 83 10000 3.09 50 16:58 03.01.2022
6067 Thunderstorm 20 1015 78 10000 4.63 60 14:55 03.01.2022
6068 Thunderstorm 20 1015 88 8000 8.23 60 14:30 03.01.2022
6069 Rain 28 1015 48 10000 2.57 80 12:39 03.01.2022
6070 Rain 28 1016 48 10000 2.06 0 11:34 03.01.2022
6071 Rain 27 1017 54 10000 2.06 90 10:25 03.01.2022
6072 Rain 25 1018 57 10000 2.57 60 08:47 03.01.2022
6073 Rain 22 1019 73 10000 1.03 0 07:32 03.01.2022
6074 Clouds 18 1017 100 10000 1.03 0 23:54 02.01.2022
6075 Clouds 18 1017 94 10000 0 0 23:18 02.01.2022
6076 Clouds 17 1017 100 10000 1.03 0 22:43 02.01.2022
6077 Clouds 17 1018 100 10000 0 0 21:38 02.01.2022
6078 Clouds 18 1018 94 10000 3.09 90 20:31 02.01.2022
6079 Drizzle 18 1018 94 10000 4.12 110 19:52 02.01.2022
6080 Drizzle 19 1018 83 10000 5.66 130 19:25 02.01.2022
6081 Thunderstorm 20 1018 78 10000 4.12 110 18:33 02.01.2022
6082 Thunderstorm 20 1017 78 10000 3.09 80 17:43 02.01.2022
6083 Thunderstorm 20 1017 73 10000 3.09 60 17:21 02.01.2022
6084 Rain 22 1016 73 10000 2.06 20 16:33 02.01.2022
6085 Thunderstorm 22 1015 68 10000 3.09 50 15:51 02.01.2022
6086 Rain 26 1014 54 10000 8.75 240 13:58 02.01.2022
6087 Rain 29 1015 45 10000 2.57 0 12:34 02.01.2022
6088 Rain 29 1016 45 10000 2.06 190 11:56 02.01.2022
6089 Rain 28 1017 51 10000 1.54 0 10:59 02.01.2022
6090 Rain 25 1017 57 10000 1.54 20 10:26 02.01.2022
6091 Clouds 26 1019 61 10000 2.57 170 08:22 02.01.2022
6092 Clouds 17 1017 100 10000 0 0 02:58 02.01.2022
6093 Clouds 17 1018 100 10000 2.06 290 23:55 01.01.2022
6094 Clouds 17 1018 100 10000 2.06 300 23:36 01.01.2022
6095 Rain 17 1018 100 10000 1.54 360 22:41 01.01.2022
6096 Rain 17 1018 100 10000 2.57 300 22:18 01.01.2022
6097 Rain 17 1019 100 10000 1.03 280 21:42 01.01.2022
6098 Rain 17 1019 100 10000 2.06 200 20:50 01.01.2022
6099 Thunderstorm 17 1019 100 10000 2.57 310 19:55 01.01.2022
6100 Thunderstorm 18 1019 94 10000 2.06 230 18:53 01.01.2022
6101 Thunderstorm 19 1019 88 10000 8.23 220 17:46 01.01.2022
6102 Thunderstorm 20 1017 94 10000 1.54 30 16:35 01.01.2022
6103 Thunderstorm 20 1017 88 8000 3.09 60 15:50 01.01.2022
6104 Rain 22 1016 73 10000 3.09 310 14:40 01.01.2022
6105 Rain 24 1016 61 10000 3.6 250 13:42 01.01.2022
6106 Rain 28 1016 45 10000 2.06 330 12:26 01.01.2022
6107 Rain 28 1016 48 10000 4.12 300 11:46 01.01.2022
6108 Rain 28 1017 51 10000 3.09 0 11:18 01.01.2022
6109 Rain 27 1018 51 10000 2.57 300 09:48 01.01.2022
6110 Clouds 25 1019 65 10000 1.54 0 08:49 01.01.2022
6111 Clouds 25 1019 57 10000 2.06 0 08:21 01.01.2022
6112 Clouds 22 1020 73 10000 1.54 0 07:40 01.01.2022
6113 Clouds 22 1020 73 10000 2.06 70 06:44 01.01.2022
6114 Clouds 19 1019 94 10000 2.57 60 05:25 01.01.2022
6115 Clouds 17 1019 100 10000 1.54 60 04:36 01.01.2022
6116 Rain 17 1018 100 10000 1.03 0 00:25 01.01.2022
6117 Thunderstorm 17 1020 100 8000 2.06 240 22:34 31.12.2021
6118 Thunderstorm 17 1020 100 8000 2.57 270 21:47 31.12.2021
6119 Thunderstorm 17 1021 100 2500 4.12 100 19:56 31.12.2021
6120 Thunderstorm 19 1020 94 6000 1.54 0 19:28 31.12.2021
6121 Thunderstorm 19 1018 88 10000 4.63 310 18:18 31.12.2021
6122 Rain 20 1018 83 10000 5.14 270 17:37 31.12.2021
6123 Rain 22 1018 73 10000 7.2 300 16:56 31.12.2021
6124 Rain 24 1017 65 10000 2.06 30 16:18 31.12.2021
6125 Rain 25 1016 57 10000 3.09 40 15:50 31.12.2021
6126 Rain 26 1016 54 10000 2.57 50 15:27 31.12.2021
6127 Rain 27 1016 51 10000 4.12 40 14:41 31.12.2021
6128 Rain 29 1016 45 10000 2.06 0 13:56 31.12.2021
6129 Clouds 28 1016 48 10000 2.57 0 12:54 31.12.2021
6130 Clouds 27 1017 51 10000 2.06 80 12:26 31.12.2021
6131 Clouds 27 1017 47 10000 2.06 0 11:42 31.12.2021
6132 Clouds 27 1018 54 10000 3.09 160 10:56 31.12.2021
6133 Clouds 26 1019 50 10000 1.03 0 10:28 31.12.2021
6134 Clouds 24 1019 57 10000 2.06 0 09:35 31.12.2021
6135 Clouds 25 1019 57 10000 1.54 0 08:54 31.12.2021
6136 Clouds 24 1020 61 10000 2.06 50 07:59 31.12.2021
6137 Clouds 18 1019 100 10000 1.54 0 04:55 31.12.2021
6138 Clouds 18 1018 100 10000 1.03 0 23:18 30.12.2021
6139 Clouds 18 1018 100 10000 1.54 50 22:32 30.12.2021
6140 Clouds 18 1019 100 10000 1.03 40 21:39 30.12.2021
6141 Rain 18 1019 100 10000 1.03 40 21:19 30.12.2021
6142 Rain 18 1019 100 10000 1.03 90 20:40 30.12.2021
6143 Thunderstorm 18 1019 100 10000 2.06 120 19:56 30.12.2021
6144 Thunderstorm 18 1019 100 10000 2.06 170 19:34 30.12.2021
6145 Thunderstorm 18 1019 100 8000 1.54 0 18:28 30.12.2021
6146 Thunderstorm 16 1018 100 4500 4.12 240 16:53 30.12.2021
6147 Thunderstorm 19 1017 88 3000 5.66 280 15:54 30.12.2021
6148 Rain 25 1016 53 10000 2.06 20 15:21 30.12.2021
6149 Rain 27 1016 47 10000 2.57 50 14:36 30.12.2021
6150 Rain 28 1016 42 10000 2.57 30 13:26 30.12.2021
6151 Rain 27 1017 47 10000 2.06 50 11:58 30.12.2021
6152 Rain 27 1018 47 10000 1.03 0 10:40 30.12.2021
6153 Clouds 26 1019 50 10000 2.06 60 09:49 30.12.2021
6154 Clouds 23 1020 64 10000 1.54 140 07:25 30.12.2021
6155 Clouds 21 1019 73 10000 2.06 90 06:32 30.12.2021
6156 Clouds 18 1018 88 10000 3.09 110 03:41 30.12.2021
6157 Clouds 17 1017 94 10000 3.09 90 02:32 30.12.2021
6158 Clouds 18 1018 88 10000 1.03 80 23:39 29.12.2021
6159 Clouds 19 1019 88 10000 2.57 90 22:55 29.12.2021
6160 Clouds 19 1019 88 10000 2.57 90 22:18 29.12.2021
6161 Clouds 19 1020 88 10000 1.54 160 20:59 29.12.2021
6162 Clouds 19 1020 88 10000 1.54 160 20:30 29.12.2021
6163 Rain 19 1020 88 10000 1.54 0 19:43 29.12.2021
6164 Rain 19 1019 83 10000 3.09 110 18:44 29.12.2021
6165 Thunderstorm 20 1018 78 10000 3.6 130 17:52 29.12.2021
6166 Thunderstorm 20 1018 83 10000 4.12 90 17:27 29.12.2021
6167 Rain 21 1017 73 10000 6.17 90 16:22 29.12.2021
6168 Rain 24 1016 65 10000 7.72 80 15:26 29.12.2021
6169 Rain 25 1015 65 10000 6.17 110 13:53 29.12.2021
6170 Rain 25 1017 61 10000 5.66 100 12:36 29.12.2021
6171 Rain 24 1017 69 10000 5.14 130 11:26 29.12.2021
6172 Clouds 26 1018 61 10000 5.14 110 09:46 29.12.2021
6173 Clouds 24 1019 69 10000 2.57 120 07:47 29.12.2021
6174 Clouds 20 1019 88 10000 2.06 160 06:37 29.12.2021
6175 Clouds 19 1019 88 10000 2.57 130 05:57 29.12.2021
6176 Clouds 19 1019 94 10000 1.54 0 05:30 29.12.2021
6177 Clouds 18 1018 94 10000 1.54 150 01:45 29.12.2021
6178 Clouds 18 1019 100 10000 2.06 200 00:00 29.12.2021
6179 Rain 18 1019 100 10000 2.57 190 23:18 28.12.2021
6180 Rain 18 1019 100 10000 1.03 180 22:26 28.12.2021
6181 Rain 18 1019 100 10000 0.51 170 21:57 28.12.2021
6182 Rain 18 1020 100 10000 1.54 190 21:35 28.12.2021
6183 Rain 18 1021 100 10000 1.03 210 20:35 28.12.2021
6184 Thunderstorm 18 1020 100 10000 1.03 340 18:59 28.12.2021
6185 Thunderstorm 18 1020 100 10000 0.51 0 18:29 28.12.2021
6186 Thunderstorm 18 1020 100 10000 1.54 0 17:48 28.12.2021
6187 Thunderstorm 18 1018 100 10000 2.57 190 16:29 28.12.2021
6188 Thunderstorm 18 1018 100 10000 1.03 0 15:45 28.12.2021
6189 Thunderstorm 18 1018 100 6000 2.06 230 15:19 28.12.2021
6190 Thunderstorm 18 1018 100 3000 2.06 100 14:45 28.12.2021
6191 Rain 19 1018 88 4500 6.17 80 14:20 28.12.2021
6192 Rain 24 1017 69 8000 6.69 310 13:38 28.12.2021
6193 Rain 24 1017 69 10000 5.66 290 12:57 28.12.2021
6194 Rain 28 1017 48 10000 3.6 230 12:38 28.12.2021
6195 Rain 28 1018 48 10000 2.06 190 11:27 28.12.2021
6196 Clouds 23 1021 73 10000 1.54 0 07:40 28.12.2021
6197 Clouds 21 1021 88 10000 2.06 150 06:40 28.12.2021
6198 Rain 18 1019 100 10000 1.03 190 23:42 27.12.2021
6199 Rain 18 1020 100 10000 1.54 150 22:53 27.12.2021
6200 Thunderstorm 18 1020 100 10000 1.03 0 21:33 27.12.2021
6201 Rain 18 1021 100 8000 1.54 0 20:45 27.12.2021
6202 Rain 18 1021 100 4000 2.06 100 19:56 27.12.2021
6203 Thunderstorm 18 1021 100 4000 1.54 0 19:38 27.12.2021
6204 Thunderstorm 20 1020 94 8000 2.06 10 17:55 27.12.2021
6205 Thunderstorm 20 1020 88 8000 2.06 150 17:29 27.12.2021
6206 Thunderstorm 22 1018 73 10000 3.6 180 16:32 27.12.2021
6207 Rain 23 1018 69 10000 4.12 170 15:50 27.12.2021
6208 Rain 28 1017 48 10000 2.57 90 14:29 27.12.2021
6209 Rain 29 1017 45 10000 1.54 0 13:38 27.12.2021
6210 Rain 28 1018 48 10000 1.54 0 11:41 27.12.2021
6211 Clouds 25 1020 57 10000 2.57 60 10:28 27.12.2021
6212 Clouds 24 1020 65 10000 4.12 60 09:38 27.12.2021
6213 Clouds 23 1021 69 10000 3.09 70 07:35 27.12.2021
6214 Clouds 20 1021 83 10000 3.6 80 06:30 27.12.2021
6215 Clouds 17 1019 100 10000 2.06 140 01:59 27.12.2021
6216 Rain 17 1020 100 10000 1.54 200 23:52 26.12.2021
6217 Rain 17 1020 100 10000 1.54 0 23:34 26.12.2021
6218 Drizzle 17 1022 100 10000 0 0 21:48 26.12.2021
6219 Rain 17 1022 100 10000 1.54 80 20:31 26.12.2021
6220 Thunderstorm 17 1022 100 6000 3.6 60 19:27 26.12.2021
6221 Rain 16 1022 100 4000 3.6 90 18:23 26.12.2021
6222 Thunderstorm 21 1019 78 10000 2.57 20 15:55 26.12.2021
6223 Thunderstorm 23 1018 83 10000 4.12 130 13:52 26.12.2021
6224 Thunderstorm 25 1017 65 10000 4.12 150 13:32 26.12.2021
6225 Clouds 29 1018 39 10000 3.09 350 12:38 26.12.2021
6226 Clouds 30 1018 40 10000 3.6 30 11:58 26.12.2021
6227 Clouds 28 1019 48 10000 2.06 10 09:52 26.12.2021
6228 Clouds 28 1020 45 10000 2.06 140 09:18 26.12.2021
6229 Clouds 28 1021 48 10000 2.06 200 08:39 26.12.2021
6230 Clouds 25 1021 57 10000 2.06 150 06:47 26.12.2021
6231 Clouds 18 1019 88 10000 0 0 00:58 26.12.2021
6232 Clouds 18 1019 88 10000 1.03 90 23:50 25.12.2021
6233 Clouds 19 1019 83 10000 1.03 70 23:26 25.12.2021
6234 Clouds 19 1020 83 10000 0.51 0 22:22 25.12.2021
6235 Thunderstorm 19 1021 83 10000 1.54 70 20:48 25.12.2021
6236 Thunderstorm 20 1021 78 10000 3.09 170 19:21 25.12.2021
6237 Thunderstorm 21 1021 78 10000 4.63 100 18:54 25.12.2021
6238 Thunderstorm 25 1019 57 10000 3.6 40 17:28 25.12.2021
6239 Clouds 29 1018 32 10000 3.09 270 16:18 25.12.2021
6240 Clouds 32 1016 24 10000 5.14 250 14:38 25.12.2021
6241 Clouds 32 1016 33 10000 4.12 310 12:48 25.12.2021
6242 Clouds 30 1018 35 10000 1.54 0 11:37 25.12.2021
6243 Rain 30 1019 40 10000 1.54 0 09:49 25.12.2021
6244 Clouds 26 1021 61 10000 2.06 160 07:54 25.12.2021
6245 Clouds 18 1018 100 10000 0 0 02:18 25.12.2021
6246 Clouds 19 1018 100 10000 2.06 60 00:30 25.12.2021
6247 Rain 19 1019 100 10000 0.51 0 22:40 24.12.2021
6248 Rain 21 1019 83 10000 3.09 320 19:38 24.12.2021
6249 Rain 21 1019 83 10000 3.09 320 19:19 24.12.2021
6250 Rain 21 1018 78 6000 5.66 360 16:50 24.12.2021
6251 Thunderstorm 21 1017 78 8000 3.6 230 15:54 24.12.2021
6252 Thunderstorm 22 1017 73 8000 7.2 260 15:34 24.12.2021
6253 Rain 30 1015 42 10000 5.14 340 14:40 24.12.2021
6254 Rain 30 1015 42 10000 5.14 340 14:19 24.12.2021
6255 Rain 30 1015 45 10000 7.2 360 13:34 24.12.2021
6256 Rain 31 1016 37 10000 4.63 320 12:47 24.12.2021
6257 Clouds 31 1017 40 10000 2.57 310 11:52 24.12.2021
6258 Clouds 31 1017 40 10000 3.09 270 11:26 24.12.2021
6259 Clouds 31 1017 43 10000 2.06 0 10:46 24.12.2021
6260 Clouds 29 1019 48 10000 2.06 0 09:33 24.12.2021
6261 Clouds 27 1019 54 10000 2.06 0 08:23 24.12.2021
6262 Clouds 27 1019 51 10000 1.54 0 07:47 24.12.2021
6263 Clouds 17 1017 94 10000 1.54 60 02:33 24.12.2021
6264 Clouds 18 1017 88 10000 1.54 0 23:56 23.12.2021
6265 Clouds 18 1018 82 10000 2.06 320 22:58 23.12.2021
6266 Clouds 18 1018 82 10000 3.09 310 22:37 23.12.2021
6267 Clouds 18 1018 82 10000 3.09 310 22:18 23.12.2021
6268 Clouds 19 1019 77 10000 2.57 320 20:56 23.12.2021
6269 Clouds 20 1019 73 10000 2.57 310 20:18 23.12.2021
6270 Clouds 20 1019 73 10000 2.57 310 20:18 23.12.2021
6271 Rain 22 1018 64 10000 2.06 320 18:35 23.12.2021
6272 Rain 23 1018 60 10000 2.06 300 17:56 23.12.2021
6273 Clouds 25 1017 50 10000 4.12 300 16:43 23.12.2021
6274 Clouds 27 1017 42 10000 4.63 300 16:23 23.12.2021
6275 Clouds 28 1017 39 10000 6.69 300 15:31 23.12.2021
6276 Clouds 29 1016 37 10000 6.17 290 14:49 23.12.2021
6277 Clouds 29 1016 39 10000 7.2 300 14:30 23.12.2021
6278 Clouds 29 1017 39 10000 7.72 300 12:53 23.12.2021
6279 Clouds 29 1019 39 10000 7.72 300 10:44 23.12.2021
6280 Clouds 28 1019 42 10000 6.69 290 09:35 23.12.2021
6281 Clouds 27 1019 47 10000 6.69 300 08:59 23.12.2021
6282 Clouds 23 1020 73 10000 4.12 290 06:51 23.12.2021
6283 Clouds 18 1018 100 10000 2.57 280 04:30 23.12.2021
6284 Clouds 18 1018 94 10000 0.51 0 22:57 22.12.2021
6285 Clouds 18 1018 94 10000 1.03 0 22:39 22.12.2021
6286 Clouds 19 1019 88 10000 1.54 330 21:54 22.12.2021
6287 Clouds 19 1019 88 10000 1.54 330 21:29 22.12.2021
6288 Clouds 19 1019 88 10000 2.06 310 20:44 22.12.2021
6289 Clouds 20 1019 83 10000 1.54 340 20:25 22.12.2021
6290 Clouds 20 1019 83 10000 1.54 300 19:19 22.12.2021
6291 Clouds 22 1018 68 10000 1.54 330 17:42 22.12.2021
6292 Clouds 25 1017 53 10000 5.14 320 16:38 22.12.2021
6293 Clouds 26 1016 54 10000 4.63 300 15:39 22.12.2021
6294 Clouds 30 1016 42 10000 5.14 350 13:32 22.12.2021
6295 Clouds 28 1016 51 10000 4.12 360 12:31 22.12.2021
6296 Rain 24 1019 69 10000 2.57 340 09:53 22.12.2021
6297 Clouds 25 1019 65 10000 3.09 360 09:33 22.12.2021
6298 Clouds 21 1020 83 10000 4.12 20 07:22 22.12.2021
6299 Clouds 20 1020 88 10000 3.09 60 05:41 22.12.2021
6300 Clouds 19 1020 94 10000 2.06 40 05:22 22.12.2021
6301 Clouds 18 1020 100 10000 2.06 50 04:47 22.12.2021
6302 Clouds 17 1019 100 10000 2.06 20 04:22 22.12.2021
6303 Clouds 17 1019 100 10000 3.09 40 03:32 22.12.2021
6304 Clouds 17 1018 100 10000 1.03 90 00:29 22.12.2021
6305 Rain 17 1019 100 10000 2.06 60 22:51 21.12.2021
6306 Rain 18 1020 94 10000 2.06 60 22:27 21.12.2021
6307 Rain 17 1020 100 10000 3.09 40 21:43 21.12.2021
6308 Rain 17 1021 100 10000 3.6 10 20:53 21.12.2021
6309 Rain 17 1021 100 10000 2.06 20 20:20 21.12.2021
6310 Thunderstorm 18 1021 100 10000 2.57 50 19:41 21.12.2021
6311 Thunderstorm 18 1020 100 10000 5.14 300 18:38 21.12.2021
6312 Thunderstorm 19 1019 94 10000 2.06 160 18:00 21.12.2021
6313 Thunderstorm 19 1019 94 10000 2.06 160 17:40 21.12.2021
6314 Thunderstorm 19 1018 88 10000 5.14 340 15:47 21.12.2021
6315 Thunderstorm 20 1018 83 10000 5.66 320 15:19 21.12.2021
6316 Rain 29 1017 39 10000 3.09 310 13:47 21.12.2021
6317 Rain 30 1017 40 10000 5.14 300 13:29 21.12.2021
6318 Rain 27 1019 51 10000 2.57 0 10:56 21.12.2021
6319 Rain 26 1020 50 10000 1.54 0 09:59 21.12.2021
6320 Rain 24 1020 65 10000 1.54 0 09:18 21.12.2021
6321 Clouds 23 1022 69 10000 1.54 60 07:54 21.12.2021
6322 Rain 23 1022 69 10000 2.06 0 07:25 21.12.2021
6323 Rain 18 1021 100 10000 1.54 60 04:56 21.12.2021
6324 Clouds 17 1019 100 10000 0.51 0 02:39 21.12.2021
6325 Rain 18 1020 100 10000 1.03 0 23:58 20.12.2021
6326 Drizzle 18 1020 100 10000 2.57 150 22:49 20.12.2021
6327 Drizzle 18 1021 100 10000 3.09 110 22:28 20.12.2021
6328 Drizzle 18 1021 100 10000 2.57 70 21:42 20.12.2021
6329 Clouds 18 1022 100 10000 2.57 60 21:22 20.12.2021
6330 Thunderstorm 18 1022 100 10000 2.57 70 20:41 20.12.2021
6331 Thunderstorm 18 1021 100 10000 2.57 90 19:40 20.12.2021
6332 Thunderstorm 18 1020 100 10000 2.57 130 19:20 20.12.2021
6333 Thunderstorm 18 1020 100 3500 3.09 170 18:35 20.12.2021
6334 Thunderstorm 18 1020 100 4500 2.06 170 17:52 20.12.2021
6335 Thunderstorm 20 1018 88 10000 4.12 350 16:53 20.12.2021
6336 Rain 19 1018 94 10000 5.14 10 16:35 20.12.2021
6337 Thunderstorm 19 1018 83 7000 6.69 300 15:43 20.12.2021
6338 Thunderstorm 23 1017 60 10000 7.2 260 14:40 20.12.2021
6339 Rain 25 1017 57 10000 5.14 10 12:41 20.12.2021
6340 Rain 27 1018 47 10000 3.6 320 10:51 20.12.2021
6341 Rain 28 1019 45 10000 1.54 0 09:44 20.12.2021
6342 Rain 26 1020 50 10000 2.57 90 08:56 20.12.2021
6343 Rain 26 1020 57 10000 1.54 0 08:38 20.12.2021
6344 Rain 26 1020 54 10000 2.57 110 07:44 20.12.2021
6345 Clouds 24 1020 61 10000 3.09 100 06:39 20.12.2021
6346 Clouds 19 1018 88 10000 2.57 70 02:32 20.12.2021
6347 Rain 18 1018 94 10000 3.09 120 23:37 19.12.2021
6348 Rain 18 1018 94 10000 3.09 90 22:44 19.12.2021
6349 Rain 19 1019 88 10000 3.6 90 21:44 19.12.2021
6350 Rain 19 1019 88 10000 3.09 120 21:25 19.12.2021
6351 Rain 19 1019 88 10000 4.63 100 20:24 19.12.2021
6352 Rain 20 1019 78 10000 3.6 120 19:43 19.12.2021
6353 Rain 22 1018 60 10000 1.54 240 18:50 19.12.2021
6354 Clouds 23 1018 53 10000 2.57 270 17:54 19.12.2021
6355 Clouds 24 1017 50 10000 3.6 270 17:35 19.12.2021
6356 Clouds 25 1016 50 10000 5.14 270 16:45 19.12.2021
6357 Rain 27 1016 42 10000 6.69 290 15:56 19.12.2021
6358 Clouds 27 1015 42 10000 6.17 290 15:25 19.12.2021
6359 Clouds 27 1015 42 10000 6.17 290 14:48 19.12.2021
6360 Clouds 28 1015 28 10000 6.17 290 13:38 19.12.2021
6361 Clouds 28 1015 39 10000 6.69 280 12:59 19.12.2021
6362 Clouds 31 1015 33 10000 7.72 310 12:32 19.12.2021
6363 Clouds 30 1016 35 10000 5.14 270 11:38 19.12.2021
6364 Clouds 30 1017 35 10000 4.63 270 10:50 19.12.2021
6365 Clouds 29 1017 39 10000 3.6 0 10:22 19.12.2021
6366 Clouds 27 1018 47 10000 2.57 0 08:51 19.12.2021
6367 Clouds 24 1018 65 10000 1.54 0 06:54 19.12.2021
6368 Clouds 17 1017 100 10000 2.57 300 02:30 19.12.2021
6369 Clouds 18 1017 94 10000 3.6 280 00:55 19.12.2021
6370 Clouds 18 1018 88 10000 3.6 280 23:21 18.12.2021
6371 Clouds 19 1019 83 10000 3.6 310 22:28 18.12.2021
6372 Clouds 19 1019 83 10000 4.12 290 21:44 18.12.2021
6373 Clouds 20 1019 78 10000 3.6 310 21:26 18.12.2021
6374 Clouds 20 1019 78 10000 4.63 310 20:43 18.12.2021
6375 Clouds 20 1019 73 10000 4.12 310 19:38 18.12.2021
6376 Clouds 21 1018 73 10000 1.54 20 18:25 18.12.2021
6377 Clouds 21 1018 73 10000 2.57 300 17:49 18.12.2021
6378 Clouds 22 1017 64 10000 3.6 260 16:50 18.12.2021
6379 Clouds 23 1016 64 10000 4.63 260 16:21 18.12.2021
6380 Clouds 24 1015 61 10000 7.72 290 15:24 18.12.2021
6381 Clouds 26 1014 44 10000 6.69 280 13:58 18.12.2021
6382 Clouds 29 1016 39 10000 5.66 290 11:57 18.12.2021
6383 Clouds 28 1017 42 10000 2.57 0 09:59 18.12.2021
6384 Clouds 27 1018 44 10000 2.06 0 09:32 18.12.2021
6385 Clouds 26 1018 50 10000 1.54 0 08:36 18.12.2021
6386 Clouds 23 1019 60 10000 1.03 0 07:24 18.12.2021
6387 Clouds 17 1018 100 10000 2.06 320 01:46 18.12.2021
6388 Clouds 17 1019 100 10000 1.03 0 23:51 17.12.2021
6389 Clouds 17 1019 100 10000 1.54 90 22:39 17.12.2021
6390 Thunderstorm 17 1020 100 10000 3.09 310 21:31 17.12.2021
6391 Thunderstorm 17 1021 100 10000 4.12 330 20:43 17.12.2021
6392 Thunderstorm 20 1020 68 10000 3.09 330 19:56 17.12.2021
6393 Clouds 21 1019 64 10000 1.54 0 18:40 17.12.2021
6394 Clouds 21 1018 60 10000 1.03 0 17:50 17.12.2021
6395 Clouds 21 1018 64 10000 1.03 0 16:53 17.12.2021
6396 Clouds 22 1017 60 10000 3.6 290 16:27 17.12.2021
6397 Clouds 23 1017 53 10000 3.6 250 15:38 17.12.2021
6398 Thunderstorm 23 1016 53 10000 3.09 290 14:42 17.12.2021
6399 Clouds 26 1016 39 10000 2.57 220 13:45 17.12.2021
6400 Clouds 30 1017 30 10000 4.63 210 12:36 17.12.2021
6401 Clouds 29 1018 32 10000 4.12 200 10:42 17.12.2021
6402 Clouds 27 1019 42 10000 2.06 0 09:47 17.12.2021
6403 Clouds 25 1021 47 10000 2.06 0 08:31 17.12.2021
6404 Clouds 23 1021 57 10000 1.54 0 07:30 17.12.2021
6405 Clouds 17 1021 82 10000 0.51 0 04:40 17.12.2021
6406 Clouds 15 1020 88 10000 4.12 80 00:22 17.12.2021
6407 Clouds 16 1018 93 10000 1.65 120 22:24 16.12.2021
6408 Clouds 17 1022 82 10000 3.09 130 21:51 16.12.2021
6409 Clouds 17 1022 82 10000 3.09 130 21:33 16.12.2021
6410 Clouds 17 1022 82 10000 4.12 110 20:31 16.12.2021
6411 Rain 17 1022 82 10000 5.66 110 19:51 16.12.2021
6412 Rain 19 1022 77 10000 5.66 100 18:41 16.12.2021
6413 Rain 19 1021 73 10000 6.17 120 17:57 16.12.2021
6414 Rain 19 1021 73 10000 6.69 110 17:31 16.12.2021
6415 Rain 21 1020 64 10000 7.72 110 16:23 16.12.2021
6416 Rain 23 1019 57 10000 7.72 120 14:54 16.12.2021
6417 Rain 24 1018 53 10000 5.14 120 13:43 16.12.2021
6418 Clouds 27 1020 44 10000 2.57 180 11:46 16.12.2021
6419 Clouds 25 1020 50 10000 3.09 90 11:18 16.12.2021
6420 Clouds 24 1021 57 10000 3.09 120 10:27 16.12.2021
6421 Clouds 22 1022 60 10000 3.09 90 08:37 16.12.2021
6422 Clouds 19 1022 73 10000 3.09 110 06:22 16.12.2021
6423 Clouds 15 1020 94 10000 2.57 120 02:54 16.12.2021
6424 Clouds 16 1021 88 10000 2.57 120 23:35 15.12.2021
6425 Clouds 16 1021 88 10000 2.06 150 22:44 15.12.2021
6426 Clouds 17 1021 82 10000 4.12 110 21:57 15.12.2021
6427 Clouds 17 1021 82 10000 4.63 110 21:27 15.12.2021
6428 Clouds 18 1022 82 10000 3.09 140 20:19 15.12.2021
6429 Clouds 18 1021 82 10000 4.63 110 19:51 15.12.2021
6430 Rain 19 1020 73 10000 5.66 100 18:38 15.12.2021
6431 Rain 20 1020 68 10000 7.2 110 17:55 15.12.2021
6432 Rain 21 1020 56 10000 6.69 110 17:36 15.12.2021
6433 Clouds 23 1019 50 10000 6.69 110 16:28 15.12.2021
6434 Clouds 24 1018 50 10000 6.17 110 15:47 15.12.2021
6435 Clouds 25 1018 47 10000 7.2 120 15:27 15.12.2021
6436 Clouds 26 1017 41 10000 6.17 120 14:29 15.12.2021
6437 Clouds 29 1018 32 10000 5.66 110 12:46 15.12.2021
6438 Clouds 27 1019 32 10000 4.12 140 10:42 15.12.2021
6439 Clouds 23 1020 43 10000 5.66 100 08:55 15.12.2021
6440 Clouds 22 1021 53 10000 6.69 110 07:25 15.12.2021
6441 Clouds 15 1019 82 10000 1.54 0 01:35 15.12.2021
6442 Clouds 16 1020 82 10000 3.09 140 23:42 14.12.2021
6443 Clouds 16 1020 88 10000 2.57 150 22:49 14.12.2021
6444 Clouds 16 1021 88 10000 3.09 90 22:24 14.12.2021
6445 Clouds 17 1022 88 10000 4.63 100 20:55 14.12.2021
6446 Clouds 18 1021 82 10000 4.63 100 19:44 14.12.2021
6447 Clouds 18 1021 82 10000 5.66 110 19:20 14.12.2021
6448 Rain 19 1020 77 10000 4.63 110 18:28 14.12.2021
6449 Rain 21 1019 64 10000 6.69 100 17:33 14.12.2021
6450 Clouds 23 1018 50 10000 5.66 90 16:40 14.12.2021
6451 Clouds 25 1018 44 10000 5.14 110 15:36 14.12.2021
6452 Clouds 26 1018 41 10000 5.66 140 13:31 14.12.2021
6453 Clouds 26 1019 41 10000 4.12 130 12:00 14.12.2021
6454 Clouds 25 1019 44 10000 5.14 120 11:24 14.12.2021
6455 Clouds 26 1020 41 10000 5.14 90 10:23 14.12.2021
6456 Clouds 26 1020 39 10000 4.63 90 09:43 14.12.2021
6457 Clouds 24 1021 38 10000 5.14 130 08:27 14.12.2021
6458 Clouds 24 1021 41 10000 5.66 120 07:43 14.12.2021
6459 Clouds 15 1020 82 10000 3.09 160 02:37 14.12.2021
6460 Clouds 16 1020 77 10000 5.14 120 22:56 13.12.2021
6461 Clouds 18 1022 72 10000 3.09 140 21:53 13.12.2021
6462 Clouds 18 1022 72 10000 4.63 130 21:32 13.12.2021
6463 Clouds 18 1022 77 10000 3.09 130 20:42 13.12.2021
6464 Clouds 18 1022 77 10000 4.12 100 19:52 13.12.2021
6465 Clouds 18 1021 77 10000 6.17 120 18:24 13.12.2021
6466 Clouds 19 1021 73 10000 6.17 100 17:26 13.12.2021
6467 Clouds 21 1019 64 10000 8.23 110 15:54 13.12.2021
6468 Clouds 23 1019 57 10000 9.26 110 15:25 13.12.2021
6469 Clouds 27 1019 44 10000 5.14 90 13:39 13.12.2021
6470 Clouds 26 1019 44 10000 6.17 120 12:46 13.12.2021
6471 Clouds 27 1020 42 10000 4.12 150 11:56 13.12.2021
6472 Clouds 25 1020 44 10000 4.63 110 11:35 13.12.2021
6473 Clouds 26 1020 44 10000 4.63 150 10:44 13.12.2021
6474 Clouds 24 1022 53 10000 4.63 110 09:29 13.12.2021
6475 Clouds 22 1022 60 10000 4.63 150 07:48 13.12.2021
6476 Clouds 17 1023 77 10000 3.6 130 05:35 13.12.2021
6477 Clouds 14 1021 94 10000 1.54 80 03:26 13.12.2021
6478 Clouds 15 1023 88 10000 3.6 110 22:23 12.12.2021
6479 Clouds 16 1024 82 10000 4.12 120 21:38 12.12.2021
6480 Clouds 16 1024 82 10000 4.12 90 19:47 12.12.2021
6481 Clouds 18 1023 72 10000 6.17 110 18:35 12.12.2021
6482 Clouds 19 1022 68 10000 6.69 110 17:26 12.12.2021
6483 Clouds 22 1021 56 10000 6.69 110 16:27 12.12.2021
6484 Clouds 23 1021 53 10000 7.2 100 15:45 12.12.2021
6485 Clouds 24 1020 50 10000 6.17 100 15:25 12.12.2021
6486 Clouds 25 1020 47 10000 7.2 100 14:34 12.12.2021
6487 Clouds 24 1020 47 10000 5.14 90 13:22 12.12.2021
6488 Clouds 25 1021 44 10000 4.12 160 12:27 12.12.2021
6489 Clouds 25 1021 44 10000 6.17 110 11:44 12.12.2021
6490 Clouds 25 1021 44 10000 6.17 110 11:44 12.12.2021
6491 Clouds 26 1021 41 10000 3.6 130 11:20 12.12.2021
6492 Clouds 25 1022 44 10000 6.17 110 10:22 12.12.2021
6493 Clouds 25 1023 41 10000 5.66 140 08:58 12.12.2021
6494 Clouds 23 1023 50 10000 5.14 160 07:32 12.12.2021
6495 Clouds 20 1023 60 10000 4.63 160 05:57 12.12.2021
6496 Clouds 17 1022 77 10000 4.12 140 04:55 12.12.2021
6497 Clouds 15 1022 88 10000 2.57 90 02:58 12.12.2021
6498 Clouds 17 1022 77 10000 2.06 140 23:31 11.12.2021
6499 Clouds 16 1023 82 10000 3.09 140 22:22 11.12.2021
6500 Clouds 17 1023 77 10000 3.09 150 21:51 11.12.2021
6501 Clouds 17 1024 77 10000 4.12 120 20:29 11.12.2021
6502 Clouds 17 1023 77 10000 5.14 110 19:21 11.12.2021
6503 Clouds 18 1023 77 10000 5.14 120 18:51 11.12.2021
6504 Clouds 18 1023 82 10000 5.14 100 18:19 11.12.2021
6505 Clouds 19 1022 77 10000 7.2 110 17:20 11.12.2021
6506 Clouds 22 1021 64 10000 8.23 110 15:52 11.12.2021
6507 Clouds 23 1020 53 10000 5.66 120 15:18 11.12.2021
6508 Clouds 26 1020 41 10000 3.09 130 12:49 11.12.2021
6509 Clouds 24 1021 50 10000 3.6 100 11:24 11.12.2021
6510 Clouds 24 1021 44 10000 6.69 100 09:45 11.12.2021
6511 Clouds 22 1022 49 10000 3.09 120 07:32 11.12.2021
6512 Clouds 14 1020 100 10000 1.03 80 02:20 11.12.2021
6513 Clouds 15 1021 94 10000 2.06 80 23:50 10.12.2021
6514 Clouds 15 1021 94 10000 2.06 80 23:18 10.12.2021
6515 Clouds 17 1022 82 10000 4.12 120 21:52 10.12.2021
6516 Clouds 18 1022 82 10000 5.14 110 20:57 10.12.2021
6517 Clouds 19 1021 77 10000 5.66 120 19:21 10.12.2021
6518 Clouds 21 1020 68 10000 6.17 110 17:54 10.12.2021
6519 Clouds 23 1019 50 10000 5.14 100 16:55 10.12.2021
6520 Clouds 25 1018 41 10000 5.66 80 15:51 10.12.2021
6521 Clouds 27 1018 36 10000 4.63 90 15:29 10.12.2021
6522 Clouds 27 1018 32 10000 4.12 80 14:59 10.12.2021
6523 Clouds 28 1018 28 10000 3.09 140 13:51 10.12.2021
6524 Clouds 28 1018 30 10000 3.6 60 13:25 10.12.2021
6525 Clouds 27 1019 34 10000 3.09 130 12:23 10.12.2021
6526 Clouds 27 1019 34 10000 2.06 0 11:28 10.12.2021
6527 Clouds 27 1020 34 10000 3.09 130 09:54 10.12.2021
6528 Clouds 25 1021 47 10000 2.06 0 08:32 10.12.2021
6529 Clouds 19 1022 68 10000 1.54 0 05:57 10.12.2021
6530 Clouds 14 1020 88 10000 3.09 70 02:48 10.12.2021
6531 Clouds 15 1020 88 10000 2.57 70 23:46 09.12.2021
6532 Clouds 16 1021 88 10000 3.6 100 22:59 09.12.2021
6533 Clouds 17 1022 82 10000 3.09 110 22:24 09.12.2021
6534 Clouds 17 1022 82 10000 4.12 120 21:49 09.12.2021
6535 Clouds 16 1019 81 10000 1.3 71 20:41 09.12.2021
6536 Clouds 18 1022 77 10000 3.09 140 20:20 09.12.2021
6537 Clouds 18 1022 77 10000 3.6 100 19:21 09.12.2021
6538 Clouds 19 1021 73 10000 4.63 90 18:35 09.12.2021
6539 Clouds 20 1021 64 10000 5.14 100 17:51 09.12.2021
6540 Clouds 21 1021 56 10000 5.14 100 17:25 09.12.2021
6541 Clouds 21 1021 56 10000 5.14 100 17:25 09.12.2021
6542 Clouds 21 1020 53 10000 4.63 90 16:53 09.12.2021
6543 Clouds 25 1019 38 10000 5.14 100 15:31 09.12.2021
6544 Clouds 24 1019 41 10000 5.66 90 14:44 09.12.2021
6545 Clouds 26 1019 39 10000 4.12 120 13:18 09.12.2021
6546 Clouds 27 1019 36 10000 4.63 120 12:34 09.12.2021
6547 Clouds 25 1020 44 10000 5.14 120 10:50 09.12.2021
6548 Clouds 24 1022 50 10000 2.57 120 08:38 09.12.2021
6549 Clouds 19 1022 68 10000 2.57 130 05:54 09.12.2021
6550 Clouds 15 1021 88 10000 2.57 140 01:52 09.12.2021
6551 Clouds 16 1022 88 10000 3.6 100 23:40 08.12.2021
6552 Clouds 16 1022 88 10000 3.6 100 23:20 08.12.2021
6553 Clouds 16 1022 82 10000 3.6 110 22:43 08.12.2021
6554 Clouds 16 1023 82 10000 3.6 120 21:39 08.12.2021
6555 Clouds 16 1023 88 10000 4.12 120 20:58 08.12.2021
6556 Clouds 17 1023 82 10000 5.14 120 19:57 08.12.2021
6557 Clouds 17 1022 82 10000 5.14 110 19:29 08.12.2021
6558 Clouds 19 1022 73 10000 5.66 100 18:30 08.12.2021
6559 Clouds 20 1021 68 10000 7.72 100 17:24 08.12.2021
6560 Clouds 24 1020 41 10000 5.66 120 15:45 08.12.2021
6561 Clouds 25 1020 36 10000 4.63 160 15:23 08.12.2021
6562 Clouds 28 1020 36 10000 3.6 150 13:40 08.12.2021
6563 Clouds 25 1021 47 10000 4.63 150 10:45 08.12.2021
6564 Clouds 24 1022 50 10000 5.14 160 10:23 08.12.2021
6565 Clouds 23 1023 50 10000 4.12 120 08:54 08.12.2021
6566 Clouds 21 1023 53 10000 2.06 0 06:52 08.12.2021
6567 Clouds 13 1021 94 10000 2.57 70 01:21 08.12.2021
6568 Clouds 13 1022 100 10000 0.51 0 23:31 07.12.2021
6569 Clouds 15 1023 94 10000 2.57 60 21:26 07.12.2021
6570 Clouds 16 1024 88 10000 4.63 110 20:30 07.12.2021
6571 Clouds 17 1024 82 10000 3.6 120 19:48 07.12.2021
6572 Clouds 19 1023 73 10000 6.17 100 18:37 07.12.2021
6573 Clouds 21 1022 60 10000 6.17 100 17:27 07.12.2021
6574 Clouds 22 1022 53 10000 5.66 110 16:57 07.12.2021
6575 Clouds 23 1022 46 10000 6.17 110 16:27 07.12.2021
6576 Clouds 26 1021 39 10000 5.14 160 14:47 07.12.2021
6577 Clouds 26 1022 44 10000 4.63 150 13:45 07.12.2021
6578 Clouds 25 1022 41 10000 5.66 110 12:27 07.12.2021
6579 Clouds 26 1022 39 10000 5.66 110 11:23 07.12.2021
6580 Clouds 25 1024 44 10000 5.66 120 09:40 07.12.2021
6581 Clouds 22 1024 53 10000 2.57 140 07:50 07.12.2021
6582 Clouds 17 1025 77 10000 3.09 120 05:54 07.12.2021
6583 Clouds 16 1024 82 10000 3.6 170 05:26 07.12.2021
6584 Clouds 16 1024 82 10000 3.6 170 05:26 07.12.2021
6585 Clouds 15 1023 94 10000 2.57 70 23:38 06.12.2021
6586 Clouds 16 1023 88 10000 2.57 80 22:41 06.12.2021
6587 Clouds 16 1024 94 10000 3.6 100 21:59 06.12.2021
6588 Clouds 17 1024 82 10000 3.6 100 21:31 06.12.2021
6589 Clouds 17 1024 88 10000 4.12 100 20:32 06.12.2021
6590 Clouds 18 1024 82 10000 5.14 100 19:25 06.12.2021
6591 Clouds 18 1024 82 10000 5.66 110 18:42 06.12.2021
6592 Clouds 20 1023 73 10000 5.66 110 17:54 06.12.2021
6593 Clouds 21 1023 68 10000 5.66 110 17:33 06.12.2021
6594 Clouds 24 1022 50 10000 7.2 120 15:52 06.12.2021
6595 Clouds 27 1021 32 10000 5.66 150 14:40 06.12.2021
6596 Clouds 28 1021 32 10000 3.6 120 13:28 06.12.2021
6597 Clouds 27 1022 36 10000 3.6 0 12:37 06.12.2021
6598 Clouds 26 1023 41 10000 6.17 100 10:28 06.12.2021
6599 Clouds 23 1024 50 10000 5.66 100 07:41 06.12.2021
6600 Clouds 14 1022 94 10000 2.57 80 02:28 06.12.2021
6601 Clouds 17 1023 88 10000 2.57 140 22:26 05.12.2021
6602 Clouds 18 1024 82 10000 3.6 140 21:25 05.12.2021
6603 Clouds 18 1024 82 10000 2.57 140 20:52 05.12.2021
6604 Clouds 18 1024 88 10000 3.6 150 20:18 05.12.2021
6605 Clouds 18 1024 88 10000 2.57 90 19:24 05.12.2021
6606 Clouds 20 1023 78 10000 5.14 100 18:29 05.12.2021
6607 Clouds 20 1023 73 10000 5.14 90 17:49 05.12.2021
6608 Clouds 21 1022 68 10000 5.14 90 17:20 05.12.2021
6609 Clouds 24 1022 47 10000 6.17 110 16:28 05.12.2021
6610 Clouds 26 1021 36 10000 4.12 140 15:59 05.12.2021